<?xml version="1.0" encoding="UTF-8" standalone="no" ?>
<gpx xmlns="http://www.topografix.com/GPX/1/1" xmlns:xsi="http://www.w3.org/2001/XMLSchema-instance" xsi:schemaLocation="http://www.topografix.com/GPX/1/1 http://www.topografix.com/GPX/1/1/gpx.xsd" version="1.1" creator="VisuGPX - https://www.visugpx.com">
  <metadata>
    <name>15-SEP-19 04:24:06 PM</name>
  </metadata>
  <trk>
    <name><![CDATA[15-SEP-19 04:24:06 PM]]></name>
    <trkseg>
      <trkpt lat="45.60504" lon="4.81725">
        <ele>182.31</ele>
        <time>2019-09-15T11:47:33Z</time>
      </trkpt>
      <trkpt lat="45.60504" lon="4.81725">
        <ele>187.11</ele>
        <time>2019-09-15T11:47:34Z</time>
      </trkpt>
      <trkpt lat="45.60504" lon="4.81725">
        <ele>185.67</ele>
        <time>2019-09-15T11:47:35Z</time>
      </trkpt>
      <trkpt lat="45.60504" lon="4.81725">
        <ele>186.15</ele>
        <time>2019-09-15T11:47:59Z</time>
      </trkpt>
      <trkpt lat="45.60502" lon="4.81722">
        <ele>188.08</ele>
        <time>2019-09-15T11:48:26Z</time>
      </trkpt>
      <trkpt lat="45.60502" lon="4.81719">
        <ele>187.11</ele>
        <time>2019-09-15T11:48:28Z</time>
      </trkpt>
      <trkpt lat="45.60504" lon="4.81715">
        <ele>187.11</ele>
        <time>2019-09-15T11:48:30Z</time>
      </trkpt>
      <trkpt lat="45.60513" lon="4.81699">
        <ele>185.67</ele>
        <time>2019-09-15T11:48:33Z</time>
      </trkpt>
      <trkpt lat="45.60525" lon="4.81678">
        <ele>183.75</ele>
        <time>2019-09-15T11:48:36Z</time>
      </trkpt>
      <trkpt lat="45.60539" lon="4.81655">
        <ele>184.23</ele>
        <time>2019-09-15T11:48:41Z</time>
      </trkpt>
      <trkpt lat="45.60538" lon="4.81651">
        <ele>183.75</ele>
        <time>2019-09-15T11:48:42Z</time>
      </trkpt>
      <trkpt lat="45.60536" lon="4.81646">
        <ele>183.75</ele>
        <time>2019-09-15T11:48:43Z</time>
      </trkpt>
      <trkpt lat="45.60526" lon="4.81628">
        <ele>182.31</ele>
        <time>2019-09-15T11:48:46Z</time>
      </trkpt>
      <trkpt lat="45.60509" lon="4.81596">
        <ele>180.87</ele>
        <time>2019-09-15T11:48:50Z</time>
      </trkpt>
      <trkpt lat="45.60505" lon="4.81587">
        <ele>181.35</ele>
        <time>2019-09-15T11:48:51Z</time>
      </trkpt>
      <trkpt lat="45.605" lon="4.81581">
        <ele>178.46</ele>
        <time>2019-09-15T11:48:52Z</time>
      </trkpt>
      <trkpt lat="45.60497" lon="4.81578">
        <ele>178.46</ele>
        <time>2019-09-15T11:48:53Z</time>
      </trkpt>
      <trkpt lat="45.60494" lon="4.81579">
        <ele>179.42</ele>
        <time>2019-09-15T11:48:54Z</time>
      </trkpt>
      <trkpt lat="45.60491" lon="4.81583">
        <ele>179.9</ele>
        <time>2019-09-15T11:48:55Z</time>
      </trkpt>
      <trkpt lat="45.60488" lon="4.81588">
        <ele>178.94</ele>
        <time>2019-09-15T11:48:56Z</time>
      </trkpt>
      <trkpt lat="45.60484" lon="4.81594">
        <ele>178.94</ele>
        <time>2019-09-15T11:48:57Z</time>
      </trkpt>
      <trkpt lat="45.60478" lon="4.81605">
        <ele>182.31</ele>
        <time>2019-09-15T11:48:59Z</time>
      </trkpt>
      <trkpt lat="45.60461" lon="4.81639">
        <ele>180.38</ele>
        <time>2019-09-15T11:49:05Z</time>
      </trkpt>
      <trkpt lat="45.60441" lon="4.81682">
        <ele>181.35</ele>
        <time>2019-09-15T11:49:13Z</time>
      </trkpt>
      <trkpt lat="45.6042" lon="4.81727">
        <ele>177.98</ele>
        <time>2019-09-15T11:49:20Z</time>
      </trkpt>
      <trkpt lat="45.60417" lon="4.81734">
        <ele>181.83</ele>
        <time>2019-09-15T11:49:21Z</time>
      </trkpt>
      <trkpt lat="45.60402" lon="4.81773">
        <ele>181.35</ele>
        <time>2019-09-15T11:49:27Z</time>
      </trkpt>
      <trkpt lat="45.60378" lon="4.81844">
        <ele>180.87</ele>
        <time>2019-09-15T11:49:37Z</time>
      </trkpt>
      <trkpt lat="45.60373" lon="4.81856">
        <ele>180.87</ele>
        <time>2019-09-15T11:49:39Z</time>
      </trkpt>
      <trkpt lat="45.60369" lon="4.81862">
        <ele>180.87</ele>
        <time>2019-09-15T11:49:40Z</time>
      </trkpt>
      <trkpt lat="45.60366" lon="4.81868">
        <ele>180.38</ele>
        <time>2019-09-15T11:49:41Z</time>
      </trkpt>
      <trkpt lat="45.60361" lon="4.81873">
        <ele>180.38</ele>
        <time>2019-09-15T11:49:42Z</time>
      </trkpt>
      <trkpt lat="45.60356" lon="4.81878">
        <ele>180.38</ele>
        <time>2019-09-15T11:49:43Z</time>
      </trkpt>
      <trkpt lat="45.6035" lon="4.81881">
        <ele>180.38</ele>
        <time>2019-09-15T11:49:44Z</time>
      </trkpt>
      <trkpt lat="45.60344" lon="4.81884">
        <ele>179.9</ele>
        <time>2019-09-15T11:49:45Z</time>
      </trkpt>
      <trkpt lat="45.60338" lon="4.81886">
        <ele>180.38</ele>
        <time>2019-09-15T11:49:46Z</time>
      </trkpt>
      <trkpt lat="45.60331" lon="4.81887">
        <ele>179.9</ele>
        <time>2019-09-15T11:49:47Z</time>
      </trkpt>
      <trkpt lat="45.60325" lon="4.81887">
        <ele>178.94</ele>
        <time>2019-09-15T11:49:48Z</time>
      </trkpt>
      <trkpt lat="45.6032" lon="4.81886">
        <ele>179.42</ele>
        <time>2019-09-15T11:49:49Z</time>
      </trkpt>
      <trkpt lat="45.60316" lon="4.81885">
        <ele>178.46</ele>
        <time>2019-09-15T11:49:50Z</time>
      </trkpt>
      <trkpt lat="45.6031" lon="4.81886">
        <ele>178.94</ele>
        <time>2019-09-15T11:49:52Z</time>
      </trkpt>
      <trkpt lat="45.60307" lon="4.8189">
        <ele>179.9</ele>
        <time>2019-09-15T11:49:53Z</time>
      </trkpt>
      <trkpt lat="45.60304" lon="4.81895">
        <ele>179.9</ele>
        <time>2019-09-15T11:49:54Z</time>
      </trkpt>
      <trkpt lat="45.60299" lon="4.819">
        <ele>179.42</ele>
        <time>2019-09-15T11:49:55Z</time>
      </trkpt>
      <trkpt lat="45.60294" lon="4.81903">
        <ele>178.46</ele>
        <time>2019-09-15T11:49:56Z</time>
      </trkpt>
      <trkpt lat="45.60288" lon="4.81908">
        <ele>178.46</ele>
        <time>2019-09-15T11:49:57Z</time>
      </trkpt>
      <trkpt lat="45.60267" lon="4.81925">
        <ele>176.54</ele>
        <time>2019-09-15T11:50:01Z</time>
      </trkpt>
      <trkpt lat="45.60245" lon="4.8195">
        <ele>174.14</ele>
        <time>2019-09-15T11:50:05Z</time>
      </trkpt>
      <trkpt lat="45.60239" lon="4.81956">
        <ele>172.69</ele>
        <time>2019-09-15T11:50:06Z</time>
      </trkpt>
      <trkpt lat="45.60231" lon="4.81962">
        <ele>173.17</ele>
        <time>2019-09-15T11:50:07Z</time>
      </trkpt>
      <trkpt lat="45.60206" lon="4.81983">
        <ele>170.29</ele>
        <time>2019-09-15T11:50:11Z</time>
      </trkpt>
      <trkpt lat="45.60173" lon="4.8201">
        <ele>168.37</ele>
        <time>2019-09-15T11:50:18Z</time>
      </trkpt>
      <trkpt lat="45.60071" lon="4.82069">
        <ele>169.33</ele>
        <time>2019-09-15T11:50:34Z</time>
      </trkpt>
      <trkpt lat="45.59966" lon="4.82137">
        <ele>169.33</ele>
        <time>2019-09-15T11:50:52Z</time>
      </trkpt>
      <trkpt lat="45.59908" lon="4.82156">
        <ele>172.69</ele>
        <time>2019-09-15T11:51:03Z</time>
      </trkpt>
      <trkpt lat="45.59866" lon="4.82163">
        <ele>174.14</ele>
        <time>2019-09-15T11:51:12Z</time>
      </trkpt>
      <trkpt lat="45.59805" lon="4.82184">
        <ele>177.02</ele>
        <time>2019-09-15T11:51:24Z</time>
      </trkpt>
      <trkpt lat="45.59781" lon="4.8219">
        <ele>178.46</ele>
        <time>2019-09-15T11:51:30Z</time>
      </trkpt>
      <trkpt lat="45.59778" lon="4.82194">
        <ele>177.98</ele>
        <time>2019-09-15T11:51:31Z</time>
      </trkpt>
      <trkpt lat="45.59777" lon="4.82199">
        <ele>178.46</ele>
        <time>2019-09-15T11:51:32Z</time>
      </trkpt>
      <trkpt lat="45.59777" lon="4.82205">
        <ele>178.94</ele>
        <time>2019-09-15T11:51:33Z</time>
      </trkpt>
      <trkpt lat="45.59778" lon="4.8221">
        <ele>178.94</ele>
        <time>2019-09-15T11:51:34Z</time>
      </trkpt>
      <trkpt lat="45.59779" lon="4.82216">
        <ele>178.94</ele>
        <time>2019-09-15T11:51:35Z</time>
      </trkpt>
      <trkpt lat="45.59786" lon="4.82249">
        <ele>179.42</ele>
        <time>2019-09-15T11:51:40Z</time>
      </trkpt>
      <trkpt lat="45.59794" lon="4.82293">
        <ele>182.79</ele>
        <time>2019-09-15T11:51:48Z</time>
      </trkpt>
      <trkpt lat="45.59795" lon="4.82306">
        <ele>184.23</ele>
        <time>2019-09-15T11:51:51Z</time>
      </trkpt>
      <trkpt lat="45.59799" lon="4.82335">
        <ele>187.59</ele>
        <time>2019-09-15T11:51:57Z</time>
      </trkpt>
      <trkpt lat="45.59803" lon="4.82369">
        <ele>190.96</ele>
        <time>2019-09-15T11:52:04Z</time>
      </trkpt>
      <trkpt lat="45.59808" lon="4.8241">
        <ele>190.48</ele>
        <time>2019-09-15T11:52:11Z</time>
      </trkpt>
      <trkpt lat="45.59808" lon="4.82419">
        <ele>190</ele>
        <time>2019-09-15T11:52:12Z</time>
      </trkpt>
      <trkpt lat="45.59809" lon="4.82428">
        <ele>189.52</ele>
        <time>2019-09-15T11:52:13Z</time>
      </trkpt>
      <trkpt lat="45.5981" lon="4.82438">
        <ele>189.04</ele>
        <time>2019-09-15T11:52:14Z</time>
      </trkpt>
      <trkpt lat="45.59812" lon="4.82448">
        <ele>188.56</ele>
        <time>2019-09-15T11:52:15Z</time>
      </trkpt>
      <trkpt lat="45.59818" lon="4.82484">
        <ele>189.04</ele>
        <time>2019-09-15T11:52:19Z</time>
      </trkpt>
      <trkpt lat="45.5982" lon="4.82492">
        <ele>189.04</ele>
        <time>2019-09-15T11:52:20Z</time>
      </trkpt>
      <trkpt lat="45.59848" lon="4.82588">
        <ele>191.44</ele>
        <time>2019-09-15T11:52:33Z</time>
      </trkpt>
      <trkpt lat="45.59856" lon="4.82612">
        <ele>192.4</ele>
        <time>2019-09-15T11:52:37Z</time>
      </trkpt>
      <trkpt lat="45.59858" lon="4.82619">
        <ele>192.4</ele>
        <time>2019-09-15T11:52:38Z</time>
      </trkpt>
      <trkpt lat="45.5986" lon="4.82627">
        <ele>192.88</ele>
        <time>2019-09-15T11:52:39Z</time>
      </trkpt>
      <trkpt lat="45.59863" lon="4.82636">
        <ele>192.88</ele>
        <time>2019-09-15T11:52:40Z</time>
      </trkpt>
      <trkpt lat="45.59865" lon="4.82644">
        <ele>192.4</ele>
        <time>2019-09-15T11:52:41Z</time>
      </trkpt>
      <trkpt lat="45.59875" lon="4.82679">
        <ele>193.36</ele>
        <time>2019-09-15T11:52:46Z</time>
      </trkpt>
      <trkpt lat="45.59874" lon="4.82684">
        <ele>193.84</ele>
        <time>2019-09-15T11:52:47Z</time>
      </trkpt>
      <trkpt lat="45.59871" lon="4.82688">
        <ele>193.36</ele>
        <time>2019-09-15T11:52:48Z</time>
      </trkpt>
      <trkpt lat="45.59866" lon="4.82691">
        <ele>192.88</ele>
        <time>2019-09-15T11:52:49Z</time>
      </trkpt>
      <trkpt lat="45.59859" lon="4.82692">
        <ele>192.4</ele>
        <time>2019-09-15T11:52:50Z</time>
      </trkpt>
      <trkpt lat="45.59853" lon="4.82693">
        <ele>192.4</ele>
        <time>2019-09-15T11:52:51Z</time>
      </trkpt>
      <trkpt lat="45.59764" lon="4.82723">
        <ele>190.96</ele>
        <time>2019-09-15T11:53:05Z</time>
      </trkpt>
      <trkpt lat="45.5974" lon="4.82728">
        <ele>191.44</ele>
        <time>2019-09-15T11:53:09Z</time>
      </trkpt>
      <trkpt lat="45.59657" lon="4.8274">
        <ele>191.92</ele>
        <time>2019-09-15T11:53:23Z</time>
      </trkpt>
      <trkpt lat="45.59573" lon="4.82759">
        <ele>192.4</ele>
        <time>2019-09-15T11:53:37Z</time>
      </trkpt>
      <trkpt lat="45.59531" lon="4.82777">
        <ele>189.52</ele>
        <time>2019-09-15T11:53:43Z</time>
      </trkpt>
      <trkpt lat="45.59485" lon="4.82796">
        <ele>188.08</ele>
        <time>2019-09-15T11:53:49Z</time>
      </trkpt>
      <trkpt lat="45.5941" lon="4.82827">
        <ele>187.11</ele>
        <time>2019-09-15T11:54:00Z</time>
      </trkpt>
      <trkpt lat="45.59406" lon="4.82831">
        <ele>187.11</ele>
        <time>2019-09-15T11:54:01Z</time>
      </trkpt>
      <trkpt lat="45.59404" lon="4.82836">
        <ele>187.11</ele>
        <time>2019-09-15T11:54:02Z</time>
      </trkpt>
      <trkpt lat="45.59403" lon="4.82842">
        <ele>186.63</ele>
        <time>2019-09-15T11:54:03Z</time>
      </trkpt>
      <trkpt lat="45.59404" lon="4.82849">
        <ele>186.63</ele>
        <time>2019-09-15T11:54:04Z</time>
      </trkpt>
      <trkpt lat="45.59406" lon="4.82858">
        <ele>186.63</ele>
        <time>2019-09-15T11:54:05Z</time>
      </trkpt>
      <trkpt lat="45.59408" lon="4.82866">
        <ele>186.63</ele>
        <time>2019-09-15T11:54:06Z</time>
      </trkpt>
      <trkpt lat="45.59411" lon="4.82875">
        <ele>186.15</ele>
        <time>2019-09-15T11:54:07Z</time>
      </trkpt>
      <trkpt lat="45.59413" lon="4.82884">
        <ele>186.15</ele>
        <time>2019-09-15T11:54:08Z</time>
      </trkpt>
      <trkpt lat="45.59421" lon="4.82911">
        <ele>185.67</ele>
        <time>2019-09-15T11:54:11Z</time>
      </trkpt>
      <trkpt lat="45.59423" lon="4.8292">
        <ele>185.19</ele>
        <time>2019-09-15T11:54:12Z</time>
      </trkpt>
      <trkpt lat="45.59437" lon="4.82972">
        <ele>184.71</ele>
        <time>2019-09-15T11:54:18Z</time>
      </trkpt>
      <trkpt lat="45.59439" lon="4.82981">
        <ele>184.71</ele>
        <time>2019-09-15T11:54:19Z</time>
      </trkpt>
      <trkpt lat="45.5947" lon="4.83097">
        <ele>184.23</ele>
        <time>2019-09-15T11:54:32Z</time>
      </trkpt>
      <trkpt lat="45.59509" lon="4.83259">
        <ele>183.75</ele>
        <time>2019-09-15T11:54:50Z</time>
      </trkpt>
      <trkpt lat="45.59516" lon="4.83304">
        <ele>184.23</ele>
        <time>2019-09-15T11:54:57Z</time>
      </trkpt>
      <trkpt lat="45.59513" lon="4.83307">
        <ele>183.75</ele>
        <time>2019-09-15T11:54:58Z</time>
      </trkpt>
      <trkpt lat="45.59509" lon="4.8331">
        <ele>184.71</ele>
        <time>2019-09-15T11:54:59Z</time>
      </trkpt>
      <trkpt lat="45.59441" lon="4.83351">
        <ele>186.15</ele>
        <time>2019-09-15T11:55:13Z</time>
      </trkpt>
      <trkpt lat="45.594" lon="4.83375">
        <ele>187.59</ele>
        <time>2019-09-15T11:55:21Z</time>
      </trkpt>
      <trkpt lat="45.59332" lon="4.83399">
        <ele>189.04</ele>
        <time>2019-09-15T11:55:33Z</time>
      </trkpt>
      <trkpt lat="45.59326" lon="4.83399">
        <ele>190</ele>
        <time>2019-09-15T11:55:34Z</time>
      </trkpt>
      <trkpt lat="45.5932" lon="4.83398">
        <ele>190</ele>
        <time>2019-09-15T11:55:35Z</time>
      </trkpt>
      <trkpt lat="45.59314" lon="4.83397">
        <ele>190</ele>
        <time>2019-09-15T11:55:36Z</time>
      </trkpt>
      <trkpt lat="45.59308" lon="4.83395">
        <ele>190.48</ele>
        <time>2019-09-15T11:55:37Z</time>
      </trkpt>
      <trkpt lat="45.59303" lon="4.83393">
        <ele>190.48</ele>
        <time>2019-09-15T11:55:38Z</time>
      </trkpt>
      <trkpt lat="45.59297" lon="4.8339">
        <ele>190.96</ele>
        <time>2019-09-15T11:55:39Z</time>
      </trkpt>
      <trkpt lat="45.59249" lon="4.83351">
        <ele>192.88</ele>
        <time>2019-09-15T11:55:49Z</time>
      </trkpt>
      <trkpt lat="45.59217" lon="4.83313">
        <ele>196.25</ele>
        <time>2019-09-15T11:55:57Z</time>
      </trkpt>
      <trkpt lat="45.59186" lon="4.83294">
        <ele>199.61</ele>
        <time>2019-09-15T11:56:03Z</time>
      </trkpt>
      <trkpt lat="45.5914" lon="4.83273">
        <ele>202.49</ele>
        <time>2019-09-15T11:56:13Z</time>
      </trkpt>
      <trkpt lat="45.59111" lon="4.83264">
        <ele>204.42</ele>
        <time>2019-09-15T11:56:19Z</time>
      </trkpt>
      <trkpt lat="45.59107" lon="4.83261">
        <ele>204.42</ele>
        <time>2019-09-15T11:56:20Z</time>
      </trkpt>
      <trkpt lat="45.59103" lon="4.83259">
        <ele>205.38</ele>
        <time>2019-09-15T11:56:21Z</time>
      </trkpt>
      <trkpt lat="45.59091" lon="4.83252">
        <ele>206.34</ele>
        <time>2019-09-15T11:56:24Z</time>
      </trkpt>
      <trkpt lat="45.59055" lon="4.83243">
        <ele>210.19</ele>
        <time>2019-09-15T11:56:32Z</time>
      </trkpt>
      <trkpt lat="45.59051" lon="4.83241">
        <ele>210.19</ele>
        <time>2019-09-15T11:56:33Z</time>
      </trkpt>
      <trkpt lat="45.59038" lon="4.83236">
        <ele>211.63</ele>
        <time>2019-09-15T11:56:36Z</time>
      </trkpt>
      <trkpt lat="45.59025" lon="4.83231">
        <ele>212.59</ele>
        <time>2019-09-15T11:56:39Z</time>
      </trkpt>
      <trkpt lat="45.58999" lon="4.83223">
        <ele>214.51</ele>
        <time>2019-09-15T11:56:45Z</time>
      </trkpt>
      <trkpt lat="45.58989" lon="4.8322">
        <ele>215.47</ele>
        <time>2019-09-15T11:56:47Z</time>
      </trkpt>
      <trkpt lat="45.58968" lon="4.83214">
        <ele>216.91</ele>
        <time>2019-09-15T11:56:52Z</time>
      </trkpt>
      <trkpt lat="45.58956" lon="4.83209">
        <ele>217.4</ele>
        <time>2019-09-15T11:56:55Z</time>
      </trkpt>
      <trkpt lat="45.58952" lon="4.83207">
        <ele>217.4</ele>
        <time>2019-09-15T11:56:56Z</time>
      </trkpt>
      <trkpt lat="45.58947" lon="4.83204">
        <ele>217.88</ele>
        <time>2019-09-15T11:56:57Z</time>
      </trkpt>
      <trkpt lat="45.58921" lon="4.83191">
        <ele>218.84</ele>
        <time>2019-09-15T11:57:03Z</time>
      </trkpt>
      <trkpt lat="45.58902" lon="4.83171">
        <ele>218.84</ele>
        <time>2019-09-15T11:57:08Z</time>
      </trkpt>
      <trkpt lat="45.58893" lon="4.83154">
        <ele>218.84</ele>
        <time>2019-09-15T11:57:12Z</time>
      </trkpt>
      <trkpt lat="45.58891" lon="4.83148">
        <ele>218.84</ele>
        <time>2019-09-15T11:57:13Z</time>
      </trkpt>
      <trkpt lat="45.58868" lon="4.83056">
        <ele>219.32</ele>
        <time>2019-09-15T11:57:25Z</time>
      </trkpt>
      <trkpt lat="45.58851" lon="4.82946">
        <ele>219.32</ele>
        <time>2019-09-15T11:57:39Z</time>
      </trkpt>
      <trkpt lat="45.5885" lon="4.82938">
        <ele>218.84</ele>
        <time>2019-09-15T11:57:40Z</time>
      </trkpt>
      <trkpt lat="45.58847" lon="4.82921">
        <ele>218.36</ele>
        <time>2019-09-15T11:57:42Z</time>
      </trkpt>
      <trkpt lat="45.58843" lon="4.82913">
        <ele>217.88</ele>
        <time>2019-09-15T11:57:43Z</time>
      </trkpt>
      <trkpt lat="45.58837" lon="4.82909">
        <ele>217.88</ele>
        <time>2019-09-15T11:57:44Z</time>
      </trkpt>
      <trkpt lat="45.5883" lon="4.82907">
        <ele>217.88</ele>
        <time>2019-09-15T11:57:45Z</time>
      </trkpt>
      <trkpt lat="45.58824" lon="4.82907">
        <ele>217.88</ele>
        <time>2019-09-15T11:57:46Z</time>
      </trkpt>
      <trkpt lat="45.58797" lon="4.82905">
        <ele>216.91</ele>
        <time>2019-09-15T11:57:50Z</time>
      </trkpt>
      <trkpt lat="45.58793" lon="4.82901">
        <ele>216.43</ele>
        <time>2019-09-15T11:57:51Z</time>
      </trkpt>
      <trkpt lat="45.58791" lon="4.82894">
        <ele>216.43</ele>
        <time>2019-09-15T11:57:52Z</time>
      </trkpt>
      <trkpt lat="45.5879" lon="4.82885">
        <ele>216.43</ele>
        <time>2019-09-15T11:57:53Z</time>
      </trkpt>
      <trkpt lat="45.5879" lon="4.82876">
        <ele>216.43</ele>
        <time>2019-09-15T11:57:54Z</time>
      </trkpt>
      <trkpt lat="45.58769" lon="4.82736">
        <ele>216.91</ele>
        <time>2019-09-15T11:58:09Z</time>
      </trkpt>
      <trkpt lat="45.58757" lon="4.82687">
        <ele>218.84</ele>
        <time>2019-09-15T11:58:15Z</time>
      </trkpt>
      <trkpt lat="45.58746" lon="4.82548">
        <ele>216.43</ele>
        <time>2019-09-15T11:58:30Z</time>
      </trkpt>
      <trkpt lat="45.58746" lon="4.82468">
        <ele>213.07</ele>
        <time>2019-09-15T11:58:38Z</time>
      </trkpt>
      <trkpt lat="45.58747" lon="4.82456">
        <ele>212.59</ele>
        <time>2019-09-15T11:58:39Z</time>
      </trkpt>
      <trkpt lat="45.58746" lon="4.82379">
        <ele>199.13</ele>
        <time>2019-09-15T11:58:45Z</time>
      </trkpt>
      <trkpt lat="45.58746" lon="4.82367">
        <ele>214.51</ele>
        <time>2019-09-15T11:58:46Z</time>
      </trkpt>
      <trkpt lat="45.58747" lon="4.82355">
        <ele>210.67</ele>
        <time>2019-09-15T11:58:47Z</time>
      </trkpt>
      <trkpt lat="45.58755" lon="4.82258">
        <ele>212.59</ele>
        <time>2019-09-15T11:58:56Z</time>
      </trkpt>
      <trkpt lat="45.58773" lon="4.82166">
        <ele>209.7</ele>
        <time>2019-09-15T11:59:05Z</time>
      </trkpt>
      <trkpt lat="45.58785" lon="4.82097">
        <ele>205.86</ele>
        <time>2019-09-15T11:59:10Z</time>
      </trkpt>
      <trkpt lat="45.58791" lon="4.82018">
        <ele>202.98</ele>
        <time>2019-09-15T11:59:15Z</time>
      </trkpt>
      <trkpt lat="45.58793" lon="4.81939">
        <ele>201.53</ele>
        <time>2019-09-15T11:59:21Z</time>
      </trkpt>
      <trkpt lat="45.58792" lon="4.81932">
        <ele>201.05</ele>
        <time>2019-09-15T11:59:22Z</time>
      </trkpt>
      <trkpt lat="45.58789" lon="4.81926">
        <ele>201.05</ele>
        <time>2019-09-15T11:59:23Z</time>
      </trkpt>
      <trkpt lat="45.58785" lon="4.81922">
        <ele>201.53</ele>
        <time>2019-09-15T11:59:24Z</time>
      </trkpt>
      <trkpt lat="45.5878" lon="4.81919">
        <ele>201.53</ele>
        <time>2019-09-15T11:59:25Z</time>
      </trkpt>
      <trkpt lat="45.58774" lon="4.81915">
        <ele>201.05</ele>
        <time>2019-09-15T11:59:26Z</time>
      </trkpt>
      <trkpt lat="45.58769" lon="4.81911">
        <ele>201.53</ele>
        <time>2019-09-15T11:59:27Z</time>
      </trkpt>
      <trkpt lat="45.58721" lon="4.81874">
        <ele>201.05</ele>
        <time>2019-09-15T11:59:37Z</time>
      </trkpt>
      <trkpt lat="45.58715" lon="4.81872">
        <ele>201.53</ele>
        <time>2019-09-15T11:59:38Z</time>
      </trkpt>
      <trkpt lat="45.58709" lon="4.81872">
        <ele>200.57</ele>
        <time>2019-09-15T11:59:39Z</time>
      </trkpt>
      <trkpt lat="45.58702" lon="4.81872">
        <ele>201.53</ele>
        <time>2019-09-15T11:59:40Z</time>
      </trkpt>
      <trkpt lat="45.58695" lon="4.81874">
        <ele>200.57</ele>
        <time>2019-09-15T11:59:41Z</time>
      </trkpt>
      <trkpt lat="45.58674" lon="4.8188">
        <ele>199.61</ele>
        <time>2019-09-15T11:59:44Z</time>
      </trkpt>
      <trkpt lat="45.58668" lon="4.8188">
        <ele>200.09</ele>
        <time>2019-09-15T11:59:45Z</time>
      </trkpt>
      <trkpt lat="45.58661" lon="4.8188">
        <ele>199.61</ele>
        <time>2019-09-15T11:59:46Z</time>
      </trkpt>
      <trkpt lat="45.58634" lon="4.81884">
        <ele>198.17</ele>
        <time>2019-09-15T11:59:51Z</time>
      </trkpt>
      <trkpt lat="45.58629" lon="4.81886">
        <ele>198.65</ele>
        <time>2019-09-15T11:59:52Z</time>
      </trkpt>
      <trkpt lat="45.58623" lon="4.81889">
        <ele>198.17</ele>
        <time>2019-09-15T11:59:53Z</time>
      </trkpt>
      <trkpt lat="45.58618" lon="4.81894">
        <ele>198.17</ele>
        <time>2019-09-15T11:59:54Z</time>
      </trkpt>
      <trkpt lat="45.58613" lon="4.819">
        <ele>197.21</ele>
        <time>2019-09-15T11:59:55Z</time>
      </trkpt>
      <trkpt lat="45.58608" lon="4.81907">
        <ele>195.77</ele>
        <time>2019-09-15T11:59:56Z</time>
      </trkpt>
      <trkpt lat="45.58603" lon="4.81915">
        <ele>195.77</ele>
        <time>2019-09-15T11:59:57Z</time>
      </trkpt>
      <trkpt lat="45.58579" lon="4.81944">
        <ele>192.88</ele>
        <time>2019-09-15T12:00:01Z</time>
      </trkpt>
      <trkpt lat="45.58572" lon="4.81945">
        <ele>191.92</ele>
        <time>2019-09-15T12:00:02Z</time>
      </trkpt>
      <trkpt lat="45.58565" lon="4.81941">
        <ele>191.44</ele>
        <time>2019-09-15T12:00:03Z</time>
      </trkpt>
      <trkpt lat="45.5856" lon="4.81935">
        <ele>191.44</ele>
        <time>2019-09-15T12:00:04Z</time>
      </trkpt>
      <trkpt lat="45.58555" lon="4.81927">
        <ele>191.44</ele>
        <time>2019-09-15T12:00:05Z</time>
      </trkpt>
      <trkpt lat="45.58551" lon="4.81921">
        <ele>190.96</ele>
        <time>2019-09-15T12:00:06Z</time>
      </trkpt>
      <trkpt lat="45.58546" lon="4.81915">
        <ele>191.44</ele>
        <time>2019-09-15T12:00:07Z</time>
      </trkpt>
      <trkpt lat="45.58542" lon="4.8191">
        <ele>190.96</ele>
        <time>2019-09-15T12:00:08Z</time>
      </trkpt>
      <trkpt lat="45.58537" lon="4.81905">
        <ele>191.44</ele>
        <time>2019-09-15T12:00:09Z</time>
      </trkpt>
      <trkpt lat="45.58533" lon="4.819">
        <ele>190.96</ele>
        <time>2019-09-15T12:00:10Z</time>
      </trkpt>
      <trkpt lat="45.58526" lon="4.8189">
        <ele>191.92</ele>
        <time>2019-09-15T12:00:12Z</time>
      </trkpt>
      <trkpt lat="45.58523" lon="4.81884">
        <ele>192.4</ele>
        <time>2019-09-15T12:00:13Z</time>
      </trkpt>
      <trkpt lat="45.58519" lon="4.81879">
        <ele>192.88</ele>
        <time>2019-09-15T12:00:14Z</time>
      </trkpt>
      <trkpt lat="45.58515" lon="4.81874">
        <ele>192.88</ele>
        <time>2019-09-15T12:00:15Z</time>
      </trkpt>
      <trkpt lat="45.58511" lon="4.8187">
        <ele>193.84</ele>
        <time>2019-09-15T12:00:16Z</time>
      </trkpt>
      <trkpt lat="45.58507" lon="4.81866">
        <ele>193.84</ele>
        <time>2019-09-15T12:00:17Z</time>
      </trkpt>
      <trkpt lat="45.58503" lon="4.81862">
        <ele>193.84</ele>
        <time>2019-09-15T12:00:18Z</time>
      </trkpt>
      <trkpt lat="45.58476" lon="4.81831">
        <ele>197.21</ele>
        <time>2019-09-15T12:00:25Z</time>
      </trkpt>
      <trkpt lat="45.58456" lon="4.8181">
        <ele>198.17</ele>
        <time>2019-09-15T12:00:30Z</time>
      </trkpt>
      <trkpt lat="45.58451" lon="4.81807">
        <ele>199.13</ele>
        <time>2019-09-15T12:00:31Z</time>
      </trkpt>
      <trkpt lat="45.58379" lon="4.81784">
        <ele>202.49</ele>
        <time>2019-09-15T12:00:45Z</time>
      </trkpt>
      <trkpt lat="45.58371" lon="4.81782">
        <ele>202.49</ele>
        <time>2019-09-15T12:00:47Z</time>
      </trkpt>
      <trkpt lat="45.58361" lon="4.81779">
        <ele>202.49</ele>
        <time>2019-09-15T12:00:50Z</time>
      </trkpt>
      <trkpt lat="45.5836" lon="4.81775">
        <ele>202.98</ele>
        <time>2019-09-15T12:00:51Z</time>
      </trkpt>
      <trkpt lat="45.58361" lon="4.8177">
        <ele>202.49</ele>
        <time>2019-09-15T12:00:52Z</time>
      </trkpt>
      <trkpt lat="45.58364" lon="4.81764">
        <ele>202.01</ele>
        <time>2019-09-15T12:00:53Z</time>
      </trkpt>
      <trkpt lat="45.58366" lon="4.81757">
        <ele>201.53</ele>
        <time>2019-09-15T12:00:54Z</time>
      </trkpt>
      <trkpt lat="45.5838" lon="4.81725">
        <ele>200.09</ele>
        <time>2019-09-15T12:00:58Z</time>
      </trkpt>
      <trkpt lat="45.58388" lon="4.81705">
        <ele>198.65</ele>
        <time>2019-09-15T12:01:00Z</time>
      </trkpt>
      <trkpt lat="45.5841" lon="4.8165">
        <ele>194.8</ele>
        <time>2019-09-15T12:01:05Z</time>
      </trkpt>
      <trkpt lat="45.5845" lon="4.81545">
        <ele>191.92</ele>
        <time>2019-09-15T12:01:14Z</time>
      </trkpt>
      <trkpt lat="45.58459" lon="4.81524">
        <ele>191.44</ele>
        <time>2019-09-15T12:01:16Z</time>
      </trkpt>
      <trkpt lat="45.58466" lon="4.81516">
        <ele>190.96</ele>
        <time>2019-09-15T12:01:17Z</time>
      </trkpt>
      <trkpt lat="45.58473" lon="4.81509">
        <ele>190</ele>
        <time>2019-09-15T12:01:18Z</time>
      </trkpt>
      <trkpt lat="45.58482" lon="4.81505">
        <ele>190</ele>
        <time>2019-09-15T12:01:19Z</time>
      </trkpt>
      <trkpt lat="45.5849" lon="4.815">
        <ele>190</ele>
        <time>2019-09-15T12:01:20Z</time>
      </trkpt>
      <trkpt lat="45.58555" lon="4.81466">
        <ele>186.63</ele>
        <time>2019-09-15T12:01:29Z</time>
      </trkpt>
      <trkpt lat="45.5856" lon="4.81462">
        <ele>186.63</ele>
        <time>2019-09-15T12:01:30Z</time>
      </trkpt>
      <trkpt lat="45.58564" lon="4.81455">
        <ele>186.15</ele>
        <time>2019-09-15T12:01:31Z</time>
      </trkpt>
      <trkpt lat="45.58565" lon="4.81447">
        <ele>185.67</ele>
        <time>2019-09-15T12:01:32Z</time>
      </trkpt>
      <trkpt lat="45.58565" lon="4.81439">
        <ele>186.15</ele>
        <time>2019-09-15T12:01:33Z</time>
      </trkpt>
      <trkpt lat="45.58562" lon="4.81431">
        <ele>186.15</ele>
        <time>2019-09-15T12:01:34Z</time>
      </trkpt>
      <trkpt lat="45.58559" lon="4.81424">
        <ele>187.11</ele>
        <time>2019-09-15T12:01:35Z</time>
      </trkpt>
      <trkpt lat="45.58556" lon="4.81416">
        <ele>186.63</ele>
        <time>2019-09-15T12:01:36Z</time>
      </trkpt>
      <trkpt lat="45.58513" lon="4.81292">
        <ele>188.08</ele>
        <time>2019-09-15T12:01:52Z</time>
      </trkpt>
      <trkpt lat="45.58486" lon="4.8121">
        <ele>184.71</ele>
        <time>2019-09-15T12:02:02Z</time>
      </trkpt>
      <trkpt lat="45.58442" lon="4.81088">
        <ele>184.23</ele>
        <time>2019-09-15T12:02:17Z</time>
      </trkpt>
      <trkpt lat="45.58424" lon="4.81045">
        <ele>185.67</ele>
        <time>2019-09-15T12:02:23Z</time>
      </trkpt>
      <trkpt lat="45.58421" lon="4.81039">
        <ele>186.15</ele>
        <time>2019-09-15T12:02:24Z</time>
      </trkpt>
      <trkpt lat="45.58416" lon="4.81035">
        <ele>186.63</ele>
        <time>2019-09-15T12:02:25Z</time>
      </trkpt>
      <trkpt lat="45.58409" lon="4.81024">
        <ele>186.63</ele>
        <time>2019-09-15T12:02:27Z</time>
      </trkpt>
      <trkpt lat="45.58406" lon="4.81018">
        <ele>187.11</ele>
        <time>2019-09-15T12:02:28Z</time>
      </trkpt>
      <trkpt lat="45.58399" lon="4.80999">
        <ele>187.11</ele>
        <time>2019-09-15T12:02:31Z</time>
      </trkpt>
      <trkpt lat="45.58401" lon="4.80994">
        <ele>187.59</ele>
        <time>2019-09-15T12:02:32Z</time>
      </trkpt>
      <trkpt lat="45.58405" lon="4.80991">
        <ele>187.59</ele>
        <time>2019-09-15T12:02:33Z</time>
      </trkpt>
      <trkpt lat="45.58467" lon="4.80941">
        <ele>186.63</ele>
        <time>2019-09-15T12:02:44Z</time>
      </trkpt>
      <trkpt lat="45.58484" lon="4.80925">
        <ele>186.15</ele>
        <time>2019-09-15T12:02:47Z</time>
      </trkpt>
      <trkpt lat="45.58488" lon="4.80919">
        <ele>185.67</ele>
        <time>2019-09-15T12:02:48Z</time>
      </trkpt>
      <trkpt lat="45.58492" lon="4.80912">
        <ele>186.15</ele>
        <time>2019-09-15T12:02:49Z</time>
      </trkpt>
      <trkpt lat="45.58493" lon="4.80905">
        <ele>186.15</ele>
        <time>2019-09-15T12:02:50Z</time>
      </trkpt>
      <trkpt lat="45.58492" lon="4.80896">
        <ele>186.63</ele>
        <time>2019-09-15T12:02:51Z</time>
      </trkpt>
      <trkpt lat="45.58488" lon="4.8089">
        <ele>186.63</ele>
        <time>2019-09-15T12:02:52Z</time>
      </trkpt>
      <trkpt lat="45.58483" lon="4.80885">
        <ele>187.11</ele>
        <time>2019-09-15T12:02:53Z</time>
      </trkpt>
      <trkpt lat="45.58478" lon="4.8088">
        <ele>187.11</ele>
        <time>2019-09-15T12:02:54Z</time>
      </trkpt>
      <trkpt lat="45.58434" lon="4.80831">
        <ele>190.48</ele>
        <time>2019-09-15T12:03:04Z</time>
      </trkpt>
      <trkpt lat="45.58418" lon="4.80813">
        <ele>190.96</ele>
        <time>2019-09-15T12:03:11Z</time>
      </trkpt>
      <trkpt lat="45.58416" lon="4.80806">
        <ele>191.44</ele>
        <time>2019-09-15T12:03:13Z</time>
      </trkpt>
      <trkpt lat="45.58413" lon="4.80803">
        <ele>191.44</ele>
        <time>2019-09-15T12:03:14Z</time>
      </trkpt>
      <trkpt lat="45.5841" lon="4.80799">
        <ele>191.44</ele>
        <time>2019-09-15T12:03:15Z</time>
      </trkpt>
      <trkpt lat="45.58361" lon="4.8075">
        <ele>193.84</ele>
        <time>2019-09-15T12:03:30Z</time>
      </trkpt>
      <trkpt lat="45.58318" lon="4.80762">
        <ele>194.32</ele>
        <time>2019-09-15T12:03:41Z</time>
      </trkpt>
      <trkpt lat="45.58297" lon="4.80771">
        <ele>194.8</ele>
        <time>2019-09-15T12:03:46Z</time>
      </trkpt>
      <trkpt lat="45.58293" lon="4.80772">
        <ele>194.32</ele>
        <time>2019-09-15T12:03:47Z</time>
      </trkpt>
      <trkpt lat="45.58288" lon="4.80772">
        <ele>194.8</ele>
        <time>2019-09-15T12:03:48Z</time>
      </trkpt>
      <trkpt lat="45.58284" lon="4.80772">
        <ele>194.32</ele>
        <time>2019-09-15T12:03:49Z</time>
      </trkpt>
      <trkpt lat="45.5828" lon="4.8077">
        <ele>194.8</ele>
        <time>2019-09-15T12:03:50Z</time>
      </trkpt>
      <trkpt lat="45.58275" lon="4.80767">
        <ele>194.8</ele>
        <time>2019-09-15T12:03:51Z</time>
      </trkpt>
      <trkpt lat="45.58272" lon="4.80763">
        <ele>194.8</ele>
        <time>2019-09-15T12:03:52Z</time>
      </trkpt>
      <trkpt lat="45.58268" lon="4.80759">
        <ele>194.8</ele>
        <time>2019-09-15T12:03:53Z</time>
      </trkpt>
      <trkpt lat="45.58248" lon="4.80739">
        <ele>195.28</ele>
        <time>2019-09-15T12:03:59Z</time>
      </trkpt>
      <trkpt lat="45.58244" lon="4.80738">
        <ele>195.77</ele>
        <time>2019-09-15T12:04:00Z</time>
      </trkpt>
      <trkpt lat="45.58231" lon="4.80738">
        <ele>195.28</ele>
        <time>2019-09-15T12:04:03Z</time>
      </trkpt>
      <trkpt lat="45.58227" lon="4.80738">
        <ele>195.28</ele>
        <time>2019-09-15T12:04:04Z</time>
      </trkpt>
      <trkpt lat="45.58223" lon="4.80737">
        <ele>194.8</ele>
        <time>2019-09-15T12:04:05Z</time>
      </trkpt>
      <trkpt lat="45.5822" lon="4.80735">
        <ele>194.8</ele>
        <time>2019-09-15T12:04:06Z</time>
      </trkpt>
      <trkpt lat="45.58217" lon="4.80731">
        <ele>195.28</ele>
        <time>2019-09-15T12:04:07Z</time>
      </trkpt>
      <trkpt lat="45.58214" lon="4.80726">
        <ele>194.8</ele>
        <time>2019-09-15T12:04:08Z</time>
      </trkpt>
      <trkpt lat="45.58211" lon="4.80721">
        <ele>194.32</ele>
        <time>2019-09-15T12:04:09Z</time>
      </trkpt>
      <trkpt lat="45.58206" lon="4.80716">
        <ele>193.36</ele>
        <time>2019-09-15T12:04:10Z</time>
      </trkpt>
      <trkpt lat="45.582" lon="4.80713">
        <ele>193.36</ele>
        <time>2019-09-15T12:04:11Z</time>
      </trkpt>
      <trkpt lat="45.58193" lon="4.80713">
        <ele>192.88</ele>
        <time>2019-09-15T12:04:12Z</time>
      </trkpt>
      <trkpt lat="45.58186" lon="4.80714">
        <ele>192.4</ele>
        <time>2019-09-15T12:04:13Z</time>
      </trkpt>
      <trkpt lat="45.58148" lon="4.80722">
        <ele>188.08</ele>
        <time>2019-09-15T12:04:18Z</time>
      </trkpt>
      <trkpt lat="45.5814" lon="4.80725">
        <ele>187.11</ele>
        <time>2019-09-15T12:04:19Z</time>
      </trkpt>
      <trkpt lat="45.58132" lon="4.80728">
        <ele>185.67</ele>
        <time>2019-09-15T12:04:20Z</time>
      </trkpt>
      <trkpt lat="45.58123" lon="4.80733">
        <ele>185.19</ele>
        <time>2019-09-15T12:04:21Z</time>
      </trkpt>
      <trkpt lat="45.58099" lon="4.80751">
        <ele>183.75</ele>
        <time>2019-09-15T12:04:24Z</time>
      </trkpt>
      <trkpt lat="45.5809" lon="4.80755">
        <ele>182.79</ele>
        <time>2019-09-15T12:04:25Z</time>
      </trkpt>
      <trkpt lat="45.58073" lon="4.80762">
        <ele>181.35</ele>
        <time>2019-09-15T12:04:27Z</time>
      </trkpt>
      <trkpt lat="45.58065" lon="4.80765">
        <ele>179.42</ele>
        <time>2019-09-15T12:04:28Z</time>
      </trkpt>
      <trkpt lat="45.58039" lon="4.80776">
        <ele>176.54</ele>
        <time>2019-09-15T12:04:31Z</time>
      </trkpt>
      <trkpt lat="45.58021" lon="4.80787">
        <ele>173.17</ele>
        <time>2019-09-15T12:04:34Z</time>
      </trkpt>
      <trkpt lat="45.58017" lon="4.80789">
        <ele>172.21</ele>
        <time>2019-09-15T12:04:35Z</time>
      </trkpt>
      <trkpt lat="45.58014" lon="4.80791">
        <ele>171.73</ele>
        <time>2019-09-15T12:04:36Z</time>
      </trkpt>
      <trkpt lat="45.5801" lon="4.80792">
        <ele>171.25</ele>
        <time>2019-09-15T12:04:37Z</time>
      </trkpt>
      <trkpt lat="45.58006" lon="4.80795">
        <ele>171.25</ele>
        <time>2019-09-15T12:04:38Z</time>
      </trkpt>
      <trkpt lat="45.58001" lon="4.80797">
        <ele>170.29</ele>
        <time>2019-09-15T12:04:39Z</time>
      </trkpt>
      <trkpt lat="45.57985" lon="4.80807">
        <ele>168.37</ele>
        <time>2019-09-15T12:04:42Z</time>
      </trkpt>
      <trkpt lat="45.5798" lon="4.8081">
        <ele>167.89</ele>
        <time>2019-09-15T12:04:43Z</time>
      </trkpt>
      <trkpt lat="45.5797" lon="4.80814">
        <ele>166.45</ele>
        <time>2019-09-15T12:04:45Z</time>
      </trkpt>
      <trkpt lat="45.57965" lon="4.80814">
        <ele>165.48</ele>
        <time>2019-09-15T12:04:46Z</time>
      </trkpt>
      <trkpt lat="45.57961" lon="4.80815">
        <ele>164.04</ele>
        <time>2019-09-15T12:04:47Z</time>
      </trkpt>
      <trkpt lat="45.57941" lon="4.8082">
        <ele>160.2</ele>
        <time>2019-09-15T12:04:51Z</time>
      </trkpt>
      <trkpt lat="45.57928" lon="4.80823">
        <ele>157.79</ele>
        <time>2019-09-15T12:04:54Z</time>
      </trkpt>
      <trkpt lat="45.57913" lon="4.80828">
        <ele>153.95</ele>
        <time>2019-09-15T12:04:57Z</time>
      </trkpt>
      <trkpt lat="45.57909" lon="4.80829">
        <ele>152.99</ele>
        <time>2019-09-15T12:04:58Z</time>
      </trkpt>
      <trkpt lat="45.57904" lon="4.80831">
        <ele>152.03</ele>
        <time>2019-09-15T12:04:59Z</time>
      </trkpt>
      <trkpt lat="45.57897" lon="4.80837">
        <ele>150.1</ele>
        <time>2019-09-15T12:05:01Z</time>
      </trkpt>
      <trkpt lat="45.57895" lon="4.80842">
        <ele>149.14</ele>
        <time>2019-09-15T12:05:02Z</time>
      </trkpt>
      <trkpt lat="45.57895" lon="4.80857">
        <ele>145.78</ele>
        <time>2019-09-15T12:05:05Z</time>
      </trkpt>
      <trkpt lat="45.57895" lon="4.80863">
        <ele>144.82</ele>
        <time>2019-09-15T12:05:07Z</time>
      </trkpt>
      <trkpt lat="45.57893" lon="4.80864">
        <ele>145.3</ele>
        <time>2019-09-15T12:05:08Z</time>
      </trkpt>
      <trkpt lat="45.57891" lon="4.80863">
        <ele>144.82</ele>
        <time>2019-09-15T12:05:09Z</time>
      </trkpt>
      <trkpt lat="45.5789" lon="4.80863">
        <ele>144.82</ele>
        <time>2019-09-15T12:05:10Z</time>
      </trkpt>
      <trkpt lat="45.57888" lon="4.80864">
        <ele>144.82</ele>
        <time>2019-09-15T12:05:11Z</time>
      </trkpt>
      <trkpt lat="45.57887" lon="4.80865">
        <ele>144.82</ele>
        <time>2019-09-15T12:05:12Z</time>
      </trkpt>
      <trkpt lat="45.57886" lon="4.80867">
        <ele>143.85</ele>
        <time>2019-09-15T12:05:13Z</time>
      </trkpt>
      <trkpt lat="45.57887" lon="4.80869">
        <ele>144.82</ele>
        <time>2019-09-15T12:05:26Z</time>
      </trkpt>
      <trkpt lat="45.57887" lon="4.80869">
        <ele>144.82</ele>
        <time>2019-09-15T12:05:28Z</time>
      </trkpt>
      <trkpt lat="45.57887" lon="4.80872">
        <ele>144.34</ele>
        <time>2019-09-15T12:05:29Z</time>
      </trkpt>
      <trkpt lat="45.57887" lon="4.80876">
        <ele>144.34</ele>
        <time>2019-09-15T12:05:30Z</time>
      </trkpt>
      <trkpt lat="45.57887" lon="4.8088">
        <ele>143.37</ele>
        <time>2019-09-15T12:05:31Z</time>
      </trkpt>
      <trkpt lat="45.57887" lon="4.80885">
        <ele>143.37</ele>
        <time>2019-09-15T12:05:32Z</time>
      </trkpt>
      <trkpt lat="45.57888" lon="4.8089">
        <ele>142.89</ele>
        <time>2019-09-15T12:05:33Z</time>
      </trkpt>
      <trkpt lat="45.5789" lon="4.80912">
        <ele>141.93</ele>
        <time>2019-09-15T12:05:36Z</time>
      </trkpt>
      <trkpt lat="45.5789" lon="4.80922">
        <ele>141.45</ele>
        <time>2019-09-15T12:05:37Z</time>
      </trkpt>
      <trkpt lat="45.57889" lon="4.80929">
        <ele>140.49</ele>
        <time>2019-09-15T12:05:38Z</time>
      </trkpt>
      <trkpt lat="45.57885" lon="4.80935">
        <ele>140.01</ele>
        <time>2019-09-15T12:05:39Z</time>
      </trkpt>
      <trkpt lat="45.5788" lon="4.80937">
        <ele>139.05</ele>
        <time>2019-09-15T12:05:40Z</time>
      </trkpt>
      <trkpt lat="45.57874" lon="4.80936">
        <ele>138.09</ele>
        <time>2019-09-15T12:05:41Z</time>
      </trkpt>
      <trkpt lat="45.57868" lon="4.80933">
        <ele>137.61</ele>
        <time>2019-09-15T12:05:42Z</time>
      </trkpt>
      <trkpt lat="45.57862" lon="4.8093">
        <ele>138.57</ele>
        <time>2019-09-15T12:05:43Z</time>
      </trkpt>
      <trkpt lat="45.57857" lon="4.80928">
        <ele>139.53</ele>
        <time>2019-09-15T12:05:44Z</time>
      </trkpt>
      <trkpt lat="45.57853" lon="4.80928">
        <ele>140.01</ele>
        <time>2019-09-15T12:05:45Z</time>
      </trkpt>
      <trkpt lat="45.57848" lon="4.80929">
        <ele>140.97</ele>
        <time>2019-09-15T12:05:46Z</time>
      </trkpt>
      <trkpt lat="45.57841" lon="4.80933">
        <ele>142.41</ele>
        <time>2019-09-15T12:05:48Z</time>
      </trkpt>
      <trkpt lat="45.57838" lon="4.80937">
        <ele>143.37</ele>
        <time>2019-09-15T12:05:49Z</time>
      </trkpt>
      <trkpt lat="45.57836" lon="4.80942">
        <ele>144.34</ele>
        <time>2019-09-15T12:05:50Z</time>
      </trkpt>
      <trkpt lat="45.57834" lon="4.80945">
        <ele>145.3</ele>
        <time>2019-09-15T12:05:51Z</time>
      </trkpt>
      <trkpt lat="45.57832" lon="4.80949">
        <ele>145.78</ele>
        <time>2019-09-15T12:05:52Z</time>
      </trkpt>
      <trkpt lat="45.5783" lon="4.80953">
        <ele>146.74</ele>
        <time>2019-09-15T12:05:53Z</time>
      </trkpt>
      <trkpt lat="45.57825" lon="4.80969">
        <ele>150.1</ele>
        <time>2019-09-15T12:05:57Z</time>
      </trkpt>
      <trkpt lat="45.57824" lon="4.80973">
        <ele>150.1</ele>
        <time>2019-09-15T12:05:58Z</time>
      </trkpt>
      <trkpt lat="45.57824" lon="4.80982">
        <ele>151.06</ele>
        <time>2019-09-15T12:06:01Z</time>
      </trkpt>
      <trkpt lat="45.57822" lon="4.80983">
        <ele>151.54</ele>
        <time>2019-09-15T12:06:02Z</time>
      </trkpt>
      <trkpt lat="45.57821" lon="4.80983">
        <ele>151.54</ele>
        <time>2019-09-15T12:06:03Z</time>
      </trkpt>
      <trkpt lat="45.57818" lon="4.80981">
        <ele>150.58</ele>
        <time>2019-09-15T12:06:04Z</time>
      </trkpt>
      <trkpt lat="45.57815" lon="4.80979">
        <ele>150.1</ele>
        <time>2019-09-15T12:06:05Z</time>
      </trkpt>
      <trkpt lat="45.57811" lon="4.80978">
        <ele>149.14</ele>
        <time>2019-09-15T12:06:06Z</time>
      </trkpt>
      <trkpt lat="45.57807" lon="4.80978">
        <ele>148.66</ele>
        <time>2019-09-15T12:06:07Z</time>
      </trkpt>
      <trkpt lat="45.57803" lon="4.80978">
        <ele>147.7</ele>
        <time>2019-09-15T12:06:08Z</time>
      </trkpt>
      <trkpt lat="45.57798" lon="4.80981">
        <ele>146.26</ele>
        <time>2019-09-15T12:06:09Z</time>
      </trkpt>
      <trkpt lat="45.57793" lon="4.80985">
        <ele>144.82</ele>
        <time>2019-09-15T12:06:10Z</time>
      </trkpt>
      <trkpt lat="45.57788" lon="4.80989">
        <ele>143.85</ele>
        <time>2019-09-15T12:06:11Z</time>
      </trkpt>
      <trkpt lat="45.57782" lon="4.80993">
        <ele>142.41</ele>
        <time>2019-09-15T12:06:12Z</time>
      </trkpt>
      <trkpt lat="45.57778" lon="4.80998">
        <ele>141.45</ele>
        <time>2019-09-15T12:06:13Z</time>
      </trkpt>
      <trkpt lat="45.57773" lon="4.81002">
        <ele>140.49</ele>
        <time>2019-09-15T12:06:14Z</time>
      </trkpt>
      <trkpt lat="45.57768" lon="4.81006">
        <ele>139.53</ele>
        <time>2019-09-15T12:06:15Z</time>
      </trkpt>
      <trkpt lat="45.57762" lon="4.8101">
        <ele>138.57</ele>
        <time>2019-09-15T12:06:16Z</time>
      </trkpt>
      <trkpt lat="45.57756" lon="4.81014">
        <ele>138.57</ele>
        <time>2019-09-15T12:06:17Z</time>
      </trkpt>
      <trkpt lat="45.57749" lon="4.81019">
        <ele>137.61</ele>
        <time>2019-09-15T12:06:18Z</time>
      </trkpt>
      <trkpt lat="45.57741" lon="4.81025">
        <ele>136.64</ele>
        <time>2019-09-15T12:06:19Z</time>
      </trkpt>
      <trkpt lat="45.57734" lon="4.81032">
        <ele>136.16</ele>
        <time>2019-09-15T12:06:20Z</time>
      </trkpt>
      <trkpt lat="45.57723" lon="4.81044">
        <ele>134.24</ele>
        <time>2019-09-15T12:06:22Z</time>
      </trkpt>
      <trkpt lat="45.5772" lon="4.81049">
        <ele>133.76</ele>
        <time>2019-09-15T12:06:23Z</time>
      </trkpt>
      <trkpt lat="45.57714" lon="4.81057">
        <ele>133.28</ele>
        <time>2019-09-15T12:06:31Z</time>
      </trkpt>
      <trkpt lat="45.57711" lon="4.81062">
        <ele>132.8</ele>
        <time>2019-09-15T12:06:35Z</time>
      </trkpt>
      <trkpt lat="45.57708" lon="4.81064">
        <ele>132.8</ele>
        <time>2019-09-15T12:06:36Z</time>
      </trkpt>
      <trkpt lat="45.57706" lon="4.81067">
        <ele>132.32</ele>
        <time>2019-09-15T12:06:37Z</time>
      </trkpt>
      <trkpt lat="45.57689" lon="4.81077">
        <ele>129.92</ele>
        <time>2019-09-15T12:06:44Z</time>
      </trkpt>
      <trkpt lat="45.57687" lon="4.81074">
        <ele>129.92</ele>
        <time>2019-09-15T12:06:45Z</time>
      </trkpt>
      <trkpt lat="45.57685" lon="4.81069">
        <ele>129.43</ele>
        <time>2019-09-15T12:06:46Z</time>
      </trkpt>
      <trkpt lat="45.5768" lon="4.81061">
        <ele>128.95</ele>
        <time>2019-09-15T12:06:48Z</time>
      </trkpt>
      <trkpt lat="45.57677" lon="4.81061">
        <ele>128.95</ele>
        <time>2019-09-15T12:06:49Z</time>
      </trkpt>
      <trkpt lat="45.57674" lon="4.81062">
        <ele>128.95</ele>
        <time>2019-09-15T12:06:50Z</time>
      </trkpt>
      <trkpt lat="45.57671" lon="4.81065">
        <ele>128.47</ele>
        <time>2019-09-15T12:06:51Z</time>
      </trkpt>
      <trkpt lat="45.57668" lon="4.81069">
        <ele>128.47</ele>
        <time>2019-09-15T12:06:52Z</time>
      </trkpt>
      <trkpt lat="45.57648" lon="4.81095">
        <ele>127.99</ele>
        <time>2019-09-15T12:06:58Z</time>
      </trkpt>
      <trkpt lat="45.57641" lon="4.81115">
        <ele>127.99</ele>
        <time>2019-09-15T12:07:02Z</time>
      </trkpt>
      <trkpt lat="45.57618" lon="4.8118">
        <ele>130.4</ele>
        <time>2019-09-15T12:07:14Z</time>
      </trkpt>
      <trkpt lat="45.57616" lon="4.81185">
        <ele>130.88</ele>
        <time>2019-09-15T12:07:15Z</time>
      </trkpt>
      <trkpt lat="45.57615" lon="4.81191">
        <ele>130.4</ele>
        <time>2019-09-15T12:07:16Z</time>
      </trkpt>
      <trkpt lat="45.57615" lon="4.81197">
        <ele>130.88</ele>
        <time>2019-09-15T12:07:17Z</time>
      </trkpt>
      <trkpt lat="45.57615" lon="4.81204">
        <ele>131.36</ele>
        <time>2019-09-15T12:07:18Z</time>
      </trkpt>
      <trkpt lat="45.57615" lon="4.81217">
        <ele>132.32</ele>
        <time>2019-09-15T12:07:20Z</time>
      </trkpt>
      <trkpt lat="45.57614" lon="4.81224">
        <ele>132.8</ele>
        <time>2019-09-15T12:07:21Z</time>
      </trkpt>
      <trkpt lat="45.57613" lon="4.8123">
        <ele>132.8</ele>
        <time>2019-09-15T12:07:22Z</time>
      </trkpt>
      <trkpt lat="45.57611" lon="4.81236">
        <ele>133.76</ele>
        <time>2019-09-15T12:07:23Z</time>
      </trkpt>
      <trkpt lat="45.57609" lon="4.81242">
        <ele>134.24</ele>
        <time>2019-09-15T12:07:24Z</time>
      </trkpt>
      <trkpt lat="45.57591" lon="4.81297">
        <ele>137.61</ele>
        <time>2019-09-15T12:07:33Z</time>
      </trkpt>
      <trkpt lat="45.57589" lon="4.81304">
        <ele>138.09</ele>
        <time>2019-09-15T12:07:34Z</time>
      </trkpt>
      <trkpt lat="45.57579" lon="4.81335">
        <ele>139.53</ele>
        <time>2019-09-15T12:07:39Z</time>
      </trkpt>
      <trkpt lat="45.57569" lon="4.81367">
        <ele>141.93</ele>
        <time>2019-09-15T12:07:44Z</time>
      </trkpt>
      <trkpt lat="45.57557" lon="4.81404">
        <ele>144.34</ele>
        <time>2019-09-15T12:07:50Z</time>
      </trkpt>
      <trkpt lat="45.57554" lon="4.81409">
        <ele>144.82</ele>
        <time>2019-09-15T12:07:51Z</time>
      </trkpt>
      <trkpt lat="45.57541" lon="4.81437">
        <ele>146.26</ele>
        <time>2019-09-15T12:07:56Z</time>
      </trkpt>
      <trkpt lat="45.57539" lon="4.81444">
        <ele>146.74</ele>
        <time>2019-09-15T12:07:57Z</time>
      </trkpt>
      <trkpt lat="45.57538" lon="4.8145">
        <ele>146.74</ele>
        <time>2019-09-15T12:07:58Z</time>
      </trkpt>
      <trkpt lat="45.57536" lon="4.81456">
        <ele>147.22</ele>
        <time>2019-09-15T12:07:59Z</time>
      </trkpt>
      <trkpt lat="45.57536" lon="4.81463">
        <ele>147.7</ele>
        <time>2019-09-15T12:08:00Z</time>
      </trkpt>
      <trkpt lat="45.57535" lon="4.81468">
        <ele>148.18</ele>
        <time>2019-09-15T12:08:01Z</time>
      </trkpt>
      <trkpt lat="45.57535" lon="4.81474">
        <ele>148.66</ele>
        <time>2019-09-15T12:08:02Z</time>
      </trkpt>
      <trkpt lat="45.57535" lon="4.81481">
        <ele>148.66</ele>
        <time>2019-09-15T12:08:03Z</time>
      </trkpt>
      <trkpt lat="45.57537" lon="4.81495">
        <ele>149.62</ele>
        <time>2019-09-15T12:08:05Z</time>
      </trkpt>
      <trkpt lat="45.57539" lon="4.81507">
        <ele>149.62</ele>
        <time>2019-09-15T12:08:07Z</time>
      </trkpt>
      <trkpt lat="45.57541" lon="4.81519">
        <ele>151.06</ele>
        <time>2019-09-15T12:08:09Z</time>
      </trkpt>
      <trkpt lat="45.57541" lon="4.81525">
        <ele>151.54</ele>
        <time>2019-09-15T12:08:10Z</time>
      </trkpt>
      <trkpt lat="45.5754" lon="4.81531">
        <ele>152.03</ele>
        <time>2019-09-15T12:08:11Z</time>
      </trkpt>
      <trkpt lat="45.57538" lon="4.81536">
        <ele>152.03</ele>
        <time>2019-09-15T12:08:12Z</time>
      </trkpt>
      <trkpt lat="45.57534" lon="4.81539">
        <ele>152.51</ele>
        <time>2019-09-15T12:08:13Z</time>
      </trkpt>
      <trkpt lat="45.5753" lon="4.8154">
        <ele>152.51</ele>
        <time>2019-09-15T12:08:14Z</time>
      </trkpt>
      <trkpt lat="45.57526" lon="4.8154">
        <ele>153.47</ele>
        <time>2019-09-15T12:08:15Z</time>
      </trkpt>
      <trkpt lat="45.57522" lon="4.8154">
        <ele>153.95</ele>
        <time>2019-09-15T12:08:16Z</time>
      </trkpt>
      <trkpt lat="45.57518" lon="4.81541">
        <ele>154.43</ele>
        <time>2019-09-15T12:08:17Z</time>
      </trkpt>
      <trkpt lat="45.57514" lon="4.81544">
        <ele>154.43</ele>
        <time>2019-09-15T12:08:18Z</time>
      </trkpt>
      <trkpt lat="45.5751" lon="4.81547">
        <ele>154.91</ele>
        <time>2019-09-15T12:08:19Z</time>
      </trkpt>
      <trkpt lat="45.57506" lon="4.81551">
        <ele>155.39</ele>
        <time>2019-09-15T12:08:20Z</time>
      </trkpt>
      <trkpt lat="45.57503" lon="4.81556">
        <ele>155.87</ele>
        <time>2019-09-15T12:08:21Z</time>
      </trkpt>
      <trkpt lat="45.57501" lon="4.8156">
        <ele>155.87</ele>
        <time>2019-09-15T12:08:22Z</time>
      </trkpt>
      <trkpt lat="45.57498" lon="4.81565">
        <ele>155.87</ele>
        <time>2019-09-15T12:08:23Z</time>
      </trkpt>
      <trkpt lat="45.57494" lon="4.81575">
        <ele>156.83</ele>
        <time>2019-09-15T12:08:25Z</time>
      </trkpt>
      <trkpt lat="45.57469" lon="4.81621">
        <ele>160.2</ele>
        <time>2019-09-15T12:08:34Z</time>
      </trkpt>
      <trkpt lat="45.57463" lon="4.81638">
        <ele>161.16</ele>
        <time>2019-09-15T12:08:37Z</time>
      </trkpt>
      <trkpt lat="45.5746" lon="4.81658">
        <ele>162.6</ele>
        <time>2019-09-15T12:08:40Z</time>
      </trkpt>
      <trkpt lat="45.57459" lon="4.81665">
        <ele>163.08</ele>
        <time>2019-09-15T12:08:41Z</time>
      </trkpt>
      <trkpt lat="45.57455" lon="4.81676">
        <ele>163.08</ele>
        <time>2019-09-15T12:08:43Z</time>
      </trkpt>
      <trkpt lat="45.57448" lon="4.81693">
        <ele>164.04</ele>
        <time>2019-09-15T12:08:46Z</time>
      </trkpt>
      <trkpt lat="45.5743" lon="4.8174">
        <ele>167.41</ele>
        <time>2019-09-15T12:08:54Z</time>
      </trkpt>
      <trkpt lat="45.57422" lon="4.81757">
        <ele>168.37</ele>
        <time>2019-09-15T12:09:02Z</time>
      </trkpt>
      <trkpt lat="45.57422" lon="4.81759">
        <ele>168.85</ele>
        <time>2019-09-15T12:09:04Z</time>
      </trkpt>
      <trkpt lat="45.57422" lon="4.81762">
        <ele>168.85</ele>
        <time>2019-09-15T12:09:05Z</time>
      </trkpt>
      <trkpt lat="45.57421" lon="4.81764">
        <ele>169.33</ele>
        <time>2019-09-15T12:09:06Z</time>
      </trkpt>
      <trkpt lat="45.5742" lon="4.81765">
        <ele>169.33</ele>
        <time>2019-09-15T12:09:07Z</time>
      </trkpt>
      <trkpt lat="45.57419" lon="4.81766">
        <ele>169.33</ele>
        <time>2019-09-15T12:09:08Z</time>
      </trkpt>
      <trkpt lat="45.57417" lon="4.81766">
        <ele>169.33</ele>
        <time>2019-09-15T12:09:09Z</time>
      </trkpt>
      <trkpt lat="45.57416" lon="4.81767">
        <ele>168.85</ele>
        <time>2019-09-15T12:09:10Z</time>
      </trkpt>
      <trkpt lat="45.57414" lon="4.8177">
        <ele>168.37</ele>
        <time>2019-09-15T12:09:11Z</time>
      </trkpt>
      <trkpt lat="45.57413" lon="4.81772">
        <ele>167.89</ele>
        <time>2019-09-15T12:09:12Z</time>
      </trkpt>
      <trkpt lat="45.57411" lon="4.81774">
        <ele>167.89</ele>
        <time>2019-09-15T12:09:13Z</time>
      </trkpt>
      <trkpt lat="45.57409" lon="4.81777">
        <ele>166.93</ele>
        <time>2019-09-15T12:09:14Z</time>
      </trkpt>
      <trkpt lat="45.57407" lon="4.8178">
        <ele>166.45</ele>
        <time>2019-09-15T12:09:15Z</time>
      </trkpt>
      <trkpt lat="45.57406" lon="4.81782">
        <ele>165.48</ele>
        <time>2019-09-15T12:09:16Z</time>
      </trkpt>
      <trkpt lat="45.57403" lon="4.81785">
        <ele>165</ele>
        <time>2019-09-15T12:09:17Z</time>
      </trkpt>
      <trkpt lat="45.57397" lon="4.81794">
        <ele>163.08</ele>
        <time>2019-09-15T12:09:19Z</time>
      </trkpt>
      <trkpt lat="45.57395" lon="4.818">
        <ele>161.64</ele>
        <time>2019-09-15T12:09:20Z</time>
      </trkpt>
      <trkpt lat="45.57393" lon="4.81807">
        <ele>160.68</ele>
        <time>2019-09-15T12:09:21Z</time>
      </trkpt>
      <trkpt lat="45.57391" lon="4.81814">
        <ele>160.2</ele>
        <time>2019-09-15T12:09:22Z</time>
      </trkpt>
      <trkpt lat="45.57389" lon="4.8182">
        <ele>158.75</ele>
        <time>2019-09-15T12:09:23Z</time>
      </trkpt>
      <trkpt lat="45.57388" lon="4.81826">
        <ele>158.27</ele>
        <time>2019-09-15T12:09:24Z</time>
      </trkpt>
      <trkpt lat="45.57386" lon="4.81831">
        <ele>157.79</ele>
        <time>2019-09-15T12:09:25Z</time>
      </trkpt>
      <trkpt lat="45.57385" lon="4.81836">
        <ele>157.31</ele>
        <time>2019-09-15T12:09:26Z</time>
      </trkpt>
      <trkpt lat="45.57383" lon="4.81839">
        <ele>156.83</ele>
        <time>2019-09-15T12:09:27Z</time>
      </trkpt>
      <trkpt lat="45.57381" lon="4.81841">
        <ele>155.87</ele>
        <time>2019-09-15T12:09:28Z</time>
      </trkpt>
      <trkpt lat="45.5738" lon="4.81841">
        <ele>155.87</ele>
        <time>2019-09-15T12:09:29Z</time>
      </trkpt>
      <trkpt lat="45.57379" lon="4.81839">
        <ele>154.91</ele>
        <time>2019-09-15T12:09:30Z</time>
      </trkpt>
      <trkpt lat="45.57377" lon="4.81837">
        <ele>154.43</ele>
        <time>2019-09-15T12:09:31Z</time>
      </trkpt>
      <trkpt lat="45.57376" lon="4.81832">
        <ele>153.95</ele>
        <time>2019-09-15T12:09:32Z</time>
      </trkpt>
      <trkpt lat="45.57374" lon="4.81826">
        <ele>152.51</ele>
        <time>2019-09-15T12:09:33Z</time>
      </trkpt>
      <trkpt lat="45.57369" lon="4.81815">
        <ele>150.58</ele>
        <time>2019-09-15T12:09:35Z</time>
      </trkpt>
      <trkpt lat="45.57366" lon="4.81809">
        <ele>150.1</ele>
        <time>2019-09-15T12:09:36Z</time>
      </trkpt>
      <trkpt lat="45.57364" lon="4.81803">
        <ele>149.62</ele>
        <time>2019-09-15T12:09:37Z</time>
      </trkpt>
      <trkpt lat="45.57362" lon="4.81799">
        <ele>149.14</ele>
        <time>2019-09-15T12:09:38Z</time>
      </trkpt>
      <trkpt lat="45.57359" lon="4.81793">
        <ele>147.7</ele>
        <time>2019-09-15T12:09:39Z</time>
      </trkpt>
      <trkpt lat="45.57356" lon="4.81788">
        <ele>147.22</ele>
        <time>2019-09-15T12:09:40Z</time>
      </trkpt>
      <trkpt lat="45.57352" lon="4.81783">
        <ele>145.78</ele>
        <time>2019-09-15T12:09:41Z</time>
      </trkpt>
      <trkpt lat="45.57345" lon="4.81774">
        <ele>144.34</ele>
        <time>2019-09-15T12:09:43Z</time>
      </trkpt>
      <trkpt lat="45.57341" lon="4.81771">
        <ele>143.37</ele>
        <time>2019-09-15T12:09:44Z</time>
      </trkpt>
      <trkpt lat="45.5733" lon="4.81769">
        <ele>141.45</ele>
        <time>2019-09-15T12:09:46Z</time>
      </trkpt>
      <trkpt lat="45.57325" lon="4.8177">
        <ele>140.97</ele>
        <time>2019-09-15T12:09:47Z</time>
      </trkpt>
      <trkpt lat="45.573" lon="4.8178">
        <ele>140.49</ele>
        <time>2019-09-15T12:09:52Z</time>
      </trkpt>
      <trkpt lat="45.57295" lon="4.81781">
        <ele>140.01</ele>
        <time>2019-09-15T12:09:53Z</time>
      </trkpt>
      <trkpt lat="45.57291" lon="4.81782">
        <ele>139.53</ele>
        <time>2019-09-15T12:09:54Z</time>
      </trkpt>
      <trkpt lat="45.57288" lon="4.81783">
        <ele>140.01</ele>
        <time>2019-09-15T12:09:55Z</time>
      </trkpt>
      <trkpt lat="45.57286" lon="4.81783">
        <ele>140.01</ele>
        <time>2019-09-15T12:09:56Z</time>
      </trkpt>
      <trkpt lat="45.5728" lon="4.81784">
        <ele>139.53</ele>
        <time>2019-09-15T12:10:08Z</time>
      </trkpt>
      <trkpt lat="45.5728" lon="4.81784">
        <ele>140.01</ele>
        <time>2019-09-15T12:10:32Z</time>
      </trkpt>
      <trkpt lat="45.5728" lon="4.81784">
        <ele>140.01</ele>
        <time>2019-09-15T12:10:35Z</time>
      </trkpt>
      <trkpt lat="45.5727" lon="4.81787">
        <ele>140.01</ele>
        <time>2019-09-15T12:10:41Z</time>
      </trkpt>
      <trkpt lat="45.57267" lon="4.81785">
        <ele>139.53</ele>
        <time>2019-09-15T12:10:42Z</time>
      </trkpt>
      <trkpt lat="45.57264" lon="4.81782">
        <ele>139.05</ele>
        <time>2019-09-15T12:10:43Z</time>
      </trkpt>
      <trkpt lat="45.5726" lon="4.81777">
        <ele>138.57</ele>
        <time>2019-09-15T12:10:44Z</time>
      </trkpt>
      <trkpt lat="45.57255" lon="4.81773">
        <ele>137.61</ele>
        <time>2019-09-15T12:10:45Z</time>
      </trkpt>
      <trkpt lat="45.57249" lon="4.81768">
        <ele>136.64</ele>
        <time>2019-09-15T12:10:46Z</time>
      </trkpt>
      <trkpt lat="45.57211" lon="4.81737">
        <ele>133.28</ele>
        <time>2019-09-15T12:10:52Z</time>
      </trkpt>
      <trkpt lat="45.57206" lon="4.81733">
        <ele>133.76</ele>
        <time>2019-09-15T12:10:53Z</time>
      </trkpt>
      <trkpt lat="45.5719" lon="4.81733">
        <ele>133.28</ele>
        <time>2019-09-15T12:10:59Z</time>
      </trkpt>
      <trkpt lat="45.57187" lon="4.81737">
        <ele>132.8</ele>
        <time>2019-09-15T12:11:00Z</time>
      </trkpt>
      <trkpt lat="45.57184" lon="4.81743">
        <ele>132.8</ele>
        <time>2019-09-15T12:11:01Z</time>
      </trkpt>
      <trkpt lat="45.57178" lon="4.81755">
        <ele>132.32</ele>
        <time>2019-09-15T12:11:03Z</time>
      </trkpt>
      <trkpt lat="45.57167" lon="4.81774">
        <ele>132.8</ele>
        <time>2019-09-15T12:11:06Z</time>
      </trkpt>
      <trkpt lat="45.57135" lon="4.81815">
        <ele>133.28</ele>
        <time>2019-09-15T12:11:13Z</time>
      </trkpt>
      <trkpt lat="45.57124" lon="4.81824">
        <ele>133.28</ele>
        <time>2019-09-15T12:11:15Z</time>
      </trkpt>
      <trkpt lat="45.57118" lon="4.81829">
        <ele>133.28</ele>
        <time>2019-09-15T12:11:16Z</time>
      </trkpt>
      <trkpt lat="45.57017" lon="4.8188">
        <ele>136.16</ele>
        <time>2019-09-15T12:11:33Z</time>
      </trkpt>
      <trkpt lat="45.56972" lon="4.81901">
        <ele>137.13</ele>
        <time>2019-09-15T12:11:41Z</time>
      </trkpt>
      <trkpt lat="45.5692" lon="4.81923">
        <ele>137.13</ele>
        <time>2019-09-15T12:11:50Z</time>
      </trkpt>
      <trkpt lat="45.56916" lon="4.81927">
        <ele>137.61</ele>
        <time>2019-09-15T12:11:51Z</time>
      </trkpt>
      <trkpt lat="45.56911" lon="4.81932">
        <ele>137.61</ele>
        <time>2019-09-15T12:11:52Z</time>
      </trkpt>
      <trkpt lat="45.56907" lon="4.81938">
        <ele>137.61</ele>
        <time>2019-09-15T12:11:53Z</time>
      </trkpt>
      <trkpt lat="45.56904" lon="4.81945">
        <ele>137.13</ele>
        <time>2019-09-15T12:11:54Z</time>
      </trkpt>
      <trkpt lat="45.569" lon="4.81951">
        <ele>137.61</ele>
        <time>2019-09-15T12:11:55Z</time>
      </trkpt>
      <trkpt lat="45.56895" lon="4.81956">
        <ele>137.61</ele>
        <time>2019-09-15T12:11:56Z</time>
      </trkpt>
      <trkpt lat="45.5689" lon="4.81959">
        <ele>138.57</ele>
        <time>2019-09-15T12:11:57Z</time>
      </trkpt>
      <trkpt lat="45.56853" lon="4.81978">
        <ele>140.97</ele>
        <time>2019-09-15T12:12:04Z</time>
      </trkpt>
      <trkpt lat="45.56843" lon="4.81981">
        <ele>141.45</ele>
        <time>2019-09-15T12:12:06Z</time>
      </trkpt>
      <trkpt lat="45.56826" lon="4.81982">
        <ele>142.89</ele>
        <time>2019-09-15T12:12:09Z</time>
      </trkpt>
      <trkpt lat="45.56821" lon="4.81981">
        <ele>143.37</ele>
        <time>2019-09-15T12:12:10Z</time>
      </trkpt>
      <trkpt lat="45.56811" lon="4.81979">
        <ele>144.34</ele>
        <time>2019-09-15T12:12:12Z</time>
      </trkpt>
      <trkpt lat="45.56806" lon="4.81977">
        <ele>144.82</ele>
        <time>2019-09-15T12:12:13Z</time>
      </trkpt>
      <trkpt lat="45.56797" lon="4.81972">
        <ele>145.3</ele>
        <time>2019-09-15T12:12:15Z</time>
      </trkpt>
      <trkpt lat="45.56765" lon="4.81944">
        <ele>148.66</ele>
        <time>2019-09-15T12:12:22Z</time>
      </trkpt>
      <trkpt lat="45.5674" lon="4.81909">
        <ele>151.06</ele>
        <time>2019-09-15T12:12:29Z</time>
      </trkpt>
      <trkpt lat="45.56708" lon="4.81874">
        <ele>154.43</ele>
        <time>2019-09-15T12:12:37Z</time>
      </trkpt>
      <trkpt lat="45.56704" lon="4.81871">
        <ele>154.43</ele>
        <time>2019-09-15T12:12:38Z</time>
      </trkpt>
      <trkpt lat="45.56699" lon="4.81869">
        <ele>154.91</ele>
        <time>2019-09-15T12:12:39Z</time>
      </trkpt>
      <trkpt lat="45.56671" lon="4.81863">
        <ele>157.31</ele>
        <time>2019-09-15T12:12:45Z</time>
      </trkpt>
      <trkpt lat="45.56667" lon="4.81863">
        <ele>157.79</ele>
        <time>2019-09-15T12:12:46Z</time>
      </trkpt>
      <trkpt lat="45.56664" lon="4.81865">
        <ele>157.79</ele>
        <time>2019-09-15T12:12:47Z</time>
      </trkpt>
      <trkpt lat="45.5666" lon="4.81867">
        <ele>158.27</ele>
        <time>2019-09-15T12:12:48Z</time>
      </trkpt>
      <trkpt lat="45.56657" lon="4.81869">
        <ele>158.27</ele>
        <time>2019-09-15T12:12:49Z</time>
      </trkpt>
      <trkpt lat="45.56655" lon="4.81871">
        <ele>158.27</ele>
        <time>2019-09-15T12:12:50Z</time>
      </trkpt>
      <trkpt lat="45.56648" lon="4.8188">
        <ele>159.24</ele>
        <time>2019-09-15T12:12:53Z</time>
      </trkpt>
      <trkpt lat="45.56648" lon="4.81883">
        <ele>159.24</ele>
        <time>2019-09-15T12:12:54Z</time>
      </trkpt>
      <trkpt lat="45.56648" lon="4.81886">
        <ele>159.24</ele>
        <time>2019-09-15T12:12:55Z</time>
      </trkpt>
      <trkpt lat="45.5665" lon="4.81888">
        <ele>159.72</ele>
        <time>2019-09-15T12:12:56Z</time>
      </trkpt>
      <trkpt lat="45.56653" lon="4.8189">
        <ele>160.2</ele>
        <time>2019-09-15T12:12:57Z</time>
      </trkpt>
      <trkpt lat="45.56656" lon="4.81891">
        <ele>161.16</ele>
        <time>2019-09-15T12:12:58Z</time>
      </trkpt>
      <trkpt lat="45.56659" lon="4.81893">
        <ele>161.16</ele>
        <time>2019-09-15T12:12:59Z</time>
      </trkpt>
      <trkpt lat="45.56661" lon="4.81895">
        <ele>162.12</ele>
        <time>2019-09-15T12:13:00Z</time>
      </trkpt>
      <trkpt lat="45.56673" lon="4.81905">
        <ele>165</ele>
        <time>2019-09-15T12:13:05Z</time>
      </trkpt>
      <trkpt lat="45.56691" lon="4.81911">
        <ele>168.37</ele>
        <time>2019-09-15T12:13:11Z</time>
      </trkpt>
      <trkpt lat="45.56703" lon="4.81918">
        <ele>170.77</ele>
        <time>2019-09-15T12:13:15Z</time>
      </trkpt>
      <trkpt lat="45.56715" lon="4.81939">
        <ele>174.14</ele>
        <time>2019-09-15T12:13:21Z</time>
      </trkpt>
      <trkpt lat="45.56721" lon="4.81962">
        <ele>177.02</ele>
        <time>2019-09-15T12:13:27Z</time>
      </trkpt>
      <trkpt lat="45.56724" lon="4.81984">
        <ele>180.38</ele>
        <time>2019-09-15T12:13:32Z</time>
      </trkpt>
      <trkpt lat="45.56724" lon="4.81992">
        <ele>181.83</ele>
        <time>2019-09-15T12:13:34Z</time>
      </trkpt>
      <trkpt lat="45.56723" lon="4.81994">
        <ele>181.83</ele>
        <time>2019-09-15T12:13:35Z</time>
      </trkpt>
      <trkpt lat="45.56721" lon="4.81996">
        <ele>182.79</ele>
        <time>2019-09-15T12:13:36Z</time>
      </trkpt>
      <trkpt lat="45.56719" lon="4.81997">
        <ele>183.27</ele>
        <time>2019-09-15T12:13:37Z</time>
      </trkpt>
      <trkpt lat="45.56717" lon="4.81996">
        <ele>183.75</ele>
        <time>2019-09-15T12:13:38Z</time>
      </trkpt>
      <trkpt lat="45.56714" lon="4.81994">
        <ele>183.75</ele>
        <time>2019-09-15T12:13:39Z</time>
      </trkpt>
      <trkpt lat="45.56712" lon="4.81993">
        <ele>185.19</ele>
        <time>2019-09-15T12:13:40Z</time>
      </trkpt>
      <trkpt lat="45.5671" lon="4.81992">
        <ele>184.71</ele>
        <time>2019-09-15T12:13:41Z</time>
      </trkpt>
      <trkpt lat="45.56689" lon="4.81991">
        <ele>188.56</ele>
        <time>2019-09-15T12:13:49Z</time>
      </trkpt>
      <trkpt lat="45.56686" lon="4.81991">
        <ele>189.04</ele>
        <time>2019-09-15T12:13:50Z</time>
      </trkpt>
      <trkpt lat="45.56667" lon="4.82001">
        <ele>191.92</ele>
        <time>2019-09-15T12:13:57Z</time>
      </trkpt>
      <trkpt lat="45.56661" lon="4.82008">
        <ele>193.84</ele>
        <time>2019-09-15T12:14:00Z</time>
      </trkpt>
      <trkpt lat="45.56659" lon="4.82011">
        <ele>187.59</ele>
        <time>2019-09-15T12:14:01Z</time>
      </trkpt>
      <trkpt lat="45.56657" lon="4.82014">
        <ele>196.25</ele>
        <time>2019-09-15T12:14:02Z</time>
      </trkpt>
      <trkpt lat="45.56655" lon="4.82017">
        <ele>195.28</ele>
        <time>2019-09-15T12:14:03Z</time>
      </trkpt>
      <trkpt lat="45.56642" lon="4.82034">
        <ele>198.65</ele>
        <time>2019-09-15T12:14:09Z</time>
      </trkpt>
      <trkpt lat="45.56635" lon="4.82043">
        <ele>200.09</ele>
        <time>2019-09-15T12:14:12Z</time>
      </trkpt>
      <trkpt lat="45.56626" lon="4.8206">
        <ele>203.46</ele>
        <time>2019-09-15T12:14:17Z</time>
      </trkpt>
      <trkpt lat="45.56614" lon="4.82083">
        <ele>206.34</ele>
        <time>2019-09-15T12:14:24Z</time>
      </trkpt>
      <trkpt lat="45.56612" lon="4.82091">
        <ele>206.82</ele>
        <time>2019-09-15T12:14:26Z</time>
      </trkpt>
      <trkpt lat="45.56607" lon="4.82104">
        <ele>208.26</ele>
        <time>2019-09-15T12:14:30Z</time>
      </trkpt>
      <trkpt lat="45.56606" lon="4.82107">
        <ele>208.74</ele>
        <time>2019-09-15T12:14:31Z</time>
      </trkpt>
      <trkpt lat="45.56605" lon="4.8211">
        <ele>208.74</ele>
        <time>2019-09-15T12:14:32Z</time>
      </trkpt>
      <trkpt lat="45.56605" lon="4.82114">
        <ele>208.26</ele>
        <time>2019-09-15T12:14:33Z</time>
      </trkpt>
      <trkpt lat="45.56605" lon="4.82117">
        <ele>208.74</ele>
        <time>2019-09-15T12:14:34Z</time>
      </trkpt>
      <trkpt lat="45.56605" lon="4.8212">
        <ele>208.74</ele>
        <time>2019-09-15T12:14:35Z</time>
      </trkpt>
      <trkpt lat="45.56604" lon="4.82126">
        <ele>208.74</ele>
        <time>2019-09-15T12:14:37Z</time>
      </trkpt>
      <trkpt lat="45.56603" lon="4.82128">
        <ele>208.74</ele>
        <time>2019-09-15T12:14:38Z</time>
      </trkpt>
      <trkpt lat="45.56602" lon="4.82129">
        <ele>208.74</ele>
        <time>2019-09-15T12:14:39Z</time>
      </trkpt>
      <trkpt lat="45.56599" lon="4.82132">
        <ele>209.22</ele>
        <time>2019-09-15T12:14:49Z</time>
      </trkpt>
      <trkpt lat="45.56599" lon="4.82132">
        <ele>209.22</ele>
        <time>2019-09-15T12:15:15Z</time>
      </trkpt>
      <trkpt lat="45.56599" lon="4.82132">
        <ele>210.19</ele>
        <time>2019-09-15T12:15:46Z</time>
      </trkpt>
      <trkpt lat="45.56599" lon="4.82132">
        <ele>210.67</ele>
        <time>2019-09-15T12:16:13Z</time>
      </trkpt>
      <trkpt lat="45.56579" lon="4.82152">
        <ele>211.15</ele>
        <time>2019-09-15T12:16:22Z</time>
      </trkpt>
      <trkpt lat="45.56545" lon="4.82186">
        <ele>212.59</ele>
        <time>2019-09-15T12:16:34Z</time>
      </trkpt>
      <trkpt lat="45.56542" lon="4.82191">
        <ele>213.07</ele>
        <time>2019-09-15T12:16:35Z</time>
      </trkpt>
      <trkpt lat="45.56539" lon="4.82195">
        <ele>212.59</ele>
        <time>2019-09-15T12:16:36Z</time>
      </trkpt>
      <trkpt lat="45.56526" lon="4.82207">
        <ele>213.55</ele>
        <time>2019-09-15T12:16:39Z</time>
      </trkpt>
      <trkpt lat="45.56467" lon="4.82253">
        <ele>214.03</ele>
        <time>2019-09-15T12:16:51Z</time>
      </trkpt>
      <trkpt lat="45.56454" lon="4.82267">
        <ele>214.51</ele>
        <time>2019-09-15T12:16:54Z</time>
      </trkpt>
      <trkpt lat="45.56451" lon="4.82273">
        <ele>214.03</ele>
        <time>2019-09-15T12:16:55Z</time>
      </trkpt>
      <trkpt lat="45.56445" lon="4.82286">
        <ele>214.03</ele>
        <time>2019-09-15T12:16:57Z</time>
      </trkpt>
      <trkpt lat="45.56443" lon="4.82293">
        <ele>214.51</ele>
        <time>2019-09-15T12:16:58Z</time>
      </trkpt>
      <trkpt lat="45.56443" lon="4.82301">
        <ele>214.51</ele>
        <time>2019-09-15T12:16:59Z</time>
      </trkpt>
      <trkpt lat="45.56444" lon="4.82308">
        <ele>214.99</ele>
        <time>2019-09-15T12:17:00Z</time>
      </trkpt>
      <trkpt lat="45.56446" lon="4.82315">
        <ele>214.51</ele>
        <time>2019-09-15T12:17:01Z</time>
      </trkpt>
      <trkpt lat="45.56455" lon="4.82376">
        <ele>216.43</ele>
        <time>2019-09-15T12:17:12Z</time>
      </trkpt>
      <trkpt lat="45.56456" lon="4.82382">
        <ele>215.95</ele>
        <time>2019-09-15T12:17:13Z</time>
      </trkpt>
      <trkpt lat="45.56456" lon="4.82389">
        <ele>216.91</ele>
        <time>2019-09-15T12:17:14Z</time>
      </trkpt>
      <trkpt lat="45.56457" lon="4.82442">
        <ele>217.88</ele>
        <time>2019-09-15T12:17:22Z</time>
      </trkpt>
      <trkpt lat="45.56457" lon="4.82448">
        <ele>218.84</ele>
        <time>2019-09-15T12:17:23Z</time>
      </trkpt>
      <trkpt lat="45.56458" lon="4.82454">
        <ele>218.36</ele>
        <time>2019-09-15T12:17:24Z</time>
      </trkpt>
      <trkpt lat="45.56459" lon="4.8246">
        <ele>218.36</ele>
        <time>2019-09-15T12:17:25Z</time>
      </trkpt>
      <trkpt lat="45.56462" lon="4.82465">
        <ele>219.32</ele>
        <time>2019-09-15T12:17:26Z</time>
      </trkpt>
      <trkpt lat="45.56465" lon="4.8247">
        <ele>219.32</ele>
        <time>2019-09-15T12:17:27Z</time>
      </trkpt>
      <trkpt lat="45.56468" lon="4.82474">
        <ele>220.28</ele>
        <time>2019-09-15T12:17:28Z</time>
      </trkpt>
      <trkpt lat="45.56471" lon="4.82479">
        <ele>220.76</ele>
        <time>2019-09-15T12:17:29Z</time>
      </trkpt>
      <trkpt lat="45.56483" lon="4.82496">
        <ele>223.16</ele>
        <time>2019-09-15T12:17:33Z</time>
      </trkpt>
      <trkpt lat="45.56486" lon="4.82499">
        <ele>223.16</ele>
        <time>2019-09-15T12:17:34Z</time>
      </trkpt>
      <trkpt lat="45.56489" lon="4.82503">
        <ele>223.64</ele>
        <time>2019-09-15T12:17:35Z</time>
      </trkpt>
      <trkpt lat="45.56505" lon="4.82541">
        <ele>226.05</ele>
        <time>2019-09-15T12:17:44Z</time>
      </trkpt>
      <trkpt lat="45.56491" lon="4.82602">
        <ele>228.93</ele>
        <time>2019-09-15T12:17:55Z</time>
      </trkpt>
      <trkpt lat="45.56488" lon="4.82607">
        <ele>228.93</ele>
        <time>2019-09-15T12:17:56Z</time>
      </trkpt>
      <trkpt lat="45.56484" lon="4.82611">
        <ele>228.93</ele>
        <time>2019-09-15T12:17:57Z</time>
      </trkpt>
      <trkpt lat="45.5648" lon="4.82614">
        <ele>229.41</ele>
        <time>2019-09-15T12:17:58Z</time>
      </trkpt>
      <trkpt lat="45.56476" lon="4.82617">
        <ele>228.93</ele>
        <time>2019-09-15T12:17:59Z</time>
      </trkpt>
      <trkpt lat="45.56463" lon="4.82624">
        <ele>229.41</ele>
        <time>2019-09-15T12:18:02Z</time>
      </trkpt>
      <trkpt lat="45.56458" lon="4.82626">
        <ele>229.89</ele>
        <time>2019-09-15T12:18:03Z</time>
      </trkpt>
      <trkpt lat="45.56454" lon="4.82628">
        <ele>229.89</ele>
        <time>2019-09-15T12:18:04Z</time>
      </trkpt>
      <trkpt lat="45.56423" lon="4.82637">
        <ele>229.89</ele>
        <time>2019-09-15T12:18:10Z</time>
      </trkpt>
      <trkpt lat="45.56418" lon="4.82639">
        <ele>230.37</ele>
        <time>2019-09-15T12:18:11Z</time>
      </trkpt>
      <trkpt lat="45.56373" lon="4.82647">
        <ele>232.78</ele>
        <time>2019-09-15T12:18:20Z</time>
      </trkpt>
      <trkpt lat="45.56358" lon="4.82647">
        <ele>232.3</ele>
        <time>2019-09-15T12:18:23Z</time>
      </trkpt>
      <trkpt lat="45.56347" lon="4.8265">
        <ele>232.78</ele>
        <time>2019-09-15T12:18:25Z</time>
      </trkpt>
      <trkpt lat="45.56342" lon="4.82651">
        <ele>232.3</ele>
        <time>2019-09-15T12:18:26Z</time>
      </trkpt>
      <trkpt lat="45.56315" lon="4.8266">
        <ele>229.41</ele>
        <time>2019-09-15T12:18:32Z</time>
      </trkpt>
      <trkpt lat="45.56312" lon="4.82664">
        <ele>229.41</ele>
        <time>2019-09-15T12:18:33Z</time>
      </trkpt>
      <trkpt lat="45.5631" lon="4.82669">
        <ele>229.41</ele>
        <time>2019-09-15T12:18:34Z</time>
      </trkpt>
      <trkpt lat="45.56308" lon="4.82675">
        <ele>229.41</ele>
        <time>2019-09-15T12:18:35Z</time>
      </trkpt>
      <trkpt lat="45.56307" lon="4.82681">
        <ele>229.41</ele>
        <time>2019-09-15T12:18:36Z</time>
      </trkpt>
      <trkpt lat="45.56306" lon="4.82688">
        <ele>229.89</ele>
        <time>2019-09-15T12:18:37Z</time>
      </trkpt>
      <trkpt lat="45.56305" lon="4.82695">
        <ele>229.89</ele>
        <time>2019-09-15T12:18:38Z</time>
      </trkpt>
      <trkpt lat="45.56305" lon="4.82709">
        <ele>228.93</ele>
        <time>2019-09-15T12:18:40Z</time>
      </trkpt>
      <trkpt lat="45.56302" lon="4.82726">
        <ele>227.49</ele>
        <time>2019-09-15T12:18:42Z</time>
      </trkpt>
      <trkpt lat="45.56299" lon="4.82734">
        <ele>227.49</ele>
        <time>2019-09-15T12:18:43Z</time>
      </trkpt>
      <trkpt lat="45.56295" lon="4.82741">
        <ele>227.01</ele>
        <time>2019-09-15T12:18:44Z</time>
      </trkpt>
      <trkpt lat="45.56291" lon="4.82747">
        <ele>226.53</ele>
        <time>2019-09-15T12:18:45Z</time>
      </trkpt>
      <trkpt lat="45.56286" lon="4.82752">
        <ele>227.49</ele>
        <time>2019-09-15T12:18:46Z</time>
      </trkpt>
      <trkpt lat="45.56282" lon="4.82754">
        <ele>227.49</ele>
        <time>2019-09-15T12:18:47Z</time>
      </trkpt>
      <trkpt lat="45.56277" lon="4.82755">
        <ele>227.97</ele>
        <time>2019-09-15T12:18:48Z</time>
      </trkpt>
      <trkpt lat="45.56272" lon="4.82755">
        <ele>227.97</ele>
        <time>2019-09-15T12:18:49Z</time>
      </trkpt>
      <trkpt lat="45.56267" lon="4.82754">
        <ele>228.93</ele>
        <time>2019-09-15T12:18:50Z</time>
      </trkpt>
      <trkpt lat="45.56262" lon="4.82752">
        <ele>228.93</ele>
        <time>2019-09-15T12:18:51Z</time>
      </trkpt>
      <trkpt lat="45.56257" lon="4.82749">
        <ele>229.41</ele>
        <time>2019-09-15T12:18:52Z</time>
      </trkpt>
      <trkpt lat="45.56243" lon="4.82743">
        <ele>231.81</ele>
        <time>2019-09-15T12:18:55Z</time>
      </trkpt>
      <trkpt lat="45.56238" lon="4.82741">
        <ele>231.81</ele>
        <time>2019-09-15T12:18:56Z</time>
      </trkpt>
      <trkpt lat="45.56229" lon="4.82739">
        <ele>232.78</ele>
        <time>2019-09-15T12:18:58Z</time>
      </trkpt>
      <trkpt lat="45.56223" lon="4.82739">
        <ele>233.26</ele>
        <time>2019-09-15T12:18:59Z</time>
      </trkpt>
      <trkpt lat="45.56199" lon="4.8273">
        <ele>233.74</ele>
        <time>2019-09-15T12:19:04Z</time>
      </trkpt>
      <trkpt lat="45.56194" lon="4.82728">
        <ele>233.26</ele>
        <time>2019-09-15T12:19:05Z</time>
      </trkpt>
      <trkpt lat="45.56189" lon="4.82729">
        <ele>233.26</ele>
        <time>2019-09-15T12:19:06Z</time>
      </trkpt>
      <trkpt lat="45.56184" lon="4.8273">
        <ele>232.78</ele>
        <time>2019-09-15T12:19:07Z</time>
      </trkpt>
      <trkpt lat="45.5618" lon="4.82732">
        <ele>232.3</ele>
        <time>2019-09-15T12:19:08Z</time>
      </trkpt>
      <trkpt lat="45.56177" lon="4.82735">
        <ele>232.3</ele>
        <time>2019-09-15T12:19:09Z</time>
      </trkpt>
      <trkpt lat="45.56175" lon="4.82739">
        <ele>232.3</ele>
        <time>2019-09-15T12:19:10Z</time>
      </trkpt>
      <trkpt lat="45.56174" lon="4.82744">
        <ele>231.81</ele>
        <time>2019-09-15T12:19:11Z</time>
      </trkpt>
      <trkpt lat="45.56174" lon="4.8275">
        <ele>231.33</ele>
        <time>2019-09-15T12:19:12Z</time>
      </trkpt>
      <trkpt lat="45.56175" lon="4.82757">
        <ele>231.81</ele>
        <time>2019-09-15T12:19:13Z</time>
      </trkpt>
      <trkpt lat="45.56176" lon="4.82823">
        <ele>234.22</ele>
        <time>2019-09-15T12:19:23Z</time>
      </trkpt>
      <trkpt lat="45.56178" lon="4.82829">
        <ele>234.7</ele>
        <time>2019-09-15T12:19:24Z</time>
      </trkpt>
      <trkpt lat="45.5618" lon="4.8284">
        <ele>236.14</ele>
        <time>2019-09-15T12:19:26Z</time>
      </trkpt>
      <trkpt lat="45.56189" lon="4.82874">
        <ele>239.02</ele>
        <time>2019-09-15T12:19:32Z</time>
      </trkpt>
      <trkpt lat="45.5619" lon="4.82889">
        <ele>240.47</ele>
        <time>2019-09-15T12:19:35Z</time>
      </trkpt>
      <trkpt lat="45.56188" lon="4.8289">
        <ele>240.95</ele>
        <time>2019-09-15T12:19:36Z</time>
      </trkpt>
      <trkpt lat="45.56186" lon="4.82891">
        <ele>241.43</ele>
        <time>2019-09-15T12:19:37Z</time>
      </trkpt>
      <trkpt lat="45.56182" lon="4.82891">
        <ele>240.95</ele>
        <time>2019-09-15T12:19:38Z</time>
      </trkpt>
      <trkpt lat="45.56178" lon="4.82889">
        <ele>240.95</ele>
        <time>2019-09-15T12:19:39Z</time>
      </trkpt>
      <trkpt lat="45.56174" lon="4.82887">
        <ele>240.47</ele>
        <time>2019-09-15T12:19:40Z</time>
      </trkpt>
      <trkpt lat="45.56169" lon="4.82886">
        <ele>240.47</ele>
        <time>2019-09-15T12:19:41Z</time>
      </trkpt>
      <trkpt lat="45.56165" lon="4.82887">
        <ele>240.47</ele>
        <time>2019-09-15T12:19:42Z</time>
      </trkpt>
      <trkpt lat="45.56123" lon="4.82895">
        <ele>239.02</ele>
        <time>2019-09-15T12:19:53Z</time>
      </trkpt>
      <trkpt lat="45.56113" lon="4.82896">
        <ele>239.02</ele>
        <time>2019-09-15T12:19:55Z</time>
      </trkpt>
      <trkpt lat="45.5607" lon="4.82895">
        <ele>237.1</ele>
        <time>2019-09-15T12:20:03Z</time>
      </trkpt>
      <trkpt lat="45.56055" lon="4.82901">
        <ele>235.18</ele>
        <time>2019-09-15T12:20:06Z</time>
      </trkpt>
      <trkpt lat="45.56051" lon="4.82906">
        <ele>234.7</ele>
        <time>2019-09-15T12:20:07Z</time>
      </trkpt>
      <trkpt lat="45.56046" lon="4.8292">
        <ele>233.74</ele>
        <time>2019-09-15T12:20:09Z</time>
      </trkpt>
      <trkpt lat="45.56044" lon="4.82929">
        <ele>232.78</ele>
        <time>2019-09-15T12:20:10Z</time>
      </trkpt>
      <trkpt lat="45.5604" lon="4.82945">
        <ele>230.85</ele>
        <time>2019-09-15T12:20:12Z</time>
      </trkpt>
      <trkpt lat="45.56036" lon="4.82951">
        <ele>229.89</ele>
        <time>2019-09-15T12:20:13Z</time>
      </trkpt>
      <trkpt lat="45.56031" lon="4.82957">
        <ele>229.41</ele>
        <time>2019-09-15T12:20:14Z</time>
      </trkpt>
      <trkpt lat="45.56025" lon="4.82962">
        <ele>228.93</ele>
        <time>2019-09-15T12:20:15Z</time>
      </trkpt>
      <trkpt lat="45.5602" lon="4.82968">
        <ele>228.93</ele>
        <time>2019-09-15T12:20:16Z</time>
      </trkpt>
      <trkpt lat="45.56016" lon="4.82975">
        <ele>227.97</ele>
        <time>2019-09-15T12:20:17Z</time>
      </trkpt>
      <trkpt lat="45.56012" lon="4.82982">
        <ele>227.97</ele>
        <time>2019-09-15T12:20:18Z</time>
      </trkpt>
      <trkpt lat="45.56008" lon="4.82989">
        <ele>227.97</ele>
        <time>2019-09-15T12:20:19Z</time>
      </trkpt>
      <trkpt lat="45.55976" lon="4.83051">
        <ele>227.97</ele>
        <time>2019-09-15T12:20:30Z</time>
      </trkpt>
      <trkpt lat="45.55976" lon="4.83057">
        <ele>227.97</ele>
        <time>2019-09-15T12:20:31Z</time>
      </trkpt>
      <trkpt lat="45.55977" lon="4.83064">
        <ele>228.45</ele>
        <time>2019-09-15T12:20:32Z</time>
      </trkpt>
      <trkpt lat="45.55979" lon="4.83077">
        <ele>228.45</ele>
        <time>2019-09-15T12:20:34Z</time>
      </trkpt>
      <trkpt lat="45.55979" lon="4.83084">
        <ele>228.45</ele>
        <time>2019-09-15T12:20:35Z</time>
      </trkpt>
      <trkpt lat="45.55979" lon="4.83091">
        <ele>228.45</ele>
        <time>2019-09-15T12:20:36Z</time>
      </trkpt>
      <trkpt lat="45.55977" lon="4.83097">
        <ele>227.97</ele>
        <time>2019-09-15T12:20:37Z</time>
      </trkpt>
      <trkpt lat="45.55974" lon="4.83104">
        <ele>227.97</ele>
        <time>2019-09-15T12:20:38Z</time>
      </trkpt>
      <trkpt lat="45.55971" lon="4.8311">
        <ele>227.97</ele>
        <time>2019-09-15T12:20:39Z</time>
      </trkpt>
      <trkpt lat="45.55969" lon="4.83116">
        <ele>229.41</ele>
        <time>2019-09-15T12:20:40Z</time>
      </trkpt>
      <trkpt lat="45.55968" lon="4.83121">
        <ele>230.37</ele>
        <time>2019-09-15T12:20:41Z</time>
      </trkpt>
      <trkpt lat="45.55968" lon="4.83124">
        <ele>230.37</ele>
        <time>2019-09-15T12:20:42Z</time>
      </trkpt>
      <trkpt lat="45.55983" lon="4.83161">
        <ele>231.33</ele>
        <time>2019-09-15T12:20:53Z</time>
      </trkpt>
      <trkpt lat="45.55988" lon="4.83171">
        <ele>234.22</ele>
        <time>2019-09-15T12:20:56Z</time>
      </trkpt>
      <trkpt lat="45.55988" lon="4.83175">
        <ele>234.7</ele>
        <time>2019-09-15T12:20:57Z</time>
      </trkpt>
      <trkpt lat="45.55988" lon="4.83178">
        <ele>235.18</ele>
        <time>2019-09-15T12:20:58Z</time>
      </trkpt>
      <trkpt lat="45.55989" lon="4.83181">
        <ele>236.62</ele>
        <time>2019-09-15T12:20:59Z</time>
      </trkpt>
      <trkpt lat="45.55989" lon="4.83182">
        <ele>237.1</ele>
        <time>2019-09-15T12:21:01Z</time>
      </trkpt>
      <trkpt lat="45.55987" lon="4.83186">
        <ele>238.54</ele>
        <time>2019-09-15T12:21:13Z</time>
      </trkpt>
      <trkpt lat="45.55988" lon="4.83199">
        <ele>241.43</ele>
        <time>2019-09-15T12:21:27Z</time>
      </trkpt>
      <trkpt lat="45.55988" lon="4.83199">
        <ele>241.43</ele>
        <time>2019-09-15T12:21:35Z</time>
      </trkpt>
      <trkpt lat="45.55989" lon="4.83201">
        <ele>241.91</ele>
        <time>2019-09-15T12:21:36Z</time>
      </trkpt>
      <trkpt lat="45.5599" lon="4.83204">
        <ele>241.91</ele>
        <time>2019-09-15T12:21:37Z</time>
      </trkpt>
      <trkpt lat="45.55998" lon="4.83218">
        <ele>245.27</ele>
        <time>2019-09-15T12:21:42Z</time>
      </trkpt>
      <trkpt lat="45.55999" lon="4.83221">
        <ele>245.27</ele>
        <time>2019-09-15T12:21:43Z</time>
      </trkpt>
      <trkpt lat="45.56003" lon="4.83232">
        <ele>246.72</ele>
        <time>2019-09-15T12:21:54Z</time>
      </trkpt>
      <trkpt lat="45.56003" lon="4.83232">
        <ele>247.2</ele>
        <time>2019-09-15T12:22:15Z</time>
      </trkpt>
      <trkpt lat="45.56003" lon="4.83231">
        <ele>247.2</ele>
        <time>2019-09-15T12:22:32Z</time>
      </trkpt>
      <trkpt lat="45.56003" lon="4.83231">
        <ele>247.68</ele>
        <time>2019-09-15T12:23:24Z</time>
      </trkpt>
      <trkpt lat="45.56003" lon="4.83231">
        <ele>248.64</ele>
        <time>2019-09-15T12:23:59Z</time>
      </trkpt>
      <trkpt lat="45.56003" lon="4.83233">
        <ele>248.16</ele>
        <time>2019-09-15T12:24:01Z</time>
      </trkpt>
      <trkpt lat="45.56002" lon="4.83237">
        <ele>248.16</ele>
        <time>2019-09-15T12:24:06Z</time>
      </trkpt>
      <trkpt lat="45.56001" lon="4.8324">
        <ele>248.16</ele>
        <time>2019-09-15T12:24:07Z</time>
      </trkpt>
      <trkpt lat="45.55999" lon="4.83243">
        <ele>247.2</ele>
        <time>2019-09-15T12:24:08Z</time>
      </trkpt>
      <trkpt lat="45.55997" lon="4.83247">
        <ele>246.72</ele>
        <time>2019-09-15T12:24:09Z</time>
      </trkpt>
      <trkpt lat="45.55996" lon="4.83252">
        <ele>246.23</ele>
        <time>2019-09-15T12:24:10Z</time>
      </trkpt>
      <trkpt lat="45.55995" lon="4.83256">
        <ele>245.75</ele>
        <time>2019-09-15T12:24:11Z</time>
      </trkpt>
      <trkpt lat="45.55993" lon="4.83262">
        <ele>245.75</ele>
        <time>2019-09-15T12:24:12Z</time>
      </trkpt>
      <trkpt lat="45.55992" lon="4.83268">
        <ele>244.79</ele>
        <time>2019-09-15T12:24:13Z</time>
      </trkpt>
      <trkpt lat="45.55991" lon="4.83273">
        <ele>244.31</ele>
        <time>2019-09-15T12:24:14Z</time>
      </trkpt>
      <trkpt lat="45.55986" lon="4.83287">
        <ele>241.91</ele>
        <time>2019-09-15T12:24:17Z</time>
      </trkpt>
      <trkpt lat="45.55982" lon="4.83288">
        <ele>240.47</ele>
        <time>2019-09-15T12:24:18Z</time>
      </trkpt>
      <trkpt lat="45.55978" lon="4.83285">
        <ele>240.47</ele>
        <time>2019-09-15T12:24:19Z</time>
      </trkpt>
      <trkpt lat="45.55966" lon="4.83276">
        <ele>237.58</ele>
        <time>2019-09-15T12:24:21Z</time>
      </trkpt>
      <trkpt lat="45.5596" lon="4.83272">
        <ele>236.62</ele>
        <time>2019-09-15T12:24:22Z</time>
      </trkpt>
      <trkpt lat="45.55953" lon="4.83268">
        <ele>235.18</ele>
        <time>2019-09-15T12:24:23Z</time>
      </trkpt>
      <trkpt lat="45.5594" lon="4.83261">
        <ele>233.74</ele>
        <time>2019-09-15T12:24:26Z</time>
      </trkpt>
      <trkpt lat="45.55928" lon="4.83269">
        <ele>236.62</ele>
        <time>2019-09-15T12:24:31Z</time>
      </trkpt>
      <trkpt lat="45.55918" lon="4.83278">
        <ele>239.99</ele>
        <time>2019-09-15T12:24:35Z</time>
      </trkpt>
      <trkpt lat="45.55912" lon="4.83279">
        <ele>239.99</ele>
        <time>2019-09-15T12:24:37Z</time>
      </trkpt>
      <trkpt lat="45.5591" lon="4.83281">
        <ele>240.47</ele>
        <time>2019-09-15T12:24:38Z</time>
      </trkpt>
      <trkpt lat="45.55909" lon="4.83285">
        <ele>240.47</ele>
        <time>2019-09-15T12:24:39Z</time>
      </trkpt>
      <trkpt lat="45.55907" lon="4.83293">
        <ele>241.43</ele>
        <time>2019-09-15T12:24:41Z</time>
      </trkpt>
      <trkpt lat="45.55899" lon="4.83322">
        <ele>244.79</ele>
        <time>2019-09-15T12:24:48Z</time>
      </trkpt>
      <trkpt lat="45.55893" lon="4.83344">
        <ele>247.2</ele>
        <time>2019-09-15T12:24:54Z</time>
      </trkpt>
      <trkpt lat="45.55895" lon="4.8338">
        <ele>250.56</ele>
        <time>2019-09-15T12:25:03Z</time>
      </trkpt>
      <trkpt lat="45.55895" lon="4.83427">
        <ele>253.93</ele>
        <time>2019-09-15T12:25:13Z</time>
      </trkpt>
      <trkpt lat="45.55884" lon="4.83474">
        <ele>257.29</ele>
        <time>2019-09-15T12:25:23Z</time>
      </trkpt>
      <trkpt lat="45.55882" lon="4.83488">
        <ele>258.73</ele>
        <time>2019-09-15T12:25:26Z</time>
      </trkpt>
      <trkpt lat="45.55875" lon="4.83513">
        <ele>258.25</ele>
        <time>2019-09-15T12:25:31Z</time>
      </trkpt>
      <trkpt lat="45.55847" lon="4.83568">
        <ele>258.25</ele>
        <time>2019-09-15T12:25:44Z</time>
      </trkpt>
      <trkpt lat="45.55846" lon="4.83576">
        <ele>258.73</ele>
        <time>2019-09-15T12:25:47Z</time>
      </trkpt>
      <trkpt lat="45.55847" lon="4.83579">
        <ele>258.73</ele>
        <time>2019-09-15T12:25:48Z</time>
      </trkpt>
      <trkpt lat="45.5585" lon="4.83581">
        <ele>259.21</ele>
        <time>2019-09-15T12:25:49Z</time>
      </trkpt>
      <trkpt lat="45.55881" lon="4.83607">
        <ele>262.58</ele>
        <time>2019-09-15T12:25:59Z</time>
      </trkpt>
      <trkpt lat="45.55887" lon="4.83612">
        <ele>263.06</ele>
        <time>2019-09-15T12:26:01Z</time>
      </trkpt>
      <trkpt lat="45.55898" lon="4.83621">
        <ele>264.02</ele>
        <time>2019-09-15T12:26:04Z</time>
      </trkpt>
      <trkpt lat="45.55916" lon="4.83635">
        <ele>265.46</ele>
        <time>2019-09-15T12:26:09Z</time>
      </trkpt>
      <trkpt lat="45.55954" lon="4.83672">
        <ele>268.35</ele>
        <time>2019-09-15T12:26:21Z</time>
      </trkpt>
      <trkpt lat="45.56004" lon="4.83716">
        <ele>271.23</ele>
        <time>2019-09-15T12:26:35Z</time>
      </trkpt>
      <trkpt lat="45.56053" lon="4.83754">
        <ele>272.19</ele>
        <time>2019-09-15T12:26:48Z</time>
      </trkpt>
      <trkpt lat="45.56056" lon="4.83758">
        <ele>272.19</ele>
        <time>2019-09-15T12:26:49Z</time>
      </trkpt>
      <trkpt lat="45.56057" lon="4.83763">
        <ele>271.71</ele>
        <time>2019-09-15T12:26:50Z</time>
      </trkpt>
      <trkpt lat="45.56057" lon="4.83768">
        <ele>272.67</ele>
        <time>2019-09-15T12:26:51Z</time>
      </trkpt>
      <trkpt lat="45.56055" lon="4.83775">
        <ele>272.67</ele>
        <time>2019-09-15T12:26:52Z</time>
      </trkpt>
      <trkpt lat="45.56054" lon="4.83781">
        <ele>272.67</ele>
        <time>2019-09-15T12:26:53Z</time>
      </trkpt>
      <trkpt lat="45.56032" lon="4.83883">
        <ele>274.59</ele>
        <time>2019-09-15T12:27:07Z</time>
      </trkpt>
      <trkpt lat="45.5602" lon="4.83914">
        <ele>276.04</ele>
        <time>2019-09-15T12:27:12Z</time>
      </trkpt>
      <trkpt lat="45.55983" lon="4.84005">
        <ele>279.4</ele>
        <time>2019-09-15T12:27:27Z</time>
      </trkpt>
      <trkpt lat="45.5596" lon="4.84069">
        <ele>281.32</ele>
        <time>2019-09-15T12:27:38Z</time>
      </trkpt>
      <trkpt lat="45.55959" lon="4.84081">
        <ele>281.32</ele>
        <time>2019-09-15T12:27:40Z</time>
      </trkpt>
      <trkpt lat="45.55959" lon="4.84088">
        <ele>281.32</ele>
        <time>2019-09-15T12:27:41Z</time>
      </trkpt>
      <trkpt lat="45.55959" lon="4.84094">
        <ele>282.28</ele>
        <time>2019-09-15T12:27:42Z</time>
      </trkpt>
      <trkpt lat="45.55957" lon="4.841">
        <ele>282.28</ele>
        <time>2019-09-15T12:27:43Z</time>
      </trkpt>
      <trkpt lat="45.55954" lon="4.84105">
        <ele>282.28</ele>
        <time>2019-09-15T12:27:44Z</time>
      </trkpt>
      <trkpt lat="45.5595" lon="4.8411">
        <ele>282.77</ele>
        <time>2019-09-15T12:27:45Z</time>
      </trkpt>
      <trkpt lat="45.55946" lon="4.84114">
        <ele>283.25</ele>
        <time>2019-09-15T12:27:46Z</time>
      </trkpt>
      <trkpt lat="45.55942" lon="4.84119">
        <ele>283.25</ele>
        <time>2019-09-15T12:27:47Z</time>
      </trkpt>
      <trkpt lat="45.559" lon="4.84171">
        <ele>286.13</ele>
        <time>2019-09-15T12:27:58Z</time>
      </trkpt>
      <trkpt lat="45.55892" lon="4.84179">
        <ele>286.13</ele>
        <time>2019-09-15T12:28:00Z</time>
      </trkpt>
      <trkpt lat="45.55884" lon="4.84184">
        <ele>287.09</ele>
        <time>2019-09-15T12:28:02Z</time>
      </trkpt>
      <trkpt lat="45.55871" lon="4.8419">
        <ele>288.05</ele>
        <time>2019-09-15T12:28:05Z</time>
      </trkpt>
      <trkpt lat="45.55863" lon="4.84194">
        <ele>288.05</ele>
        <time>2019-09-15T12:28:07Z</time>
      </trkpt>
      <trkpt lat="45.55859" lon="4.84195">
        <ele>288.53</ele>
        <time>2019-09-15T12:28:08Z</time>
      </trkpt>
      <trkpt lat="45.55854" lon="4.84195">
        <ele>288.53</ele>
        <time>2019-09-15T12:28:09Z</time>
      </trkpt>
      <trkpt lat="45.5585" lon="4.84194">
        <ele>288.53</ele>
        <time>2019-09-15T12:28:10Z</time>
      </trkpt>
      <trkpt lat="45.55845" lon="4.84193">
        <ele>289.01</ele>
        <time>2019-09-15T12:28:11Z</time>
      </trkpt>
      <trkpt lat="45.55841" lon="4.84192">
        <ele>289.49</ele>
        <time>2019-09-15T12:28:12Z</time>
      </trkpt>
      <trkpt lat="45.55836" lon="4.8419">
        <ele>289.49</ele>
        <time>2019-09-15T12:28:13Z</time>
      </trkpt>
      <trkpt lat="45.55779" lon="4.84183">
        <ele>290.94</ele>
        <time>2019-09-15T12:28:24Z</time>
      </trkpt>
      <trkpt lat="45.55728" lon="4.84174">
        <ele>292.86</ele>
        <time>2019-09-15T12:28:35Z</time>
      </trkpt>
      <trkpt lat="45.55723" lon="4.84173">
        <ele>292.38</ele>
        <time>2019-09-15T12:28:36Z</time>
      </trkpt>
      <trkpt lat="45.55717" lon="4.84171">
        <ele>292.38</ele>
        <time>2019-09-15T12:28:37Z</time>
      </trkpt>
      <trkpt lat="45.55704" lon="4.84167">
        <ele>290.94</ele>
        <time>2019-09-15T12:28:39Z</time>
      </trkpt>
      <trkpt lat="45.55691" lon="4.84165">
        <ele>290.46</ele>
        <time>2019-09-15T12:28:41Z</time>
      </trkpt>
      <trkpt lat="45.55685" lon="4.84163">
        <ele>289.97</ele>
        <time>2019-09-15T12:28:42Z</time>
      </trkpt>
      <trkpt lat="45.55679" lon="4.8416">
        <ele>289.97</ele>
        <time>2019-09-15T12:28:43Z</time>
      </trkpt>
      <trkpt lat="45.55674" lon="4.84155">
        <ele>290.46</ele>
        <time>2019-09-15T12:28:44Z</time>
      </trkpt>
      <trkpt lat="45.5567" lon="4.8415">
        <ele>290.46</ele>
        <time>2019-09-15T12:28:45Z</time>
      </trkpt>
      <trkpt lat="45.55666" lon="4.84143">
        <ele>290.94</ele>
        <time>2019-09-15T12:28:46Z</time>
      </trkpt>
      <trkpt lat="45.55661" lon="4.84138">
        <ele>291.42</ele>
        <time>2019-09-15T12:28:47Z</time>
      </trkpt>
      <trkpt lat="45.55657" lon="4.84135">
        <ele>291.9</ele>
        <time>2019-09-15T12:28:48Z</time>
      </trkpt>
      <trkpt lat="45.55653" lon="4.84132">
        <ele>292.38</ele>
        <time>2019-09-15T12:28:49Z</time>
      </trkpt>
      <trkpt lat="45.55645" lon="4.84129">
        <ele>293.82</ele>
        <time>2019-09-15T12:28:51Z</time>
      </trkpt>
      <trkpt lat="45.5564" lon="4.84128">
        <ele>294.3</ele>
        <time>2019-09-15T12:28:52Z</time>
      </trkpt>
      <trkpt lat="45.55619" lon="4.84128">
        <ele>293.82</ele>
        <time>2019-09-15T12:28:56Z</time>
      </trkpt>
      <trkpt lat="45.55559" lon="4.84119">
        <ele>290.94</ele>
        <time>2019-09-15T12:29:05Z</time>
      </trkpt>
      <trkpt lat="45.55506" lon="4.84115">
        <ele>290.94</ele>
        <time>2019-09-15T12:29:13Z</time>
      </trkpt>
      <trkpt lat="45.5546" lon="4.84133">
        <ele>292.86</ele>
        <time>2019-09-15T12:29:22Z</time>
      </trkpt>
      <trkpt lat="45.55456" lon="4.84136">
        <ele>293.82</ele>
        <time>2019-09-15T12:29:23Z</time>
      </trkpt>
      <trkpt lat="45.55452" lon="4.84139">
        <ele>294.78</ele>
        <time>2019-09-15T12:29:24Z</time>
      </trkpt>
      <trkpt lat="45.55449" lon="4.84142">
        <ele>294.3</ele>
        <time>2019-09-15T12:29:25Z</time>
      </trkpt>
      <trkpt lat="45.55435" lon="4.84154">
        <ele>294.3</ele>
        <time>2019-09-15T12:29:28Z</time>
      </trkpt>
      <trkpt lat="45.55429" lon="4.84156">
        <ele>293.82</ele>
        <time>2019-09-15T12:29:29Z</time>
      </trkpt>
      <trkpt lat="45.55423" lon="4.84158">
        <ele>293.34</ele>
        <time>2019-09-15T12:29:30Z</time>
      </trkpt>
      <trkpt lat="45.55416" lon="4.84157">
        <ele>292.86</ele>
        <time>2019-09-15T12:29:31Z</time>
      </trkpt>
      <trkpt lat="45.5541" lon="4.84156">
        <ele>293.34</ele>
        <time>2019-09-15T12:29:32Z</time>
      </trkpt>
      <trkpt lat="45.55404" lon="4.84154">
        <ele>292.86</ele>
        <time>2019-09-15T12:29:33Z</time>
      </trkpt>
      <trkpt lat="45.55399" lon="4.84151">
        <ele>293.34</ele>
        <time>2019-09-15T12:29:34Z</time>
      </trkpt>
      <trkpt lat="45.55394" lon="4.84148">
        <ele>292.86</ele>
        <time>2019-09-15T12:29:35Z</time>
      </trkpt>
      <trkpt lat="45.55389" lon="4.84144">
        <ele>293.34</ele>
        <time>2019-09-15T12:29:36Z</time>
      </trkpt>
      <trkpt lat="45.55358" lon="4.84123">
        <ele>293.34</ele>
        <time>2019-09-15T12:29:42Z</time>
      </trkpt>
      <trkpt lat="45.55353" lon="4.84119">
        <ele>293.82</ele>
        <time>2019-09-15T12:29:43Z</time>
      </trkpt>
      <trkpt lat="45.55306" lon="4.84085">
        <ele>294.78</ele>
        <time>2019-09-15T12:29:52Z</time>
      </trkpt>
      <trkpt lat="45.55282" lon="4.84066">
        <ele>296.22</ele>
        <time>2019-09-15T12:29:57Z</time>
      </trkpt>
      <trkpt lat="45.55277" lon="4.84063">
        <ele>296.22</ele>
        <time>2019-09-15T12:29:58Z</time>
      </trkpt>
      <trkpt lat="45.55234" lon="4.84043">
        <ele>297.18</ele>
        <time>2019-09-15T12:30:06Z</time>
      </trkpt>
      <trkpt lat="45.55157" lon="4.84042">
        <ele>297.67</ele>
        <time>2019-09-15T12:30:19Z</time>
      </trkpt>
      <trkpt lat="45.55146" lon="4.84047">
        <ele>297.18</ele>
        <time>2019-09-15T12:30:21Z</time>
      </trkpt>
      <trkpt lat="45.55142" lon="4.84052">
        <ele>297.18</ele>
        <time>2019-09-15T12:30:22Z</time>
      </trkpt>
      <trkpt lat="45.55138" lon="4.84058">
        <ele>297.67</ele>
        <time>2019-09-15T12:30:23Z</time>
      </trkpt>
      <trkpt lat="45.55135" lon="4.84064">
        <ele>297.18</ele>
        <time>2019-09-15T12:30:24Z</time>
      </trkpt>
      <trkpt lat="45.55132" lon="4.84071">
        <ele>297.18</ele>
        <time>2019-09-15T12:30:25Z</time>
      </trkpt>
      <trkpt lat="45.55117" lon="4.84106">
        <ele>297.18</ele>
        <time>2019-09-15T12:30:30Z</time>
      </trkpt>
      <trkpt lat="45.55108" lon="4.84119">
        <ele>297.18</ele>
        <time>2019-09-15T12:30:32Z</time>
      </trkpt>
      <trkpt lat="45.55091" lon="4.84138">
        <ele>298.15</ele>
        <time>2019-09-15T12:30:36Z</time>
      </trkpt>
      <trkpt lat="45.55087" lon="4.84143">
        <ele>298.15</ele>
        <time>2019-09-15T12:30:37Z</time>
      </trkpt>
      <trkpt lat="45.55029" lon="4.84211">
        <ele>299.59</ele>
        <time>2019-09-15T12:30:50Z</time>
      </trkpt>
      <trkpt lat="45.55024" lon="4.84224">
        <ele>300.55</ele>
        <time>2019-09-15T12:30:52Z</time>
      </trkpt>
      <trkpt lat="45.55021" lon="4.84237">
        <ele>300.07</ele>
        <time>2019-09-15T12:30:54Z</time>
      </trkpt>
      <trkpt lat="45.55019" lon="4.84246">
        <ele>299.11</ele>
        <time>2019-09-15T12:30:55Z</time>
      </trkpt>
      <trkpt lat="45.55018" lon="4.84255">
        <ele>298.63</ele>
        <time>2019-09-15T12:30:56Z</time>
      </trkpt>
      <trkpt lat="45.55018" lon="4.84265">
        <ele>299.11</ele>
        <time>2019-09-15T12:30:57Z</time>
      </trkpt>
      <trkpt lat="45.55019" lon="4.84276">
        <ele>298.15</ele>
        <time>2019-09-15T12:30:58Z</time>
      </trkpt>
      <trkpt lat="45.55021" lon="4.84287">
        <ele>297.18</ele>
        <time>2019-09-15T12:30:59Z</time>
      </trkpt>
      <trkpt lat="45.55024" lon="4.84298">
        <ele>295.74</ele>
        <time>2019-09-15T12:31:00Z</time>
      </trkpt>
      <trkpt lat="45.55033" lon="4.84335">
        <ele>294.3</ele>
        <time>2019-09-15T12:31:03Z</time>
      </trkpt>
      <trkpt lat="45.55037" lon="4.84393">
        <ele>294.78</ele>
        <time>2019-09-15T12:31:08Z</time>
      </trkpt>
      <trkpt lat="45.55037" lon="4.84401">
        <ele>295.26</ele>
        <time>2019-09-15T12:31:09Z</time>
      </trkpt>
      <trkpt lat="45.55036" lon="4.84409">
        <ele>294.78</ele>
        <time>2019-09-15T12:31:10Z</time>
      </trkpt>
      <trkpt lat="45.55036" lon="4.84416">
        <ele>294.3</ele>
        <time>2019-09-15T12:31:11Z</time>
      </trkpt>
      <trkpt lat="45.55037" lon="4.84423">
        <ele>293.82</ele>
        <time>2019-09-15T12:31:12Z</time>
      </trkpt>
      <trkpt lat="45.55039" lon="4.84429">
        <ele>293.82</ele>
        <time>2019-09-15T12:31:13Z</time>
      </trkpt>
      <trkpt lat="45.55038" lon="4.84435">
        <ele>292.86</ele>
        <time>2019-09-15T12:31:14Z</time>
      </trkpt>
      <trkpt lat="45.55037" lon="4.8444">
        <ele>291.9</ele>
        <time>2019-09-15T12:31:15Z</time>
      </trkpt>
      <trkpt lat="45.55034" lon="4.84444">
        <ele>291.42</ele>
        <time>2019-09-15T12:31:16Z</time>
      </trkpt>
      <trkpt lat="45.5503" lon="4.84446">
        <ele>290.46</ele>
        <time>2019-09-15T12:31:17Z</time>
      </trkpt>
      <trkpt lat="45.55026" lon="4.84447">
        <ele>290.46</ele>
        <time>2019-09-15T12:31:18Z</time>
      </trkpt>
      <trkpt lat="45.55023" lon="4.84448">
        <ele>289.49</ele>
        <time>2019-09-15T12:31:19Z</time>
      </trkpt>
      <trkpt lat="45.55008" lon="4.84451">
        <ele>287.57</ele>
        <time>2019-09-15T12:31:23Z</time>
      </trkpt>
      <trkpt lat="45.54972" lon="4.84459">
        <ele>288.05</ele>
        <time>2019-09-15T12:31:32Z</time>
      </trkpt>
      <trkpt lat="45.54944" lon="4.84462">
        <ele>289.49</ele>
        <time>2019-09-15T12:31:37Z</time>
      </trkpt>
      <trkpt lat="45.54918" lon="4.84477">
        <ele>292.38</ele>
        <time>2019-09-15T12:31:42Z</time>
      </trkpt>
      <trkpt lat="45.54913" lon="4.84481">
        <ele>292.86</ele>
        <time>2019-09-15T12:31:43Z</time>
      </trkpt>
      <trkpt lat="45.54872" lon="4.84508">
        <ele>296.22</ele>
        <time>2019-09-15T12:31:52Z</time>
      </trkpt>
      <trkpt lat="45.54839" lon="4.84533">
        <ele>297.18</ele>
        <time>2019-09-15T12:32:00Z</time>
      </trkpt>
      <trkpt lat="45.54808" lon="4.84564">
        <ele>293.82</ele>
        <time>2019-09-15T12:32:10Z</time>
      </trkpt>
      <trkpt lat="45.54792" lon="4.8458">
        <ele>290.46</ele>
        <time>2019-09-15T12:32:21Z</time>
      </trkpt>
      <trkpt lat="45.54792" lon="4.8458">
        <ele>290.94</ele>
        <time>2019-09-15T12:32:54Z</time>
      </trkpt>
      <trkpt lat="45.54792" lon="4.84581">
        <ele>291.42</ele>
        <time>2019-09-15T12:33:15Z</time>
      </trkpt>
      <trkpt lat="45.54792" lon="4.84581">
        <ele>290.94</ele>
        <time>2019-09-15T12:33:38Z</time>
      </trkpt>
      <trkpt lat="45.54791" lon="4.84581">
        <ele>291.9</ele>
        <time>2019-09-15T12:34:02Z</time>
      </trkpt>
      <trkpt lat="45.54791" lon="4.8458">
        <ele>291.9</ele>
        <time>2019-09-15T12:34:27Z</time>
      </trkpt>
      <trkpt lat="45.54791" lon="4.8458">
        <ele>291.9</ele>
        <time>2019-09-15T12:34:39Z</time>
      </trkpt>
      <trkpt lat="45.5479" lon="4.84582">
        <ele>291.9</ele>
        <time>2019-09-15T12:34:40Z</time>
      </trkpt>
      <trkpt lat="45.54788" lon="4.84585">
        <ele>290.94</ele>
        <time>2019-09-15T12:34:41Z</time>
      </trkpt>
      <trkpt lat="45.54787" lon="4.8459">
        <ele>291.42</ele>
        <time>2019-09-15T12:34:42Z</time>
      </trkpt>
      <trkpt lat="45.54785" lon="4.84595">
        <ele>290.94</ele>
        <time>2019-09-15T12:34:43Z</time>
      </trkpt>
      <trkpt lat="45.54783" lon="4.84602">
        <ele>290.94</ele>
        <time>2019-09-15T12:34:44Z</time>
      </trkpt>
      <trkpt lat="45.5478" lon="4.84609">
        <ele>289.49</ele>
        <time>2019-09-15T12:34:45Z</time>
      </trkpt>
      <trkpt lat="45.54778" lon="4.84617">
        <ele>289.49</ele>
        <time>2019-09-15T12:34:46Z</time>
      </trkpt>
      <trkpt lat="45.54778" lon="4.84625">
        <ele>289.01</ele>
        <time>2019-09-15T12:34:47Z</time>
      </trkpt>
      <trkpt lat="45.5478" lon="4.84634">
        <ele>288.53</ele>
        <time>2019-09-15T12:34:48Z</time>
      </trkpt>
      <trkpt lat="45.54783" lon="4.84642">
        <ele>287.57</ele>
        <time>2019-09-15T12:34:49Z</time>
      </trkpt>
      <trkpt lat="45.54787" lon="4.84649">
        <ele>287.09</ele>
        <time>2019-09-15T12:34:50Z</time>
      </trkpt>
      <trkpt lat="45.54792" lon="4.84657">
        <ele>286.61</ele>
        <time>2019-09-15T12:34:51Z</time>
      </trkpt>
      <trkpt lat="45.54797" lon="4.84666">
        <ele>286.13</ele>
        <time>2019-09-15T12:34:52Z</time>
      </trkpt>
      <trkpt lat="45.54801" lon="4.84675">
        <ele>286.13</ele>
        <time>2019-09-15T12:34:53Z</time>
      </trkpt>
      <trkpt lat="45.54804" lon="4.84686">
        <ele>286.61</ele>
        <time>2019-09-15T12:34:54Z</time>
      </trkpt>
      <trkpt lat="45.54804" lon="4.84696">
        <ele>286.13</ele>
        <time>2019-09-15T12:34:55Z</time>
      </trkpt>
      <trkpt lat="45.54803" lon="4.84706">
        <ele>287.09</ele>
        <time>2019-09-15T12:34:56Z</time>
      </trkpt>
      <trkpt lat="45.54802" lon="4.84715">
        <ele>287.57</ele>
        <time>2019-09-15T12:34:57Z</time>
      </trkpt>
      <trkpt lat="45.548" lon="4.84724">
        <ele>287.09</ele>
        <time>2019-09-15T12:34:58Z</time>
      </trkpt>
      <trkpt lat="45.54796" lon="4.84747">
        <ele>289.49</ele>
        <time>2019-09-15T12:35:01Z</time>
      </trkpt>
      <trkpt lat="45.5479" lon="4.84779">
        <ele>291.9</ele>
        <time>2019-09-15T12:35:05Z</time>
      </trkpt>
      <trkpt lat="45.5479" lon="4.84789">
        <ele>291.42</ele>
        <time>2019-09-15T12:35:06Z</time>
      </trkpt>
      <trkpt lat="45.54791" lon="4.84799">
        <ele>290.94</ele>
        <time>2019-09-15T12:35:07Z</time>
      </trkpt>
      <trkpt lat="45.54793" lon="4.84809">
        <ele>290.94</ele>
        <time>2019-09-15T12:35:08Z</time>
      </trkpt>
      <trkpt lat="45.54796" lon="4.84818">
        <ele>290.46</ele>
        <time>2019-09-15T12:35:09Z</time>
      </trkpt>
      <trkpt lat="45.54799" lon="4.84827">
        <ele>290.94</ele>
        <time>2019-09-15T12:35:10Z</time>
      </trkpt>
      <trkpt lat="45.54803" lon="4.84837">
        <ele>289.97</ele>
        <time>2019-09-15T12:35:11Z</time>
      </trkpt>
      <trkpt lat="45.54807" lon="4.84847">
        <ele>289.49</ele>
        <time>2019-09-15T12:35:12Z</time>
      </trkpt>
      <trkpt lat="45.5481" lon="4.84857">
        <ele>289.01</ele>
        <time>2019-09-15T12:35:13Z</time>
      </trkpt>
      <trkpt lat="45.54811" lon="4.84868">
        <ele>289.49</ele>
        <time>2019-09-15T12:35:14Z</time>
      </trkpt>
      <trkpt lat="45.54811" lon="4.84878">
        <ele>289.97</ele>
        <time>2019-09-15T12:35:15Z</time>
      </trkpt>
      <trkpt lat="45.5481" lon="4.84888">
        <ele>289.97</ele>
        <time>2019-09-15T12:35:16Z</time>
      </trkpt>
      <trkpt lat="45.54809" lon="4.84898">
        <ele>290.46</ele>
        <time>2019-09-15T12:35:17Z</time>
      </trkpt>
      <trkpt lat="45.54808" lon="4.84906">
        <ele>289.97</ele>
        <time>2019-09-15T12:35:18Z</time>
      </trkpt>
      <trkpt lat="45.54807" lon="4.84914">
        <ele>290.94</ele>
        <time>2019-09-15T12:35:19Z</time>
      </trkpt>
      <trkpt lat="45.54807" lon="4.84923">
        <ele>291.9</ele>
        <time>2019-09-15T12:35:20Z</time>
      </trkpt>
      <trkpt lat="45.54808" lon="4.8493">
        <ele>291.9</ele>
        <time>2019-09-15T12:35:21Z</time>
      </trkpt>
      <trkpt lat="45.54809" lon="4.84938">
        <ele>293.34</ele>
        <time>2019-09-15T12:35:22Z</time>
      </trkpt>
      <trkpt lat="45.5481" lon="4.84946">
        <ele>293.34</ele>
        <time>2019-09-15T12:35:23Z</time>
      </trkpt>
      <trkpt lat="45.54812" lon="4.84953">
        <ele>294.3</ele>
        <time>2019-09-15T12:35:24Z</time>
      </trkpt>
      <trkpt lat="45.54823" lon="4.84986">
        <ele>293.82</ele>
        <time>2019-09-15T12:35:28Z</time>
      </trkpt>
      <trkpt lat="45.54828" lon="4.84993">
        <ele>293.34</ele>
        <time>2019-09-15T12:35:29Z</time>
      </trkpt>
      <trkpt lat="45.54834" lon="4.85">
        <ele>292.86</ele>
        <time>2019-09-15T12:35:30Z</time>
      </trkpt>
      <trkpt lat="45.54841" lon="4.85007">
        <ele>291.9</ele>
        <time>2019-09-15T12:35:31Z</time>
      </trkpt>
      <trkpt lat="45.54848" lon="4.85012">
        <ele>291.42</ele>
        <time>2019-09-15T12:35:32Z</time>
      </trkpt>
      <trkpt lat="45.54855" lon="4.85016">
        <ele>291.42</ele>
        <time>2019-09-15T12:35:33Z</time>
      </trkpt>
      <trkpt lat="45.54863" lon="4.8502">
        <ele>290.46</ele>
        <time>2019-09-15T12:35:34Z</time>
      </trkpt>
      <trkpt lat="45.5487" lon="4.85023">
        <ele>290.46</ele>
        <time>2019-09-15T12:35:35Z</time>
      </trkpt>
      <trkpt lat="45.5491" lon="4.85037">
        <ele>289.97</ele>
        <time>2019-09-15T12:35:40Z</time>
      </trkpt>
      <trkpt lat="45.54982" lon="4.85038">
        <ele>290.94</ele>
        <time>2019-09-15T12:35:51Z</time>
      </trkpt>
      <trkpt lat="45.55001" lon="4.85029">
        <ele>291.9</ele>
        <time>2019-09-15T12:35:55Z</time>
      </trkpt>
      <trkpt lat="45.55006" lon="4.85026">
        <ele>292.38</ele>
        <time>2019-09-15T12:35:56Z</time>
      </trkpt>
      <trkpt lat="45.55011" lon="4.85023">
        <ele>292.86</ele>
        <time>2019-09-15T12:35:57Z</time>
      </trkpt>
      <trkpt lat="45.55025" lon="4.85012">
        <ele>293.82</ele>
        <time>2019-09-15T12:36:00Z</time>
      </trkpt>
      <trkpt lat="45.55067" lon="4.84968">
        <ele>296.7</ele>
        <time>2019-09-15T12:36:09Z</time>
      </trkpt>
      <trkpt lat="45.55071" lon="4.84963">
        <ele>297.18</ele>
        <time>2019-09-15T12:36:10Z</time>
      </trkpt>
      <trkpt lat="45.55085" lon="4.84952">
        <ele>298.63</ele>
        <time>2019-09-15T12:36:13Z</time>
      </trkpt>
      <trkpt lat="45.5509" lon="4.84948">
        <ele>299.59</ele>
        <time>2019-09-15T12:36:14Z</time>
      </trkpt>
      <trkpt lat="45.55106" lon="4.84939">
        <ele>301.99</ele>
        <time>2019-09-15T12:36:18Z</time>
      </trkpt>
      <trkpt lat="45.55111" lon="4.84936">
        <ele>302.95</ele>
        <time>2019-09-15T12:36:19Z</time>
      </trkpt>
      <trkpt lat="45.55115" lon="4.84933">
        <ele>303.43</ele>
        <time>2019-09-15T12:36:20Z</time>
      </trkpt>
      <trkpt lat="45.55119" lon="4.84931">
        <ele>303.91</ele>
        <time>2019-09-15T12:36:21Z</time>
      </trkpt>
      <trkpt lat="45.55123" lon="4.8493">
        <ele>304.39</ele>
        <time>2019-09-15T12:36:22Z</time>
      </trkpt>
      <trkpt lat="45.55127" lon="4.84929">
        <ele>304.88</ele>
        <time>2019-09-15T12:36:23Z</time>
      </trkpt>
      <trkpt lat="45.55131" lon="4.84926">
        <ele>305.36</ele>
        <time>2019-09-15T12:36:24Z</time>
      </trkpt>
      <trkpt lat="45.55136" lon="4.84925">
        <ele>306.32</ele>
        <time>2019-09-15T12:36:25Z</time>
      </trkpt>
      <trkpt lat="45.55141" lon="4.84923">
        <ele>306.32</ele>
        <time>2019-09-15T12:36:26Z</time>
      </trkpt>
      <trkpt lat="45.55147" lon="4.84923">
        <ele>306.8</ele>
        <time>2019-09-15T12:36:27Z</time>
      </trkpt>
      <trkpt lat="45.55153" lon="4.84923">
        <ele>307.28</ele>
        <time>2019-09-15T12:36:28Z</time>
      </trkpt>
      <trkpt lat="45.55159" lon="4.84925">
        <ele>307.76</ele>
        <time>2019-09-15T12:36:29Z</time>
      </trkpt>
      <trkpt lat="45.55165" lon="4.84928">
        <ele>307.76</ele>
        <time>2019-09-15T12:36:30Z</time>
      </trkpt>
      <trkpt lat="45.5517" lon="4.84932">
        <ele>307.76</ele>
        <time>2019-09-15T12:36:31Z</time>
      </trkpt>
      <trkpt lat="45.55174" lon="4.84937">
        <ele>308.24</ele>
        <time>2019-09-15T12:36:32Z</time>
      </trkpt>
      <trkpt lat="45.55178" lon="4.84943">
        <ele>308.24</ele>
        <time>2019-09-15T12:36:33Z</time>
      </trkpt>
      <trkpt lat="45.5518" lon="4.8495">
        <ele>307.76</ele>
        <time>2019-09-15T12:36:34Z</time>
      </trkpt>
      <trkpt lat="45.55181" lon="4.84956">
        <ele>308.24</ele>
        <time>2019-09-15T12:36:35Z</time>
      </trkpt>
      <trkpt lat="45.55182" lon="4.84961">
        <ele>308.72</ele>
        <time>2019-09-15T12:36:36Z</time>
      </trkpt>
      <trkpt lat="45.55182" lon="4.84967">
        <ele>309.2</ele>
        <time>2019-09-15T12:36:37Z</time>
      </trkpt>
      <trkpt lat="45.55182" lon="4.84972">
        <ele>310.16</ele>
        <time>2019-09-15T12:36:38Z</time>
      </trkpt>
      <trkpt lat="45.55181" lon="4.84979">
        <ele>310.16</ele>
        <time>2019-09-15T12:36:39Z</time>
      </trkpt>
      <trkpt lat="45.55182" lon="4.84986">
        <ele>310.64</ele>
        <time>2019-09-15T12:36:40Z</time>
      </trkpt>
      <trkpt lat="45.55184" lon="4.84993">
        <ele>311.6</ele>
        <time>2019-09-15T12:36:41Z</time>
      </trkpt>
      <trkpt lat="45.55186" lon="4.85">
        <ele>312.09</ele>
        <time>2019-09-15T12:36:42Z</time>
      </trkpt>
      <trkpt lat="45.55189" lon="4.85007">
        <ele>312.57</ele>
        <time>2019-09-15T12:36:43Z</time>
      </trkpt>
      <trkpt lat="45.55202" lon="4.85034">
        <ele>312.09</ele>
        <time>2019-09-15T12:36:47Z</time>
      </trkpt>
      <trkpt lat="45.55203" lon="4.85041">
        <ele>312.09</ele>
        <time>2019-09-15T12:36:48Z</time>
      </trkpt>
      <trkpt lat="45.55202" lon="4.85048">
        <ele>312.09</ele>
        <time>2019-09-15T12:36:49Z</time>
      </trkpt>
      <trkpt lat="45.55201" lon="4.85057">
        <ele>311.6</ele>
        <time>2019-09-15T12:36:50Z</time>
      </trkpt>
      <trkpt lat="45.55198" lon="4.85065">
        <ele>311.6</ele>
        <time>2019-09-15T12:36:51Z</time>
      </trkpt>
      <trkpt lat="45.55196" lon="4.85073">
        <ele>311.6</ele>
        <time>2019-09-15T12:36:52Z</time>
      </trkpt>
      <trkpt lat="45.55178" lon="4.85164">
        <ele>309.68</ele>
        <time>2019-09-15T12:37:03Z</time>
      </trkpt>
      <trkpt lat="45.55177" lon="4.85173">
        <ele>309.68</ele>
        <time>2019-09-15T12:37:04Z</time>
      </trkpt>
      <trkpt lat="45.55177" lon="4.85185">
        <ele>308.24</ele>
        <time>2019-09-15T12:37:05Z</time>
      </trkpt>
      <trkpt lat="45.55178" lon="4.85225">
        <ele>304.88</ele>
        <time>2019-09-15T12:37:08Z</time>
      </trkpt>
      <trkpt lat="45.55177" lon="4.85257">
        <ele>301.51</ele>
        <time>2019-09-15T12:37:10Z</time>
      </trkpt>
      <trkpt lat="45.55175" lon="4.85272">
        <ele>300.55</ele>
        <time>2019-09-15T12:37:11Z</time>
      </trkpt>
      <trkpt lat="45.55173" lon="4.85285">
        <ele>299.59</ele>
        <time>2019-09-15T12:37:12Z</time>
      </trkpt>
      <trkpt lat="45.55171" lon="4.85297">
        <ele>299.11</ele>
        <time>2019-09-15T12:37:13Z</time>
      </trkpt>
      <trkpt lat="45.55171" lon="4.85309">
        <ele>297.67</ele>
        <time>2019-09-15T12:37:14Z</time>
      </trkpt>
      <trkpt lat="45.55172" lon="4.85322">
        <ele>297.18</ele>
        <time>2019-09-15T12:37:15Z</time>
      </trkpt>
      <trkpt lat="45.55173" lon="4.85335">
        <ele>296.22</ele>
        <time>2019-09-15T12:37:16Z</time>
      </trkpt>
      <trkpt lat="45.55178" lon="4.85361">
        <ele>294.78</ele>
        <time>2019-09-15T12:37:18Z</time>
      </trkpt>
      <trkpt lat="45.55181" lon="4.85371">
        <ele>293.82</ele>
        <time>2019-09-15T12:37:19Z</time>
      </trkpt>
      <trkpt lat="45.55185" lon="4.85381">
        <ele>293.34</ele>
        <time>2019-09-15T12:37:20Z</time>
      </trkpt>
      <trkpt lat="45.55189" lon="4.8539">
        <ele>292.86</ele>
        <time>2019-09-15T12:37:21Z</time>
      </trkpt>
      <trkpt lat="45.55194" lon="4.85398">
        <ele>292.86</ele>
        <time>2019-09-15T12:37:22Z</time>
      </trkpt>
      <trkpt lat="45.552" lon="4.85405">
        <ele>292.86</ele>
        <time>2019-09-15T12:37:23Z</time>
      </trkpt>
      <trkpt lat="45.55206" lon="4.85411">
        <ele>292.86</ele>
        <time>2019-09-15T12:37:24Z</time>
      </trkpt>
      <trkpt lat="45.55212" lon="4.85416">
        <ele>292.38</ele>
        <time>2019-09-15T12:37:25Z</time>
      </trkpt>
      <trkpt lat="45.55271" lon="4.85445">
        <ele>292.38</ele>
        <time>2019-09-15T12:37:34Z</time>
      </trkpt>
      <trkpt lat="45.55382" lon="4.85447">
        <ele>295.26</ele>
        <time>2019-09-15T12:37:52Z</time>
      </trkpt>
      <trkpt lat="45.55416" lon="4.85431">
        <ele>296.7</ele>
        <time>2019-09-15T12:37:58Z</time>
      </trkpt>
      <trkpt lat="45.55426" lon="4.85423">
        <ele>297.18</ele>
        <time>2019-09-15T12:38:00Z</time>
      </trkpt>
      <trkpt lat="45.55475" lon="4.854">
        <ele>300.55</ele>
        <time>2019-09-15T12:38:09Z</time>
      </trkpt>
      <trkpt lat="45.55502" lon="4.85392">
        <ele>302.95</ele>
        <time>2019-09-15T12:38:14Z</time>
      </trkpt>
      <trkpt lat="45.55556" lon="4.85362">
        <ele>306.32</ele>
        <time>2019-09-15T12:38:26Z</time>
      </trkpt>
      <trkpt lat="45.5559" lon="4.85339">
        <ele>309.2</ele>
        <time>2019-09-15T12:38:34Z</time>
      </trkpt>
      <trkpt lat="45.55608" lon="4.85327">
        <ele>310.64</ele>
        <time>2019-09-15T12:38:38Z</time>
      </trkpt>
      <trkpt lat="45.55619" lon="4.85319">
        <ele>312.09</ele>
        <time>2019-09-15T12:38:41Z</time>
      </trkpt>
      <trkpt lat="45.55628" lon="4.8531">
        <ele>314.01</ele>
        <time>2019-09-15T12:38:44Z</time>
      </trkpt>
      <trkpt lat="45.5564" lon="4.85273">
        <ele>317.85</ele>
        <time>2019-09-15T12:38:52Z</time>
      </trkpt>
      <trkpt lat="45.55651" lon="4.85232">
        <ele>320.74</ele>
        <time>2019-09-15T12:39:00Z</time>
      </trkpt>
      <trkpt lat="45.55655" lon="4.85218">
        <ele>320.74</ele>
        <time>2019-09-15T12:39:02Z</time>
      </trkpt>
      <trkpt lat="45.55663" lon="4.85157">
        <ele>321.22</ele>
        <time>2019-09-15T12:39:10Z</time>
      </trkpt>
      <trkpt lat="45.55664" lon="4.8515">
        <ele>321.22</ele>
        <time>2019-09-15T12:39:11Z</time>
      </trkpt>
      <trkpt lat="45.55664" lon="4.85143">
        <ele>321.22</ele>
        <time>2019-09-15T12:39:12Z</time>
      </trkpt>
      <trkpt lat="45.55664" lon="4.85136">
        <ele>321.7</ele>
        <time>2019-09-15T12:39:13Z</time>
      </trkpt>
      <trkpt lat="45.55664" lon="4.85129">
        <ele>321.22</ele>
        <time>2019-09-15T12:39:14Z</time>
      </trkpt>
      <trkpt lat="45.55658" lon="4.85028">
        <ele>317.85</ele>
        <time>2019-09-15T12:39:26Z</time>
      </trkpt>
      <trkpt lat="45.55651" lon="4.84913">
        <ele>321.22</ele>
        <time>2019-09-15T12:39:39Z</time>
      </trkpt>
      <trkpt lat="45.55649" lon="4.84824">
        <ele>320.26</ele>
        <time>2019-09-15T12:39:50Z</time>
      </trkpt>
      <trkpt lat="45.55661" lon="4.84707">
        <ele>322.66</ele>
        <time>2019-09-15T12:40:04Z</time>
      </trkpt>
      <trkpt lat="45.55669" lon="4.84663">
        <ele>321.22</ele>
        <time>2019-09-15T12:40:09Z</time>
      </trkpt>
      <trkpt lat="45.55692" lon="4.84533">
        <ele>318.33</ele>
        <time>2019-09-15T12:40:22Z</time>
      </trkpt>
      <trkpt lat="45.55704" lon="4.84465">
        <ele>315.45</ele>
        <time>2019-09-15T12:40:31Z</time>
      </trkpt>
      <trkpt lat="45.55707" lon="4.84457">
        <ele>314.49</ele>
        <time>2019-09-15T12:40:32Z</time>
      </trkpt>
      <trkpt lat="45.55711" lon="4.8445">
        <ele>314.01</ele>
        <time>2019-09-15T12:40:33Z</time>
      </trkpt>
      <trkpt lat="45.5573" lon="4.8442">
        <ele>312.57</ele>
        <time>2019-09-15T12:40:37Z</time>
      </trkpt>
      <trkpt lat="45.55746" lon="4.84399">
        <ele>310.16</ele>
        <time>2019-09-15T12:40:40Z</time>
      </trkpt>
      <trkpt lat="45.55752" lon="4.84394">
        <ele>309.2</ele>
        <time>2019-09-15T12:40:41Z</time>
      </trkpt>
      <trkpt lat="45.5576" lon="4.84393">
        <ele>308.72</ele>
        <time>2019-09-15T12:40:42Z</time>
      </trkpt>
      <trkpt lat="45.55768" lon="4.84395">
        <ele>307.76</ele>
        <time>2019-09-15T12:40:43Z</time>
      </trkpt>
      <trkpt lat="45.55776" lon="4.84401">
        <ele>307.28</ele>
        <time>2019-09-15T12:40:44Z</time>
      </trkpt>
      <trkpt lat="45.55783" lon="4.8441">
        <ele>306.8</ele>
        <time>2019-09-15T12:40:45Z</time>
      </trkpt>
      <trkpt lat="45.55789" lon="4.8442">
        <ele>306.32</ele>
        <time>2019-09-15T12:40:46Z</time>
      </trkpt>
      <trkpt lat="45.55795" lon="4.84431">
        <ele>305.84</ele>
        <time>2019-09-15T12:40:47Z</time>
      </trkpt>
      <trkpt lat="45.558" lon="4.84442">
        <ele>305.36</ele>
        <time>2019-09-15T12:40:48Z</time>
      </trkpt>
      <trkpt lat="45.55805" lon="4.84454">
        <ele>304.39</ele>
        <time>2019-09-15T12:40:49Z</time>
      </trkpt>
      <trkpt lat="45.55812" lon="4.84463">
        <ele>303.91</ele>
        <time>2019-09-15T12:40:50Z</time>
      </trkpt>
      <trkpt lat="45.55821" lon="4.84468">
        <ele>303.91</ele>
        <time>2019-09-15T12:40:51Z</time>
      </trkpt>
      <trkpt lat="45.55832" lon="4.8447">
        <ele>302.95</ele>
        <time>2019-09-15T12:40:52Z</time>
      </trkpt>
      <trkpt lat="45.55842" lon="4.8447">
        <ele>301.51</ele>
        <time>2019-09-15T12:40:53Z</time>
      </trkpt>
      <trkpt lat="45.55863" lon="4.84471">
        <ele>298.63</ele>
        <time>2019-09-15T12:40:55Z</time>
      </trkpt>
      <trkpt lat="45.55905" lon="4.84475">
        <ele>298.15</ele>
        <time>2019-09-15T12:40:59Z</time>
      </trkpt>
      <trkpt lat="45.55926" lon="4.84478">
        <ele>297.18</ele>
        <time>2019-09-15T12:41:01Z</time>
      </trkpt>
      <trkpt lat="45.55941" lon="4.84481">
        <ele>296.22</ele>
        <time>2019-09-15T12:41:03Z</time>
      </trkpt>
      <trkpt lat="45.55947" lon="4.84482">
        <ele>295.74</ele>
        <time>2019-09-15T12:41:04Z</time>
      </trkpt>
      <trkpt lat="45.55952" lon="4.84482">
        <ele>295.26</ele>
        <time>2019-09-15T12:41:05Z</time>
      </trkpt>
      <trkpt lat="45.55965" lon="4.84479">
        <ele>294.78</ele>
        <time>2019-09-15T12:41:07Z</time>
      </trkpt>
      <trkpt lat="45.55971" lon="4.8448">
        <ele>294.3</ele>
        <time>2019-09-15T12:41:08Z</time>
      </trkpt>
      <trkpt lat="45.55978" lon="4.84482">
        <ele>293.34</ele>
        <time>2019-09-15T12:41:09Z</time>
      </trkpt>
      <trkpt lat="45.56007" lon="4.84492">
        <ele>291.9</ele>
        <time>2019-09-15T12:41:13Z</time>
      </trkpt>
      <trkpt lat="45.56052" lon="4.84509">
        <ele>289.49</ele>
        <time>2019-09-15T12:41:19Z</time>
      </trkpt>
      <trkpt lat="45.56059" lon="4.84509">
        <ele>288.53</ele>
        <time>2019-09-15T12:41:21Z</time>
      </trkpt>
      <trkpt lat="45.56064" lon="4.84508">
        <ele>288.53</ele>
        <time>2019-09-15T12:41:22Z</time>
      </trkpt>
      <trkpt lat="45.5607" lon="4.84508">
        <ele>288.53</ele>
        <time>2019-09-15T12:41:23Z</time>
      </trkpt>
      <trkpt lat="45.56075" lon="4.84508">
        <ele>288.53</ele>
        <time>2019-09-15T12:41:24Z</time>
      </trkpt>
      <trkpt lat="45.56082" lon="4.84508">
        <ele>287.57</ele>
        <time>2019-09-15T12:41:25Z</time>
      </trkpt>
      <trkpt lat="45.56088" lon="4.84505">
        <ele>287.57</ele>
        <time>2019-09-15T12:41:26Z</time>
      </trkpt>
      <trkpt lat="45.56093" lon="4.84499">
        <ele>287.57</ele>
        <time>2019-09-15T12:41:27Z</time>
      </trkpt>
      <trkpt lat="45.56096" lon="4.84492">
        <ele>287.09</ele>
        <time>2019-09-15T12:41:28Z</time>
      </trkpt>
      <trkpt lat="45.56101" lon="4.84488">
        <ele>286.61</ele>
        <time>2019-09-15T12:41:29Z</time>
      </trkpt>
      <trkpt lat="45.56106" lon="4.84487">
        <ele>286.13</ele>
        <time>2019-09-15T12:41:30Z</time>
      </trkpt>
      <trkpt lat="45.56112" lon="4.8449">
        <ele>286.13</ele>
        <time>2019-09-15T12:41:31Z</time>
      </trkpt>
      <trkpt lat="45.56117" lon="4.84493">
        <ele>285.17</ele>
        <time>2019-09-15T12:41:32Z</time>
      </trkpt>
      <trkpt lat="45.56122" lon="4.84494">
        <ele>285.65</ele>
        <time>2019-09-15T12:41:33Z</time>
      </trkpt>
      <trkpt lat="45.56138" lon="4.84504">
        <ele>284.21</ele>
        <time>2019-09-15T12:41:40Z</time>
      </trkpt>
      <trkpt lat="45.56139" lon="4.84505">
        <ele>284.69</ele>
        <time>2019-09-15T12:41:41Z</time>
      </trkpt>
      <trkpt lat="45.56141" lon="4.84505">
        <ele>284.21</ele>
        <time>2019-09-15T12:41:51Z</time>
      </trkpt>
      <trkpt lat="45.56141" lon="4.84505">
        <ele>284.69</ele>
        <time>2019-09-15T12:42:14Z</time>
      </trkpt>
      <trkpt lat="45.56141" lon="4.84505">
        <ele>278.92</ele>
        <time>2019-09-15T12:42:19Z</time>
      </trkpt>
      <trkpt lat="45.56141" lon="4.84505">
        <ele>289.49</ele>
        <time>2019-09-15T12:42:20Z</time>
      </trkpt>
      <trkpt lat="45.56141" lon="4.84505">
        <ele>285.17</ele>
        <time>2019-09-15T12:42:21Z</time>
      </trkpt>
      <trkpt lat="45.56141" lon="4.84505">
        <ele>285.17</ele>
        <time>2019-09-15T12:42:52Z</time>
      </trkpt>
      <trkpt lat="45.56141" lon="4.84506">
        <ele>285.65</ele>
        <time>2019-09-15T12:43:23Z</time>
      </trkpt>
      <trkpt lat="45.56145" lon="4.84504">
        <ele>285.17</ele>
        <time>2019-09-15T12:43:37Z</time>
      </trkpt>
      <trkpt lat="45.56146" lon="4.84504">
        <ele>285.65</ele>
        <time>2019-09-15T12:43:38Z</time>
      </trkpt>
      <trkpt lat="45.56148" lon="4.84504">
        <ele>285.65</ele>
        <time>2019-09-15T12:43:39Z</time>
      </trkpt>
      <trkpt lat="45.5615" lon="4.84504">
        <ele>285.17</ele>
        <time>2019-09-15T12:43:40Z</time>
      </trkpt>
      <trkpt lat="45.56152" lon="4.84504">
        <ele>284.69</ele>
        <time>2019-09-15T12:43:41Z</time>
      </trkpt>
      <trkpt lat="45.56155" lon="4.84505">
        <ele>284.69</ele>
        <time>2019-09-15T12:43:42Z</time>
      </trkpt>
      <trkpt lat="45.56207" lon="4.84513">
        <ele>283.73</ele>
        <time>2019-09-15T12:43:52Z</time>
      </trkpt>
      <trkpt lat="45.56213" lon="4.84513">
        <ele>282.77</ele>
        <time>2019-09-15T12:43:53Z</time>
      </trkpt>
      <trkpt lat="45.5622" lon="4.84513">
        <ele>282.77</ele>
        <time>2019-09-15T12:43:54Z</time>
      </trkpt>
      <trkpt lat="45.56233" lon="4.84511">
        <ele>282.77</ele>
        <time>2019-09-15T12:43:56Z</time>
      </trkpt>
      <trkpt lat="45.56304" lon="4.84487">
        <ele>281.8</ele>
        <time>2019-09-15T12:44:07Z</time>
      </trkpt>
      <trkpt lat="45.5631" lon="4.84485">
        <ele>281.8</ele>
        <time>2019-09-15T12:44:08Z</time>
      </trkpt>
      <trkpt lat="45.56313" lon="4.84486">
        <ele>280.84</ele>
        <time>2019-09-15T12:44:09Z</time>
      </trkpt>
      <trkpt lat="45.56314" lon="4.84488">
        <ele>280.84</ele>
        <time>2019-09-15T12:44:10Z</time>
      </trkpt>
      <trkpt lat="45.56314" lon="4.84493">
        <ele>280.84</ele>
        <time>2019-09-15T12:44:11Z</time>
      </trkpt>
      <trkpt lat="45.56315" lon="4.84499">
        <ele>280.36</ele>
        <time>2019-09-15T12:44:12Z</time>
      </trkpt>
      <trkpt lat="45.56316" lon="4.84505">
        <ele>279.88</ele>
        <time>2019-09-15T12:44:13Z</time>
      </trkpt>
      <trkpt lat="45.56317" lon="4.84512">
        <ele>278.92</ele>
        <time>2019-09-15T12:44:14Z</time>
      </trkpt>
      <trkpt lat="45.5632" lon="4.84525">
        <ele>277</ele>
        <time>2019-09-15T12:44:17Z</time>
      </trkpt>
      <trkpt lat="45.56323" lon="4.84526">
        <ele>277.48</ele>
        <time>2019-09-15T12:44:18Z</time>
      </trkpt>
      <trkpt lat="45.56334" lon="4.84528">
        <ele>276.04</ele>
        <time>2019-09-15T12:44:21Z</time>
      </trkpt>
      <trkpt lat="45.56339" lon="4.84531">
        <ele>275.56</ele>
        <time>2019-09-15T12:44:22Z</time>
      </trkpt>
      <trkpt lat="45.56348" lon="4.84536">
        <ele>273.63</ele>
        <time>2019-09-15T12:44:24Z</time>
      </trkpt>
      <trkpt lat="45.56355" lon="4.84538">
        <ele>273.15</ele>
        <time>2019-09-15T12:44:25Z</time>
      </trkpt>
      <trkpt lat="45.56362" lon="4.8454">
        <ele>271.23</ele>
        <time>2019-09-15T12:44:26Z</time>
      </trkpt>
      <trkpt lat="45.56368" lon="4.84541">
        <ele>271.23</ele>
        <time>2019-09-15T12:44:27Z</time>
      </trkpt>
      <trkpt lat="45.56374" lon="4.84542">
        <ele>271.23</ele>
        <time>2019-09-15T12:44:28Z</time>
      </trkpt>
      <trkpt lat="45.56379" lon="4.84541">
        <ele>271.71</ele>
        <time>2019-09-15T12:44:29Z</time>
      </trkpt>
      <trkpt lat="45.56385" lon="4.84542">
        <ele>271.23</ele>
        <time>2019-09-15T12:44:31Z</time>
      </trkpt>
      <trkpt lat="45.56387" lon="4.84542">
        <ele>271.23</ele>
        <time>2019-09-15T12:44:32Z</time>
      </trkpt>
      <trkpt lat="45.5639" lon="4.84542">
        <ele>271.71</ele>
        <time>2019-09-15T12:44:34Z</time>
      </trkpt>
      <trkpt lat="45.56392" lon="4.84542">
        <ele>271.71</ele>
        <time>2019-09-15T12:44:35Z</time>
      </trkpt>
      <trkpt lat="45.56395" lon="4.84543">
        <ele>271.71</ele>
        <time>2019-09-15T12:44:36Z</time>
      </trkpt>
      <trkpt lat="45.56398" lon="4.84545">
        <ele>271.71</ele>
        <time>2019-09-15T12:44:37Z</time>
      </trkpt>
      <trkpt lat="45.56401" lon="4.84547">
        <ele>270.75</ele>
        <time>2019-09-15T12:44:38Z</time>
      </trkpt>
      <trkpt lat="45.56413" lon="4.84556">
        <ele>270.27</ele>
        <time>2019-09-15T12:44:42Z</time>
      </trkpt>
      <trkpt lat="45.56417" lon="4.8456">
        <ele>269.31</ele>
        <time>2019-09-15T12:44:43Z</time>
      </trkpt>
      <trkpt lat="45.56422" lon="4.84564">
        <ele>268.35</ele>
        <time>2019-09-15T12:44:44Z</time>
      </trkpt>
      <trkpt lat="45.56426" lon="4.84569">
        <ele>267.38</ele>
        <time>2019-09-15T12:44:45Z</time>
      </trkpt>
      <trkpt lat="45.5643" lon="4.84573">
        <ele>266.9</ele>
        <time>2019-09-15T12:44:46Z</time>
      </trkpt>
      <trkpt lat="45.56433" lon="4.84576">
        <ele>265.94</ele>
        <time>2019-09-15T12:44:47Z</time>
      </trkpt>
      <trkpt lat="45.56436" lon="4.84578">
        <ele>264.98</ele>
        <time>2019-09-15T12:44:48Z</time>
      </trkpt>
      <trkpt lat="45.56438" lon="4.8458">
        <ele>264.5</ele>
        <time>2019-09-15T12:44:49Z</time>
      </trkpt>
      <trkpt lat="45.56441" lon="4.84582">
        <ele>264.02</ele>
        <time>2019-09-15T12:44:50Z</time>
      </trkpt>
      <trkpt lat="45.56444" lon="4.84583">
        <ele>263.06</ele>
        <time>2019-09-15T12:44:51Z</time>
      </trkpt>
      <trkpt lat="45.56445" lon="4.84583">
        <ele>262.58</ele>
        <time>2019-09-15T12:44:52Z</time>
      </trkpt>
      <trkpt lat="45.56448" lon="4.84585">
        <ele>261.62</ele>
        <time>2019-09-15T12:44:53Z</time>
      </trkpt>
      <trkpt lat="45.5645" lon="4.84587">
        <ele>261.14</ele>
        <time>2019-09-15T12:44:54Z</time>
      </trkpt>
      <trkpt lat="45.56452" lon="4.84589">
        <ele>260.65</ele>
        <time>2019-09-15T12:44:55Z</time>
      </trkpt>
      <trkpt lat="45.56454" lon="4.84591">
        <ele>260.17</ele>
        <time>2019-09-15T12:44:56Z</time>
      </trkpt>
      <trkpt lat="45.56456" lon="4.84593">
        <ele>258.73</ele>
        <time>2019-09-15T12:44:57Z</time>
      </trkpt>
      <trkpt lat="45.56458" lon="4.84594">
        <ele>258.25</ele>
        <time>2019-09-15T12:44:58Z</time>
      </trkpt>
      <trkpt lat="45.56462" lon="4.84597">
        <ele>257.29</ele>
        <time>2019-09-15T12:45:00Z</time>
      </trkpt>
      <trkpt lat="45.56463" lon="4.846">
        <ele>256.81</ele>
        <time>2019-09-15T12:45:01Z</time>
      </trkpt>
      <trkpt lat="45.56467" lon="4.84604">
        <ele>256.81</ele>
        <time>2019-09-15T12:45:03Z</time>
      </trkpt>
      <trkpt lat="45.5647" lon="4.84605">
        <ele>256.33</ele>
        <time>2019-09-15T12:45:04Z</time>
      </trkpt>
      <trkpt lat="45.56481" lon="4.84602">
        <ele>255.85</ele>
        <time>2019-09-15T12:45:09Z</time>
      </trkpt>
      <trkpt lat="45.56484" lon="4.84602">
        <ele>255.37</ele>
        <time>2019-09-15T12:45:11Z</time>
      </trkpt>
      <trkpt lat="45.56486" lon="4.84601">
        <ele>255.37</ele>
        <time>2019-09-15T12:45:12Z</time>
      </trkpt>
      <trkpt lat="45.5649" lon="4.846">
        <ele>254.89</ele>
        <time>2019-09-15T12:45:14Z</time>
      </trkpt>
      <trkpt lat="45.56496" lon="4.84595">
        <ele>254.41</ele>
        <time>2019-09-15T12:45:24Z</time>
      </trkpt>
      <trkpt lat="45.56503" lon="4.84585">
        <ele>253.44</ele>
        <time>2019-09-15T12:45:37Z</time>
      </trkpt>
      <trkpt lat="45.56506" lon="4.84582">
        <ele>253.44</ele>
        <time>2019-09-15T12:45:39Z</time>
      </trkpt>
      <trkpt lat="45.56508" lon="4.84579">
        <ele>253.44</ele>
        <time>2019-09-15T12:45:40Z</time>
      </trkpt>
      <trkpt lat="45.56511" lon="4.84575">
        <ele>253.93</ele>
        <time>2019-09-15T12:45:42Z</time>
      </trkpt>
      <trkpt lat="45.56513" lon="4.84572">
        <ele>253.44</ele>
        <time>2019-09-15T12:45:43Z</time>
      </trkpt>
      <trkpt lat="45.56515" lon="4.84569">
        <ele>253.44</ele>
        <time>2019-09-15T12:45:44Z</time>
      </trkpt>
      <trkpt lat="45.56517" lon="4.84566">
        <ele>252.96</ele>
        <time>2019-09-15T12:45:45Z</time>
      </trkpt>
      <trkpt lat="45.56518" lon="4.84563">
        <ele>252.96</ele>
        <time>2019-09-15T12:45:46Z</time>
      </trkpt>
      <trkpt lat="45.56519" lon="4.8456">
        <ele>252.96</ele>
        <time>2019-09-15T12:45:47Z</time>
      </trkpt>
      <trkpt lat="45.56521" lon="4.84558">
        <ele>252.48</ele>
        <time>2019-09-15T12:45:48Z</time>
      </trkpt>
      <trkpt lat="45.56523" lon="4.84556">
        <ele>252</ele>
        <time>2019-09-15T12:45:49Z</time>
      </trkpt>
      <trkpt lat="45.56525" lon="4.84553">
        <ele>252.48</ele>
        <time>2019-09-15T12:45:50Z</time>
      </trkpt>
      <trkpt lat="45.56527" lon="4.8455">
        <ele>252.48</ele>
        <time>2019-09-15T12:45:51Z</time>
      </trkpt>
      <trkpt lat="45.5653" lon="4.84543">
        <ele>252.48</ele>
        <time>2019-09-15T12:45:55Z</time>
      </trkpt>
      <trkpt lat="45.56544" lon="4.84506">
        <ele>251.04</ele>
        <time>2019-09-15T12:46:04Z</time>
      </trkpt>
      <trkpt lat="45.56546" lon="4.84496">
        <ele>251.52</ele>
        <time>2019-09-15T12:46:06Z</time>
      </trkpt>
      <trkpt lat="45.56548" lon="4.84477">
        <ele>250.56</ele>
        <time>2019-09-15T12:46:10Z</time>
      </trkpt>
      <trkpt lat="45.56549" lon="4.84458">
        <ele>250.08</ele>
        <time>2019-09-15T12:46:17Z</time>
      </trkpt>
      <trkpt lat="45.56548" lon="4.84451">
        <ele>250.56</ele>
        <time>2019-09-15T12:46:32Z</time>
      </trkpt>
      <trkpt lat="45.5655" lon="4.84447">
        <ele>251.04</ele>
        <time>2019-09-15T12:46:44Z</time>
      </trkpt>
      <trkpt lat="45.5655" lon="4.84447">
        <ele>251.04</ele>
        <time>2019-09-15T12:46:54Z</time>
      </trkpt>
      <trkpt lat="45.5655" lon="4.84447">
        <ele>250.56</ele>
        <time>2019-09-15T12:47:07Z</time>
      </trkpt>
      <trkpt lat="45.56551" lon="4.8444">
        <ele>250.56</ele>
        <time>2019-09-15T12:47:15Z</time>
      </trkpt>
      <trkpt lat="45.56551" lon="4.8444">
        <ele>250.56</ele>
        <time>2019-09-15T12:47:32Z</time>
      </trkpt>
      <trkpt lat="45.56551" lon="4.8444">
        <ele>242.87</ele>
        <time>2019-09-15T12:47:38Z</time>
      </trkpt>
      <trkpt lat="45.56551" lon="4.8444">
        <ele>252.48</ele>
        <time>2019-09-15T12:47:39Z</time>
      </trkpt>
      <trkpt lat="45.56551" lon="4.84439">
        <ele>250.56</ele>
        <time>2019-09-15T12:47:57Z</time>
      </trkpt>
      <trkpt lat="45.56557" lon="4.84432">
        <ele>250.08</ele>
        <time>2019-09-15T12:48:03Z</time>
      </trkpt>
      <trkpt lat="45.56569" lon="4.8442">
        <ele>250.08</ele>
        <time>2019-09-15T12:48:08Z</time>
      </trkpt>
      <trkpt lat="45.56586" lon="4.84391">
        <ele>249.12</ele>
        <time>2019-09-15T12:48:15Z</time>
      </trkpt>
      <trkpt lat="45.5659" lon="4.84382">
        <ele>248.64</ele>
        <time>2019-09-15T12:48:18Z</time>
      </trkpt>
      <trkpt lat="45.56597" lon="4.84372">
        <ele>248.64</ele>
        <time>2019-09-15T12:48:22Z</time>
      </trkpt>
      <trkpt lat="45.56606" lon="4.84346">
        <ele>247.2</ele>
        <time>2019-09-15T12:48:31Z</time>
      </trkpt>
      <trkpt lat="45.56614" lon="4.84328">
        <ele>247.2</ele>
        <time>2019-09-15T12:48:35Z</time>
      </trkpt>
      <trkpt lat="45.56617" lon="4.84302">
        <ele>246.72</ele>
        <time>2019-09-15T12:48:39Z</time>
      </trkpt>
      <trkpt lat="45.56634" lon="4.84284">
        <ele>246.23</ele>
        <time>2019-09-15T12:48:45Z</time>
      </trkpt>
      <trkpt lat="45.56654" lon="4.84258">
        <ele>245.27</ele>
        <time>2019-09-15T12:48:52Z</time>
      </trkpt>
      <trkpt lat="45.56666" lon="4.84223">
        <ele>244.79</ele>
        <time>2019-09-15T12:48:59Z</time>
      </trkpt>
      <trkpt lat="45.56672" lon="4.84194">
        <ele>244.31</ele>
        <time>2019-09-15T12:49:08Z</time>
      </trkpt>
      <trkpt lat="45.56673" lon="4.84189">
        <ele>244.31</ele>
        <time>2019-09-15T12:49:20Z</time>
      </trkpt>
      <trkpt lat="45.5669" lon="4.84178">
        <ele>245.75</ele>
        <time>2019-09-15T12:49:28Z</time>
      </trkpt>
      <trkpt lat="45.5669" lon="4.84178">
        <ele>245.27</ele>
        <time>2019-09-15T12:49:45Z</time>
      </trkpt>
      <trkpt lat="45.5669" lon="4.84178">
        <ele>245.27</ele>
        <time>2019-09-15T12:50:03Z</time>
      </trkpt>
      <trkpt lat="45.56694" lon="4.84172">
        <ele>245.27</ele>
        <time>2019-09-15T12:50:23Z</time>
      </trkpt>
      <trkpt lat="45.56712" lon="4.84139">
        <ele>244.79</ele>
        <time>2019-09-15T12:50:30Z</time>
      </trkpt>
      <trkpt lat="45.56714" lon="4.84127">
        <ele>244.79</ele>
        <time>2019-09-15T12:50:32Z</time>
      </trkpt>
      <trkpt lat="45.56715" lon="4.8412">
        <ele>244.79</ele>
        <time>2019-09-15T12:50:33Z</time>
      </trkpt>
      <trkpt lat="45.56721" lon="4.84088">
        <ele>245.27</ele>
        <time>2019-09-15T12:50:37Z</time>
      </trkpt>
      <trkpt lat="45.56726" lon="4.84056">
        <ele>246.72</ele>
        <time>2019-09-15T12:50:41Z</time>
      </trkpt>
      <trkpt lat="45.56727" lon="4.84049">
        <ele>247.2</ele>
        <time>2019-09-15T12:50:42Z</time>
      </trkpt>
      <trkpt lat="45.56729" lon="4.84041">
        <ele>247.68</ele>
        <time>2019-09-15T12:50:43Z</time>
      </trkpt>
      <trkpt lat="45.5673" lon="4.84033">
        <ele>248.64</ele>
        <time>2019-09-15T12:50:44Z</time>
      </trkpt>
      <trkpt lat="45.56733" lon="4.84026">
        <ele>248.64</ele>
        <time>2019-09-15T12:50:45Z</time>
      </trkpt>
      <trkpt lat="45.56734" lon="4.84018">
        <ele>249.12</ele>
        <time>2019-09-15T12:50:46Z</time>
      </trkpt>
      <trkpt lat="45.56738" lon="4.83988">
        <ele>251.04</ele>
        <time>2019-09-15T12:50:50Z</time>
      </trkpt>
      <trkpt lat="45.56739" lon="4.83975">
        <ele>252</ele>
        <time>2019-09-15T12:50:52Z</time>
      </trkpt>
      <trkpt lat="45.56739" lon="4.83969">
        <ele>252.48</ele>
        <time>2019-09-15T12:50:53Z</time>
      </trkpt>
      <trkpt lat="45.56738" lon="4.83962">
        <ele>252.96</ele>
        <time>2019-09-15T12:50:54Z</time>
      </trkpt>
      <trkpt lat="45.56729" lon="4.83927">
        <ele>255.37</ele>
        <time>2019-09-15T12:51:00Z</time>
      </trkpt>
      <trkpt lat="45.56721" lon="4.83909">
        <ele>256.33</ele>
        <time>2019-09-15T12:51:05Z</time>
      </trkpt>
      <trkpt lat="45.56721" lon="4.83905">
        <ele>255.85</ele>
        <time>2019-09-15T12:51:07Z</time>
      </trkpt>
      <trkpt lat="45.56722" lon="4.83903">
        <ele>255.85</ele>
        <time>2019-09-15T12:51:08Z</time>
      </trkpt>
      <trkpt lat="45.56725" lon="4.83901">
        <ele>255.37</ele>
        <time>2019-09-15T12:51:09Z</time>
      </trkpt>
      <trkpt lat="45.56732" lon="4.839">
        <ele>254.41</ele>
        <time>2019-09-15T12:51:11Z</time>
      </trkpt>
      <trkpt lat="45.56737" lon="4.839">
        <ele>253.93</ele>
        <time>2019-09-15T12:51:12Z</time>
      </trkpt>
      <trkpt lat="45.56753" lon="4.83899">
        <ele>252</ele>
        <time>2019-09-15T12:51:15Z</time>
      </trkpt>
      <trkpt lat="45.56758" lon="4.83899">
        <ele>251.04</ele>
        <time>2019-09-15T12:51:16Z</time>
      </trkpt>
      <trkpt lat="45.56762" lon="4.83899">
        <ele>251.04</ele>
        <time>2019-09-15T12:51:17Z</time>
      </trkpt>
      <trkpt lat="45.56779" lon="4.83897">
        <ele>248.16</ele>
        <time>2019-09-15T12:51:22Z</time>
      </trkpt>
      <trkpt lat="45.56781" lon="4.83894">
        <ele>248.16</ele>
        <time>2019-09-15T12:51:23Z</time>
      </trkpt>
      <trkpt lat="45.56784" lon="4.83891">
        <ele>248.16</ele>
        <time>2019-09-15T12:51:24Z</time>
      </trkpt>
      <trkpt lat="45.56786" lon="4.83887">
        <ele>248.16</ele>
        <time>2019-09-15T12:51:25Z</time>
      </trkpt>
      <trkpt lat="45.56787" lon="4.83882">
        <ele>247.68</ele>
        <time>2019-09-15T12:51:26Z</time>
      </trkpt>
      <trkpt lat="45.5679" lon="4.83871">
        <ele>247.2</ele>
        <time>2019-09-15T12:51:28Z</time>
      </trkpt>
      <trkpt lat="45.56793" lon="4.83859">
        <ele>246.72</ele>
        <time>2019-09-15T12:51:30Z</time>
      </trkpt>
      <trkpt lat="45.56794" lon="4.83852">
        <ele>246.72</ele>
        <time>2019-09-15T12:51:31Z</time>
      </trkpt>
      <trkpt lat="45.56795" lon="4.83845">
        <ele>246.72</ele>
        <time>2019-09-15T12:51:32Z</time>
      </trkpt>
      <trkpt lat="45.56795" lon="4.83839">
        <ele>247.2</ele>
        <time>2019-09-15T12:51:33Z</time>
      </trkpt>
      <trkpt lat="45.56793" lon="4.83833">
        <ele>246.72</ele>
        <time>2019-09-15T12:51:34Z</time>
      </trkpt>
      <trkpt lat="45.56786" lon="4.83801">
        <ele>246.72</ele>
        <time>2019-09-15T12:51:43Z</time>
      </trkpt>
      <trkpt lat="45.56785" lon="4.83798">
        <ele>245.27</ele>
        <time>2019-09-15T12:51:44Z</time>
      </trkpt>
      <trkpt lat="45.56785" lon="4.83795">
        <ele>245.27</ele>
        <time>2019-09-15T12:51:45Z</time>
      </trkpt>
      <trkpt lat="45.56785" lon="4.83791">
        <ele>244.79</ele>
        <time>2019-09-15T12:51:47Z</time>
      </trkpt>
      <trkpt lat="45.56792" lon="4.83782">
        <ele>239.99</ele>
        <time>2019-09-15T12:51:52Z</time>
      </trkpt>
      <trkpt lat="45.56795" lon="4.8378">
        <ele>239.51</ele>
        <time>2019-09-15T12:51:53Z</time>
      </trkpt>
      <trkpt lat="45.56803" lon="4.83767">
        <ele>235.66</ele>
        <time>2019-09-15T12:51:58Z</time>
      </trkpt>
      <trkpt lat="45.5681" lon="4.8375">
        <ele>231.33</ele>
        <time>2019-09-15T12:52:03Z</time>
      </trkpt>
      <trkpt lat="45.56804" lon="4.83715">
        <ele>229.89</ele>
        <time>2019-09-15T12:52:11Z</time>
      </trkpt>
      <trkpt lat="45.56803" lon="4.83693">
        <ele>230.37</ele>
        <time>2019-09-15T12:52:15Z</time>
      </trkpt>
      <trkpt lat="45.56803" lon="4.83685">
        <ele>230.37</ele>
        <time>2019-09-15T12:52:16Z</time>
      </trkpt>
      <trkpt lat="45.56803" lon="4.83678">
        <ele>229.89</ele>
        <time>2019-09-15T12:52:17Z</time>
      </trkpt>
      <trkpt lat="45.56804" lon="4.83671">
        <ele>229.41</ele>
        <time>2019-09-15T12:52:18Z</time>
      </trkpt>
      <trkpt lat="45.56807" lon="4.83665">
        <ele>228.93</ele>
        <time>2019-09-15T12:52:19Z</time>
      </trkpt>
      <trkpt lat="45.56809" lon="4.8366">
        <ele>228.93</ele>
        <time>2019-09-15T12:52:20Z</time>
      </trkpt>
      <trkpt lat="45.56812" lon="4.83653">
        <ele>228.93</ele>
        <time>2019-09-15T12:52:21Z</time>
      </trkpt>
      <trkpt lat="45.56813" lon="4.83645">
        <ele>228.93</ele>
        <time>2019-09-15T12:52:22Z</time>
      </trkpt>
      <trkpt lat="45.56814" lon="4.83637">
        <ele>228.93</ele>
        <time>2019-09-15T12:52:23Z</time>
      </trkpt>
      <trkpt lat="45.56815" lon="4.83629">
        <ele>228.93</ele>
        <time>2019-09-15T12:52:24Z</time>
      </trkpt>
      <trkpt lat="45.56817" lon="4.83621">
        <ele>229.41</ele>
        <time>2019-09-15T12:52:25Z</time>
      </trkpt>
      <trkpt lat="45.56819" lon="4.83614">
        <ele>229.89</ele>
        <time>2019-09-15T12:52:26Z</time>
      </trkpt>
      <trkpt lat="45.56821" lon="4.83606">
        <ele>229.89</ele>
        <time>2019-09-15T12:52:27Z</time>
      </trkpt>
      <trkpt lat="45.56824" lon="4.83599">
        <ele>230.85</ele>
        <time>2019-09-15T12:52:28Z</time>
      </trkpt>
      <trkpt lat="45.56827" lon="4.83592">
        <ele>230.85</ele>
        <time>2019-09-15T12:52:29Z</time>
      </trkpt>
      <trkpt lat="45.5683" lon="4.83584">
        <ele>231.33</ele>
        <time>2019-09-15T12:52:30Z</time>
      </trkpt>
      <trkpt lat="45.56833" lon="4.83578">
        <ele>231.81</ele>
        <time>2019-09-15T12:52:31Z</time>
      </trkpt>
      <trkpt lat="45.56846" lon="4.83533">
        <ele>232.78</ele>
        <time>2019-09-15T12:52:36Z</time>
      </trkpt>
      <trkpt lat="45.56848" lon="4.83525">
        <ele>232.78</ele>
        <time>2019-09-15T12:52:37Z</time>
      </trkpt>
      <trkpt lat="45.56849" lon="4.83516">
        <ele>233.26</ele>
        <time>2019-09-15T12:52:38Z</time>
      </trkpt>
      <trkpt lat="45.5685" lon="4.83506">
        <ele>233.74</ele>
        <time>2019-09-15T12:52:39Z</time>
      </trkpt>
      <trkpt lat="45.5685" lon="4.83496">
        <ele>233.74</ele>
        <time>2019-09-15T12:52:40Z</time>
      </trkpt>
      <trkpt lat="45.5685" lon="4.83486">
        <ele>233.74</ele>
        <time>2019-09-15T12:52:41Z</time>
      </trkpt>
      <trkpt lat="45.56846" lon="4.83439">
        <ele>234.22</ele>
        <time>2019-09-15T12:52:46Z</time>
      </trkpt>
      <trkpt lat="45.56844" lon="4.83432">
        <ele>234.7</ele>
        <time>2019-09-15T12:52:47Z</time>
      </trkpt>
      <trkpt lat="45.56841" lon="4.83425">
        <ele>234.7</ele>
        <time>2019-09-15T12:52:48Z</time>
      </trkpt>
      <trkpt lat="45.56838" lon="4.83418">
        <ele>235.18</ele>
        <time>2019-09-15T12:52:49Z</time>
      </trkpt>
      <trkpt lat="45.56833" lon="4.83413">
        <ele>234.7</ele>
        <time>2019-09-15T12:52:50Z</time>
      </trkpt>
      <trkpt lat="45.56828" lon="4.83408">
        <ele>234.7</ele>
        <time>2019-09-15T12:52:51Z</time>
      </trkpt>
      <trkpt lat="45.56822" lon="4.83403">
        <ele>234.7</ele>
        <time>2019-09-15T12:52:52Z</time>
      </trkpt>
      <trkpt lat="45.56817" lon="4.83397">
        <ele>234.22</ele>
        <time>2019-09-15T12:52:53Z</time>
      </trkpt>
      <trkpt lat="45.56807" lon="4.83383">
        <ele>233.26</ele>
        <time>2019-09-15T12:52:55Z</time>
      </trkpt>
      <trkpt lat="45.56806" lon="4.83374">
        <ele>233.26</ele>
        <time>2019-09-15T12:52:56Z</time>
      </trkpt>
      <trkpt lat="45.56806" lon="4.83366">
        <ele>233.74</ele>
        <time>2019-09-15T12:52:57Z</time>
      </trkpt>
      <trkpt lat="45.56809" lon="4.8336">
        <ele>234.22</ele>
        <time>2019-09-15T12:52:58Z</time>
      </trkpt>
      <trkpt lat="45.56811" lon="4.83356">
        <ele>234.22</ele>
        <time>2019-09-15T12:52:59Z</time>
      </trkpt>
      <trkpt lat="45.56814" lon="4.83352">
        <ele>234.7</ele>
        <time>2019-09-15T12:53:00Z</time>
      </trkpt>
      <trkpt lat="45.56817" lon="4.83348">
        <ele>235.18</ele>
        <time>2019-09-15T12:53:01Z</time>
      </trkpt>
      <trkpt lat="45.5682" lon="4.83344">
        <ele>235.18</ele>
        <time>2019-09-15T12:53:02Z</time>
      </trkpt>
      <trkpt lat="45.56823" lon="4.8334">
        <ele>235.66</ele>
        <time>2019-09-15T12:53:03Z</time>
      </trkpt>
      <trkpt lat="45.56827" lon="4.83337">
        <ele>236.62</ele>
        <time>2019-09-15T12:53:04Z</time>
      </trkpt>
      <trkpt lat="45.56847" lon="4.83315">
        <ele>239.99</ele>
        <time>2019-09-15T12:53:10Z</time>
      </trkpt>
      <trkpt lat="45.56854" lon="4.83306">
        <ele>240.47</ele>
        <time>2019-09-15T12:53:12Z</time>
      </trkpt>
      <trkpt lat="45.56857" lon="4.83301">
        <ele>240.95</ele>
        <time>2019-09-15T12:53:13Z</time>
      </trkpt>
      <trkpt lat="45.5686" lon="4.83296">
        <ele>241.91</ele>
        <time>2019-09-15T12:53:14Z</time>
      </trkpt>
      <trkpt lat="45.56864" lon="4.8329">
        <ele>241.91</ele>
        <time>2019-09-15T12:53:15Z</time>
      </trkpt>
      <trkpt lat="45.56868" lon="4.83284">
        <ele>242.39</ele>
        <time>2019-09-15T12:53:16Z</time>
      </trkpt>
      <trkpt lat="45.56871" lon="4.83279">
        <ele>242.87</ele>
        <time>2019-09-15T12:53:17Z</time>
      </trkpt>
      <trkpt lat="45.56877" lon="4.83274">
        <ele>243.35</ele>
        <time>2019-09-15T12:53:18Z</time>
      </trkpt>
      <trkpt lat="45.5688" lon="4.83269">
        <ele>243.35</ele>
        <time>2019-09-15T12:53:19Z</time>
      </trkpt>
      <trkpt lat="45.56883" lon="4.83265">
        <ele>243.83</ele>
        <time>2019-09-15T12:53:20Z</time>
      </trkpt>
      <trkpt lat="45.56885" lon="4.83262">
        <ele>243.83</ele>
        <time>2019-09-15T12:53:21Z</time>
      </trkpt>
      <trkpt lat="45.56883" lon="4.83258">
        <ele>245.27</ele>
        <time>2019-09-15T12:53:22Z</time>
      </trkpt>
      <trkpt lat="45.5688" lon="4.83256">
        <ele>245.27</ele>
        <time>2019-09-15T12:53:23Z</time>
      </trkpt>
      <trkpt lat="45.56877" lon="4.83254">
        <ele>244.79</ele>
        <time>2019-09-15T12:53:24Z</time>
      </trkpt>
      <trkpt lat="45.56873" lon="4.83251">
        <ele>244.79</ele>
        <time>2019-09-15T12:53:25Z</time>
      </trkpt>
      <trkpt lat="45.56869" lon="4.83249">
        <ele>244.79</ele>
        <time>2019-09-15T12:53:26Z</time>
      </trkpt>
      <trkpt lat="45.56865" lon="4.83247">
        <ele>244.79</ele>
        <time>2019-09-15T12:53:27Z</time>
      </trkpt>
      <trkpt lat="45.56862" lon="4.83245">
        <ele>244.31</ele>
        <time>2019-09-15T12:53:28Z</time>
      </trkpt>
      <trkpt lat="45.5686" lon="4.83243">
        <ele>244.31</ele>
        <time>2019-09-15T12:53:29Z</time>
      </trkpt>
      <trkpt lat="45.56859" lon="4.83241">
        <ele>243.83</ele>
        <time>2019-09-15T12:53:30Z</time>
      </trkpt>
      <trkpt lat="45.56857" lon="4.8324">
        <ele>243.83</ele>
        <time>2019-09-15T12:53:31Z</time>
      </trkpt>
      <trkpt lat="45.56855" lon="4.83239">
        <ele>243.83</ele>
        <time>2019-09-15T12:53:32Z</time>
      </trkpt>
      <trkpt lat="45.56853" lon="4.83238">
        <ele>244.31</ele>
        <time>2019-09-15T12:53:33Z</time>
      </trkpt>
      <trkpt lat="45.56851" lon="4.83237">
        <ele>244.31</ele>
        <time>2019-09-15T12:53:34Z</time>
      </trkpt>
      <trkpt lat="45.5685" lon="4.83236">
        <ele>243.83</ele>
        <time>2019-09-15T12:53:35Z</time>
      </trkpt>
      <trkpt lat="45.56849" lon="4.83234">
        <ele>244.31</ele>
        <time>2019-09-15T12:53:36Z</time>
      </trkpt>
      <trkpt lat="45.56849" lon="4.83232">
        <ele>243.83</ele>
        <time>2019-09-15T12:53:37Z</time>
      </trkpt>
      <trkpt lat="45.5685" lon="4.83232">
        <ele>242.87</ele>
        <time>2019-09-15T12:53:38Z</time>
      </trkpt>
      <trkpt lat="45.56851" lon="4.83232">
        <ele>242.87</ele>
        <time>2019-09-15T12:53:39Z</time>
      </trkpt>
      <trkpt lat="45.56854" lon="4.83231">
        <ele>242.39</ele>
        <time>2019-09-15T12:53:40Z</time>
      </trkpt>
      <trkpt lat="45.56857" lon="4.83231">
        <ele>241.43</ele>
        <time>2019-09-15T12:53:41Z</time>
      </trkpt>
      <trkpt lat="45.56862" lon="4.83231">
        <ele>240.95</ele>
        <time>2019-09-15T12:53:42Z</time>
      </trkpt>
      <trkpt lat="45.56867" lon="4.8323">
        <ele>240.47</ele>
        <time>2019-09-15T12:53:43Z</time>
      </trkpt>
      <trkpt lat="45.56873" lon="4.83228">
        <ele>238.54</ele>
        <time>2019-09-15T12:53:44Z</time>
      </trkpt>
      <trkpt lat="45.56878" lon="4.83226">
        <ele>237.58</ele>
        <time>2019-09-15T12:53:45Z</time>
      </trkpt>
      <trkpt lat="45.56898" lon="4.83216">
        <ele>233.26</ele>
        <time>2019-09-15T12:53:48Z</time>
      </trkpt>
      <trkpt lat="45.56922" lon="4.83205">
        <ele>229.89</ele>
        <time>2019-09-15T12:53:51Z</time>
      </trkpt>
      <trkpt lat="45.56939" lon="4.83199">
        <ele>228.93</ele>
        <time>2019-09-15T12:53:54Z</time>
      </trkpt>
      <trkpt lat="45.56942" lon="4.83199">
        <ele>228.45</ele>
        <time>2019-09-15T12:53:55Z</time>
      </trkpt>
      <trkpt lat="45.56944" lon="4.83199">
        <ele>227.49</ele>
        <time>2019-09-15T12:53:56Z</time>
      </trkpt>
      <trkpt lat="45.56946" lon="4.83199">
        <ele>227.49</ele>
        <time>2019-09-15T12:53:57Z</time>
      </trkpt>
      <trkpt lat="45.56954" lon="4.83197">
        <ele>226.05</ele>
        <time>2019-09-15T12:54:00Z</time>
      </trkpt>
      <trkpt lat="45.56967" lon="4.83193">
        <ele>222.68</ele>
        <time>2019-09-15T12:54:04Z</time>
      </trkpt>
      <trkpt lat="45.5697" lon="4.83195">
        <ele>221.72</ele>
        <time>2019-09-15T12:54:05Z</time>
      </trkpt>
      <trkpt lat="45.56974" lon="4.83197">
        <ele>220.76</ele>
        <time>2019-09-15T12:54:06Z</time>
      </trkpt>
      <trkpt lat="45.56978" lon="4.83199">
        <ele>219.8</ele>
        <time>2019-09-15T12:54:07Z</time>
      </trkpt>
      <trkpt lat="45.56982" lon="4.832">
        <ele>219.8</ele>
        <time>2019-09-15T12:54:08Z</time>
      </trkpt>
      <trkpt lat="45.56986" lon="4.83201">
        <ele>217.88</ele>
        <time>2019-09-15T12:54:09Z</time>
      </trkpt>
      <trkpt lat="45.56989" lon="4.83201">
        <ele>217.4</ele>
        <time>2019-09-15T12:54:10Z</time>
      </trkpt>
      <trkpt lat="45.56991" lon="4.83202">
        <ele>216.91</ele>
        <time>2019-09-15T12:54:11Z</time>
      </trkpt>
      <trkpt lat="45.56994" lon="4.83203">
        <ele>215.95</ele>
        <time>2019-09-15T12:54:12Z</time>
      </trkpt>
      <trkpt lat="45.57002" lon="4.83205">
        <ele>212.59</ele>
        <time>2019-09-15T12:54:15Z</time>
      </trkpt>
      <trkpt lat="45.57017" lon="4.83204">
        <ele>209.7</ele>
        <time>2019-09-15T12:54:20Z</time>
      </trkpt>
      <trkpt lat="45.57019" lon="4.83203">
        <ele>209.22</ele>
        <time>2019-09-15T12:54:21Z</time>
      </trkpt>
      <trkpt lat="45.57021" lon="4.83201">
        <ele>208.74</ele>
        <time>2019-09-15T12:54:22Z</time>
      </trkpt>
      <trkpt lat="45.57023" lon="4.83198">
        <ele>208.26</ele>
        <time>2019-09-15T12:54:23Z</time>
      </trkpt>
      <trkpt lat="45.57024" lon="4.83193">
        <ele>208.26</ele>
        <time>2019-09-15T12:54:31Z</time>
      </trkpt>
      <trkpt lat="45.57025" lon="4.83192">
        <ele>208.26</ele>
        <time>2019-09-15T12:54:53Z</time>
      </trkpt>
      <trkpt lat="45.57027" lon="4.83192">
        <ele>208.26</ele>
        <time>2019-09-15T12:55:29Z</time>
      </trkpt>
      <trkpt lat="45.57027" lon="4.83191">
        <ele>207.78</ele>
        <time>2019-09-15T12:56:08Z</time>
      </trkpt>
      <trkpt lat="45.57027" lon="4.83191">
        <ele>207.78</ele>
        <time>2019-09-15T12:56:44Z</time>
      </trkpt>
      <trkpt lat="45.57027" lon="4.83191">
        <ele>207.78</ele>
        <time>2019-09-15T12:57:18Z</time>
      </trkpt>
      <trkpt lat="45.57028" lon="4.8319">
        <ele>207.78</ele>
        <time>2019-09-15T12:57:51Z</time>
      </trkpt>
      <trkpt lat="45.57027" lon="4.8319">
        <ele>207.3</ele>
        <time>2019-09-15T12:58:20Z</time>
      </trkpt>
      <trkpt lat="45.57027" lon="4.8319">
        <ele>207.3</ele>
        <time>2019-09-15T12:58:42Z</time>
      </trkpt>
      <trkpt lat="45.57027" lon="4.8319">
        <ele>207.3</ele>
        <time>2019-09-15T12:58:48Z</time>
      </trkpt>
      <trkpt lat="45.57023" lon="4.83178">
        <ele>206.82</ele>
        <time>2019-09-15T12:58:59Z</time>
      </trkpt>
      <trkpt lat="45.57028" lon="4.83181">
        <ele>207.78</ele>
        <time>2019-09-15T12:59:03Z</time>
      </trkpt>
      <trkpt lat="45.57038" lon="4.83195">
        <ele>206.82</ele>
        <time>2019-09-15T12:59:10Z</time>
      </trkpt>
      <trkpt lat="45.57044" lon="4.83196">
        <ele>205.86</ele>
        <time>2019-09-15T12:59:13Z</time>
      </trkpt>
      <trkpt lat="45.57061" lon="4.83216">
        <ele>208.74</ele>
        <time>2019-09-15T12:59:23Z</time>
      </trkpt>
      <trkpt lat="45.57062" lon="4.83218">
        <ele>208.74</ele>
        <time>2019-09-15T12:59:24Z</time>
      </trkpt>
      <trkpt lat="45.57084" lon="4.83249">
        <ele>211.15</ele>
        <time>2019-09-15T12:59:35Z</time>
      </trkpt>
      <trkpt lat="45.57084" lon="4.83249">
        <ele>211.15</ele>
        <time>2019-09-15T12:59:58Z</time>
      </trkpt>
      <trkpt lat="45.57084" lon="4.83249">
        <ele>211.15</ele>
        <time>2019-09-15T13:00:25Z</time>
      </trkpt>
      <trkpt lat="45.57084" lon="4.83249">
        <ele>210.67</ele>
        <time>2019-09-15T13:00:46Z</time>
      </trkpt>
      <trkpt lat="45.57084" lon="4.83249">
        <ele>210.67</ele>
        <time>2019-09-15T13:01:05Z</time>
      </trkpt>
      <trkpt lat="45.57084" lon="4.83249">
        <ele>210.19</ele>
        <time>2019-09-15T13:01:27Z</time>
      </trkpt>
      <trkpt lat="45.57084" lon="4.8325">
        <ele>210.19</ele>
        <time>2019-09-15T13:01:59Z</time>
      </trkpt>
      <trkpt lat="45.57085" lon="4.83252">
        <ele>209.22</ele>
        <time>2019-09-15T13:02:09Z</time>
      </trkpt>
      <trkpt lat="45.57086" lon="4.83251">
        <ele>209.22</ele>
        <time>2019-09-15T13:02:48Z</time>
      </trkpt>
      <trkpt lat="45.57086" lon="4.83251">
        <ele>209.22</ele>
        <time>2019-09-15T13:03:21Z</time>
      </trkpt>
      <trkpt lat="45.57085" lon="4.83251">
        <ele>208.74</ele>
        <time>2019-09-15T13:03:59Z</time>
      </trkpt>
      <trkpt lat="45.57085" lon="4.83252">
        <ele>208.74</ele>
        <time>2019-09-15T13:04:31Z</time>
      </trkpt>
      <trkpt lat="45.57085" lon="4.83252">
        <ele>209.7</ele>
        <time>2019-09-15T13:04:37Z</time>
      </trkpt>
      <trkpt lat="45.57091" lon="4.83264">
        <ele>208.26</ele>
        <time>2019-09-15T13:04:43Z</time>
      </trkpt>
      <trkpt lat="45.57103" lon="4.83298">
        <ele>210.67</ele>
        <time>2019-09-15T13:04:53Z</time>
      </trkpt>
      <trkpt lat="45.57103" lon="4.83303">
        <ele>210.67</ele>
        <time>2019-09-15T13:04:54Z</time>
      </trkpt>
      <trkpt lat="45.57104" lon="4.83311">
        <ele>211.15</ele>
        <time>2019-09-15T13:04:56Z</time>
      </trkpt>
      <trkpt lat="45.57107" lon="4.83325">
        <ele>210.67</ele>
        <time>2019-09-15T13:04:58Z</time>
      </trkpt>
      <trkpt lat="45.57114" lon="4.83347">
        <ele>211.63</ele>
        <time>2019-09-15T13:05:01Z</time>
      </trkpt>
      <trkpt lat="45.57118" lon="4.83362">
        <ele>210.67</ele>
        <time>2019-09-15T13:05:03Z</time>
      </trkpt>
      <trkpt lat="45.57126" lon="4.8338">
        <ele>213.07</ele>
        <time>2019-09-15T13:05:07Z</time>
      </trkpt>
      <trkpt lat="45.57113" lon="4.83406">
        <ele>214.03</ele>
        <time>2019-09-15T13:05:15Z</time>
      </trkpt>
      <trkpt lat="45.57081" lon="4.83433">
        <ele>213.55</ele>
        <time>2019-09-15T13:05:23Z</time>
      </trkpt>
      <trkpt lat="45.57072" lon="4.83446">
        <ele>213.55</ele>
        <time>2019-09-15T13:05:25Z</time>
      </trkpt>
      <trkpt lat="45.57063" lon="4.83456">
        <ele>214.03</ele>
        <time>2019-09-15T13:05:27Z</time>
      </trkpt>
      <trkpt lat="45.57015" lon="4.83528">
        <ele>215.47</ele>
        <time>2019-09-15T13:05:39Z</time>
      </trkpt>
      <trkpt lat="45.57003" lon="4.8357">
        <ele>216.91</ele>
        <time>2019-09-15T13:05:44Z</time>
      </trkpt>
      <trkpt lat="45.56995" lon="4.83592">
        <ele>216.91</ele>
        <time>2019-09-15T13:05:47Z</time>
      </trkpt>
      <trkpt lat="45.56992" lon="4.83635">
        <ele>221.24</ele>
        <time>2019-09-15T13:05:53Z</time>
      </trkpt>
      <trkpt lat="45.56993" lon="4.83647">
        <ele>221.72</ele>
        <time>2019-09-15T13:05:55Z</time>
      </trkpt>
      <trkpt lat="45.57" lon="4.8369">
        <ele>222.68</ele>
        <time>2019-09-15T13:06:02Z</time>
      </trkpt>
      <trkpt lat="45.57013" lon="4.83732">
        <ele>223.64</ele>
        <time>2019-09-15T13:06:11Z</time>
      </trkpt>
      <trkpt lat="45.57014" lon="4.83738">
        <ele>223.64</ele>
        <time>2019-09-15T13:06:12Z</time>
      </trkpt>
      <trkpt lat="45.57021" lon="4.83776">
        <ele>223.64</ele>
        <time>2019-09-15T13:06:20Z</time>
      </trkpt>
      <trkpt lat="45.57029" lon="4.83788">
        <ele>224.61</ele>
        <time>2019-09-15T13:06:26Z</time>
      </trkpt>
      <trkpt lat="45.57034" lon="4.83797">
        <ele>224.61</ele>
        <time>2019-09-15T13:06:42Z</time>
      </trkpt>
      <trkpt lat="45.57034" lon="4.83797">
        <ele>224.61</ele>
        <time>2019-09-15T13:07:00Z</time>
      </trkpt>
      <trkpt lat="45.57034" lon="4.83797">
        <ele>224.61</ele>
        <time>2019-09-15T13:07:07Z</time>
      </trkpt>
      <trkpt lat="45.57031" lon="4.83793">
        <ele>224.61</ele>
        <time>2019-09-15T13:07:13Z</time>
      </trkpt>
      <trkpt lat="45.57025" lon="4.83758">
        <ele>223.64</ele>
        <time>2019-09-15T13:07:22Z</time>
      </trkpt>
      <trkpt lat="45.57014" lon="4.83721">
        <ele>223.16</ele>
        <time>2019-09-15T13:07:29Z</time>
      </trkpt>
      <trkpt lat="45.57011" lon="4.83716">
        <ele>223.16</ele>
        <time>2019-09-15T13:07:30Z</time>
      </trkpt>
      <trkpt lat="45.57003" lon="4.83698">
        <ele>223.16</ele>
        <time>2019-09-15T13:07:33Z</time>
      </trkpt>
      <trkpt lat="45.56998" lon="4.83664">
        <ele>221.72</ele>
        <time>2019-09-15T13:07:37Z</time>
      </trkpt>
      <trkpt lat="45.56995" lon="4.8362">
        <ele>217.4</ele>
        <time>2019-09-15T13:07:41Z</time>
      </trkpt>
      <trkpt lat="45.57014" lon="4.83543">
        <ele>216.43</ele>
        <time>2019-09-15T13:07:49Z</time>
      </trkpt>
      <trkpt lat="45.57024" lon="4.8352">
        <ele>214.99</ele>
        <time>2019-09-15T13:07:53Z</time>
      </trkpt>
      <trkpt lat="45.57042" lon="4.83494">
        <ele>213.07</ele>
        <time>2019-09-15T13:07:57Z</time>
      </trkpt>
      <trkpt lat="45.57052" lon="4.83479">
        <ele>213.55</ele>
        <time>2019-09-15T13:07:59Z</time>
      </trkpt>
      <trkpt lat="45.57069" lon="4.83448">
        <ele>212.59</ele>
        <time>2019-09-15T13:08:03Z</time>
      </trkpt>
      <trkpt lat="45.57096" lon="4.83435">
        <ele>213.07</ele>
        <time>2019-09-15T13:08:12Z</time>
      </trkpt>
      <trkpt lat="45.57117" lon="4.83427">
        <ele>212.11</ele>
        <time>2019-09-15T13:08:20Z</time>
      </trkpt>
      <trkpt lat="45.57131" lon="4.83416">
        <ele>211.63</ele>
        <time>2019-09-15T13:08:26Z</time>
      </trkpt>
      <trkpt lat="45.57129" lon="4.83407">
        <ele>210.19</ele>
        <time>2019-09-15T13:08:28Z</time>
      </trkpt>
      <trkpt lat="45.57122" lon="4.83366">
        <ele>210.67</ele>
        <time>2019-09-15T13:08:33Z</time>
      </trkpt>
      <trkpt lat="45.57116" lon="4.83323">
        <ele>209.22</ele>
        <time>2019-09-15T13:08:39Z</time>
      </trkpt>
      <trkpt lat="45.57114" lon="4.83311">
        <ele>208.26</ele>
        <time>2019-09-15T13:08:42Z</time>
      </trkpt>
      <trkpt lat="45.57104" lon="4.8329">
        <ele>209.22</ele>
        <time>2019-09-15T13:08:52Z</time>
      </trkpt>
      <trkpt lat="45.57104" lon="4.8329">
        <ele>208.74</ele>
        <time>2019-09-15T13:08:54Z</time>
      </trkpt>
      <trkpt lat="45.57105" lon="4.83268">
        <ele>211.15</ele>
        <time>2019-09-15T13:09:02Z</time>
      </trkpt>
      <trkpt lat="45.57118" lon="4.83245">
        <ele>214.99</ele>
        <time>2019-09-15T13:09:10Z</time>
      </trkpt>
      <trkpt lat="45.57129" lon="4.8322">
        <ele>217.88</ele>
        <time>2019-09-15T13:09:18Z</time>
      </trkpt>
      <trkpt lat="45.57131" lon="4.83217">
        <ele>218.36</ele>
        <time>2019-09-15T13:09:19Z</time>
      </trkpt>
      <trkpt lat="45.57131" lon="4.83214">
        <ele>218.84</ele>
        <time>2019-09-15T13:09:20Z</time>
      </trkpt>
      <trkpt lat="45.57141" lon="4.83183">
        <ele>222.68</ele>
        <time>2019-09-15T13:09:27Z</time>
      </trkpt>
      <trkpt lat="45.57144" lon="4.83179">
        <ele>222.68</ele>
        <time>2019-09-15T13:09:28Z</time>
      </trkpt>
      <trkpt lat="45.57152" lon="4.83161">
        <ele>226.05</ele>
        <time>2019-09-15T13:09:32Z</time>
      </trkpt>
      <trkpt lat="45.5716" lon="4.83148">
        <ele>227.49</ele>
        <time>2019-09-15T13:09:35Z</time>
      </trkpt>
      <trkpt lat="45.57172" lon="4.83128">
        <ele>230.37</ele>
        <time>2019-09-15T13:09:39Z</time>
      </trkpt>
      <trkpt lat="45.57206" lon="4.83089">
        <ele>239.02</ele>
        <time>2019-09-15T13:09:49Z</time>
      </trkpt>
      <trkpt lat="45.57209" lon="4.83085">
        <ele>234.22</ele>
        <time>2019-09-15T13:09:50Z</time>
      </trkpt>
      <trkpt lat="45.57228" lon="4.83069">
        <ele>236.14</ele>
        <time>2019-09-15T13:10:00Z</time>
      </trkpt>
      <trkpt lat="45.57228" lon="4.83069">
        <ele>236.14</ele>
        <time>2019-09-15T13:10:05Z</time>
      </trkpt>
      <trkpt lat="45.57244" lon="4.83052">
        <ele>238.06</ele>
        <time>2019-09-15T13:10:11Z</time>
      </trkpt>
      <trkpt lat="45.57249" lon="4.83049">
        <ele>238.06</ele>
        <time>2019-09-15T13:10:12Z</time>
      </trkpt>
      <trkpt lat="45.57253" lon="4.83045">
        <ele>238.54</ele>
        <time>2019-09-15T13:10:13Z</time>
      </trkpt>
      <trkpt lat="45.57256" lon="4.83041">
        <ele>239.02</ele>
        <time>2019-09-15T13:10:14Z</time>
      </trkpt>
      <trkpt lat="45.57258" lon="4.83038">
        <ele>239.02</ele>
        <time>2019-09-15T13:10:15Z</time>
      </trkpt>
      <trkpt lat="45.5726" lon="4.83035">
        <ele>239.51</ele>
        <time>2019-09-15T13:10:16Z</time>
      </trkpt>
      <trkpt lat="45.57285" lon="4.83008">
        <ele>241.91</ele>
        <time>2019-09-15T13:10:26Z</time>
      </trkpt>
      <trkpt lat="45.5729" lon="4.83002">
        <ele>242.87</ele>
        <time>2019-09-15T13:10:28Z</time>
      </trkpt>
      <trkpt lat="45.57301" lon="4.82988">
        <ele>244.31</ele>
        <time>2019-09-15T13:10:32Z</time>
      </trkpt>
      <trkpt lat="45.57329" lon="4.82959">
        <ele>247.68</ele>
        <time>2019-09-15T13:10:43Z</time>
      </trkpt>
      <trkpt lat="45.57352" lon="4.82934">
        <ele>251.04</ele>
        <time>2019-09-15T13:10:51Z</time>
      </trkpt>
      <trkpt lat="45.57394" lon="4.82918">
        <ele>252.48</ele>
        <time>2019-09-15T13:11:03Z</time>
      </trkpt>
      <trkpt lat="45.5744" lon="4.82908">
        <ele>254.41</ele>
        <time>2019-09-15T13:11:15Z</time>
      </trkpt>
      <trkpt lat="45.57461" lon="4.82901">
        <ele>255.37</ele>
        <time>2019-09-15T13:11:22Z</time>
      </trkpt>
      <trkpt lat="45.57465" lon="4.82903">
        <ele>255.37</ele>
        <time>2019-09-15T13:11:23Z</time>
      </trkpt>
      <trkpt lat="45.57496" lon="4.82932">
        <ele>255.85</ele>
        <time>2019-09-15T13:11:31Z</time>
      </trkpt>
      <trkpt lat="45.57499" lon="4.82937">
        <ele>255.85</ele>
        <time>2019-09-15T13:11:32Z</time>
      </trkpt>
      <trkpt lat="45.57536" lon="4.82995">
        <ele>256.33</ele>
        <time>2019-09-15T13:11:42Z</time>
      </trkpt>
      <trkpt lat="45.57539" lon="4.83002">
        <ele>256.33</ele>
        <time>2019-09-15T13:11:43Z</time>
      </trkpt>
      <trkpt lat="45.5754" lon="4.8301">
        <ele>256.33</ele>
        <time>2019-09-15T13:11:44Z</time>
      </trkpt>
      <trkpt lat="45.5754" lon="4.83018">
        <ele>256.81</ele>
        <time>2019-09-15T13:11:45Z</time>
      </trkpt>
      <trkpt lat="45.5754" lon="4.83026">
        <ele>257.29</ele>
        <time>2019-09-15T13:11:46Z</time>
      </trkpt>
      <trkpt lat="45.57538" lon="4.83042">
        <ele>257.29</ele>
        <time>2019-09-15T13:11:48Z</time>
      </trkpt>
      <trkpt lat="45.57521" lon="4.83177">
        <ele>258.25</ele>
        <time>2019-09-15T13:12:04Z</time>
      </trkpt>
      <trkpt lat="45.57527" lon="4.83259">
        <ele>255.37</ele>
        <time>2019-09-15T13:12:12Z</time>
      </trkpt>
      <trkpt lat="45.57525" lon="4.83269">
        <ele>255.37</ele>
        <time>2019-09-15T13:12:13Z</time>
      </trkpt>
      <trkpt lat="45.57521" lon="4.83297">
        <ele>255.37</ele>
        <time>2019-09-15T13:12:16Z</time>
      </trkpt>
      <trkpt lat="45.5752" lon="4.83348">
        <ele>252</ele>
        <time>2019-09-15T13:12:21Z</time>
      </trkpt>
      <trkpt lat="45.57518" lon="4.83388">
        <ele>249.6</ele>
        <time>2019-09-15T13:12:24Z</time>
      </trkpt>
      <trkpt lat="45.57518" lon="4.83401">
        <ele>249.12</ele>
        <time>2019-09-15T13:12:25Z</time>
      </trkpt>
      <trkpt lat="45.5752" lon="4.83429">
        <ele>248.64</ele>
        <time>2019-09-15T13:12:27Z</time>
      </trkpt>
      <trkpt lat="45.57518" lon="4.83442">
        <ele>247.68</ele>
        <time>2019-09-15T13:12:28Z</time>
      </trkpt>
      <trkpt lat="45.57516" lon="4.83455">
        <ele>246.72</ele>
        <time>2019-09-15T13:12:29Z</time>
      </trkpt>
      <trkpt lat="45.57512" lon="4.83468">
        <ele>246.23</ele>
        <time>2019-09-15T13:12:30Z</time>
      </trkpt>
      <trkpt lat="45.57507" lon="4.83479">
        <ele>246.23</ele>
        <time>2019-09-15T13:12:31Z</time>
      </trkpt>
      <trkpt lat="45.57495" lon="4.83501">
        <ele>245.27</ele>
        <time>2019-09-15T13:12:33Z</time>
      </trkpt>
      <trkpt lat="45.57487" lon="4.83508">
        <ele>245.75</ele>
        <time>2019-09-15T13:12:34Z</time>
      </trkpt>
      <trkpt lat="45.57479" lon="4.83511">
        <ele>246.23</ele>
        <time>2019-09-15T13:12:35Z</time>
      </trkpt>
      <trkpt lat="45.57471" lon="4.83513">
        <ele>245.75</ele>
        <time>2019-09-15T13:12:36Z</time>
      </trkpt>
      <trkpt lat="45.57464" lon="4.83517">
        <ele>245.75</ele>
        <time>2019-09-15T13:12:37Z</time>
      </trkpt>
      <trkpt lat="45.57459" lon="4.83523">
        <ele>246.72</ele>
        <time>2019-09-15T13:12:38Z</time>
      </trkpt>
      <trkpt lat="45.57455" lon="4.83531">
        <ele>247.2</ele>
        <time>2019-09-15T13:12:39Z</time>
      </trkpt>
      <trkpt lat="45.57453" lon="4.83539">
        <ele>248.16</ele>
        <time>2019-09-15T13:12:40Z</time>
      </trkpt>
      <trkpt lat="45.57451" lon="4.83547">
        <ele>248.16</ele>
        <time>2019-09-15T13:12:41Z</time>
      </trkpt>
      <trkpt lat="45.5744" lon="4.83587">
        <ele>252</ele>
        <time>2019-09-15T13:12:46Z</time>
      </trkpt>
      <trkpt lat="45.57424" lon="4.83647">
        <ele>255.37</ele>
        <time>2019-09-15T13:12:54Z</time>
      </trkpt>
      <trkpt lat="45.5742" lon="4.83662">
        <ele>256.33</ele>
        <time>2019-09-15T13:12:56Z</time>
      </trkpt>
      <trkpt lat="45.57415" lon="4.83684">
        <ele>257.29</ele>
        <time>2019-09-15T13:12:59Z</time>
      </trkpt>
      <trkpt lat="45.57401" lon="4.83744">
        <ele>260.65</ele>
        <time>2019-09-15T13:13:07Z</time>
      </trkpt>
      <trkpt lat="45.57381" lon="4.83825">
        <ele>263.54</ele>
        <time>2019-09-15T13:13:18Z</time>
      </trkpt>
      <trkpt lat="45.57361" lon="4.83909">
        <ele>266.9</ele>
        <time>2019-09-15T13:13:29Z</time>
      </trkpt>
      <trkpt lat="45.57348" lon="4.84025">
        <ele>267.38</ele>
        <time>2019-09-15T13:13:44Z</time>
      </trkpt>
      <trkpt lat="45.57349" lon="4.84034">
        <ele>267.38</ele>
        <time>2019-09-15T13:13:45Z</time>
      </trkpt>
      <trkpt lat="45.57357" lon="4.84084">
        <ele>264.02</ele>
        <time>2019-09-15T13:13:50Z</time>
      </trkpt>
      <trkpt lat="45.57363" lon="4.84108">
        <ele>263.06</ele>
        <time>2019-09-15T13:13:52Z</time>
      </trkpt>
      <trkpt lat="45.57369" lon="4.84131">
        <ele>262.58</ele>
        <time>2019-09-15T13:13:54Z</time>
      </trkpt>
      <trkpt lat="45.57375" lon="4.84151">
        <ele>262.58</ele>
        <time>2019-09-15T13:13:56Z</time>
      </trkpt>
      <trkpt lat="45.57383" lon="4.84167">
        <ele>261.62</ele>
        <time>2019-09-15T13:13:58Z</time>
      </trkpt>
      <trkpt lat="45.57389" lon="4.84171">
        <ele>262.1</ele>
        <time>2019-09-15T13:13:59Z</time>
      </trkpt>
      <trkpt lat="45.57394" lon="4.84174">
        <ele>262.1</ele>
        <time>2019-09-15T13:14:00Z</time>
      </trkpt>
      <trkpt lat="45.57403" lon="4.84178">
        <ele>263.06</ele>
        <time>2019-09-15T13:14:02Z</time>
      </trkpt>
      <trkpt lat="45.57407" lon="4.84178">
        <ele>263.06</ele>
        <time>2019-09-15T13:14:03Z</time>
      </trkpt>
      <trkpt lat="45.57412" lon="4.84179">
        <ele>263.54</ele>
        <time>2019-09-15T13:14:04Z</time>
      </trkpt>
      <trkpt lat="45.57453" lon="4.84189">
        <ele>266.9</ele>
        <time>2019-09-15T13:14:13Z</time>
      </trkpt>
      <trkpt lat="45.57457" lon="4.84191">
        <ele>266.9</ele>
        <time>2019-09-15T13:14:14Z</time>
      </trkpt>
      <trkpt lat="45.5748" lon="4.84203">
        <ele>268.35</ele>
        <time>2019-09-15T13:14:19Z</time>
      </trkpt>
      <trkpt lat="45.57484" lon="4.84205">
        <ele>269.31</ele>
        <time>2019-09-15T13:14:20Z</time>
      </trkpt>
      <trkpt lat="45.57502" lon="4.84214">
        <ele>270.75</ele>
        <time>2019-09-15T13:14:24Z</time>
      </trkpt>
      <trkpt lat="45.57537" lon="4.84232">
        <ele>274.11</ele>
        <time>2019-09-15T13:14:32Z</time>
      </trkpt>
      <trkpt lat="45.57608" lon="4.84247">
        <ele>277.48</ele>
        <time>2019-09-15T13:14:47Z</time>
      </trkpt>
      <trkpt lat="45.57677" lon="4.84229">
        <ele>277</ele>
        <time>2019-09-15T13:15:01Z</time>
      </trkpt>
      <trkpt lat="45.57679" lon="4.84224">
        <ele>277.48</ele>
        <time>2019-09-15T13:15:02Z</time>
      </trkpt>
      <trkpt lat="45.5768" lon="4.84219">
        <ele>277.48</ele>
        <time>2019-09-15T13:15:03Z</time>
      </trkpt>
      <trkpt lat="45.57679" lon="4.84212">
        <ele>277.48</ele>
        <time>2019-09-15T13:15:04Z</time>
      </trkpt>
      <trkpt lat="45.57679" lon="4.84204">
        <ele>276.52</ele>
        <time>2019-09-15T13:15:05Z</time>
      </trkpt>
      <trkpt lat="45.57675" lon="4.8413">
        <ele>274.11</ele>
        <time>2019-09-15T13:15:14Z</time>
      </trkpt>
      <trkpt lat="45.57673" lon="4.84095">
        <ele>271.71</ele>
        <time>2019-09-15T13:15:19Z</time>
      </trkpt>
      <trkpt lat="45.57674" lon="4.84093">
        <ele>271.71</ele>
        <time>2019-09-15T13:15:20Z</time>
      </trkpt>
      <trkpt lat="45.57674" lon="4.84091">
        <ele>271.71</ele>
        <time>2019-09-15T13:15:21Z</time>
      </trkpt>
      <trkpt lat="45.57674" lon="4.84088">
        <ele>271.23</ele>
        <time>2019-09-15T13:15:22Z</time>
      </trkpt>
      <trkpt lat="45.57674" lon="4.84085">
        <ele>271.23</ele>
        <time>2019-09-15T13:15:23Z</time>
      </trkpt>
      <trkpt lat="45.57671" lon="4.84067">
        <ele>270.75</ele>
        <time>2019-09-15T13:15:29Z</time>
      </trkpt>
      <trkpt lat="45.57661" lon="4.84047">
        <ele>267.86</ele>
        <time>2019-09-15T13:15:36Z</time>
      </trkpt>
      <trkpt lat="45.57655" lon="4.84045">
        <ele>266.9</ele>
        <time>2019-09-15T13:15:38Z</time>
      </trkpt>
      <trkpt lat="45.57651" lon="4.84045">
        <ele>266.9</ele>
        <time>2019-09-15T13:15:39Z</time>
      </trkpt>
      <trkpt lat="45.57647" lon="4.84046">
        <ele>265.94</ele>
        <time>2019-09-15T13:15:40Z</time>
      </trkpt>
      <trkpt lat="45.57643" lon="4.84048">
        <ele>265.94</ele>
        <time>2019-09-15T13:15:41Z</time>
      </trkpt>
      <trkpt lat="45.57641" lon="4.8405">
        <ele>265.94</ele>
        <time>2019-09-15T13:15:42Z</time>
      </trkpt>
      <trkpt lat="45.57638" lon="4.84051">
        <ele>265.94</ele>
        <time>2019-09-15T13:15:43Z</time>
      </trkpt>
      <trkpt lat="45.57624" lon="4.84039">
        <ele>264.98</ele>
        <time>2019-09-15T13:15:51Z</time>
      </trkpt>
      <trkpt lat="45.57613" lon="4.84033">
        <ele>263.54</ele>
        <time>2019-09-15T13:16:00Z</time>
      </trkpt>
      <trkpt lat="45.57613" lon="4.84033">
        <ele>263.54</ele>
        <time>2019-09-15T13:16:16Z</time>
      </trkpt>
      <trkpt lat="45.57613" lon="4.84033">
        <ele>263.06</ele>
        <time>2019-09-15T13:16:27Z</time>
      </trkpt>
      <trkpt lat="45.57609" lon="4.84023">
        <ele>259.21</ele>
        <time>2019-09-15T13:16:32Z</time>
      </trkpt>
      <trkpt lat="45.57608" lon="4.84021">
        <ele>259.21</ele>
        <time>2019-09-15T13:16:33Z</time>
      </trkpt>
      <trkpt lat="45.57607" lon="4.8402">
        <ele>259.69</ele>
        <time>2019-09-15T13:16:44Z</time>
      </trkpt>
      <trkpt lat="45.57616" lon="4.84009">
        <ele>255.85</ele>
        <time>2019-09-15T13:16:48Z</time>
      </trkpt>
      <trkpt lat="45.57631" lon="4.84008">
        <ele>255.85</ele>
        <time>2019-09-15T13:16:57Z</time>
      </trkpt>
      <trkpt lat="45.57636" lon="4.84006">
        <ele>255.85</ele>
        <time>2019-09-15T13:16:59Z</time>
      </trkpt>
      <trkpt lat="45.57665" lon="4.84002">
        <ele>255.85</ele>
        <time>2019-09-15T13:17:10Z</time>
      </trkpt>
      <trkpt lat="45.57677" lon="4.84004">
        <ele>256.33</ele>
        <time>2019-09-15T13:17:15Z</time>
      </trkpt>
      <trkpt lat="45.57695" lon="4.84">
        <ele>257.29</ele>
        <time>2019-09-15T13:17:23Z</time>
      </trkpt>
      <trkpt lat="45.57702" lon="4.84005">
        <ele>257.77</ele>
        <time>2019-09-15T13:17:26Z</time>
      </trkpt>
      <trkpt lat="45.5772" lon="4.8402">
        <ele>258.25</ele>
        <time>2019-09-15T13:17:36Z</time>
      </trkpt>
      <trkpt lat="45.57741" lon="4.84021">
        <ele>258.25</ele>
        <time>2019-09-15T13:17:45Z</time>
      </trkpt>
      <trkpt lat="45.57753" lon="4.84027">
        <ele>257.77</ele>
        <time>2019-09-15T13:17:49Z</time>
      </trkpt>
      <trkpt lat="45.57763" lon="4.84047">
        <ele>258.25</ele>
        <time>2019-09-15T13:17:54Z</time>
      </trkpt>
      <trkpt lat="45.57771" lon="4.84067">
        <ele>261.14</ele>
        <time>2019-09-15T13:18:05Z</time>
      </trkpt>
      <trkpt lat="45.57771" lon="4.84067">
        <ele>260.65</ele>
        <time>2019-09-15T13:18:32Z</time>
      </trkpt>
      <trkpt lat="45.57776" lon="4.84068">
        <ele>260.17</ele>
        <time>2019-09-15T13:18:42Z</time>
      </trkpt>
      <trkpt lat="45.57781" lon="4.84059">
        <ele>258.73</ele>
        <time>2019-09-15T13:18:47Z</time>
      </trkpt>
      <trkpt lat="45.57776" lon="4.84043">
        <ele>258.25</ele>
        <time>2019-09-15T13:18:52Z</time>
      </trkpt>
      <trkpt lat="45.57781" lon="4.84027">
        <ele>261.14</ele>
        <time>2019-09-15T13:18:59Z</time>
      </trkpt>
      <trkpt lat="45.57781" lon="4.84021">
        <ele>262.58</ele>
        <time>2019-09-15T13:19:01Z</time>
      </trkpt>
      <trkpt lat="45.57798" lon="4.84014">
        <ele>264.98</ele>
        <time>2019-09-15T13:19:09Z</time>
      </trkpt>
      <trkpt lat="45.57808" lon="4.84009">
        <ele>266.9</ele>
        <time>2019-09-15T13:19:12Z</time>
      </trkpt>
      <trkpt lat="45.57811" lon="4.84002">
        <ele>267.38</ele>
        <time>2019-09-15T13:19:14Z</time>
      </trkpt>
      <trkpt lat="45.57809" lon="4.83921">
        <ele>269.79</ele>
        <time>2019-09-15T13:19:28Z</time>
      </trkpt>
      <trkpt lat="45.5781" lon="4.83918">
        <ele>269.79</ele>
        <time>2019-09-15T13:19:29Z</time>
      </trkpt>
      <trkpt lat="45.57812" lon="4.83915">
        <ele>269.79</ele>
        <time>2019-09-15T13:19:30Z</time>
      </trkpt>
      <trkpt lat="45.57814" lon="4.83911">
        <ele>269.79</ele>
        <time>2019-09-15T13:19:31Z</time>
      </trkpt>
      <trkpt lat="45.57816" lon="4.83906">
        <ele>270.75</ele>
        <time>2019-09-15T13:19:32Z</time>
      </trkpt>
      <trkpt lat="45.57816" lon="4.839">
        <ele>270.27</ele>
        <time>2019-09-15T13:19:33Z</time>
      </trkpt>
      <trkpt lat="45.57816" lon="4.83894">
        <ele>270.75</ele>
        <time>2019-09-15T13:19:34Z</time>
      </trkpt>
      <trkpt lat="45.57818" lon="4.8386">
        <ele>270.75</ele>
        <time>2019-09-15T13:19:40Z</time>
      </trkpt>
      <trkpt lat="45.57817" lon="4.83841">
        <ele>270.75</ele>
        <time>2019-09-15T13:19:43Z</time>
      </trkpt>
      <trkpt lat="45.57817" lon="4.83835">
        <ele>270.75</ele>
        <time>2019-09-15T13:19:44Z</time>
      </trkpt>
      <trkpt lat="45.57818" lon="4.8383">
        <ele>270.75</ele>
        <time>2019-09-15T13:19:45Z</time>
      </trkpt>
      <trkpt lat="45.57819" lon="4.83782">
        <ele>271.71</ele>
        <time>2019-09-15T13:19:52Z</time>
      </trkpt>
      <trkpt lat="45.57805" lon="4.83674">
        <ele>273.63</ele>
        <time>2019-09-15T13:20:06Z</time>
      </trkpt>
      <trkpt lat="45.57796" lon="4.83628">
        <ele>274.59</ele>
        <time>2019-09-15T13:20:13Z</time>
      </trkpt>
      <trkpt lat="45.57796" lon="4.8362">
        <ele>274.59</ele>
        <time>2019-09-15T13:20:14Z</time>
      </trkpt>
      <trkpt lat="45.57797" lon="4.83613">
        <ele>274.59</ele>
        <time>2019-09-15T13:20:15Z</time>
      </trkpt>
      <trkpt lat="45.57798" lon="4.83607">
        <ele>275.07</ele>
        <time>2019-09-15T13:20:16Z</time>
      </trkpt>
      <trkpt lat="45.578" lon="4.836">
        <ele>275.07</ele>
        <time>2019-09-15T13:20:17Z</time>
      </trkpt>
      <trkpt lat="45.57824" lon="4.83535">
        <ele>275.56</ele>
        <time>2019-09-15T13:20:27Z</time>
      </trkpt>
      <trkpt lat="45.57856" lon="4.83439">
        <ele>275.07</ele>
        <time>2019-09-15T13:20:42Z</time>
      </trkpt>
      <trkpt lat="45.57886" lon="4.83353">
        <ele>272.19</ele>
        <time>2019-09-15T13:20:54Z</time>
      </trkpt>
      <trkpt lat="45.57888" lon="4.83344">
        <ele>272.19</ele>
        <time>2019-09-15T13:20:55Z</time>
      </trkpt>
      <trkpt lat="45.57909" lon="4.83236">
        <ele>270.75</ele>
        <time>2019-09-15T13:21:08Z</time>
      </trkpt>
      <trkpt lat="45.57911" lon="4.83232">
        <ele>270.27</ele>
        <time>2019-09-15T13:21:09Z</time>
      </trkpt>
      <trkpt lat="45.57915" lon="4.83229">
        <ele>269.79</ele>
        <time>2019-09-15T13:21:10Z</time>
      </trkpt>
      <trkpt lat="45.57918" lon="4.83229">
        <ele>270.27</ele>
        <time>2019-09-15T13:21:11Z</time>
      </trkpt>
      <trkpt lat="45.57921" lon="4.8323">
        <ele>270.75</ele>
        <time>2019-09-15T13:21:12Z</time>
      </trkpt>
      <trkpt lat="45.57924" lon="4.83232">
        <ele>270.75</ele>
        <time>2019-09-15T13:21:13Z</time>
      </trkpt>
      <trkpt lat="45.57929" lon="4.83234">
        <ele>270.75</ele>
        <time>2019-09-15T13:21:14Z</time>
      </trkpt>
      <trkpt lat="45.57934" lon="4.83236">
        <ele>270.75</ele>
        <time>2019-09-15T13:21:15Z</time>
      </trkpt>
      <trkpt lat="45.57939" lon="4.83239">
        <ele>275.07</ele>
        <time>2019-09-15T13:21:16Z</time>
      </trkpt>
      <trkpt lat="45.57944" lon="4.83241">
        <ele>274.11</ele>
        <time>2019-09-15T13:21:17Z</time>
      </trkpt>
      <trkpt lat="45.57955" lon="4.83244">
        <ele>271.71</ele>
        <time>2019-09-15T13:21:19Z</time>
      </trkpt>
      <trkpt lat="45.57977" lon="4.83248">
        <ele>273.63</ele>
        <time>2019-09-15T13:21:23Z</time>
      </trkpt>
      <trkpt lat="45.57993" lon="4.83246">
        <ele>273.15</ele>
        <time>2019-09-15T13:21:26Z</time>
      </trkpt>
      <trkpt lat="45.5806" lon="4.83215">
        <ele>271.23</ele>
        <time>2019-09-15T13:21:37Z</time>
      </trkpt>
      <trkpt lat="45.58071" lon="4.8321">
        <ele>271.23</ele>
        <time>2019-09-15T13:21:39Z</time>
      </trkpt>
      <trkpt lat="45.58082" lon="4.83204">
        <ele>271.71</ele>
        <time>2019-09-15T13:21:41Z</time>
      </trkpt>
      <trkpt lat="45.58088" lon="4.83202">
        <ele>271.23</ele>
        <time>2019-09-15T13:21:42Z</time>
      </trkpt>
      <trkpt lat="45.58094" lon="4.83201">
        <ele>271.23</ele>
        <time>2019-09-15T13:21:43Z</time>
      </trkpt>
      <trkpt lat="45.58115" lon="4.83199">
        <ele>272.19</ele>
        <time>2019-09-15T13:21:47Z</time>
      </trkpt>
      <trkpt lat="45.58139" lon="4.83215">
        <ele>273.63</ele>
        <time>2019-09-15T13:21:56Z</time>
      </trkpt>
      <trkpt lat="45.58182" lon="4.83263">
        <ele>273.63</ele>
        <time>2019-09-15T13:22:08Z</time>
      </trkpt>
      <trkpt lat="45.58223" lon="4.83311">
        <ele>270.75</ele>
        <time>2019-09-15T13:22:17Z</time>
      </trkpt>
      <trkpt lat="45.58236" lon="4.83332">
        <ele>269.79</ele>
        <time>2019-09-15T13:22:20Z</time>
      </trkpt>
      <trkpt lat="45.58255" lon="4.83363">
        <ele>267.86</ele>
        <time>2019-09-15T13:22:26Z</time>
      </trkpt>
      <trkpt lat="45.58258" lon="4.83368">
        <ele>268.35</ele>
        <time>2019-09-15T13:22:27Z</time>
      </trkpt>
      <trkpt lat="45.58294" lon="4.83458">
        <ele>266.9</ele>
        <time>2019-09-15T13:22:39Z</time>
      </trkpt>
      <trkpt lat="45.58331" lon="4.83556">
        <ele>267.86</ele>
        <time>2019-09-15T13:22:52Z</time>
      </trkpt>
      <trkpt lat="45.58362" lon="4.83619">
        <ele>270.75</ele>
        <time>2019-09-15T13:23:02Z</time>
      </trkpt>
      <trkpt lat="45.58399" lon="4.83695">
        <ele>270.27</ele>
        <time>2019-09-15T13:23:15Z</time>
      </trkpt>
      <trkpt lat="45.58398" lon="4.83699">
        <ele>270.75</ele>
        <time>2019-09-15T13:23:16Z</time>
      </trkpt>
      <trkpt lat="45.58395" lon="4.83702">
        <ele>270.75</ele>
        <time>2019-09-15T13:23:17Z</time>
      </trkpt>
      <trkpt lat="45.58374" lon="4.83719">
        <ele>272.67</ele>
        <time>2019-09-15T13:23:22Z</time>
      </trkpt>
      <trkpt lat="45.5837" lon="4.83724">
        <ele>273.15</ele>
        <time>2019-09-15T13:23:23Z</time>
      </trkpt>
      <trkpt lat="45.58361" lon="4.83733">
        <ele>274.59</ele>
        <time>2019-09-15T13:23:25Z</time>
      </trkpt>
      <trkpt lat="45.58334" lon="4.83767">
        <ele>276.52</ele>
        <time>2019-09-15T13:23:31Z</time>
      </trkpt>
      <trkpt lat="45.5833" lon="4.83774">
        <ele>276.52</ele>
        <time>2019-09-15T13:23:32Z</time>
      </trkpt>
      <trkpt lat="45.58327" lon="4.83782">
        <ele>276.52</ele>
        <time>2019-09-15T13:23:33Z</time>
      </trkpt>
      <trkpt lat="45.58324" lon="4.83789">
        <ele>276.52</ele>
        <time>2019-09-15T13:23:34Z</time>
      </trkpt>
      <trkpt lat="45.58321" lon="4.83797">
        <ele>276.52</ele>
        <time>2019-09-15T13:23:35Z</time>
      </trkpt>
      <trkpt lat="45.58277" lon="4.83926">
        <ele>277.48</ele>
        <time>2019-09-15T13:23:52Z</time>
      </trkpt>
      <trkpt lat="45.58229" lon="4.84035">
        <ele>279.4</ele>
        <time>2019-09-15T13:24:08Z</time>
      </trkpt>
      <trkpt lat="45.58228" lon="4.84043">
        <ele>279.4</ele>
        <time>2019-09-15T13:24:09Z</time>
      </trkpt>
      <trkpt lat="45.58226" lon="4.84051">
        <ele>279.4</ele>
        <time>2019-09-15T13:24:10Z</time>
      </trkpt>
      <trkpt lat="45.58225" lon="4.84178">
        <ele>280.84</ele>
        <time>2019-09-15T13:24:25Z</time>
      </trkpt>
      <trkpt lat="45.58219" lon="4.84313">
        <ele>280.84</ele>
        <time>2019-09-15T13:24:41Z</time>
      </trkpt>
      <trkpt lat="45.58218" lon="4.84346">
        <ele>281.32</ele>
        <time>2019-09-15T13:24:45Z</time>
      </trkpt>
      <trkpt lat="45.58216" lon="4.84361">
        <ele>281.8</ele>
        <time>2019-09-15T13:24:47Z</time>
      </trkpt>
      <trkpt lat="45.58213" lon="4.84375">
        <ele>281.8</ele>
        <time>2019-09-15T13:24:49Z</time>
      </trkpt>
      <trkpt lat="45.58208" lon="4.84389">
        <ele>281.8</ele>
        <time>2019-09-15T13:24:51Z</time>
      </trkpt>
      <trkpt lat="45.5815" lon="4.84477">
        <ele>283.25</ele>
        <time>2019-09-15T13:25:05Z</time>
      </trkpt>
      <trkpt lat="45.58141" lon="4.84495">
        <ele>284.69</ele>
        <time>2019-09-15T13:25:08Z</time>
      </trkpt>
      <trkpt lat="45.58139" lon="4.84502">
        <ele>284.69</ele>
        <time>2019-09-15T13:25:09Z</time>
      </trkpt>
      <trkpt lat="45.58133" lon="4.84524">
        <ele>285.65</ele>
        <time>2019-09-15T13:25:12Z</time>
      </trkpt>
      <trkpt lat="45.58133" lon="4.84532">
        <ele>285.65</ele>
        <time>2019-09-15T13:25:13Z</time>
      </trkpt>
      <trkpt lat="45.58133" lon="4.8454">
        <ele>285.65</ele>
        <time>2019-09-15T13:25:14Z</time>
      </trkpt>
      <trkpt lat="45.58134" lon="4.84547">
        <ele>285.17</ele>
        <time>2019-09-15T13:25:15Z</time>
      </trkpt>
      <trkpt lat="45.58135" lon="4.84555">
        <ele>285.65</ele>
        <time>2019-09-15T13:25:16Z</time>
      </trkpt>
      <trkpt lat="45.58138" lon="4.84569">
        <ele>285.17</ele>
        <time>2019-09-15T13:25:18Z</time>
      </trkpt>
      <trkpt lat="45.58142" lon="4.84574">
        <ele>285.65</ele>
        <time>2019-09-15T13:25:19Z</time>
      </trkpt>
      <trkpt lat="45.58147" lon="4.84577">
        <ele>285.17</ele>
        <time>2019-09-15T13:25:20Z</time>
      </trkpt>
      <trkpt lat="45.58153" lon="4.84578">
        <ele>285.17</ele>
        <time>2019-09-15T13:25:21Z</time>
      </trkpt>
      <trkpt lat="45.58158" lon="4.84579">
        <ele>286.13</ele>
        <time>2019-09-15T13:25:22Z</time>
      </trkpt>
      <trkpt lat="45.58229" lon="4.8458">
        <ele>289.01</ele>
        <time>2019-09-15T13:25:35Z</time>
      </trkpt>
      <trkpt lat="45.58319" lon="4.84561">
        <ele>289.97</ele>
        <time>2019-09-15T13:25:50Z</time>
      </trkpt>
      <trkpt lat="45.58335" lon="4.84555">
        <ele>290.46</ele>
        <time>2019-09-15T13:25:53Z</time>
      </trkpt>
      <trkpt lat="45.58357" lon="4.8455">
        <ele>290.46</ele>
        <time>2019-09-15T13:25:57Z</time>
      </trkpt>
      <trkpt lat="45.58362" lon="4.84553">
        <ele>290.46</ele>
        <time>2019-09-15T13:25:58Z</time>
      </trkpt>
      <trkpt lat="45.58365" lon="4.84558">
        <ele>290.46</ele>
        <time>2019-09-15T13:25:59Z</time>
      </trkpt>
      <trkpt lat="45.58367" lon="4.84565">
        <ele>290.94</ele>
        <time>2019-09-15T13:26:00Z</time>
      </trkpt>
      <trkpt lat="45.58367" lon="4.84573">
        <ele>290.94</ele>
        <time>2019-09-15T13:26:01Z</time>
      </trkpt>
      <trkpt lat="45.58367" lon="4.84582">
        <ele>291.42</ele>
        <time>2019-09-15T13:26:02Z</time>
      </trkpt>
      <trkpt lat="45.58367" lon="4.84671">
        <ele>294.3</ele>
        <time>2019-09-15T13:26:13Z</time>
      </trkpt>
      <trkpt lat="45.58365" lon="4.84747">
        <ele>296.22</ele>
        <time>2019-09-15T13:26:23Z</time>
      </trkpt>
      <trkpt lat="45.58351" lon="4.84865">
        <ele>296.7</ele>
        <time>2019-09-15T13:26:37Z</time>
      </trkpt>
      <trkpt lat="45.58343" lon="4.84965">
        <ele>299.11</ele>
        <time>2019-09-15T13:26:49Z</time>
      </trkpt>
      <trkpt lat="45.58343" lon="4.84972">
        <ele>298.63</ele>
        <time>2019-09-15T13:26:50Z</time>
      </trkpt>
      <trkpt lat="45.58344" lon="4.84991">
        <ele>300.07</ele>
        <time>2019-09-15T13:26:53Z</time>
      </trkpt>
      <trkpt lat="45.58348" lon="4.85011">
        <ele>301.03</ele>
        <time>2019-09-15T13:26:56Z</time>
      </trkpt>
      <trkpt lat="45.5835" lon="4.85024">
        <ele>301.99</ele>
        <time>2019-09-15T13:26:58Z</time>
      </trkpt>
      <trkpt lat="45.5835" lon="4.85031">
        <ele>301.99</ele>
        <time>2019-09-15T13:26:59Z</time>
      </trkpt>
      <trkpt lat="45.58351" lon="4.85108">
        <ele>302.95</ele>
        <time>2019-09-15T13:27:09Z</time>
      </trkpt>
      <trkpt lat="45.58351" lon="4.85205">
        <ele>305.84</ele>
        <time>2019-09-15T13:27:21Z</time>
      </trkpt>
      <trkpt lat="45.58353" lon="4.85244">
        <ele>309.2</ele>
        <time>2019-09-15T13:27:26Z</time>
      </trkpt>
      <trkpt lat="45.58354" lon="4.85313">
        <ele>312.09</ele>
        <time>2019-09-15T13:27:37Z</time>
      </trkpt>
      <trkpt lat="45.58355" lon="4.85316">
        <ele>311.12</ele>
        <time>2019-09-15T13:27:38Z</time>
      </trkpt>
      <trkpt lat="45.58357" lon="4.85319">
        <ele>311.6</ele>
        <time>2019-09-15T13:27:39Z</time>
      </trkpt>
      <trkpt lat="45.58359" lon="4.8532">
        <ele>312.09</ele>
        <time>2019-09-15T13:27:40Z</time>
      </trkpt>
      <trkpt lat="45.58361" lon="4.8532">
        <ele>312.09</ele>
        <time>2019-09-15T13:27:41Z</time>
      </trkpt>
      <trkpt lat="45.58364" lon="4.85319">
        <ele>311.6</ele>
        <time>2019-09-15T13:27:42Z</time>
      </trkpt>
      <trkpt lat="45.58367" lon="4.85318">
        <ele>312.09</ele>
        <time>2019-09-15T13:27:43Z</time>
      </trkpt>
      <trkpt lat="45.5837" lon="4.85317">
        <ele>312.09</ele>
        <time>2019-09-15T13:27:44Z</time>
      </trkpt>
      <trkpt lat="45.58374" lon="4.85317">
        <ele>312.57</ele>
        <time>2019-09-15T13:27:45Z</time>
      </trkpt>
      <trkpt lat="45.58377" lon="4.85316">
        <ele>313.05</ele>
        <time>2019-09-15T13:27:46Z</time>
      </trkpt>
      <trkpt lat="45.58423" lon="4.85321">
        <ele>315.93</ele>
        <time>2019-09-15T13:27:57Z</time>
      </trkpt>
      <trkpt lat="45.58484" lon="4.85323">
        <ele>319.3</ele>
        <time>2019-09-15T13:28:11Z</time>
      </trkpt>
      <trkpt lat="45.58513" lon="4.85326">
        <ele>320.26</ele>
        <time>2019-09-15T13:28:20Z</time>
      </trkpt>
      <trkpt lat="45.58515" lon="4.85325">
        <ele>320.74</ele>
        <time>2019-09-15T13:28:21Z</time>
      </trkpt>
      <trkpt lat="45.58518" lon="4.85324">
        <ele>320.26</ele>
        <time>2019-09-15T13:28:22Z</time>
      </trkpt>
      <trkpt lat="45.58521" lon="4.85324">
        <ele>320.26</ele>
        <time>2019-09-15T13:28:23Z</time>
      </trkpt>
      <trkpt lat="45.58526" lon="4.85324">
        <ele>320.26</ele>
        <time>2019-09-15T13:28:24Z</time>
      </trkpt>
      <trkpt lat="45.58531" lon="4.85326">
        <ele>320.26</ele>
        <time>2019-09-15T13:28:25Z</time>
      </trkpt>
      <trkpt lat="45.58545" lon="4.85331">
        <ele>320.74</ele>
        <time>2019-09-15T13:28:28Z</time>
      </trkpt>
      <trkpt lat="45.5855" lon="4.85334">
        <ele>320.74</ele>
        <time>2019-09-15T13:28:29Z</time>
      </trkpt>
      <trkpt lat="45.58585" lon="4.85363">
        <ele>322.18</ele>
        <time>2019-09-15T13:28:37Z</time>
      </trkpt>
      <trkpt lat="45.5859" lon="4.85367">
        <ele>323.14</ele>
        <time>2019-09-15T13:28:38Z</time>
      </trkpt>
      <trkpt lat="45.58595" lon="4.8537">
        <ele>322.66</ele>
        <time>2019-09-15T13:28:39Z</time>
      </trkpt>
      <trkpt lat="45.586" lon="4.85373">
        <ele>323.14</ele>
        <time>2019-09-15T13:28:40Z</time>
      </trkpt>
      <trkpt lat="45.58605" lon="4.85374">
        <ele>323.62</ele>
        <time>2019-09-15T13:28:41Z</time>
      </trkpt>
      <trkpt lat="45.58609" lon="4.85376">
        <ele>323.62</ele>
        <time>2019-09-15T13:28:42Z</time>
      </trkpt>
      <trkpt lat="45.58622" lon="4.85379">
        <ele>325.06</ele>
        <time>2019-09-15T13:28:45Z</time>
      </trkpt>
      <trkpt lat="45.58627" lon="4.85379">
        <ele>325.06</ele>
        <time>2019-09-15T13:28:46Z</time>
      </trkpt>
      <trkpt lat="45.5864" lon="4.85379">
        <ele>326.02</ele>
        <time>2019-09-15T13:28:49Z</time>
      </trkpt>
      <trkpt lat="45.58655" lon="4.85381">
        <ele>326.5</ele>
        <time>2019-09-15T13:28:52Z</time>
      </trkpt>
      <trkpt lat="45.58659" lon="4.85383">
        <ele>326.5</ele>
        <time>2019-09-15T13:28:53Z</time>
      </trkpt>
      <trkpt lat="45.587" lon="4.85391">
        <ele>328.91</ele>
        <time>2019-09-15T13:29:03Z</time>
      </trkpt>
      <trkpt lat="45.58709" lon="4.85396">
        <ele>329.87</ele>
        <time>2019-09-15T13:29:06Z</time>
      </trkpt>
      <trkpt lat="45.58711" lon="4.85399">
        <ele>330.35</ele>
        <time>2019-09-15T13:29:07Z</time>
      </trkpt>
      <trkpt lat="45.58713" lon="4.85402">
        <ele>330.35</ele>
        <time>2019-09-15T13:29:08Z</time>
      </trkpt>
      <trkpt lat="45.58715" lon="4.85405">
        <ele>330.83</ele>
        <time>2019-09-15T13:29:09Z</time>
      </trkpt>
      <trkpt lat="45.58717" lon="4.85408">
        <ele>330.83</ele>
        <time>2019-09-15T13:29:10Z</time>
      </trkpt>
      <trkpt lat="45.58719" lon="4.85411">
        <ele>331.31</ele>
        <time>2019-09-15T13:29:11Z</time>
      </trkpt>
      <trkpt lat="45.58722" lon="4.85414">
        <ele>331.79</ele>
        <time>2019-09-15T13:29:12Z</time>
      </trkpt>
      <trkpt lat="45.58724" lon="4.85416">
        <ele>332.27</ele>
        <time>2019-09-15T13:29:13Z</time>
      </trkpt>
      <trkpt lat="45.58727" lon="4.85421">
        <ele>332.75</ele>
        <time>2019-09-15T13:29:14Z</time>
      </trkpt>
      <trkpt lat="45.58728" lon="4.85424">
        <ele>333.23</ele>
        <time>2019-09-15T13:29:15Z</time>
      </trkpt>
      <trkpt lat="45.58729" lon="4.85427">
        <ele>333.23</ele>
        <time>2019-09-15T13:29:16Z</time>
      </trkpt>
      <trkpt lat="45.5873" lon="4.85431">
        <ele>334.68</ele>
        <time>2019-09-15T13:29:17Z</time>
      </trkpt>
      <trkpt lat="45.58731" lon="4.85435">
        <ele>334.68</ele>
        <time>2019-09-15T13:29:18Z</time>
      </trkpt>
      <trkpt lat="45.58734" lon="4.85459">
        <ele>338.52</ele>
        <time>2019-09-15T13:29:23Z</time>
      </trkpt>
      <trkpt lat="45.58733" lon="4.85474">
        <ele>339.96</ele>
        <time>2019-09-15T13:29:26Z</time>
      </trkpt>
      <trkpt lat="45.58733" lon="4.85488">
        <ele>341.41</ele>
        <time>2019-09-15T13:29:29Z</time>
      </trkpt>
      <trkpt lat="45.5873" lon="4.85546">
        <ele>343.81</ele>
        <time>2019-09-15T13:29:39Z</time>
      </trkpt>
      <trkpt lat="45.58729" lon="4.85552">
        <ele>342.85</ele>
        <time>2019-09-15T13:29:40Z</time>
      </trkpt>
      <trkpt lat="45.5873" lon="4.85559">
        <ele>343.33</ele>
        <time>2019-09-15T13:29:41Z</time>
      </trkpt>
      <trkpt lat="45.5873" lon="4.85564">
        <ele>343.33</ele>
        <time>2019-09-15T13:29:42Z</time>
      </trkpt>
      <trkpt lat="45.5873" lon="4.85568">
        <ele>343.33</ele>
        <time>2019-09-15T13:29:43Z</time>
      </trkpt>
      <trkpt lat="45.5873" lon="4.85572">
        <ele>343.33</ele>
        <time>2019-09-15T13:29:44Z</time>
      </trkpt>
      <trkpt lat="45.5873" lon="4.85576">
        <ele>343.81</ele>
        <time>2019-09-15T13:29:45Z</time>
      </trkpt>
      <trkpt lat="45.58729" lon="4.85581">
        <ele>343.33</ele>
        <time>2019-09-15T13:29:46Z</time>
      </trkpt>
      <trkpt lat="45.58729" lon="4.85586">
        <ele>343.81</ele>
        <time>2019-09-15T13:29:47Z</time>
      </trkpt>
      <trkpt lat="45.58729" lon="4.8559">
        <ele>343.33</ele>
        <time>2019-09-15T13:29:48Z</time>
      </trkpt>
      <trkpt lat="45.58729" lon="4.85593">
        <ele>343.33</ele>
        <time>2019-09-15T13:29:49Z</time>
      </trkpt>
      <trkpt lat="45.58728" lon="4.85597">
        <ele>343.33</ele>
        <time>2019-09-15T13:29:50Z</time>
      </trkpt>
      <trkpt lat="45.58727" lon="4.856">
        <ele>343.33</ele>
        <time>2019-09-15T13:29:51Z</time>
      </trkpt>
      <trkpt lat="45.58722" lon="4.85607">
        <ele>342.85</ele>
        <time>2019-09-15T13:29:53Z</time>
      </trkpt>
      <trkpt lat="45.58717" lon="4.85612">
        <ele>341.89</ele>
        <time>2019-09-15T13:29:54Z</time>
      </trkpt>
      <trkpt lat="45.58711" lon="4.85616">
        <ele>341.89</ele>
        <time>2019-09-15T13:29:55Z</time>
      </trkpt>
      <trkpt lat="45.58705" lon="4.8562">
        <ele>340.92</ele>
        <time>2019-09-15T13:29:56Z</time>
      </trkpt>
      <trkpt lat="45.58699" lon="4.85626">
        <ele>340.44</ele>
        <time>2019-09-15T13:29:57Z</time>
      </trkpt>
      <trkpt lat="45.58679" lon="4.85646">
        <ele>338.04</ele>
        <time>2019-09-15T13:30:00Z</time>
      </trkpt>
      <trkpt lat="45.58673" lon="4.85654">
        <ele>336.6</ele>
        <time>2019-09-15T13:30:01Z</time>
      </trkpt>
      <trkpt lat="45.58667" lon="4.85662">
        <ele>335.64</ele>
        <time>2019-09-15T13:30:02Z</time>
      </trkpt>
      <trkpt lat="45.58661" lon="4.85669">
        <ele>335.16</ele>
        <time>2019-09-15T13:30:03Z</time>
      </trkpt>
      <trkpt lat="45.58654" lon="4.85675">
        <ele>334.68</ele>
        <time>2019-09-15T13:30:04Z</time>
      </trkpt>
      <trkpt lat="45.58647" lon="4.85678">
        <ele>335.16</ele>
        <time>2019-09-15T13:30:05Z</time>
      </trkpt>
      <trkpt lat="45.58639" lon="4.85681">
        <ele>334.68</ele>
        <time>2019-09-15T13:30:06Z</time>
      </trkpt>
      <trkpt lat="45.58632" lon="4.85682">
        <ele>334.68</ele>
        <time>2019-09-15T13:30:07Z</time>
      </trkpt>
      <trkpt lat="45.58625" lon="4.85682">
        <ele>334.68</ele>
        <time>2019-09-15T13:30:08Z</time>
      </trkpt>
      <trkpt lat="45.58619" lon="4.85683">
        <ele>334.68</ele>
        <time>2019-09-15T13:30:09Z</time>
      </trkpt>
      <trkpt lat="45.58613" lon="4.85683">
        <ele>333.71</ele>
        <time>2019-09-15T13:30:10Z</time>
      </trkpt>
      <trkpt lat="45.58606" lon="4.85682">
        <ele>333.71</ele>
        <time>2019-09-15T13:30:11Z</time>
      </trkpt>
      <trkpt lat="45.58599" lon="4.85679">
        <ele>333.23</ele>
        <time>2019-09-15T13:30:12Z</time>
      </trkpt>
      <trkpt lat="45.58592" lon="4.85675">
        <ele>332.75</ele>
        <time>2019-09-15T13:30:13Z</time>
      </trkpt>
      <trkpt lat="45.58579" lon="4.85665">
        <ele>331.31</ele>
        <time>2019-09-15T13:30:15Z</time>
      </trkpt>
      <trkpt lat="45.58574" lon="4.85658">
        <ele>331.31</ele>
        <time>2019-09-15T13:30:16Z</time>
      </trkpt>
      <trkpt lat="45.58562" lon="4.85645">
        <ele>330.83</ele>
        <time>2019-09-15T13:30:18Z</time>
      </trkpt>
      <trkpt lat="45.58546" lon="4.8563">
        <ele>328.91</ele>
        <time>2019-09-15T13:30:21Z</time>
      </trkpt>
      <trkpt lat="45.58525" lon="4.85614">
        <ele>327.47</ele>
        <time>2019-09-15T13:30:24Z</time>
      </trkpt>
      <trkpt lat="45.58503" lon="4.85605">
        <ele>326.02</ele>
        <time>2019-09-15T13:30:27Z</time>
      </trkpt>
      <trkpt lat="45.58496" lon="4.85604">
        <ele>325.54</ele>
        <time>2019-09-15T13:30:28Z</time>
      </trkpt>
      <trkpt lat="45.58492" lon="4.85602">
        <ele>325.54</ele>
        <time>2019-09-15T13:30:29Z</time>
      </trkpt>
      <trkpt lat="45.58489" lon="4.85601">
        <ele>325.06</ele>
        <time>2019-09-15T13:30:30Z</time>
      </trkpt>
      <trkpt lat="45.58483" lon="4.856">
        <ele>325.06</ele>
        <time>2019-09-15T13:30:32Z</time>
      </trkpt>
      <trkpt lat="45.58482" lon="4.85602">
        <ele>325.06</ele>
        <time>2019-09-15T13:30:33Z</time>
      </trkpt>
      <trkpt lat="45.58481" lon="4.85604">
        <ele>325.06</ele>
        <time>2019-09-15T13:30:34Z</time>
      </trkpt>
      <trkpt lat="45.58477" lon="4.85615">
        <ele>325.54</ele>
        <time>2019-09-15T13:30:37Z</time>
      </trkpt>
      <trkpt lat="45.58475" lon="4.85621">
        <ele>326.02</ele>
        <time>2019-09-15T13:30:38Z</time>
      </trkpt>
      <trkpt lat="45.58473" lon="4.85628">
        <ele>326.02</ele>
        <time>2019-09-15T13:30:39Z</time>
      </trkpt>
      <trkpt lat="45.58472" lon="4.85636">
        <ele>326.02</ele>
        <time>2019-09-15T13:30:40Z</time>
      </trkpt>
      <trkpt lat="45.5847" lon="4.85651">
        <ele>326.02</ele>
        <time>2019-09-15T13:30:42Z</time>
      </trkpt>
      <trkpt lat="45.58467" lon="4.85667">
        <ele>325.06</ele>
        <time>2019-09-15T13:30:44Z</time>
      </trkpt>
      <trkpt lat="45.58465" lon="4.85676">
        <ele>325.54</ele>
        <time>2019-09-15T13:30:45Z</time>
      </trkpt>
      <trkpt lat="45.5846" lon="4.85703">
        <ele>323.62</ele>
        <time>2019-09-15T13:30:48Z</time>
      </trkpt>
      <trkpt lat="45.58461" lon="4.85708">
        <ele>322.66</ele>
        <time>2019-09-15T13:30:49Z</time>
      </trkpt>
      <trkpt lat="45.58463" lon="4.85712">
        <ele>323.14</ele>
        <time>2019-09-15T13:30:50Z</time>
      </trkpt>
      <trkpt lat="45.58464" lon="4.85714">
        <ele>323.14</ele>
        <time>2019-09-15T13:30:51Z</time>
      </trkpt>
      <trkpt lat="45.58465" lon="4.85716">
        <ele>323.14</ele>
        <time>2019-09-15T13:30:52Z</time>
      </trkpt>
      <trkpt lat="45.58467" lon="4.85719">
        <ele>323.62</ele>
        <time>2019-09-15T13:30:53Z</time>
      </trkpt>
      <trkpt lat="45.58468" lon="4.85724">
        <ele>323.14</ele>
        <time>2019-09-15T13:30:54Z</time>
      </trkpt>
      <trkpt lat="45.58472" lon="4.85735">
        <ele>322.66</ele>
        <time>2019-09-15T13:30:56Z</time>
      </trkpt>
      <trkpt lat="45.58482" lon="4.85763">
        <ele>321.22</ele>
        <time>2019-09-15T13:31:01Z</time>
      </trkpt>
      <trkpt lat="45.58484" lon="4.85769">
        <ele>321.22</ele>
        <time>2019-09-15T13:31:02Z</time>
      </trkpt>
      <trkpt lat="45.58486" lon="4.85777">
        <ele>320.26</ele>
        <time>2019-09-15T13:31:03Z</time>
      </trkpt>
      <trkpt lat="45.58489" lon="4.85784">
        <ele>319.78</ele>
        <time>2019-09-15T13:31:04Z</time>
      </trkpt>
      <trkpt lat="45.58492" lon="4.85791">
        <ele>319.78</ele>
        <time>2019-09-15T13:31:05Z</time>
      </trkpt>
      <trkpt lat="45.58496" lon="4.85797">
        <ele>318.81</ele>
        <time>2019-09-15T13:31:06Z</time>
      </trkpt>
      <trkpt lat="45.58501" lon="4.85803">
        <ele>318.33</ele>
        <time>2019-09-15T13:31:07Z</time>
      </trkpt>
      <trkpt lat="45.58504" lon="4.85809">
        <ele>318.33</ele>
        <time>2019-09-15T13:31:08Z</time>
      </trkpt>
      <trkpt lat="45.58509" lon="4.85815">
        <ele>316.89</ele>
        <time>2019-09-15T13:31:09Z</time>
      </trkpt>
      <trkpt lat="45.58513" lon="4.8582">
        <ele>317.37</ele>
        <time>2019-09-15T13:31:10Z</time>
      </trkpt>
      <trkpt lat="45.58518" lon="4.85826">
        <ele>316.89</ele>
        <time>2019-09-15T13:31:11Z</time>
      </trkpt>
      <trkpt lat="45.58527" lon="4.85835">
        <ele>315.45</ele>
        <time>2019-09-15T13:31:13Z</time>
      </trkpt>
      <trkpt lat="45.58532" lon="4.85839">
        <ele>314.97</ele>
        <time>2019-09-15T13:31:14Z</time>
      </trkpt>
      <trkpt lat="45.58538" lon="4.85843">
        <ele>314.49</ele>
        <time>2019-09-15T13:31:15Z</time>
      </trkpt>
      <trkpt lat="45.58544" lon="4.85847">
        <ele>314.01</ele>
        <time>2019-09-15T13:31:16Z</time>
      </trkpt>
      <trkpt lat="45.5855" lon="4.85851">
        <ele>314.01</ele>
        <time>2019-09-15T13:31:17Z</time>
      </trkpt>
      <trkpt lat="45.58555" lon="4.85855">
        <ele>313.53</ele>
        <time>2019-09-15T13:31:18Z</time>
      </trkpt>
      <trkpt lat="45.5856" lon="4.85861">
        <ele>312.57</ele>
        <time>2019-09-15T13:31:19Z</time>
      </trkpt>
      <trkpt lat="45.58566" lon="4.85866">
        <ele>312.09</ele>
        <time>2019-09-15T13:31:20Z</time>
      </trkpt>
      <trkpt lat="45.58571" lon="4.8587">
        <ele>312.09</ele>
        <time>2019-09-15T13:31:21Z</time>
      </trkpt>
      <trkpt lat="45.58577" lon="4.85873">
        <ele>311.6</ele>
        <time>2019-09-15T13:31:22Z</time>
      </trkpt>
      <trkpt lat="45.58582" lon="4.85875">
        <ele>311.6</ele>
        <time>2019-09-15T13:31:23Z</time>
      </trkpt>
      <trkpt lat="45.58588" lon="4.85878">
        <ele>311.6</ele>
        <time>2019-09-15T13:31:24Z</time>
      </trkpt>
      <trkpt lat="45.58593" lon="4.85881">
        <ele>311.6</ele>
        <time>2019-09-15T13:31:25Z</time>
      </trkpt>
      <trkpt lat="45.58599" lon="4.85883">
        <ele>311.12</ele>
        <time>2019-09-15T13:31:26Z</time>
      </trkpt>
      <trkpt lat="45.58614" lon="4.85893">
        <ele>310.64</ele>
        <time>2019-09-15T13:31:29Z</time>
      </trkpt>
      <trkpt lat="45.58625" lon="4.85902">
        <ele>309.68</ele>
        <time>2019-09-15T13:31:31Z</time>
      </trkpt>
      <trkpt lat="45.5863" lon="4.85904">
        <ele>309.2</ele>
        <time>2019-09-15T13:31:32Z</time>
      </trkpt>
      <trkpt lat="45.58635" lon="4.85904">
        <ele>309.2</ele>
        <time>2019-09-15T13:31:33Z</time>
      </trkpt>
      <trkpt lat="45.58639" lon="4.85904">
        <ele>309.2</ele>
        <time>2019-09-15T13:31:34Z</time>
      </trkpt>
      <trkpt lat="45.58643" lon="4.85903">
        <ele>309.2</ele>
        <time>2019-09-15T13:31:35Z</time>
      </trkpt>
      <trkpt lat="45.58647" lon="4.85902">
        <ele>309.2</ele>
        <time>2019-09-15T13:31:36Z</time>
      </trkpt>
      <trkpt lat="45.58651" lon="4.859">
        <ele>309.2</ele>
        <time>2019-09-15T13:31:37Z</time>
      </trkpt>
      <trkpt lat="45.5867" lon="4.8589">
        <ele>308.72</ele>
        <time>2019-09-15T13:31:41Z</time>
      </trkpt>
      <trkpt lat="45.5868" lon="4.85884">
        <ele>308.24</ele>
        <time>2019-09-15T13:31:43Z</time>
      </trkpt>
      <trkpt lat="45.58684" lon="4.8588">
        <ele>307.76</ele>
        <time>2019-09-15T13:31:44Z</time>
      </trkpt>
      <trkpt lat="45.58688" lon="4.85878">
        <ele>308.24</ele>
        <time>2019-09-15T13:31:45Z</time>
      </trkpt>
      <trkpt lat="45.58692" lon="4.85874">
        <ele>307.28</ele>
        <time>2019-09-15T13:31:46Z</time>
      </trkpt>
      <trkpt lat="45.58698" lon="4.8587">
        <ele>307.28</ele>
        <time>2019-09-15T13:31:47Z</time>
      </trkpt>
      <trkpt lat="45.58702" lon="4.85866">
        <ele>307.76</ele>
        <time>2019-09-15T13:31:48Z</time>
      </trkpt>
      <trkpt lat="45.58705" lon="4.8586">
        <ele>307.28</ele>
        <time>2019-09-15T13:31:49Z</time>
      </trkpt>
      <trkpt lat="45.58719" lon="4.85835">
        <ele>307.76</ele>
        <time>2019-09-15T13:31:56Z</time>
      </trkpt>
      <trkpt lat="45.58725" lon="4.85835">
        <ele>307.28</ele>
        <time>2019-09-15T13:31:57Z</time>
      </trkpt>
      <trkpt lat="45.58729" lon="4.85835">
        <ele>306.8</ele>
        <time>2019-09-15T13:31:58Z</time>
      </trkpt>
      <trkpt lat="45.58757" lon="4.85841">
        <ele>305.36</ele>
        <time>2019-09-15T13:32:02Z</time>
      </trkpt>
      <trkpt lat="45.58766" lon="4.85841">
        <ele>304.39</ele>
        <time>2019-09-15T13:32:03Z</time>
      </trkpt>
      <trkpt lat="45.58778" lon="4.85839">
        <ele>302.95</ele>
        <time>2019-09-15T13:32:05Z</time>
      </trkpt>
      <trkpt lat="45.58784" lon="4.85837">
        <ele>303.43</ele>
        <time>2019-09-15T13:32:06Z</time>
      </trkpt>
      <trkpt lat="45.58791" lon="4.85834">
        <ele>303.43</ele>
        <time>2019-09-15T13:32:07Z</time>
      </trkpt>
      <trkpt lat="45.588" lon="4.85831">
        <ele>302.95</ele>
        <time>2019-09-15T13:32:08Z</time>
      </trkpt>
      <trkpt lat="45.58807" lon="4.85828">
        <ele>302.95</ele>
        <time>2019-09-15T13:32:09Z</time>
      </trkpt>
      <trkpt lat="45.58815" lon="4.85825">
        <ele>303.43</ele>
        <time>2019-09-15T13:32:10Z</time>
      </trkpt>
      <trkpt lat="45.5882" lon="4.85823">
        <ele>302.95</ele>
        <time>2019-09-15T13:32:11Z</time>
      </trkpt>
      <trkpt lat="45.58835" lon="4.85812">
        <ele>303.43</ele>
        <time>2019-09-15T13:32:14Z</time>
      </trkpt>
      <trkpt lat="45.5884" lon="4.85808">
        <ele>302.47</ele>
        <time>2019-09-15T13:32:15Z</time>
      </trkpt>
      <trkpt lat="45.58886" lon="4.85756">
        <ele>301.99</ele>
        <time>2019-09-15T13:32:23Z</time>
      </trkpt>
      <trkpt lat="45.58894" lon="4.85749">
        <ele>301.99</ele>
        <time>2019-09-15T13:32:24Z</time>
      </trkpt>
      <trkpt lat="45.58902" lon="4.85741">
        <ele>302.47</ele>
        <time>2019-09-15T13:32:25Z</time>
      </trkpt>
      <trkpt lat="45.58907" lon="4.85734">
        <ele>302.95</ele>
        <time>2019-09-15T13:32:26Z</time>
      </trkpt>
      <trkpt lat="45.58919" lon="4.85706">
        <ele>304.39</ele>
        <time>2019-09-15T13:32:32Z</time>
      </trkpt>
      <trkpt lat="45.58921" lon="4.857">
        <ele>304.39</ele>
        <time>2019-09-15T13:32:33Z</time>
      </trkpt>
      <trkpt lat="45.58923" lon="4.85693">
        <ele>304.39</ele>
        <time>2019-09-15T13:32:34Z</time>
      </trkpt>
      <trkpt lat="45.58926" lon="4.85686">
        <ele>304.39</ele>
        <time>2019-09-15T13:32:35Z</time>
      </trkpt>
      <trkpt lat="45.58928" lon="4.85679">
        <ele>303.91</ele>
        <time>2019-09-15T13:32:36Z</time>
      </trkpt>
      <trkpt lat="45.58932" lon="4.85663">
        <ele>303.91</ele>
        <time>2019-09-15T13:32:38Z</time>
      </trkpt>
      <trkpt lat="45.58936" lon="4.85656">
        <ele>304.39</ele>
        <time>2019-09-15T13:32:39Z</time>
      </trkpt>
      <trkpt lat="45.58939" lon="4.85649">
        <ele>303.91</ele>
        <time>2019-09-15T13:32:40Z</time>
      </trkpt>
      <trkpt lat="45.58942" lon="4.85641">
        <ele>304.88</ele>
        <time>2019-09-15T13:32:41Z</time>
      </trkpt>
      <trkpt lat="45.58945" lon="4.85634">
        <ele>305.36</ele>
        <time>2019-09-15T13:32:42Z</time>
      </trkpt>
      <trkpt lat="45.58949" lon="4.85627">
        <ele>305.84</ele>
        <time>2019-09-15T13:32:43Z</time>
      </trkpt>
      <trkpt lat="45.58953" lon="4.85619">
        <ele>305.84</ele>
        <time>2019-09-15T13:32:44Z</time>
      </trkpt>
      <trkpt lat="45.58961" lon="4.856">
        <ele>304.88</ele>
        <time>2019-09-15T13:32:46Z</time>
      </trkpt>
      <trkpt lat="45.58964" lon="4.85591">
        <ele>304.39</ele>
        <time>2019-09-15T13:32:47Z</time>
      </trkpt>
      <trkpt lat="45.58968" lon="4.85583">
        <ele>304.39</ele>
        <time>2019-09-15T13:32:48Z</time>
      </trkpt>
      <trkpt lat="45.58981" lon="4.85554">
        <ele>303.43</ele>
        <time>2019-09-15T13:32:54Z</time>
      </trkpt>
      <trkpt lat="45.58981" lon="4.85554">
        <ele>302.47</ele>
        <time>2019-09-15T13:33:14Z</time>
      </trkpt>
      <trkpt lat="45.5899" lon="4.85548">
        <ele>301.51</ele>
        <time>2019-09-15T13:33:41Z</time>
      </trkpt>
      <trkpt lat="45.58993" lon="4.85545">
        <ele>301.99</ele>
        <time>2019-09-15T13:33:48Z</time>
      </trkpt>
      <trkpt lat="45.58997" lon="4.85543">
        <ele>301.51</ele>
        <time>2019-09-15T13:33:49Z</time>
      </trkpt>
      <trkpt lat="45.58999" lon="4.8554">
        <ele>301.99</ele>
        <time>2019-09-15T13:33:50Z</time>
      </trkpt>
      <trkpt lat="45.59002" lon="4.85536">
        <ele>301.99</ele>
        <time>2019-09-15T13:33:51Z</time>
      </trkpt>
      <trkpt lat="45.59003" lon="4.85533">
        <ele>302.47</ele>
        <time>2019-09-15T13:33:52Z</time>
      </trkpt>
      <trkpt lat="45.59004" lon="4.85529">
        <ele>302.95</ele>
        <time>2019-09-15T13:33:53Z</time>
      </trkpt>
      <trkpt lat="45.59006" lon="4.85524">
        <ele>302.47</ele>
        <time>2019-09-15T13:33:54Z</time>
      </trkpt>
      <trkpt lat="45.59007" lon="4.85518">
        <ele>302.95</ele>
        <time>2019-09-15T13:33:55Z</time>
      </trkpt>
      <trkpt lat="45.59008" lon="4.8551">
        <ele>303.43</ele>
        <time>2019-09-15T13:33:56Z</time>
      </trkpt>
      <trkpt lat="45.59008" lon="4.85501">
        <ele>303.43</ele>
        <time>2019-09-15T13:33:57Z</time>
      </trkpt>
      <trkpt lat="45.59009" lon="4.85493">
        <ele>303.43</ele>
        <time>2019-09-15T13:33:58Z</time>
      </trkpt>
      <trkpt lat="45.59008" lon="4.85485">
        <ele>303.91</ele>
        <time>2019-09-15T13:33:59Z</time>
      </trkpt>
      <trkpt lat="45.59008" lon="4.85478">
        <ele>303.91</ele>
        <time>2019-09-15T13:34:00Z</time>
      </trkpt>
      <trkpt lat="45.59008" lon="4.85471">
        <ele>304.39</ele>
        <time>2019-09-15T13:34:01Z</time>
      </trkpt>
      <trkpt lat="45.59008" lon="4.85464">
        <ele>305.36</ele>
        <time>2019-09-15T13:34:02Z</time>
      </trkpt>
      <trkpt lat="45.59009" lon="4.85456">
        <ele>305.84</ele>
        <time>2019-09-15T13:34:03Z</time>
      </trkpt>
      <trkpt lat="45.59009" lon="4.8545">
        <ele>306.32</ele>
        <time>2019-09-15T13:34:04Z</time>
      </trkpt>
      <trkpt lat="45.59007" lon="4.85422">
        <ele>309.2</ele>
        <time>2019-09-15T13:34:08Z</time>
      </trkpt>
      <trkpt lat="45.59006" lon="4.85416">
        <ele>310.64</ele>
        <time>2019-09-15T13:34:09Z</time>
      </trkpt>
      <trkpt lat="45.59002" lon="4.8541">
        <ele>310.64</ele>
        <time>2019-09-15T13:34:10Z</time>
      </trkpt>
      <trkpt lat="45.58998" lon="4.85405">
        <ele>311.6</ele>
        <time>2019-09-15T13:34:11Z</time>
      </trkpt>
      <trkpt lat="45.58994" lon="4.85401">
        <ele>311.6</ele>
        <time>2019-09-15T13:34:12Z</time>
      </trkpt>
      <trkpt lat="45.58989" lon="4.85397">
        <ele>312.57</ele>
        <time>2019-09-15T13:34:13Z</time>
      </trkpt>
      <trkpt lat="45.58981" lon="4.85389">
        <ele>313.05</ele>
        <time>2019-09-15T13:34:15Z</time>
      </trkpt>
      <trkpt lat="45.58977" lon="4.85386">
        <ele>313.05</ele>
        <time>2019-09-15T13:34:16Z</time>
      </trkpt>
      <trkpt lat="45.58973" lon="4.8538">
        <ele>313.05</ele>
        <time>2019-09-15T13:34:17Z</time>
      </trkpt>
      <trkpt lat="45.5896" lon="4.85364">
        <ele>313.53</ele>
        <time>2019-09-15T13:34:20Z</time>
      </trkpt>
      <trkpt lat="45.58955" lon="4.85361">
        <ele>314.01</ele>
        <time>2019-09-15T13:34:21Z</time>
      </trkpt>
      <trkpt lat="45.5895" lon="4.85358">
        <ele>314.97</ele>
        <time>2019-09-15T13:34:22Z</time>
      </trkpt>
      <trkpt lat="45.58939" lon="4.85356">
        <ele>316.41</ele>
        <time>2019-09-15T13:34:24Z</time>
      </trkpt>
      <trkpt lat="45.58926" lon="4.85354">
        <ele>319.3</ele>
        <time>2019-09-15T13:34:27Z</time>
      </trkpt>
      <trkpt lat="45.58908" lon="4.85353">
        <ele>322.66</ele>
        <time>2019-09-15T13:34:32Z</time>
      </trkpt>
      <trkpt lat="45.58903" lon="4.85352">
        <ele>323.14</ele>
        <time>2019-09-15T13:34:33Z</time>
      </trkpt>
      <trkpt lat="45.58898" lon="4.85352">
        <ele>323.62</ele>
        <time>2019-09-15T13:34:34Z</time>
      </trkpt>
      <trkpt lat="45.58883" lon="4.85352">
        <ele>324.58</ele>
        <time>2019-09-15T13:34:37Z</time>
      </trkpt>
      <trkpt lat="45.58878" lon="4.85351">
        <ele>325.06</ele>
        <time>2019-09-15T13:34:38Z</time>
      </trkpt>
      <trkpt lat="45.58872" lon="4.85352">
        <ele>324.58</ele>
        <time>2019-09-15T13:34:39Z</time>
      </trkpt>
      <trkpt lat="45.58867" lon="4.85352">
        <ele>324.58</ele>
        <time>2019-09-15T13:34:40Z</time>
      </trkpt>
      <trkpt lat="45.58861" lon="4.85352">
        <ele>324.1</ele>
        <time>2019-09-15T13:34:41Z</time>
      </trkpt>
      <trkpt lat="45.58849" lon="4.85353">
        <ele>324.58</ele>
        <time>2019-09-15T13:34:43Z</time>
      </trkpt>
      <trkpt lat="45.58842" lon="4.85353">
        <ele>324.1</ele>
        <time>2019-09-15T13:34:44Z</time>
      </trkpt>
      <trkpt lat="45.58812" lon="4.85355">
        <ele>324.1</ele>
        <time>2019-09-15T13:34:49Z</time>
      </trkpt>
      <trkpt lat="45.58807" lon="4.85355">
        <ele>324.58</ele>
        <time>2019-09-15T13:34:50Z</time>
      </trkpt>
      <trkpt lat="45.58796" lon="4.85357">
        <ele>325.06</ele>
        <time>2019-09-15T13:34:52Z</time>
      </trkpt>
      <trkpt lat="45.58791" lon="4.85359">
        <ele>325.54</ele>
        <time>2019-09-15T13:34:53Z</time>
      </trkpt>
      <trkpt lat="45.58785" lon="4.85362">
        <ele>325.54</ele>
        <time>2019-09-15T13:34:54Z</time>
      </trkpt>
      <trkpt lat="45.58756" lon="4.85383">
        <ele>327.47</ele>
        <time>2019-09-15T13:35:00Z</time>
      </trkpt>
      <trkpt lat="45.58751" lon="4.85387">
        <ele>327.47</ele>
        <time>2019-09-15T13:35:01Z</time>
      </trkpt>
      <trkpt lat="45.58747" lon="4.85391">
        <ele>327.47</ele>
        <time>2019-09-15T13:35:02Z</time>
      </trkpt>
      <trkpt lat="45.58742" lon="4.85393">
        <ele>327.47</ele>
        <time>2019-09-15T13:35:03Z</time>
      </trkpt>
      <trkpt lat="45.58739" lon="4.85396">
        <ele>327.47</ele>
        <time>2019-09-15T13:35:04Z</time>
      </trkpt>
      <trkpt lat="45.58737" lon="4.854">
        <ele>327.47</ele>
        <time>2019-09-15T13:35:05Z</time>
      </trkpt>
      <trkpt lat="45.58736" lon="4.85405">
        <ele>326.99</ele>
        <time>2019-09-15T13:35:06Z</time>
      </trkpt>
      <trkpt lat="45.58736" lon="4.85412">
        <ele>326.99</ele>
        <time>2019-09-15T13:35:07Z</time>
      </trkpt>
      <trkpt lat="45.58736" lon="4.8542">
        <ele>327.95</ele>
        <time>2019-09-15T13:35:08Z</time>
      </trkpt>
      <trkpt lat="45.58739" lon="4.85425">
        <ele>328.43</ele>
        <time>2019-09-15T13:35:09Z</time>
      </trkpt>
      <trkpt lat="45.58742" lon="4.8543">
        <ele>328.91</ele>
        <time>2019-09-15T13:35:10Z</time>
      </trkpt>
      <trkpt lat="45.58745" lon="4.85434">
        <ele>329.39</ele>
        <time>2019-09-15T13:35:11Z</time>
      </trkpt>
      <trkpt lat="45.58747" lon="4.85439">
        <ele>329.87</ele>
        <time>2019-09-15T13:35:12Z</time>
      </trkpt>
      <trkpt lat="45.58748" lon="4.85443">
        <ele>330.83</ele>
        <time>2019-09-15T13:35:13Z</time>
      </trkpt>
      <trkpt lat="45.58748" lon="4.85447">
        <ele>331.31</ele>
        <time>2019-09-15T13:35:14Z</time>
      </trkpt>
      <trkpt lat="45.58748" lon="4.85452">
        <ele>332.27</ele>
        <time>2019-09-15T13:35:15Z</time>
      </trkpt>
      <trkpt lat="45.58746" lon="4.85476">
        <ele>335.64</ele>
        <time>2019-09-15T13:35:20Z</time>
      </trkpt>
      <trkpt lat="45.58741" lon="4.85502">
        <ele>338.04</ele>
        <time>2019-09-15T13:35:25Z</time>
      </trkpt>
      <trkpt lat="45.5874" lon="4.85508">
        <ele>338.52</ele>
        <time>2019-09-15T13:35:26Z</time>
      </trkpt>
      <trkpt lat="45.58741" lon="4.85521">
        <ele>339.48</ele>
        <time>2019-09-15T13:35:28Z</time>
      </trkpt>
      <trkpt lat="45.58741" lon="4.85527">
        <ele>339.48</ele>
        <time>2019-09-15T13:35:29Z</time>
      </trkpt>
      <trkpt lat="45.5874" lon="4.85534">
        <ele>339.96</ele>
        <time>2019-09-15T13:35:30Z</time>
      </trkpt>
      <trkpt lat="45.58739" lon="4.85541">
        <ele>339.96</ele>
        <time>2019-09-15T13:35:31Z</time>
      </trkpt>
      <trkpt lat="45.58737" lon="4.85549">
        <ele>339.96</ele>
        <time>2019-09-15T13:35:32Z</time>
      </trkpt>
      <trkpt lat="45.58736" lon="4.85556">
        <ele>339.96</ele>
        <time>2019-09-15T13:35:33Z</time>
      </trkpt>
      <trkpt lat="45.58736" lon="4.85564">
        <ele>339.96</ele>
        <time>2019-09-15T13:35:34Z</time>
      </trkpt>
      <trkpt lat="45.58736" lon="4.85573">
        <ele>340.44</ele>
        <time>2019-09-15T13:35:35Z</time>
      </trkpt>
      <trkpt lat="45.58735" lon="4.85581">
        <ele>340.44</ele>
        <time>2019-09-15T13:35:36Z</time>
      </trkpt>
      <trkpt lat="45.58734" lon="4.85587">
        <ele>339.96</ele>
        <time>2019-09-15T13:35:37Z</time>
      </trkpt>
      <trkpt lat="45.58734" lon="4.85591">
        <ele>339.96</ele>
        <time>2019-09-15T13:35:38Z</time>
      </trkpt>
      <trkpt lat="45.58734" lon="4.85594">
        <ele>339.96</ele>
        <time>2019-09-15T13:35:39Z</time>
      </trkpt>
      <trkpt lat="45.58734" lon="4.85596">
        <ele>339.48</ele>
        <time>2019-09-15T13:35:40Z</time>
      </trkpt>
      <trkpt lat="45.58733" lon="4.85599">
        <ele>339.96</ele>
        <time>2019-09-15T13:35:41Z</time>
      </trkpt>
      <trkpt lat="45.58731" lon="4.85601">
        <ele>339.96</ele>
        <time>2019-09-15T13:35:42Z</time>
      </trkpt>
      <trkpt lat="45.5873" lon="4.85602">
        <ele>339.48</ele>
        <time>2019-09-15T13:35:43Z</time>
      </trkpt>
      <trkpt lat="45.58713" lon="4.85615">
        <ele>338.04</ele>
        <time>2019-09-15T13:35:50Z</time>
      </trkpt>
      <trkpt lat="45.58709" lon="4.85618">
        <ele>336.6</ele>
        <time>2019-09-15T13:35:51Z</time>
      </trkpt>
      <trkpt lat="45.58699" lon="4.85626">
        <ele>335.64</ele>
        <time>2019-09-15T13:35:53Z</time>
      </trkpt>
      <trkpt lat="45.58682" lon="4.85645">
        <ele>333.23</ele>
        <time>2019-09-15T13:35:56Z</time>
      </trkpt>
      <trkpt lat="45.58669" lon="4.85661">
        <ele>331.31</ele>
        <time>2019-09-15T13:35:58Z</time>
      </trkpt>
      <trkpt lat="45.58662" lon="4.85667">
        <ele>331.31</ele>
        <time>2019-09-15T13:35:59Z</time>
      </trkpt>
      <trkpt lat="45.58654" lon="4.85672">
        <ele>330.83</ele>
        <time>2019-09-15T13:36:00Z</time>
      </trkpt>
      <trkpt lat="45.58647" lon="4.85676">
        <ele>330.83</ele>
        <time>2019-09-15T13:36:01Z</time>
      </trkpt>
      <trkpt lat="45.58639" lon="4.85677">
        <ele>330.83</ele>
        <time>2019-09-15T13:36:02Z</time>
      </trkpt>
      <trkpt lat="45.58632" lon="4.85677">
        <ele>330.35</ele>
        <time>2019-09-15T13:36:03Z</time>
      </trkpt>
      <trkpt lat="45.58624" lon="4.85678">
        <ele>330.35</ele>
        <time>2019-09-15T13:36:04Z</time>
      </trkpt>
      <trkpt lat="45.58608" lon="4.85677">
        <ele>329.87</ele>
        <time>2019-09-15T13:36:06Z</time>
      </trkpt>
      <trkpt lat="45.586" lon="4.85673">
        <ele>328.91</ele>
        <time>2019-09-15T13:36:07Z</time>
      </trkpt>
      <trkpt lat="45.58585" lon="4.85664">
        <ele>328.43</ele>
        <time>2019-09-15T13:36:09Z</time>
      </trkpt>
      <trkpt lat="45.58578" lon="4.85658">
        <ele>327.47</ele>
        <time>2019-09-15T13:36:10Z</time>
      </trkpt>
      <trkpt lat="45.58564" lon="4.85644">
        <ele>326.99</ele>
        <time>2019-09-15T13:36:12Z</time>
      </trkpt>
      <trkpt lat="45.58556" lon="4.85639">
        <ele>326.02</ele>
        <time>2019-09-15T13:36:13Z</time>
      </trkpt>
      <trkpt lat="45.58548" lon="4.85633">
        <ele>326.02</ele>
        <time>2019-09-15T13:36:14Z</time>
      </trkpt>
      <trkpt lat="45.5854" lon="4.85626">
        <ele>325.06</ele>
        <time>2019-09-15T13:36:15Z</time>
      </trkpt>
      <trkpt lat="45.58533" lon="4.85619">
        <ele>324.58</ele>
        <time>2019-09-15T13:36:16Z</time>
      </trkpt>
      <trkpt lat="45.58525" lon="4.85614">
        <ele>324.1</ele>
        <time>2019-09-15T13:36:17Z</time>
      </trkpt>
      <trkpt lat="45.58509" lon="4.85604">
        <ele>323.14</ele>
        <time>2019-09-15T13:36:19Z</time>
      </trkpt>
      <trkpt lat="45.58502" lon="4.85602">
        <ele>322.66</ele>
        <time>2019-09-15T13:36:20Z</time>
      </trkpt>
      <trkpt lat="45.58492" lon="4.85598">
        <ele>322.18</ele>
        <time>2019-09-15T13:36:22Z</time>
      </trkpt>
      <trkpt lat="45.58486" lon="4.85598">
        <ele>321.7</ele>
        <time>2019-09-15T13:36:24Z</time>
      </trkpt>
      <trkpt lat="45.58483" lon="4.856">
        <ele>322.18</ele>
        <time>2019-09-15T13:36:25Z</time>
      </trkpt>
      <trkpt lat="45.58475" lon="4.85631">
        <ele>322.18</ele>
        <time>2019-09-15T13:36:30Z</time>
      </trkpt>
      <trkpt lat="45.58473" lon="4.85649">
        <ele>322.18</ele>
        <time>2019-09-15T13:36:32Z</time>
      </trkpt>
      <trkpt lat="45.58471" lon="4.85658">
        <ele>322.18</ele>
        <time>2019-09-15T13:36:33Z</time>
      </trkpt>
      <trkpt lat="45.58469" lon="4.85668">
        <ele>321.7</ele>
        <time>2019-09-15T13:36:34Z</time>
      </trkpt>
      <trkpt lat="45.58468" lon="4.85678">
        <ele>320.74</ele>
        <time>2019-09-15T13:36:35Z</time>
      </trkpt>
      <trkpt lat="45.58465" lon="4.85688">
        <ele>320.26</ele>
        <time>2019-09-15T13:36:36Z</time>
      </trkpt>
      <trkpt lat="45.58463" lon="4.85698">
        <ele>319.3</ele>
        <time>2019-09-15T13:36:37Z</time>
      </trkpt>
      <trkpt lat="45.58463" lon="4.85705">
        <ele>319.3</ele>
        <time>2019-09-15T13:36:38Z</time>
      </trkpt>
      <trkpt lat="45.58464" lon="4.85709">
        <ele>318.81</ele>
        <time>2019-09-15T13:36:39Z</time>
      </trkpt>
      <trkpt lat="45.58469" lon="4.8572">
        <ele>319.78</ele>
        <time>2019-09-15T13:36:42Z</time>
      </trkpt>
      <trkpt lat="45.58471" lon="4.85727">
        <ele>319.3</ele>
        <time>2019-09-15T13:36:43Z</time>
      </trkpt>
      <trkpt lat="45.58473" lon="4.85734">
        <ele>319.3</ele>
        <time>2019-09-15T13:36:44Z</time>
      </trkpt>
      <trkpt lat="45.58476" lon="4.85742">
        <ele>319.3</ele>
        <time>2019-09-15T13:36:45Z</time>
      </trkpt>
      <trkpt lat="45.58479" lon="4.85749">
        <ele>318.33</ele>
        <time>2019-09-15T13:36:46Z</time>
      </trkpt>
      <trkpt lat="45.58481" lon="4.85756">
        <ele>317.85</ele>
        <time>2019-09-15T13:36:47Z</time>
      </trkpt>
      <trkpt lat="45.58483" lon="4.85763">
        <ele>317.85</ele>
        <time>2019-09-15T13:36:48Z</time>
      </trkpt>
      <trkpt lat="45.58485" lon="4.8577">
        <ele>317.85</ele>
        <time>2019-09-15T13:36:49Z</time>
      </trkpt>
      <trkpt lat="45.58487" lon="4.85778">
        <ele>316.89</ele>
        <time>2019-09-15T13:36:50Z</time>
      </trkpt>
      <trkpt lat="45.58491" lon="4.85787">
        <ele>315.93</ele>
        <time>2019-09-15T13:36:51Z</time>
      </trkpt>
      <trkpt lat="45.58495" lon="4.85796">
        <ele>315.45</ele>
        <time>2019-09-15T13:36:52Z</time>
      </trkpt>
      <trkpt lat="45.585" lon="4.85804">
        <ele>314.97</ele>
        <time>2019-09-15T13:36:53Z</time>
      </trkpt>
      <trkpt lat="45.58504" lon="4.85811">
        <ele>314.49</ele>
        <time>2019-09-15T13:36:54Z</time>
      </trkpt>
      <trkpt lat="45.58508" lon="4.85819">
        <ele>314.01</ele>
        <time>2019-09-15T13:36:55Z</time>
      </trkpt>
      <trkpt lat="45.58512" lon="4.85825">
        <ele>313.53</ele>
        <time>2019-09-15T13:36:56Z</time>
      </trkpt>
      <trkpt lat="45.58517" lon="4.85831">
        <ele>313.53</ele>
        <time>2019-09-15T13:36:57Z</time>
      </trkpt>
      <trkpt lat="45.58527" lon="4.85843">
        <ele>312.09</ele>
        <time>2019-09-15T13:36:59Z</time>
      </trkpt>
      <trkpt lat="45.58557" lon="4.85862">
        <ele>309.2</ele>
        <time>2019-09-15T13:37:04Z</time>
      </trkpt>
      <trkpt lat="45.58562" lon="4.85868">
        <ele>308.24</ele>
        <time>2019-09-15T13:37:05Z</time>
      </trkpt>
      <trkpt lat="45.58567" lon="4.85873">
        <ele>308.24</ele>
        <time>2019-09-15T13:37:06Z</time>
      </trkpt>
      <trkpt lat="45.58573" lon="4.85876">
        <ele>307.76</ele>
        <time>2019-09-15T13:37:07Z</time>
      </trkpt>
      <trkpt lat="45.58617" lon="4.85897">
        <ele>306.8</ele>
        <time>2019-09-15T13:37:14Z</time>
      </trkpt>
      <trkpt lat="45.58624" lon="4.85903">
        <ele>306.32</ele>
        <time>2019-09-15T13:37:15Z</time>
      </trkpt>
      <trkpt lat="45.58631" lon="4.85906">
        <ele>305.84</ele>
        <time>2019-09-15T13:37:16Z</time>
      </trkpt>
      <trkpt lat="45.58636" lon="4.85907">
        <ele>305.84</ele>
        <time>2019-09-15T13:37:17Z</time>
      </trkpt>
      <trkpt lat="45.5864" lon="4.85906">
        <ele>305.36</ele>
        <time>2019-09-15T13:37:18Z</time>
      </trkpt>
      <trkpt lat="45.58644" lon="4.85907">
        <ele>309.2</ele>
        <time>2019-09-15T13:37:20Z</time>
      </trkpt>
      <trkpt lat="45.5865" lon="4.85906">
        <ele>305.84</ele>
        <time>2019-09-15T13:37:22Z</time>
      </trkpt>
      <trkpt lat="45.58652" lon="4.85904">
        <ele>305.36</ele>
        <time>2019-09-15T13:37:23Z</time>
      </trkpt>
      <trkpt lat="45.58653" lon="4.85903">
        <ele>304.88</ele>
        <time>2019-09-15T13:37:24Z</time>
      </trkpt>
      <trkpt lat="45.58656" lon="4.85901">
        <ele>306.8</ele>
        <time>2019-09-15T13:37:25Z</time>
      </trkpt>
      <trkpt lat="45.58662" lon="4.85903">
        <ele>305.36</ele>
        <time>2019-09-15T13:37:38Z</time>
      </trkpt>
      <trkpt lat="45.58662" lon="4.85903">
        <ele>305.36</ele>
        <time>2019-09-15T13:37:44Z</time>
      </trkpt>
      <trkpt lat="45.58679" lon="4.85903">
        <ele>304.88</ele>
        <time>2019-09-15T13:37:53Z</time>
      </trkpt>
      <trkpt lat="45.5868" lon="4.85905">
        <ele>305.36</ele>
        <time>2019-09-15T13:37:55Z</time>
      </trkpt>
      <trkpt lat="45.58662" lon="4.85912">
        <ele>305.84</ele>
        <time>2019-09-15T13:38:03Z</time>
      </trkpt>
      <trkpt lat="45.58661" lon="4.85912">
        <ele>305.36</ele>
        <time>2019-09-15T13:38:04Z</time>
      </trkpt>
      <trkpt lat="45.58655" lon="4.85915">
        <ele>304.88</ele>
        <time>2019-09-15T13:38:17Z</time>
      </trkpt>
      <trkpt lat="45.58653" lon="4.85915">
        <ele>305.36</ele>
        <time>2019-09-15T13:38:35Z</time>
      </trkpt>
      <trkpt lat="45.58651" lon="4.85914">
        <ele>305.36</ele>
        <time>2019-09-15T13:38:36Z</time>
      </trkpt>
      <trkpt lat="45.58648" lon="4.85914">
        <ele>305.84</ele>
        <time>2019-09-15T13:38:37Z</time>
      </trkpt>
      <trkpt lat="45.58646" lon="4.85912">
        <ele>305.84</ele>
        <time>2019-09-15T13:38:38Z</time>
      </trkpt>
      <trkpt lat="45.58644" lon="4.85909">
        <ele>305.84</ele>
        <time>2019-09-15T13:38:39Z</time>
      </trkpt>
      <trkpt lat="45.58642" lon="4.85907">
        <ele>306.32</ele>
        <time>2019-09-15T13:38:40Z</time>
      </trkpt>
      <trkpt lat="45.58639" lon="4.85905">
        <ele>306.8</ele>
        <time>2019-09-15T13:38:41Z</time>
      </trkpt>
      <trkpt lat="45.58635" lon="4.85904">
        <ele>307.28</ele>
        <time>2019-09-15T13:38:42Z</time>
      </trkpt>
      <trkpt lat="45.5862" lon="4.85894">
        <ele>307.28</ele>
        <time>2019-09-15T13:38:46Z</time>
      </trkpt>
      <trkpt lat="45.5861" lon="4.8589">
        <ele>307.28</ele>
        <time>2019-09-15T13:38:48Z</time>
      </trkpt>
      <trkpt lat="45.58605" lon="4.85889">
        <ele>307.76</ele>
        <time>2019-09-15T13:38:49Z</time>
      </trkpt>
      <trkpt lat="45.58592" lon="4.85885">
        <ele>307.28</ele>
        <time>2019-09-15T13:38:52Z</time>
      </trkpt>
      <trkpt lat="45.58587" lon="4.85882">
        <ele>307.28</ele>
        <time>2019-09-15T13:38:53Z</time>
      </trkpt>
      <trkpt lat="45.58583" lon="4.85878">
        <ele>308.24</ele>
        <time>2019-09-15T13:38:54Z</time>
      </trkpt>
      <trkpt lat="45.58579" lon="4.85876">
        <ele>307.28</ele>
        <time>2019-09-15T13:38:55Z</time>
      </trkpt>
      <trkpt lat="45.58575" lon="4.85872">
        <ele>308.24</ele>
        <time>2019-09-15T13:38:56Z</time>
      </trkpt>
      <trkpt lat="45.58572" lon="4.85869">
        <ele>309.2</ele>
        <time>2019-09-15T13:38:57Z</time>
      </trkpt>
      <trkpt lat="45.58568" lon="4.85867">
        <ele>309.68</ele>
        <time>2019-09-15T13:38:58Z</time>
      </trkpt>
      <trkpt lat="45.58563" lon="4.85865">
        <ele>310.16</ele>
        <time>2019-09-15T13:38:59Z</time>
      </trkpt>
      <trkpt lat="45.58559" lon="4.85863">
        <ele>310.16</ele>
        <time>2019-09-15T13:39:00Z</time>
      </trkpt>
      <trkpt lat="45.58555" lon="4.8586">
        <ele>310.64</ele>
        <time>2019-09-15T13:39:01Z</time>
      </trkpt>
      <trkpt lat="45.58546" lon="4.85856">
        <ele>311.12</ele>
        <time>2019-09-15T13:39:03Z</time>
      </trkpt>
      <trkpt lat="45.58542" lon="4.85854">
        <ele>311.6</ele>
        <time>2019-09-15T13:39:04Z</time>
      </trkpt>
      <trkpt lat="45.58538" lon="4.8585">
        <ele>311.6</ele>
        <time>2019-09-15T13:39:05Z</time>
      </trkpt>
      <trkpt lat="45.58534" lon="4.85846">
        <ele>311.6</ele>
        <time>2019-09-15T13:39:06Z</time>
      </trkpt>
      <trkpt lat="45.5853" lon="4.85842">
        <ele>312.57</ele>
        <time>2019-09-15T13:39:07Z</time>
      </trkpt>
      <trkpt lat="45.58526" lon="4.85839">
        <ele>313.05</ele>
        <time>2019-09-15T13:39:08Z</time>
      </trkpt>
      <trkpt lat="45.58522" lon="4.85836">
        <ele>313.05</ele>
        <time>2019-09-15T13:39:09Z</time>
      </trkpt>
      <trkpt lat="45.58519" lon="4.85832">
        <ele>313.05</ele>
        <time>2019-09-15T13:39:10Z</time>
      </trkpt>
      <trkpt lat="45.58516" lon="4.85827">
        <ele>313.05</ele>
        <time>2019-09-15T13:39:11Z</time>
      </trkpt>
      <trkpt lat="45.58513" lon="4.85822">
        <ele>314.01</ele>
        <time>2019-09-15T13:39:12Z</time>
      </trkpt>
      <trkpt lat="45.5851" lon="4.85818">
        <ele>314.49</ele>
        <time>2019-09-15T13:39:13Z</time>
      </trkpt>
      <trkpt lat="45.58506" lon="4.85813">
        <ele>314.01</ele>
        <time>2019-09-15T13:39:14Z</time>
      </trkpt>
      <trkpt lat="45.58503" lon="4.85808">
        <ele>314.97</ele>
        <time>2019-09-15T13:39:15Z</time>
      </trkpt>
      <trkpt lat="45.58501" lon="4.85803">
        <ele>314.97</ele>
        <time>2019-09-15T13:39:16Z</time>
      </trkpt>
      <trkpt lat="45.58499" lon="4.85798">
        <ele>315.45</ele>
        <time>2019-09-15T13:39:17Z</time>
      </trkpt>
      <trkpt lat="45.58497" lon="4.85792">
        <ele>315.45</ele>
        <time>2019-09-15T13:39:18Z</time>
      </trkpt>
      <trkpt lat="45.58495" lon="4.85787">
        <ele>316.41</ele>
        <time>2019-09-15T13:39:19Z</time>
      </trkpt>
      <trkpt lat="45.58493" lon="4.85781">
        <ele>316.89</ele>
        <time>2019-09-15T13:39:20Z</time>
      </trkpt>
      <trkpt lat="45.58491" lon="4.85776">
        <ele>317.37</ele>
        <time>2019-09-15T13:39:21Z</time>
      </trkpt>
      <trkpt lat="45.5849" lon="4.85772">
        <ele>317.37</ele>
        <time>2019-09-15T13:39:22Z</time>
      </trkpt>
      <trkpt lat="45.58488" lon="4.85768">
        <ele>317.85</ele>
        <time>2019-09-15T13:39:23Z</time>
      </trkpt>
      <trkpt lat="45.58487" lon="4.85764">
        <ele>318.33</ele>
        <time>2019-09-15T13:39:24Z</time>
      </trkpt>
      <trkpt lat="45.58484" lon="4.8576">
        <ele>318.33</ele>
        <time>2019-09-15T13:39:25Z</time>
      </trkpt>
      <trkpt lat="45.58477" lon="4.85744">
        <ele>318.81</ele>
        <time>2019-09-15T13:39:28Z</time>
      </trkpt>
      <trkpt lat="45.58475" lon="4.85739">
        <ele>318.81</ele>
        <time>2019-09-15T13:39:29Z</time>
      </trkpt>
      <trkpt lat="45.58462" lon="4.85716">
        <ele>318.81</ele>
        <time>2019-09-15T13:39:34Z</time>
      </trkpt>
      <trkpt lat="45.58462" lon="4.85712">
        <ele>318.81</ele>
        <time>2019-09-15T13:39:35Z</time>
      </trkpt>
      <trkpt lat="45.58463" lon="4.85707">
        <ele>319.3</ele>
        <time>2019-09-15T13:39:36Z</time>
      </trkpt>
      <trkpt lat="45.58465" lon="4.85694">
        <ele>319.78</ele>
        <time>2019-09-15T13:39:45Z</time>
      </trkpt>
      <trkpt lat="45.58465" lon="4.85694">
        <ele>320.26</ele>
        <time>2019-09-15T13:39:57Z</time>
      </trkpt>
      <trkpt lat="45.58462" lon="4.857">
        <ele>319.78</ele>
        <time>2019-09-15T13:40:08Z</time>
      </trkpt>
      <trkpt lat="45.5846" lon="4.85709">
        <ele>319.78</ele>
        <time>2019-09-15T13:40:10Z</time>
      </trkpt>
      <trkpt lat="45.58461" lon="4.85713">
        <ele>318.81</ele>
        <time>2019-09-15T13:40:11Z</time>
      </trkpt>
      <trkpt lat="45.58463" lon="4.85716">
        <ele>319.3</ele>
        <time>2019-09-15T13:40:12Z</time>
      </trkpt>
      <trkpt lat="45.58465" lon="4.85719">
        <ele>319.78</ele>
        <time>2019-09-15T13:40:13Z</time>
      </trkpt>
      <trkpt lat="45.58467" lon="4.85723">
        <ele>319.78</ele>
        <time>2019-09-15T13:40:14Z</time>
      </trkpt>
      <trkpt lat="45.58468" lon="4.85728">
        <ele>319.3</ele>
        <time>2019-09-15T13:40:15Z</time>
      </trkpt>
      <trkpt lat="45.5847" lon="4.85733">
        <ele>319.78</ele>
        <time>2019-09-15T13:40:16Z</time>
      </trkpt>
      <trkpt lat="45.58471" lon="4.85738">
        <ele>319.3</ele>
        <time>2019-09-15T13:40:17Z</time>
      </trkpt>
      <trkpt lat="45.5848" lon="4.85756">
        <ele>318.33</ele>
        <time>2019-09-15T13:40:20Z</time>
      </trkpt>
      <trkpt lat="45.58481" lon="4.85762">
        <ele>318.33</ele>
        <time>2019-09-15T13:40:21Z</time>
      </trkpt>
      <trkpt lat="45.58484" lon="4.85768">
        <ele>317.85</ele>
        <time>2019-09-15T13:40:22Z</time>
      </trkpt>
      <trkpt lat="45.58486" lon="4.85775">
        <ele>317.37</ele>
        <time>2019-09-15T13:40:23Z</time>
      </trkpt>
      <trkpt lat="45.58489" lon="4.85783">
        <ele>316.41</ele>
        <time>2019-09-15T13:40:24Z</time>
      </trkpt>
      <trkpt lat="45.58492" lon="4.85792">
        <ele>316.41</ele>
        <time>2019-09-15T13:40:25Z</time>
      </trkpt>
      <trkpt lat="45.58495" lon="4.858">
        <ele>315.45</ele>
        <time>2019-09-15T13:40:26Z</time>
      </trkpt>
      <trkpt lat="45.585" lon="4.85807">
        <ele>314.97</ele>
        <time>2019-09-15T13:40:27Z</time>
      </trkpt>
      <trkpt lat="45.58505" lon="4.85814">
        <ele>314.49</ele>
        <time>2019-09-15T13:40:28Z</time>
      </trkpt>
      <trkpt lat="45.58509" lon="4.8582">
        <ele>314.01</ele>
        <time>2019-09-15T13:40:29Z</time>
      </trkpt>
      <trkpt lat="45.58513" lon="4.85825">
        <ele>313.53</ele>
        <time>2019-09-15T13:40:30Z</time>
      </trkpt>
      <trkpt lat="45.58518" lon="4.85829">
        <ele>314.01</ele>
        <time>2019-09-15T13:40:31Z</time>
      </trkpt>
      <trkpt lat="45.58522" lon="4.85834">
        <ele>313.05</ele>
        <time>2019-09-15T13:40:32Z</time>
      </trkpt>
      <trkpt lat="45.58527" lon="4.8584">
        <ele>312.57</ele>
        <time>2019-09-15T13:40:33Z</time>
      </trkpt>
      <trkpt lat="45.58533" lon="4.85844">
        <ele>311.6</ele>
        <time>2019-09-15T13:40:34Z</time>
      </trkpt>
      <trkpt lat="45.58538" lon="4.85847">
        <ele>311.12</ele>
        <time>2019-09-15T13:40:35Z</time>
      </trkpt>
      <trkpt lat="45.58544" lon="4.85852">
        <ele>311.12</ele>
        <time>2019-09-15T13:40:36Z</time>
      </trkpt>
      <trkpt lat="45.5855" lon="4.85856">
        <ele>310.16</ele>
        <time>2019-09-15T13:40:37Z</time>
      </trkpt>
      <trkpt lat="45.58556" lon="4.85861">
        <ele>310.16</ele>
        <time>2019-09-15T13:40:38Z</time>
      </trkpt>
      <trkpt lat="45.58561" lon="4.85867">
        <ele>308.72</ele>
        <time>2019-09-15T13:40:39Z</time>
      </trkpt>
      <trkpt lat="45.58567" lon="4.85872">
        <ele>308.24</ele>
        <time>2019-09-15T13:40:40Z</time>
      </trkpt>
      <trkpt lat="45.58578" lon="4.85879">
        <ele>307.76</ele>
        <time>2019-09-15T13:40:42Z</time>
      </trkpt>
      <trkpt lat="45.58584" lon="4.85881">
        <ele>308.24</ele>
        <time>2019-09-15T13:40:43Z</time>
      </trkpt>
      <trkpt lat="45.58589" lon="4.85884">
        <ele>307.76</ele>
        <time>2019-09-15T13:40:44Z</time>
      </trkpt>
      <trkpt lat="45.58594" lon="4.85886">
        <ele>307.76</ele>
        <time>2019-09-15T13:40:45Z</time>
      </trkpt>
      <trkpt lat="45.58599" lon="4.85889">
        <ele>307.76</ele>
        <time>2019-09-15T13:40:46Z</time>
      </trkpt>
      <trkpt lat="45.58618" lon="4.859">
        <ele>306.32</ele>
        <time>2019-09-15T13:40:50Z</time>
      </trkpt>
      <trkpt lat="45.58623" lon="4.85904">
        <ele>305.84</ele>
        <time>2019-09-15T13:40:51Z</time>
      </trkpt>
      <trkpt lat="45.58629" lon="4.85907">
        <ele>305.36</ele>
        <time>2019-09-15T13:40:52Z</time>
      </trkpt>
      <trkpt lat="45.58634" lon="4.85908">
        <ele>305.84</ele>
        <time>2019-09-15T13:40:53Z</time>
      </trkpt>
      <trkpt lat="45.58638" lon="4.85907">
        <ele>305.84</ele>
        <time>2019-09-15T13:40:54Z</time>
      </trkpt>
      <trkpt lat="45.58666" lon="4.85898">
        <ele>305.36</ele>
        <time>2019-09-15T13:41:00Z</time>
      </trkpt>
      <trkpt lat="45.58671" lon="4.85894">
        <ele>304.88</ele>
        <time>2019-09-15T13:41:01Z</time>
      </trkpt>
      <trkpt lat="45.58683" lon="4.85886">
        <ele>304.39</ele>
        <time>2019-09-15T13:41:03Z</time>
      </trkpt>
      <trkpt lat="45.58689" lon="4.85882">
        <ele>304.39</ele>
        <time>2019-09-15T13:41:04Z</time>
      </trkpt>
      <trkpt lat="45.58699" lon="4.85873">
        <ele>303.91</ele>
        <time>2019-09-15T13:41:06Z</time>
      </trkpt>
      <trkpt lat="45.58705" lon="4.85868">
        <ele>303.91</ele>
        <time>2019-09-15T13:41:07Z</time>
      </trkpt>
      <trkpt lat="45.5873" lon="4.85842">
        <ele>304.39</ele>
        <time>2019-09-15T13:41:12Z</time>
      </trkpt>
      <trkpt lat="45.58735" lon="4.85839">
        <ele>304.39</ele>
        <time>2019-09-15T13:41:13Z</time>
      </trkpt>
      <trkpt lat="45.58741" lon="4.85838">
        <ele>304.39</ele>
        <time>2019-09-15T13:41:14Z</time>
      </trkpt>
      <trkpt lat="45.58747" lon="4.85837">
        <ele>303.91</ele>
        <time>2019-09-15T13:41:15Z</time>
      </trkpt>
      <trkpt lat="45.58753" lon="4.85837">
        <ele>303.43</ele>
        <time>2019-09-15T13:41:16Z</time>
      </trkpt>
      <trkpt lat="45.58758" lon="4.85838">
        <ele>303.43</ele>
        <time>2019-09-15T13:41:17Z</time>
      </trkpt>
      <trkpt lat="45.58764" lon="4.8584">
        <ele>302.47</ele>
        <time>2019-09-15T13:41:18Z</time>
      </trkpt>
      <trkpt lat="45.5877" lon="4.85843">
        <ele>301.99</ele>
        <time>2019-09-15T13:41:19Z</time>
      </trkpt>
      <trkpt lat="45.58783" lon="4.85848">
        <ele>301.03</ele>
        <time>2019-09-15T13:41:21Z</time>
      </trkpt>
      <trkpt lat="45.5879" lon="4.85848">
        <ele>300.07</ele>
        <time>2019-09-15T13:41:22Z</time>
      </trkpt>
      <trkpt lat="45.58797" lon="4.85846">
        <ele>300.07</ele>
        <time>2019-09-15T13:41:23Z</time>
      </trkpt>
      <trkpt lat="45.58813" lon="4.85842">
        <ele>300.07</ele>
        <time>2019-09-15T13:41:25Z</time>
      </trkpt>
      <trkpt lat="45.58819" lon="4.85839">
        <ele>299.59</ele>
        <time>2019-09-15T13:41:26Z</time>
      </trkpt>
      <trkpt lat="45.58859" lon="4.85827">
        <ele>299.11</ele>
        <time>2019-09-15T13:41:31Z</time>
      </trkpt>
      <trkpt lat="45.58868" lon="4.85822">
        <ele>299.11</ele>
        <time>2019-09-15T13:41:32Z</time>
      </trkpt>
      <trkpt lat="45.58882" lon="4.8581">
        <ele>299.11</ele>
        <time>2019-09-15T13:41:34Z</time>
      </trkpt>
      <trkpt lat="45.58913" lon="4.85781">
        <ele>298.15</ele>
        <time>2019-09-15T13:41:38Z</time>
      </trkpt>
      <trkpt lat="45.58938" lon="4.85751">
        <ele>299.11</ele>
        <time>2019-09-15T13:41:42Z</time>
      </trkpt>
      <trkpt lat="45.58944" lon="4.85734">
        <ele>299.11</ele>
        <time>2019-09-15T13:41:44Z</time>
      </trkpt>
      <trkpt lat="45.58948" lon="4.85726">
        <ele>300.07</ele>
        <time>2019-09-15T13:41:45Z</time>
      </trkpt>
      <trkpt lat="45.5895" lon="4.85717">
        <ele>300.55</ele>
        <time>2019-09-15T13:41:46Z</time>
      </trkpt>
      <trkpt lat="45.58954" lon="4.85693">
        <ele>301.51</ele>
        <time>2019-09-15T13:41:49Z</time>
      </trkpt>
      <trkpt lat="45.58955" lon="4.85684">
        <ele>301.03</ele>
        <time>2019-09-15T13:41:50Z</time>
      </trkpt>
      <trkpt lat="45.58955" lon="4.85676">
        <ele>301.03</ele>
        <time>2019-09-15T13:41:51Z</time>
      </trkpt>
      <trkpt lat="45.58956" lon="4.85668">
        <ele>300.55</ele>
        <time>2019-09-15T13:41:52Z</time>
      </trkpt>
      <trkpt lat="45.58957" lon="4.85661">
        <ele>301.03</ele>
        <time>2019-09-15T13:41:53Z</time>
      </trkpt>
      <trkpt lat="45.58958" lon="4.85654">
        <ele>301.03</ele>
        <time>2019-09-15T13:41:54Z</time>
      </trkpt>
      <trkpt lat="45.58959" lon="4.85647">
        <ele>300.55</ele>
        <time>2019-09-15T13:41:55Z</time>
      </trkpt>
      <trkpt lat="45.58963" lon="4.8564">
        <ele>301.51</ele>
        <time>2019-09-15T13:41:56Z</time>
      </trkpt>
      <trkpt lat="45.58965" lon="4.85635">
        <ele>301.03</ele>
        <time>2019-09-15T13:41:57Z</time>
      </trkpt>
      <trkpt lat="45.58969" lon="4.8563">
        <ele>300.55</ele>
        <time>2019-09-15T13:42:00Z</time>
      </trkpt>
      <trkpt lat="45.5897" lon="4.8563">
        <ele>300.07</ele>
        <time>2019-09-15T13:42:01Z</time>
      </trkpt>
      <trkpt lat="45.58985" lon="4.85627">
        <ele>296.7</ele>
        <time>2019-09-15T13:42:05Z</time>
      </trkpt>
      <trkpt lat="45.58996" lon="4.85622">
        <ele>293.34</ele>
        <time>2019-09-15T13:42:07Z</time>
      </trkpt>
      <trkpt lat="45.59001" lon="4.85621">
        <ele>291.9</ele>
        <time>2019-09-15T13:42:08Z</time>
      </trkpt>
      <trkpt lat="45.59014" lon="4.85617">
        <ele>289.49</ele>
        <time>2019-09-15T13:42:10Z</time>
      </trkpt>
      <trkpt lat="45.5902" lon="4.85614">
        <ele>287.57</ele>
        <time>2019-09-15T13:42:11Z</time>
      </trkpt>
      <trkpt lat="45.59035" lon="4.8561">
        <ele>284.21</ele>
        <time>2019-09-15T13:42:13Z</time>
      </trkpt>
      <trkpt lat="45.59047" lon="4.85606">
        <ele>281.8</ele>
        <time>2019-09-15T13:42:15Z</time>
      </trkpt>
      <trkpt lat="45.59052" lon="4.85604">
        <ele>280.84</ele>
        <time>2019-09-15T13:42:16Z</time>
      </trkpt>
      <trkpt lat="45.59064" lon="4.85601">
        <ele>278.44</ele>
        <time>2019-09-15T13:42:18Z</time>
      </trkpt>
      <trkpt lat="45.59068" lon="4.85598">
        <ele>277.96</ele>
        <time>2019-09-15T13:42:19Z</time>
      </trkpt>
      <trkpt lat="45.59086" lon="4.85593">
        <ele>274.59</ele>
        <time>2019-09-15T13:42:23Z</time>
      </trkpt>
      <trkpt lat="45.59106" lon="4.85591">
        <ele>271.71</ele>
        <time>2019-09-15T13:42:27Z</time>
      </trkpt>
      <trkpt lat="45.59111" lon="4.8559">
        <ele>270.27</ele>
        <time>2019-09-15T13:42:28Z</time>
      </trkpt>
      <trkpt lat="45.59116" lon="4.85588">
        <ele>268.83</ele>
        <time>2019-09-15T13:42:29Z</time>
      </trkpt>
      <trkpt lat="45.59129" lon="4.85582">
        <ele>265.46</ele>
        <time>2019-09-15T13:42:32Z</time>
      </trkpt>
      <trkpt lat="45.59148" lon="4.85578">
        <ele>262.58</ele>
        <time>2019-09-15T13:42:36Z</time>
      </trkpt>
      <trkpt lat="45.59152" lon="4.85576">
        <ele>262.1</ele>
        <time>2019-09-15T13:42:37Z</time>
      </trkpt>
      <trkpt lat="45.59156" lon="4.85575">
        <ele>261.14</ele>
        <time>2019-09-15T13:42:38Z</time>
      </trkpt>
      <trkpt lat="45.5916" lon="4.85574">
        <ele>260.17</ele>
        <time>2019-09-15T13:42:39Z</time>
      </trkpt>
      <trkpt lat="45.59178" lon="4.8557">
        <ele>259.69</ele>
        <time>2019-09-15T13:42:44Z</time>
      </trkpt>
      <trkpt lat="45.5918" lon="4.85569">
        <ele>258.73</ele>
        <time>2019-09-15T13:42:45Z</time>
      </trkpt>
      <trkpt lat="45.59184" lon="4.85569">
        <ele>258.25</ele>
        <time>2019-09-15T13:42:46Z</time>
      </trkpt>
      <trkpt lat="45.59188" lon="4.85569">
        <ele>258.25</ele>
        <time>2019-09-15T13:42:47Z</time>
      </trkpt>
      <trkpt lat="45.59191" lon="4.85567">
        <ele>257.77</ele>
        <time>2019-09-15T13:42:48Z</time>
      </trkpt>
      <trkpt lat="45.59195" lon="4.85566">
        <ele>257.29</ele>
        <time>2019-09-15T13:42:49Z</time>
      </trkpt>
      <trkpt lat="45.59201" lon="4.85564">
        <ele>256.33</ele>
        <time>2019-09-15T13:42:50Z</time>
      </trkpt>
      <trkpt lat="45.59207" lon="4.85563">
        <ele>255.37</ele>
        <time>2019-09-15T13:42:51Z</time>
      </trkpt>
      <trkpt lat="45.59229" lon="4.8556">
        <ele>251.52</ele>
        <time>2019-09-15T13:42:55Z</time>
      </trkpt>
      <trkpt lat="45.59235" lon="4.85559">
        <ele>251.04</ele>
        <time>2019-09-15T13:42:56Z</time>
      </trkpt>
      <trkpt lat="45.5924" lon="4.85557">
        <ele>250.08</ele>
        <time>2019-09-15T13:42:57Z</time>
      </trkpt>
      <trkpt lat="45.59246" lon="4.85554">
        <ele>249.12</ele>
        <time>2019-09-15T13:42:58Z</time>
      </trkpt>
      <trkpt lat="45.59251" lon="4.85551">
        <ele>248.16</ele>
        <time>2019-09-15T13:42:59Z</time>
      </trkpt>
      <trkpt lat="45.59255" lon="4.85549">
        <ele>247.68</ele>
        <time>2019-09-15T13:43:00Z</time>
      </trkpt>
      <trkpt lat="45.5926" lon="4.85546">
        <ele>247.68</ele>
        <time>2019-09-15T13:43:01Z</time>
      </trkpt>
      <trkpt lat="45.59301" lon="4.85517">
        <ele>244.79</ele>
        <time>2019-09-15T13:43:11Z</time>
      </trkpt>
      <trkpt lat="45.59316" lon="4.85496">
        <ele>243.35</ele>
        <time>2019-09-15T13:43:21Z</time>
      </trkpt>
      <trkpt lat="45.59316" lon="4.85496">
        <ele>243.83</ele>
        <time>2019-09-15T13:43:47Z</time>
      </trkpt>
      <trkpt lat="45.5932" lon="4.85494">
        <ele>243.35</ele>
        <time>2019-09-15T13:43:59Z</time>
      </trkpt>
      <trkpt lat="45.59322" lon="4.85493">
        <ele>243.83</ele>
        <time>2019-09-15T13:44:00Z</time>
      </trkpt>
      <trkpt lat="45.59326" lon="4.8549">
        <ele>243.35</ele>
        <time>2019-09-15T13:44:01Z</time>
      </trkpt>
      <trkpt lat="45.59328" lon="4.85487">
        <ele>242.87</ele>
        <time>2019-09-15T13:44:02Z</time>
      </trkpt>
      <trkpt lat="45.59329" lon="4.85485">
        <ele>243.83</ele>
        <time>2019-09-15T13:44:03Z</time>
      </trkpt>
      <trkpt lat="45.59321" lon="4.85495">
        <ele>243.83</ele>
        <time>2019-09-15T13:44:11Z</time>
      </trkpt>
      <trkpt lat="45.59315" lon="4.85496">
        <ele>244.79</ele>
        <time>2019-09-15T13:44:13Z</time>
      </trkpt>
      <trkpt lat="45.59298" lon="4.855">
        <ele>248.16</ele>
        <time>2019-09-15T13:44:18Z</time>
      </trkpt>
      <trkpt lat="45.59292" lon="4.855">
        <ele>249.12</ele>
        <time>2019-09-15T13:44:20Z</time>
      </trkpt>
      <trkpt lat="45.59282" lon="4.85497">
        <ele>251.52</ele>
        <time>2019-09-15T13:44:23Z</time>
      </trkpt>
      <trkpt lat="45.59279" lon="4.85494">
        <ele>251.04</ele>
        <time>2019-09-15T13:44:24Z</time>
      </trkpt>
      <trkpt lat="45.59277" lon="4.85491">
        <ele>252</ele>
        <time>2019-09-15T13:44:25Z</time>
      </trkpt>
      <trkpt lat="45.59271" lon="4.85475">
        <ele>253.93</ele>
        <time>2019-09-15T13:44:28Z</time>
      </trkpt>
      <trkpt lat="45.59269" lon="4.8547">
        <ele>253.93</ele>
        <time>2019-09-15T13:44:29Z</time>
      </trkpt>
      <trkpt lat="45.59266" lon="4.85464">
        <ele>254.41</ele>
        <time>2019-09-15T13:44:30Z</time>
      </trkpt>
      <trkpt lat="45.59264" lon="4.85458">
        <ele>254.89</ele>
        <time>2019-09-15T13:44:31Z</time>
      </trkpt>
      <trkpt lat="45.59262" lon="4.85452">
        <ele>255.37</ele>
        <time>2019-09-15T13:44:32Z</time>
      </trkpt>
      <trkpt lat="45.5926" lon="4.85445">
        <ele>255.85</ele>
        <time>2019-09-15T13:44:33Z</time>
      </trkpt>
      <trkpt lat="45.59253" lon="4.85428">
        <ele>256.81</ele>
        <time>2019-09-15T13:44:36Z</time>
      </trkpt>
      <trkpt lat="45.5925" lon="4.85422">
        <ele>256.33</ele>
        <time>2019-09-15T13:44:37Z</time>
      </trkpt>
      <trkpt lat="45.59247" lon="4.85415">
        <ele>257.29</ele>
        <time>2019-09-15T13:44:38Z</time>
      </trkpt>
      <trkpt lat="45.59232" lon="4.85377">
        <ele>259.21</ele>
        <time>2019-09-15T13:44:44Z</time>
      </trkpt>
      <trkpt lat="45.59218" lon="4.85341">
        <ele>261.14</ele>
        <time>2019-09-15T13:44:50Z</time>
      </trkpt>
      <trkpt lat="45.59214" lon="4.85335">
        <ele>260.17</ele>
        <time>2019-09-15T13:44:51Z</time>
      </trkpt>
      <trkpt lat="45.59211" lon="4.85328">
        <ele>260.65</ele>
        <time>2019-09-15T13:44:52Z</time>
      </trkpt>
      <trkpt lat="45.59207" lon="4.8532">
        <ele>260.17</ele>
        <time>2019-09-15T13:44:53Z</time>
      </trkpt>
      <trkpt lat="45.59203" lon="4.85312">
        <ele>259.69</ele>
        <time>2019-09-15T13:44:54Z</time>
      </trkpt>
      <trkpt lat="45.59197" lon="4.85298">
        <ele>260.17</ele>
        <time>2019-09-15T13:44:56Z</time>
      </trkpt>
      <trkpt lat="45.59195" lon="4.85291">
        <ele>259.21</ele>
        <time>2019-09-15T13:44:57Z</time>
      </trkpt>
      <trkpt lat="45.59192" lon="4.85285">
        <ele>259.21</ele>
        <time>2019-09-15T13:44:58Z</time>
      </trkpt>
      <trkpt lat="45.59189" lon="4.85278">
        <ele>259.69</ele>
        <time>2019-09-15T13:44:59Z</time>
      </trkpt>
      <trkpt lat="45.59187" lon="4.85272">
        <ele>260.17</ele>
        <time>2019-09-15T13:45:00Z</time>
      </trkpt>
      <trkpt lat="45.59184" lon="4.85265">
        <ele>260.65</ele>
        <time>2019-09-15T13:45:01Z</time>
      </trkpt>
      <trkpt lat="45.5918" lon="4.85252">
        <ele>261.62</ele>
        <time>2019-09-15T13:45:03Z</time>
      </trkpt>
      <trkpt lat="45.59178" lon="4.85245">
        <ele>262.1</ele>
        <time>2019-09-15T13:45:04Z</time>
      </trkpt>
      <trkpt lat="45.59176" lon="4.85239">
        <ele>262.58</ele>
        <time>2019-09-15T13:45:05Z</time>
      </trkpt>
      <trkpt lat="45.59173" lon="4.85232">
        <ele>262.58</ele>
        <time>2019-09-15T13:45:06Z</time>
      </trkpt>
      <trkpt lat="45.59171" lon="4.85226">
        <ele>262.1</ele>
        <time>2019-09-15T13:45:07Z</time>
      </trkpt>
      <trkpt lat="45.59154" lon="4.85194">
        <ele>263.54</ele>
        <time>2019-09-15T13:45:13Z</time>
      </trkpt>
      <trkpt lat="45.59151" lon="4.85189">
        <ele>263.54</ele>
        <time>2019-09-15T13:45:14Z</time>
      </trkpt>
      <trkpt lat="45.59148" lon="4.85185">
        <ele>264.02</ele>
        <time>2019-09-15T13:45:15Z</time>
      </trkpt>
      <trkpt lat="45.59143" lon="4.85179">
        <ele>264.98</ele>
        <time>2019-09-15T13:45:17Z</time>
      </trkpt>
      <trkpt lat="45.59131" lon="4.85167">
        <ele>267.38</ele>
        <time>2019-09-15T13:45:21Z</time>
      </trkpt>
      <trkpt lat="45.59116" lon="4.85153">
        <ele>269.31</ele>
        <time>2019-09-15T13:45:25Z</time>
      </trkpt>
      <trkpt lat="45.59112" lon="4.85149">
        <ele>269.79</ele>
        <time>2019-09-15T13:45:26Z</time>
      </trkpt>
      <trkpt lat="45.59086" lon="4.85128">
        <ele>272.67</ele>
        <time>2019-09-15T13:45:34Z</time>
      </trkpt>
      <trkpt lat="45.59082" lon="4.85121">
        <ele>272.19</ele>
        <time>2019-09-15T13:45:40Z</time>
      </trkpt>
      <trkpt lat="45.59082" lon="4.85119">
        <ele>272.19</ele>
        <time>2019-09-15T13:45:41Z</time>
      </trkpt>
      <trkpt lat="45.59081" lon="4.85105">
        <ele>270.27</ele>
        <time>2019-09-15T13:45:45Z</time>
      </trkpt>
      <trkpt lat="45.5908" lon="4.85101">
        <ele>269.79</ele>
        <time>2019-09-15T13:45:46Z</time>
      </trkpt>
      <trkpt lat="45.59077" lon="4.85094">
        <ele>269.31</ele>
        <time>2019-09-15T13:45:52Z</time>
      </trkpt>
      <trkpt lat="45.59077" lon="4.85091">
        <ele>269.31</ele>
        <time>2019-09-15T13:45:53Z</time>
      </trkpt>
      <trkpt lat="45.59076" lon="4.85086">
        <ele>268.83</ele>
        <time>2019-09-15T13:45:55Z</time>
      </trkpt>
      <trkpt lat="45.59077" lon="4.85081">
        <ele>268.35</ele>
        <time>2019-09-15T13:45:57Z</time>
      </trkpt>
      <trkpt lat="45.59077" lon="4.85077">
        <ele>267.86</ele>
        <time>2019-09-15T13:45:58Z</time>
      </trkpt>
      <trkpt lat="45.59076" lon="4.85073">
        <ele>267.86</ele>
        <time>2019-09-15T13:45:59Z</time>
      </trkpt>
      <trkpt lat="45.59076" lon="4.85069">
        <ele>267.38</ele>
        <time>2019-09-15T13:46:00Z</time>
      </trkpt>
      <trkpt lat="45.59076" lon="4.85067">
        <ele>266.9</ele>
        <time>2019-09-15T13:46:01Z</time>
      </trkpt>
      <trkpt lat="45.59077" lon="4.85064">
        <ele>266.9</ele>
        <time>2019-09-15T13:46:02Z</time>
      </trkpt>
      <trkpt lat="45.59076" lon="4.85058">
        <ele>265.94</ele>
        <time>2019-09-15T13:46:05Z</time>
      </trkpt>
      <trkpt lat="45.59075" lon="4.85054">
        <ele>265.94</ele>
        <time>2019-09-15T13:46:06Z</time>
      </trkpt>
      <trkpt lat="45.59075" lon="4.8505">
        <ele>265.46</ele>
        <time>2019-09-15T13:46:07Z</time>
      </trkpt>
      <trkpt lat="45.59074" lon="4.85046">
        <ele>265.94</ele>
        <time>2019-09-15T13:46:08Z</time>
      </trkpt>
      <trkpt lat="45.59073" lon="4.85043">
        <ele>265.94</ele>
        <time>2019-09-15T13:46:09Z</time>
      </trkpt>
      <trkpt lat="45.59071" lon="4.85035">
        <ele>264.98</ele>
        <time>2019-09-15T13:46:11Z</time>
      </trkpt>
      <trkpt lat="45.59071" lon="4.85031">
        <ele>264.98</ele>
        <time>2019-09-15T13:46:12Z</time>
      </trkpt>
      <trkpt lat="45.59072" lon="4.85029">
        <ele>264.5</ele>
        <time>2019-09-15T13:46:13Z</time>
      </trkpt>
      <trkpt lat="45.59075" lon="4.85007">
        <ele>262.58</ele>
        <time>2019-09-15T13:46:20Z</time>
      </trkpt>
      <trkpt lat="45.59075" lon="4.85002">
        <ele>262.1</ele>
        <time>2019-09-15T13:46:22Z</time>
      </trkpt>
      <trkpt lat="45.59074" lon="4.84977">
        <ele>261.14</ele>
        <time>2019-09-15T13:46:28Z</time>
      </trkpt>
      <trkpt lat="45.59075" lon="4.84968">
        <ele>260.17</ele>
        <time>2019-09-15T13:46:30Z</time>
      </trkpt>
      <trkpt lat="45.59074" lon="4.84951">
        <ele>258.73</ele>
        <time>2019-09-15T13:46:34Z</time>
      </trkpt>
      <trkpt lat="45.59076" lon="4.84945">
        <ele>257.77</ele>
        <time>2019-09-15T13:46:35Z</time>
      </trkpt>
      <trkpt lat="45.59076" lon="4.84938">
        <ele>257.29</ele>
        <time>2019-09-15T13:46:36Z</time>
      </trkpt>
      <trkpt lat="45.59077" lon="4.84933">
        <ele>256.81</ele>
        <time>2019-09-15T13:46:37Z</time>
      </trkpt>
      <trkpt lat="45.59077" lon="4.84929">
        <ele>256.81</ele>
        <time>2019-09-15T13:46:38Z</time>
      </trkpt>
      <trkpt lat="45.59078" lon="4.84927">
        <ele>256.81</ele>
        <time>2019-09-15T13:46:39Z</time>
      </trkpt>
      <trkpt lat="45.5908" lon="4.84922">
        <ele>256.33</ele>
        <time>2019-09-15T13:46:40Z</time>
      </trkpt>
      <trkpt lat="45.59082" lon="4.84918">
        <ele>255.85</ele>
        <time>2019-09-15T13:46:41Z</time>
      </trkpt>
      <trkpt lat="45.59085" lon="4.84916">
        <ele>255.85</ele>
        <time>2019-09-15T13:46:42Z</time>
      </trkpt>
      <trkpt lat="45.59105" lon="4.84909">
        <ele>253.93</ele>
        <time>2019-09-15T13:46:46Z</time>
      </trkpt>
      <trkpt lat="45.59111" lon="4.84907">
        <ele>253.44</ele>
        <time>2019-09-15T13:46:47Z</time>
      </trkpt>
      <trkpt lat="45.59117" lon="4.84903">
        <ele>253.44</ele>
        <time>2019-09-15T13:46:48Z</time>
      </trkpt>
      <trkpt lat="45.59127" lon="4.84897">
        <ele>252.96</ele>
        <time>2019-09-15T13:46:50Z</time>
      </trkpt>
      <trkpt lat="45.59132" lon="4.84892">
        <ele>252.48</ele>
        <time>2019-09-15T13:46:51Z</time>
      </trkpt>
      <trkpt lat="45.59136" lon="4.84888">
        <ele>252</ele>
        <time>2019-09-15T13:46:52Z</time>
      </trkpt>
      <trkpt lat="45.59149" lon="4.84875">
        <ele>252</ele>
        <time>2019-09-15T13:46:55Z</time>
      </trkpt>
      <trkpt lat="45.59153" lon="4.84871">
        <ele>252</ele>
        <time>2019-09-15T13:46:56Z</time>
      </trkpt>
      <trkpt lat="45.59155" lon="4.84866">
        <ele>252.48</ele>
        <time>2019-09-15T13:46:57Z</time>
      </trkpt>
      <trkpt lat="45.59156" lon="4.84862">
        <ele>252</ele>
        <time>2019-09-15T13:46:58Z</time>
      </trkpt>
      <trkpt lat="45.59155" lon="4.84856">
        <ele>252.48</ele>
        <time>2019-09-15T13:46:59Z</time>
      </trkpt>
      <trkpt lat="45.59154" lon="4.8485">
        <ele>252.96</ele>
        <time>2019-09-15T13:47:00Z</time>
      </trkpt>
      <trkpt lat="45.59151" lon="4.84844">
        <ele>252.96</ele>
        <time>2019-09-15T13:47:01Z</time>
      </trkpt>
      <trkpt lat="45.59147" lon="4.84838">
        <ele>252.48</ele>
        <time>2019-09-15T13:47:02Z</time>
      </trkpt>
      <trkpt lat="45.59144" lon="4.84832">
        <ele>252.96</ele>
        <time>2019-09-15T13:47:03Z</time>
      </trkpt>
      <trkpt lat="45.5914" lon="4.84826">
        <ele>252.96</ele>
        <time>2019-09-15T13:47:04Z</time>
      </trkpt>
      <trkpt lat="45.59136" lon="4.84821">
        <ele>253.44</ele>
        <time>2019-09-15T13:47:05Z</time>
      </trkpt>
      <trkpt lat="45.59131" lon="4.84818">
        <ele>253.44</ele>
        <time>2019-09-15T13:47:06Z</time>
      </trkpt>
      <trkpt lat="45.59126" lon="4.84816">
        <ele>253.44</ele>
        <time>2019-09-15T13:47:07Z</time>
      </trkpt>
      <trkpt lat="45.59121" lon="4.84815">
        <ele>254.41</ele>
        <time>2019-09-15T13:47:08Z</time>
      </trkpt>
      <trkpt lat="45.59055" lon="4.84813">
        <ele>256.81</ele>
        <time>2019-09-15T13:47:22Z</time>
      </trkpt>
      <trkpt lat="45.59047" lon="4.84812">
        <ele>257.29</ele>
        <time>2019-09-15T13:47:24Z</time>
      </trkpt>
      <trkpt lat="45.59043" lon="4.84811">
        <ele>257.29</ele>
        <time>2019-09-15T13:47:25Z</time>
      </trkpt>
      <trkpt lat="45.59013" lon="4.84792">
        <ele>260.65</ele>
        <time>2019-09-15T13:47:33Z</time>
      </trkpt>
      <trkpt lat="45.58996" lon="4.84784">
        <ele>261.14</ele>
        <time>2019-09-15T13:47:37Z</time>
      </trkpt>
      <trkpt lat="45.58992" lon="4.84782">
        <ele>262.1</ele>
        <time>2019-09-15T13:47:38Z</time>
      </trkpt>
      <trkpt lat="45.58988" lon="4.8478">
        <ele>262.58</ele>
        <time>2019-09-15T13:47:39Z</time>
      </trkpt>
      <trkpt lat="45.58962" lon="4.84775">
        <ele>265.46</ele>
        <time>2019-09-15T13:47:45Z</time>
      </trkpt>
      <trkpt lat="45.58944" lon="4.8477">
        <ele>267.86</ele>
        <time>2019-09-15T13:47:49Z</time>
      </trkpt>
      <trkpt lat="45.5893" lon="4.84768">
        <ele>269.79</ele>
        <time>2019-09-15T13:47:52Z</time>
      </trkpt>
      <trkpt lat="45.58902" lon="4.84765">
        <ele>273.15</ele>
        <time>2019-09-15T13:47:58Z</time>
      </trkpt>
      <trkpt lat="45.58897" lon="4.84764">
        <ele>273.15</ele>
        <time>2019-09-15T13:47:59Z</time>
      </trkpt>
      <trkpt lat="45.58865" lon="4.84761">
        <ele>276.04</ele>
        <time>2019-09-15T13:48:07Z</time>
      </trkpt>
      <trkpt lat="45.58857" lon="4.84759">
        <ele>277</ele>
        <time>2019-09-15T13:48:09Z</time>
      </trkpt>
      <trkpt lat="45.58853" lon="4.84758">
        <ele>277.48</ele>
        <time>2019-09-15T13:48:10Z</time>
      </trkpt>
      <trkpt lat="45.58802" lon="4.84738">
        <ele>279.88</ele>
        <time>2019-09-15T13:48:22Z</time>
      </trkpt>
      <trkpt lat="45.58798" lon="4.84736">
        <ele>280.36</ele>
        <time>2019-09-15T13:48:23Z</time>
      </trkpt>
      <trkpt lat="45.58769" lon="4.84728">
        <ele>280.36</ele>
        <time>2019-09-15T13:48:29Z</time>
      </trkpt>
      <trkpt lat="45.58764" lon="4.84725">
        <ele>280.36</ele>
        <time>2019-09-15T13:48:30Z</time>
      </trkpt>
      <trkpt lat="45.58699" lon="4.84701">
        <ele>281.8</ele>
        <time>2019-09-15T13:48:43Z</time>
      </trkpt>
      <trkpt lat="45.58684" lon="4.84691">
        <ele>283.25</ele>
        <time>2019-09-15T13:48:47Z</time>
      </trkpt>
      <trkpt lat="45.58682" lon="4.84686">
        <ele>283.25</ele>
        <time>2019-09-15T13:48:48Z</time>
      </trkpt>
      <trkpt lat="45.58681" lon="4.84681">
        <ele>283.25</ele>
        <time>2019-09-15T13:48:49Z</time>
      </trkpt>
      <trkpt lat="45.58679" lon="4.84653">
        <ele>282.77</ele>
        <time>2019-09-15T13:48:54Z</time>
      </trkpt>
      <trkpt lat="45.58679" lon="4.84647">
        <ele>282.28</ele>
        <time>2019-09-15T13:48:55Z</time>
      </trkpt>
      <trkpt lat="45.58677" lon="4.84636">
        <ele>282.28</ele>
        <time>2019-09-15T13:48:57Z</time>
      </trkpt>
      <trkpt lat="45.58677" lon="4.84617">
        <ele>282.28</ele>
        <time>2019-09-15T13:49:00Z</time>
      </trkpt>
      <trkpt lat="45.58677" lon="4.84609">
        <ele>281.8</ele>
        <time>2019-09-15T13:49:01Z</time>
      </trkpt>
      <trkpt lat="45.5868" lon="4.84591">
        <ele>280.84</ele>
        <time>2019-09-15T13:49:03Z</time>
      </trkpt>
      <trkpt lat="45.58681" lon="4.8457">
        <ele>279.4</ele>
        <time>2019-09-15T13:49:05Z</time>
      </trkpt>
      <trkpt lat="45.58683" lon="4.84559">
        <ele>278.92</ele>
        <time>2019-09-15T13:49:06Z</time>
      </trkpt>
      <trkpt lat="45.58688" lon="4.84524">
        <ele>276.52</ele>
        <time>2019-09-15T13:49:09Z</time>
      </trkpt>
      <trkpt lat="45.58688" lon="4.8451">
        <ele>276.04</ele>
        <time>2019-09-15T13:49:10Z</time>
      </trkpt>
      <trkpt lat="45.58688" lon="4.84496">
        <ele>275.07</ele>
        <time>2019-09-15T13:49:11Z</time>
      </trkpt>
      <trkpt lat="45.58686" lon="4.84482">
        <ele>274.11</ele>
        <time>2019-09-15T13:49:12Z</time>
      </trkpt>
      <trkpt lat="45.58683" lon="4.84467">
        <ele>273.15</ele>
        <time>2019-09-15T13:49:13Z</time>
      </trkpt>
      <trkpt lat="45.5868" lon="4.84452">
        <ele>273.15</ele>
        <time>2019-09-15T13:49:14Z</time>
      </trkpt>
      <trkpt lat="45.58635" lon="4.84352">
        <ele>271.71</ele>
        <time>2019-09-15T13:49:23Z</time>
      </trkpt>
      <trkpt lat="45.58611" lon="4.84316">
        <ele>271.71</ele>
        <time>2019-09-15T13:49:28Z</time>
      </trkpt>
      <trkpt lat="45.58609" lon="4.84309">
        <ele>271.71</ele>
        <time>2019-09-15T13:49:29Z</time>
      </trkpt>
      <trkpt lat="45.58608" lon="4.84301">
        <ele>271.71</ele>
        <time>2019-09-15T13:49:30Z</time>
      </trkpt>
      <trkpt lat="45.5861" lon="4.84294">
        <ele>271.71</ele>
        <time>2019-09-15T13:49:31Z</time>
      </trkpt>
      <trkpt lat="45.58613" lon="4.84287">
        <ele>271.71</ele>
        <time>2019-09-15T13:49:32Z</time>
      </trkpt>
      <trkpt lat="45.58618" lon="4.84281">
        <ele>271.71</ele>
        <time>2019-09-15T13:49:33Z</time>
      </trkpt>
      <trkpt lat="45.58691" lon="4.84206">
        <ele>272.19</ele>
        <time>2019-09-15T13:49:47Z</time>
      </trkpt>
      <trkpt lat="45.58782" lon="4.84132">
        <ele>273.15</ele>
        <time>2019-09-15T13:50:03Z</time>
      </trkpt>
      <trkpt lat="45.58898" lon="4.84031">
        <ele>270.75</ele>
        <time>2019-09-15T13:50:21Z</time>
      </trkpt>
      <trkpt lat="45.58906" lon="4.84027">
        <ele>270.27</ele>
        <time>2019-09-15T13:50:22Z</time>
      </trkpt>
      <trkpt lat="45.58961" lon="4.83995">
        <ele>269.31</ele>
        <time>2019-09-15T13:50:29Z</time>
      </trkpt>
      <trkpt lat="45.58969" lon="4.83991">
        <ele>269.31</ele>
        <time>2019-09-15T13:50:30Z</time>
      </trkpt>
      <trkpt lat="45.58977" lon="4.8399">
        <ele>268.83</ele>
        <time>2019-09-15T13:50:31Z</time>
      </trkpt>
      <trkpt lat="45.58984" lon="4.83989">
        <ele>268.83</ele>
        <time>2019-09-15T13:50:32Z</time>
      </trkpt>
      <trkpt lat="45.58991" lon="4.83989">
        <ele>268.83</ele>
        <time>2019-09-15T13:50:33Z</time>
      </trkpt>
      <trkpt lat="45.59081" lon="4.8399">
        <ele>269.31</ele>
        <time>2019-09-15T13:50:47Z</time>
      </trkpt>
      <trkpt lat="45.59107" lon="4.83992">
        <ele>267.86</ele>
        <time>2019-09-15T13:50:54Z</time>
      </trkpt>
      <trkpt lat="45.59112" lon="4.8399">
        <ele>268.35</ele>
        <time>2019-09-15T13:50:55Z</time>
      </trkpt>
      <trkpt lat="45.5915" lon="4.83971">
        <ele>265.94</ele>
        <time>2019-09-15T13:51:01Z</time>
      </trkpt>
      <trkpt lat="45.59173" lon="4.83963">
        <ele>264.5</ele>
        <time>2019-09-15T13:51:04Z</time>
      </trkpt>
      <trkpt lat="45.59233" lon="4.83935">
        <ele>260.65</ele>
        <time>2019-09-15T13:51:11Z</time>
      </trkpt>
      <trkpt lat="45.59267" lon="4.83908">
        <ele>259.21</ele>
        <time>2019-09-15T13:51:15Z</time>
      </trkpt>
      <trkpt lat="45.59366" lon="4.83834">
        <ele>258.25</ele>
        <time>2019-09-15T13:51:28Z</time>
      </trkpt>
      <trkpt lat="45.59394" lon="4.83823">
        <ele>259.69</ele>
        <time>2019-09-15T13:51:33Z</time>
      </trkpt>
      <trkpt lat="45.59397" lon="4.83826">
        <ele>259.69</ele>
        <time>2019-09-15T13:51:34Z</time>
      </trkpt>
      <trkpt lat="45.59399" lon="4.8383">
        <ele>259.69</ele>
        <time>2019-09-15T13:51:35Z</time>
      </trkpt>
      <trkpt lat="45.594" lon="4.83835">
        <ele>260.17</ele>
        <time>2019-09-15T13:51:36Z</time>
      </trkpt>
      <trkpt lat="45.594" lon="4.83841">
        <ele>260.65</ele>
        <time>2019-09-15T13:51:37Z</time>
      </trkpt>
      <trkpt lat="45.59404" lon="4.83863">
        <ele>261.14</ele>
        <time>2019-09-15T13:51:40Z</time>
      </trkpt>
      <trkpt lat="45.59411" lon="4.83916">
        <ele>261.62</ele>
        <time>2019-09-15T13:51:48Z</time>
      </trkpt>
      <trkpt lat="45.5941" lon="4.83919">
        <ele>262.1</ele>
        <time>2019-09-15T13:51:49Z</time>
      </trkpt>
      <trkpt lat="45.59407" lon="4.83923">
        <ele>262.1</ele>
        <time>2019-09-15T13:51:50Z</time>
      </trkpt>
      <trkpt lat="45.59365" lon="4.83985">
        <ele>259.69</ele>
        <time>2019-09-15T13:52:04Z</time>
      </trkpt>
      <trkpt lat="45.59362" lon="4.83991">
        <ele>259.69</ele>
        <time>2019-09-15T13:52:05Z</time>
      </trkpt>
      <trkpt lat="45.59359" lon="4.83998">
        <ele>259.21</ele>
        <time>2019-09-15T13:52:06Z</time>
      </trkpt>
      <trkpt lat="45.59358" lon="4.84005">
        <ele>260.17</ele>
        <time>2019-09-15T13:52:07Z</time>
      </trkpt>
      <trkpt lat="45.59352" lon="4.84044">
        <ele>261.62</ele>
        <time>2019-09-15T13:52:13Z</time>
      </trkpt>
      <trkpt lat="45.59335" lon="4.84151">
        <ele>261.14</ele>
        <time>2019-09-15T13:52:27Z</time>
      </trkpt>
      <trkpt lat="45.59333" lon="4.84166">
        <ele>261.14</ele>
        <time>2019-09-15T13:52:29Z</time>
      </trkpt>
      <trkpt lat="45.59336" lon="4.84172">
        <ele>261.14</ele>
        <time>2019-09-15T13:52:30Z</time>
      </trkpt>
      <trkpt lat="45.5934" lon="4.84175">
        <ele>261.14</ele>
        <time>2019-09-15T13:52:31Z</time>
      </trkpt>
      <trkpt lat="45.59349" lon="4.84177">
        <ele>261.62</ele>
        <time>2019-09-15T13:52:33Z</time>
      </trkpt>
      <trkpt lat="45.59353" lon="4.84178">
        <ele>261.62</ele>
        <time>2019-09-15T13:52:34Z</time>
      </trkpt>
      <trkpt lat="45.59358" lon="4.8418">
        <ele>262.58</ele>
        <time>2019-09-15T13:52:35Z</time>
      </trkpt>
      <trkpt lat="45.59363" lon="4.84183">
        <ele>263.06</ele>
        <time>2019-09-15T13:52:36Z</time>
      </trkpt>
      <trkpt lat="45.59368" lon="4.84185">
        <ele>263.54</ele>
        <time>2019-09-15T13:52:37Z</time>
      </trkpt>
      <trkpt lat="45.5942" lon="4.84202">
        <ele>265.94</ele>
        <time>2019-09-15T13:52:47Z</time>
      </trkpt>
      <trkpt lat="45.59425" lon="4.84203">
        <ele>266.9</ele>
        <time>2019-09-15T13:52:48Z</time>
      </trkpt>
      <trkpt lat="45.5944" lon="4.84209">
        <ele>265.94</ele>
        <time>2019-09-15T13:52:51Z</time>
      </trkpt>
      <trkpt lat="45.59442" lon="4.84212">
        <ele>265.94</ele>
        <time>2019-09-15T13:52:52Z</time>
      </trkpt>
      <trkpt lat="45.59442" lon="4.84216">
        <ele>265.46</ele>
        <time>2019-09-15T13:52:53Z</time>
      </trkpt>
      <trkpt lat="45.5944" lon="4.84221">
        <ele>265.46</ele>
        <time>2019-09-15T13:52:54Z</time>
      </trkpt>
      <trkpt lat="45.59439" lon="4.84227">
        <ele>265.46</ele>
        <time>2019-09-15T13:52:55Z</time>
      </trkpt>
      <trkpt lat="45.59415" lon="4.84303">
        <ele>264.5</ele>
        <time>2019-09-15T13:53:06Z</time>
      </trkpt>
      <trkpt lat="45.59408" lon="4.84324">
        <ele>264.02</ele>
        <time>2019-09-15T13:53:09Z</time>
      </trkpt>
      <trkpt lat="45.59407" lon="4.84332">
        <ele>264.02</ele>
        <time>2019-09-15T13:53:10Z</time>
      </trkpt>
      <trkpt lat="45.59409" lon="4.84338">
        <ele>263.54</ele>
        <time>2019-09-15T13:53:11Z</time>
      </trkpt>
      <trkpt lat="45.59413" lon="4.84342">
        <ele>263.06</ele>
        <time>2019-09-15T13:53:12Z</time>
      </trkpt>
      <trkpt lat="45.59417" lon="4.84345">
        <ele>263.54</ele>
        <time>2019-09-15T13:53:13Z</time>
      </trkpt>
      <trkpt lat="45.59457" lon="4.84365">
        <ele>262.58</ele>
        <time>2019-09-15T13:53:20Z</time>
      </trkpt>
      <trkpt lat="45.59462" lon="4.84371">
        <ele>262.1</ele>
        <time>2019-09-15T13:53:21Z</time>
      </trkpt>
      <trkpt lat="45.59464" lon="4.8438">
        <ele>260.65</ele>
        <time>2019-09-15T13:53:22Z</time>
      </trkpt>
      <trkpt lat="45.59469" lon="4.84398">
        <ele>259.21</ele>
        <time>2019-09-15T13:53:24Z</time>
      </trkpt>
      <trkpt lat="45.59472" lon="4.84406">
        <ele>257.77</ele>
        <time>2019-09-15T13:53:25Z</time>
      </trkpt>
      <trkpt lat="45.59476" lon="4.84411">
        <ele>257.77</ele>
        <time>2019-09-15T13:53:26Z</time>
      </trkpt>
      <trkpt lat="45.5948" lon="4.84414">
        <ele>257.77</ele>
        <time>2019-09-15T13:53:27Z</time>
      </trkpt>
      <trkpt lat="45.59485" lon="4.84416">
        <ele>257.77</ele>
        <time>2019-09-15T13:53:28Z</time>
      </trkpt>
      <trkpt lat="45.5949" lon="4.84418">
        <ele>257.77</ele>
        <time>2019-09-15T13:53:29Z</time>
      </trkpt>
      <trkpt lat="45.59522" lon="4.84433">
        <ele>261.14</ele>
        <time>2019-09-15T13:53:35Z</time>
      </trkpt>
      <trkpt lat="45.59527" lon="4.84437">
        <ele>261.62</ele>
        <time>2019-09-15T13:53:36Z</time>
      </trkpt>
      <trkpt lat="45.59532" lon="4.84441">
        <ele>262.1</ele>
        <time>2019-09-15T13:53:37Z</time>
      </trkpt>
      <trkpt lat="45.59537" lon="4.84446">
        <ele>262.1</ele>
        <time>2019-09-15T13:53:38Z</time>
      </trkpt>
      <trkpt lat="45.59541" lon="4.8445">
        <ele>263.06</ele>
        <time>2019-09-15T13:53:39Z</time>
      </trkpt>
      <trkpt lat="45.59544" lon="4.84453">
        <ele>263.54</ele>
        <time>2019-09-15T13:53:40Z</time>
      </trkpt>
      <trkpt lat="45.59547" lon="4.84457">
        <ele>263.54</ele>
        <time>2019-09-15T13:53:41Z</time>
      </trkpt>
      <trkpt lat="45.59548" lon="4.84462">
        <ele>264.02</ele>
        <time>2019-09-15T13:53:42Z</time>
      </trkpt>
      <trkpt lat="45.5955" lon="4.84467">
        <ele>263.54</ele>
        <time>2019-09-15T13:53:43Z</time>
      </trkpt>
      <trkpt lat="45.59551" lon="4.84474">
        <ele>263.54</ele>
        <time>2019-09-15T13:53:44Z</time>
      </trkpt>
      <trkpt lat="45.59557" lon="4.84496">
        <ele>262.1</ele>
        <time>2019-09-15T13:53:47Z</time>
      </trkpt>
      <trkpt lat="45.59559" lon="4.84503">
        <ele>261.62</ele>
        <time>2019-09-15T13:53:48Z</time>
      </trkpt>
      <trkpt lat="45.59566" lon="4.84527">
        <ele>259.21</ele>
        <time>2019-09-15T13:53:51Z</time>
      </trkpt>
      <trkpt lat="45.59571" lon="4.84556">
        <ele>256.81</ele>
        <time>2019-09-15T13:53:54Z</time>
      </trkpt>
      <trkpt lat="45.59574" lon="4.84564">
        <ele>255.37</ele>
        <time>2019-09-15T13:53:55Z</time>
      </trkpt>
      <trkpt lat="45.59575" lon="4.84572">
        <ele>254.41</ele>
        <time>2019-09-15T13:53:56Z</time>
      </trkpt>
      <trkpt lat="45.59576" lon="4.8458">
        <ele>253.44</ele>
        <time>2019-09-15T13:53:57Z</time>
      </trkpt>
      <trkpt lat="45.59578" lon="4.84587">
        <ele>252.48</ele>
        <time>2019-09-15T13:53:58Z</time>
      </trkpt>
      <trkpt lat="45.59578" lon="4.84599">
        <ele>250.56</ele>
        <time>2019-09-15T13:54:00Z</time>
      </trkpt>
      <trkpt lat="45.59577" lon="4.84604">
        <ele>249.12</ele>
        <time>2019-09-15T13:54:01Z</time>
      </trkpt>
      <trkpt lat="45.59574" lon="4.84609">
        <ele>247.68</ele>
        <time>2019-09-15T13:54:02Z</time>
      </trkpt>
      <trkpt lat="45.5957" lon="4.84613">
        <ele>247.68</ele>
        <time>2019-09-15T13:54:03Z</time>
      </trkpt>
      <trkpt lat="45.59565" lon="4.84616">
        <ele>246.72</ele>
        <time>2019-09-15T13:54:04Z</time>
      </trkpt>
      <trkpt lat="45.5956" lon="4.84617">
        <ele>246.23</ele>
        <time>2019-09-15T13:54:05Z</time>
      </trkpt>
      <trkpt lat="45.59557" lon="4.84618">
        <ele>245.27</ele>
        <time>2019-09-15T13:54:06Z</time>
      </trkpt>
      <trkpt lat="45.59547" lon="4.84623">
        <ele>241.43</ele>
        <time>2019-09-15T13:54:09Z</time>
      </trkpt>
      <trkpt lat="45.59541" lon="4.84627">
        <ele>240.47</ele>
        <time>2019-09-15T13:54:11Z</time>
      </trkpt>
      <trkpt lat="45.5953" lon="4.84635">
        <ele>236.62</ele>
        <time>2019-09-15T13:54:14Z</time>
      </trkpt>
      <trkpt lat="45.59528" lon="4.84642">
        <ele>236.14</ele>
        <time>2019-09-15T13:54:15Z</time>
      </trkpt>
      <trkpt lat="45.59525" lon="4.84651">
        <ele>235.66</ele>
        <time>2019-09-15T13:54:16Z</time>
      </trkpt>
      <trkpt lat="45.59524" lon="4.84659">
        <ele>234.22</ele>
        <time>2019-09-15T13:54:17Z</time>
      </trkpt>
      <trkpt lat="45.59525" lon="4.84668">
        <ele>234.22</ele>
        <time>2019-09-15T13:54:18Z</time>
      </trkpt>
      <trkpt lat="45.59526" lon="4.84676">
        <ele>233.74</ele>
        <time>2019-09-15T13:54:19Z</time>
      </trkpt>
      <trkpt lat="45.59529" lon="4.84685">
        <ele>234.22</ele>
        <time>2019-09-15T13:54:20Z</time>
      </trkpt>
      <trkpt lat="45.59545" lon="4.84764">
        <ele>233.26</ele>
        <time>2019-09-15T13:54:29Z</time>
      </trkpt>
      <trkpt lat="45.59546" lon="4.84772">
        <ele>232.3</ele>
        <time>2019-09-15T13:54:30Z</time>
      </trkpt>
      <trkpt lat="45.59548" lon="4.8479">
        <ele>232.78</ele>
        <time>2019-09-15T13:54:32Z</time>
      </trkpt>
      <trkpt lat="45.59548" lon="4.84808">
        <ele>232.3</ele>
        <time>2019-09-15T13:54:34Z</time>
      </trkpt>
      <trkpt lat="45.59544" lon="4.84844">
        <ele>231.33</ele>
        <time>2019-09-15T13:54:38Z</time>
      </trkpt>
      <trkpt lat="45.59545" lon="4.84852">
        <ele>231.33</ele>
        <time>2019-09-15T13:54:39Z</time>
      </trkpt>
      <trkpt lat="45.59547" lon="4.84861">
        <ele>231.33</ele>
        <time>2019-09-15T13:54:40Z</time>
      </trkpt>
      <trkpt lat="45.5955" lon="4.84869">
        <ele>230.85</ele>
        <time>2019-09-15T13:54:41Z</time>
      </trkpt>
      <trkpt lat="45.59553" lon="4.84876">
        <ele>230.85</ele>
        <time>2019-09-15T13:54:42Z</time>
      </trkpt>
      <trkpt lat="45.59557" lon="4.84883">
        <ele>231.33</ele>
        <time>2019-09-15T13:54:43Z</time>
      </trkpt>
      <trkpt lat="45.59568" lon="4.84903">
        <ele>230.85</ele>
        <time>2019-09-15T13:54:46Z</time>
      </trkpt>
      <trkpt lat="45.59572" lon="4.84908">
        <ele>230.37</ele>
        <time>2019-09-15T13:54:47Z</time>
      </trkpt>
      <trkpt lat="45.59577" lon="4.84911">
        <ele>230.37</ele>
        <time>2019-09-15T13:54:48Z</time>
      </trkpt>
      <trkpt lat="45.59583" lon="4.84914">
        <ele>229.89</ele>
        <time>2019-09-15T13:54:49Z</time>
      </trkpt>
      <trkpt lat="45.5959" lon="4.84916">
        <ele>229.89</ele>
        <time>2019-09-15T13:54:50Z</time>
      </trkpt>
      <trkpt lat="45.59619" lon="4.84932">
        <ele>228.45</ele>
        <time>2019-09-15T13:54:55Z</time>
      </trkpt>
      <trkpt lat="45.59679" lon="4.84955">
        <ele>227.49</ele>
        <time>2019-09-15T13:55:05Z</time>
      </trkpt>
      <trkpt lat="45.59732" lon="4.84979">
        <ele>227.01</ele>
        <time>2019-09-15T13:55:13Z</time>
      </trkpt>
      <trkpt lat="45.59744" lon="4.84982">
        <ele>226.53</ele>
        <time>2019-09-15T13:55:15Z</time>
      </trkpt>
      <trkpt lat="45.5975" lon="4.84981">
        <ele>226.53</ele>
        <time>2019-09-15T13:55:16Z</time>
      </trkpt>
      <trkpt lat="45.59755" lon="4.84977">
        <ele>226.53</ele>
        <time>2019-09-15T13:55:17Z</time>
      </trkpt>
      <trkpt lat="45.59758" lon="4.84972">
        <ele>227.01</ele>
        <time>2019-09-15T13:55:18Z</time>
      </trkpt>
      <trkpt lat="45.5976" lon="4.84965">
        <ele>226.53</ele>
        <time>2019-09-15T13:55:19Z</time>
      </trkpt>
      <trkpt lat="45.59762" lon="4.84958">
        <ele>227.01</ele>
        <time>2019-09-15T13:55:20Z</time>
      </trkpt>
      <trkpt lat="45.59763" lon="4.84951">
        <ele>226.53</ele>
        <time>2019-09-15T13:55:21Z</time>
      </trkpt>
      <trkpt lat="45.59765" lon="4.84942">
        <ele>227.01</ele>
        <time>2019-09-15T13:55:23Z</time>
      </trkpt>
      <trkpt lat="45.59768" lon="4.84942">
        <ele>227.49</ele>
        <time>2019-09-15T13:55:24Z</time>
      </trkpt>
      <trkpt lat="45.59772" lon="4.84943">
        <ele>227.49</ele>
        <time>2019-09-15T13:55:25Z</time>
      </trkpt>
      <trkpt lat="45.59776" lon="4.84945">
        <ele>227.01</ele>
        <time>2019-09-15T13:55:26Z</time>
      </trkpt>
      <trkpt lat="45.59781" lon="4.84948">
        <ele>226.53</ele>
        <time>2019-09-15T13:55:27Z</time>
      </trkpt>
      <trkpt lat="45.59787" lon="4.84952">
        <ele>225.57</ele>
        <time>2019-09-15T13:55:28Z</time>
      </trkpt>
      <trkpt lat="45.59791" lon="4.84958">
        <ele>226.05</ele>
        <time>2019-09-15T13:55:29Z</time>
      </trkpt>
      <trkpt lat="45.59807" lon="4.84988">
        <ele>225.57</ele>
        <time>2019-09-15T13:55:33Z</time>
      </trkpt>
      <trkpt lat="45.59812" lon="4.84995">
        <ele>225.09</ele>
        <time>2019-09-15T13:55:34Z</time>
      </trkpt>
      <trkpt lat="45.59817" lon="4.85002">
        <ele>225.09</ele>
        <time>2019-09-15T13:55:35Z</time>
      </trkpt>
      <trkpt lat="45.59822" lon="4.85008">
        <ele>225.09</ele>
        <time>2019-09-15T13:55:36Z</time>
      </trkpt>
      <trkpt lat="45.59827" lon="4.85013">
        <ele>225.57</ele>
        <time>2019-09-15T13:55:37Z</time>
      </trkpt>
      <trkpt lat="45.59833" lon="4.85017">
        <ele>225.09</ele>
        <time>2019-09-15T13:55:38Z</time>
      </trkpt>
      <trkpt lat="45.59839" lon="4.8502">
        <ele>225.09</ele>
        <time>2019-09-15T13:55:39Z</time>
      </trkpt>
      <trkpt lat="45.59845" lon="4.85022">
        <ele>225.57</ele>
        <time>2019-09-15T13:55:40Z</time>
      </trkpt>
      <trkpt lat="45.59852" lon="4.85023">
        <ele>225.09</ele>
        <time>2019-09-15T13:55:41Z</time>
      </trkpt>
      <trkpt lat="45.59864" lon="4.85025">
        <ele>225.09</ele>
        <time>2019-09-15T13:55:43Z</time>
      </trkpt>
      <trkpt lat="45.59871" lon="4.85024">
        <ele>225.09</ele>
        <time>2019-09-15T13:55:44Z</time>
      </trkpt>
      <trkpt lat="45.59877" lon="4.85021">
        <ele>224.61</ele>
        <time>2019-09-15T13:55:45Z</time>
      </trkpt>
      <trkpt lat="45.59882" lon="4.85015">
        <ele>225.09</ele>
        <time>2019-09-15T13:55:46Z</time>
      </trkpt>
      <trkpt lat="45.59886" lon="4.85008">
        <ele>225.09</ele>
        <time>2019-09-15T13:55:47Z</time>
      </trkpt>
      <trkpt lat="45.59889" lon="4.85">
        <ele>224.61</ele>
        <time>2019-09-15T13:55:48Z</time>
      </trkpt>
      <trkpt lat="45.59892" lon="4.84991">
        <ele>225.09</ele>
        <time>2019-09-15T13:55:49Z</time>
      </trkpt>
      <trkpt lat="45.59894" lon="4.84983">
        <ele>225.09</ele>
        <time>2019-09-15T13:55:50Z</time>
      </trkpt>
      <trkpt lat="45.59923" lon="4.84874">
        <ele>224.61</ele>
        <time>2019-09-15T13:56:03Z</time>
      </trkpt>
      <trkpt lat="45.59935" lon="4.8484">
        <ele>224.12</ele>
        <time>2019-09-15T13:56:07Z</time>
      </trkpt>
      <trkpt lat="45.59939" lon="4.84833">
        <ele>224.12</ele>
        <time>2019-09-15T13:56:08Z</time>
      </trkpt>
      <trkpt lat="45.59943" lon="4.84828">
        <ele>224.12</ele>
        <time>2019-09-15T13:56:09Z</time>
      </trkpt>
      <trkpt lat="45.59948" lon="4.84823">
        <ele>223.64</ele>
        <time>2019-09-15T13:56:10Z</time>
      </trkpt>
      <trkpt lat="45.59954" lon="4.8482">
        <ele>224.12</ele>
        <time>2019-09-15T13:56:11Z</time>
      </trkpt>
      <trkpt lat="45.5996" lon="4.84817">
        <ele>224.61</ele>
        <time>2019-09-15T13:56:12Z</time>
      </trkpt>
      <trkpt lat="45.59966" lon="4.84815">
        <ele>224.12</ele>
        <time>2019-09-15T13:56:13Z</time>
      </trkpt>
      <trkpt lat="45.60048" lon="4.84779">
        <ele>224.61</ele>
        <time>2019-09-15T13:56:27Z</time>
      </trkpt>
      <trkpt lat="45.60109" lon="4.84718">
        <ele>224.12</ele>
        <time>2019-09-15T13:56:40Z</time>
      </trkpt>
      <trkpt lat="45.60176" lon="4.84637">
        <ele>222.2</ele>
        <time>2019-09-15T13:56:54Z</time>
      </trkpt>
      <trkpt lat="45.60185" lon="4.84623">
        <ele>221.72</ele>
        <time>2019-09-15T13:56:56Z</time>
      </trkpt>
      <trkpt lat="45.60189" lon="4.84616">
        <ele>221.72</ele>
        <time>2019-09-15T13:56:57Z</time>
      </trkpt>
      <trkpt lat="45.60272" lon="4.84523">
        <ele>220.28</ele>
        <time>2019-09-15T13:57:13Z</time>
      </trkpt>
      <trkpt lat="45.60343" lon="4.84469">
        <ele>220.28</ele>
        <time>2019-09-15T13:57:26Z</time>
      </trkpt>
      <trkpt lat="45.60349" lon="4.84466">
        <ele>220.76</ele>
        <time>2019-09-15T13:57:27Z</time>
      </trkpt>
      <trkpt lat="45.60444" lon="4.84427">
        <ele>222.68</ele>
        <time>2019-09-15T13:57:44Z</time>
      </trkpt>
      <trkpt lat="45.60525" lon="4.84407">
        <ele>225.09</ele>
        <time>2019-09-15T13:57:59Z</time>
      </trkpt>
      <trkpt lat="45.60589" lon="4.84391">
        <ele>225.09</ele>
        <time>2019-09-15T13:58:12Z</time>
      </trkpt>
      <trkpt lat="45.6064" lon="4.84373">
        <ele>224.61</ele>
        <time>2019-09-15T13:58:22Z</time>
      </trkpt>
      <trkpt lat="45.60737" lon="4.84332">
        <ele>226.05</ele>
        <time>2019-09-15T13:58:39Z</time>
      </trkpt>
      <trkpt lat="45.60827" lon="4.84266">
        <ele>226.05</ele>
        <time>2019-09-15T13:58:55Z</time>
      </trkpt>
      <trkpt lat="45.6093" lon="4.84202">
        <ele>227.01</ele>
        <time>2019-09-15T13:59:13Z</time>
      </trkpt>
      <trkpt lat="45.61008" lon="4.84155">
        <ele>229.89</ele>
        <time>2019-09-15T13:59:27Z</time>
      </trkpt>
      <trkpt lat="45.61069" lon="4.84122">
        <ele>231.81</ele>
        <time>2019-09-15T13:59:40Z</time>
      </trkpt>
      <trkpt lat="45.61074" lon="4.84117">
        <ele>232.78</ele>
        <time>2019-09-15T13:59:42Z</time>
      </trkpt>
      <trkpt lat="45.61088" lon="4.84101">
        <ele>233.74</ele>
        <time>2019-09-15T13:59:47Z</time>
      </trkpt>
      <trkpt lat="45.61092" lon="4.84097">
        <ele>233.74</ele>
        <time>2019-09-15T13:59:48Z</time>
      </trkpt>
      <trkpt lat="45.61095" lon="4.84093">
        <ele>234.7</ele>
        <time>2019-09-15T13:59:49Z</time>
      </trkpt>
      <trkpt lat="45.61119" lon="4.84069">
        <ele>236.62</ele>
        <time>2019-09-15T13:59:57Z</time>
      </trkpt>
      <trkpt lat="45.61125" lon="4.84061">
        <ele>237.1</ele>
        <time>2019-09-15T13:59:59Z</time>
      </trkpt>
      <trkpt lat="45.61129" lon="4.84058">
        <ele>236.62</ele>
        <time>2019-09-15T14:00:00Z</time>
      </trkpt>
      <trkpt lat="45.6115" lon="4.84033">
        <ele>238.06</ele>
        <time>2019-09-15T14:00:06Z</time>
      </trkpt>
      <trkpt lat="45.61174" lon="4.83998">
        <ele>241.43</ele>
        <time>2019-09-15T14:00:13Z</time>
      </trkpt>
      <trkpt lat="45.61185" lon="4.83986">
        <ele>241.91</ele>
        <time>2019-09-15T14:00:16Z</time>
      </trkpt>
      <trkpt lat="45.61188" lon="4.83982">
        <ele>242.87</ele>
        <time>2019-09-15T14:00:17Z</time>
      </trkpt>
      <trkpt lat="45.61195" lon="4.83975">
        <ele>243.83</ele>
        <time>2019-09-15T14:00:19Z</time>
      </trkpt>
      <trkpt lat="45.61199" lon="4.83971">
        <ele>244.31</ele>
        <time>2019-09-15T14:00:20Z</time>
      </trkpt>
      <trkpt lat="45.61203" lon="4.83967">
        <ele>244.79</ele>
        <time>2019-09-15T14:00:21Z</time>
      </trkpt>
      <trkpt lat="45.61207" lon="4.83964">
        <ele>244.79</ele>
        <time>2019-09-15T14:00:22Z</time>
      </trkpt>
      <trkpt lat="45.61211" lon="4.8396">
        <ele>245.75</ele>
        <time>2019-09-15T14:00:23Z</time>
      </trkpt>
      <trkpt lat="45.61215" lon="4.83956">
        <ele>246.23</ele>
        <time>2019-09-15T14:00:24Z</time>
      </trkpt>
      <trkpt lat="45.61219" lon="4.83952">
        <ele>246.72</ele>
        <time>2019-09-15T14:00:25Z</time>
      </trkpt>
      <trkpt lat="45.61255" lon="4.83922">
        <ele>250.08</ele>
        <time>2019-09-15T14:00:34Z</time>
      </trkpt>
      <trkpt lat="45.6127" lon="4.83913">
        <ele>252</ele>
        <time>2019-09-15T14:00:38Z</time>
      </trkpt>
      <trkpt lat="45.61291" lon="4.839">
        <ele>255.37</ele>
        <time>2019-09-15T14:00:44Z</time>
      </trkpt>
      <trkpt lat="45.61309" lon="4.83887">
        <ele>258.73</ele>
        <time>2019-09-15T14:00:49Z</time>
      </trkpt>
      <trkpt lat="45.61312" lon="4.83884">
        <ele>258.73</ele>
        <time>2019-09-15T14:00:50Z</time>
      </trkpt>
      <trkpt lat="45.61333" lon="4.83864">
        <ele>262.58</ele>
        <time>2019-09-15T14:00:56Z</time>
      </trkpt>
      <trkpt lat="45.61337" lon="4.8386">
        <ele>262.58</ele>
        <time>2019-09-15T14:00:57Z</time>
      </trkpt>
      <trkpt lat="45.61346" lon="4.83848">
        <ele>264.98</ele>
        <time>2019-09-15T14:01:00Z</time>
      </trkpt>
      <trkpt lat="45.61348" lon="4.83843">
        <ele>265.94</ele>
        <time>2019-09-15T14:01:01Z</time>
      </trkpt>
      <trkpt lat="45.61353" lon="4.83834">
        <ele>266.9</ele>
        <time>2019-09-15T14:01:03Z</time>
      </trkpt>
      <trkpt lat="45.6136" lon="4.83821">
        <ele>268.35</ele>
        <time>2019-09-15T14:01:06Z</time>
      </trkpt>
      <trkpt lat="45.6137" lon="4.83799">
        <ele>272.19</ele>
        <time>2019-09-15T14:01:11Z</time>
      </trkpt>
      <trkpt lat="45.61374" lon="4.83791">
        <ele>273.15</ele>
        <time>2019-09-15T14:01:13Z</time>
      </trkpt>
      <trkpt lat="45.61399" lon="4.83768">
        <ele>276.52</ele>
        <time>2019-09-15T14:01:21Z</time>
      </trkpt>
      <trkpt lat="45.6142" lon="4.83751">
        <ele>279.4</ele>
        <time>2019-09-15T14:01:28Z</time>
      </trkpt>
      <trkpt lat="45.61423" lon="4.83748">
        <ele>279.88</ele>
        <time>2019-09-15T14:01:29Z</time>
      </trkpt>
      <trkpt lat="45.61441" lon="4.83733">
        <ele>283.25</ele>
        <time>2019-09-15T14:01:35Z</time>
      </trkpt>
      <trkpt lat="45.61459" lon="4.83706">
        <ele>284.21</ele>
        <time>2019-09-15T14:01:47Z</time>
      </trkpt>
      <trkpt lat="45.61482" lon="4.83658">
        <ele>283.73</ele>
        <time>2019-09-15T14:01:58Z</time>
      </trkpt>
      <trkpt lat="45.61495" lon="4.83641">
        <ele>283.25</ele>
        <time>2019-09-15T14:02:02Z</time>
      </trkpt>
      <trkpt lat="45.61499" lon="4.83637">
        <ele>283.25</ele>
        <time>2019-09-15T14:02:03Z</time>
      </trkpt>
      <trkpt lat="45.61503" lon="4.83634">
        <ele>282.77</ele>
        <time>2019-09-15T14:02:04Z</time>
      </trkpt>
      <trkpt lat="45.61573" lon="4.83585">
        <ele>281.32</ele>
        <time>2019-09-15T14:02:18Z</time>
      </trkpt>
      <trkpt lat="45.61605" lon="4.83565">
        <ele>280.84</ele>
        <time>2019-09-15T14:02:25Z</time>
      </trkpt>
      <trkpt lat="45.61609" lon="4.83561">
        <ele>281.32</ele>
        <time>2019-09-15T14:02:26Z</time>
      </trkpt>
      <trkpt lat="45.61612" lon="4.83556">
        <ele>281.32</ele>
        <time>2019-09-15T14:02:27Z</time>
      </trkpt>
      <trkpt lat="45.61614" lon="4.8355">
        <ele>280.84</ele>
        <time>2019-09-15T14:02:28Z</time>
      </trkpt>
      <trkpt lat="45.61615" lon="4.83544">
        <ele>281.32</ele>
        <time>2019-09-15T14:02:29Z</time>
      </trkpt>
      <trkpt lat="45.61615" lon="4.83537">
        <ele>281.32</ele>
        <time>2019-09-15T14:02:30Z</time>
      </trkpt>
      <trkpt lat="45.61614" lon="4.8353">
        <ele>281.32</ele>
        <time>2019-09-15T14:02:31Z</time>
      </trkpt>
      <trkpt lat="45.61612" lon="4.83522">
        <ele>280.84</ele>
        <time>2019-09-15T14:02:32Z</time>
      </trkpt>
      <trkpt lat="45.61598" lon="4.83472">
        <ele>280.84</ele>
        <time>2019-09-15T14:02:39Z</time>
      </trkpt>
      <trkpt lat="45.61598" lon="4.83466">
        <ele>280.84</ele>
        <time>2019-09-15T14:02:40Z</time>
      </trkpt>
      <trkpt lat="45.61599" lon="4.8346">
        <ele>280.84</ele>
        <time>2019-09-15T14:02:41Z</time>
      </trkpt>
      <trkpt lat="45.61601" lon="4.83456">
        <ele>281.32</ele>
        <time>2019-09-15T14:02:42Z</time>
      </trkpt>
      <trkpt lat="45.61604" lon="4.83453">
        <ele>281.32</ele>
        <time>2019-09-15T14:02:43Z</time>
      </trkpt>
      <trkpt lat="45.61607" lon="4.83449">
        <ele>281.32</ele>
        <time>2019-09-15T14:02:44Z</time>
      </trkpt>
      <trkpt lat="45.61611" lon="4.83446">
        <ele>281.32</ele>
        <time>2019-09-15T14:02:45Z</time>
      </trkpt>
      <trkpt lat="45.61615" lon="4.83443">
        <ele>281.8</ele>
        <time>2019-09-15T14:02:46Z</time>
      </trkpt>
      <trkpt lat="45.61668" lon="4.83406">
        <ele>278.92</ele>
        <time>2019-09-15T14:02:57Z</time>
      </trkpt>
      <trkpt lat="45.61706" lon="4.8337">
        <ele>276.04</ele>
        <time>2019-09-15T14:03:03Z</time>
      </trkpt>
      <trkpt lat="45.61719" lon="4.83356">
        <ele>275.07</ele>
        <time>2019-09-15T14:03:05Z</time>
      </trkpt>
      <trkpt lat="45.61744" lon="4.83327">
        <ele>273.63</ele>
        <time>2019-09-15T14:03:09Z</time>
      </trkpt>
      <trkpt lat="45.61749" lon="4.8332">
        <ele>273.63</ele>
        <time>2019-09-15T14:03:10Z</time>
      </trkpt>
      <trkpt lat="45.61762" lon="4.83307">
        <ele>272.67</ele>
        <time>2019-09-15T14:03:13Z</time>
      </trkpt>
      <trkpt lat="45.61764" lon="4.83302">
        <ele>272.19</ele>
        <time>2019-09-15T14:03:14Z</time>
      </trkpt>
      <trkpt lat="45.61766" lon="4.83295">
        <ele>272.19</ele>
        <time>2019-09-15T14:03:15Z</time>
      </trkpt>
      <trkpt lat="45.61766" lon="4.83288">
        <ele>272.19</ele>
        <time>2019-09-15T14:03:16Z</time>
      </trkpt>
      <trkpt lat="45.61765" lon="4.8328">
        <ele>272.19</ele>
        <time>2019-09-15T14:03:17Z</time>
      </trkpt>
      <trkpt lat="45.61763" lon="4.83273">
        <ele>273.15</ele>
        <time>2019-09-15T14:03:18Z</time>
      </trkpt>
      <trkpt lat="45.61746" lon="4.83201">
        <ele>273.15</ele>
        <time>2019-09-15T14:03:27Z</time>
      </trkpt>
      <trkpt lat="45.61736" lon="4.83169">
        <ele>272.67</ele>
        <time>2019-09-15T14:03:31Z</time>
      </trkpt>
      <trkpt lat="45.61733" lon="4.83162">
        <ele>272.67</ele>
        <time>2019-09-15T14:03:32Z</time>
      </trkpt>
      <trkpt lat="45.61729" lon="4.83156">
        <ele>272.19</ele>
        <time>2019-09-15T14:03:33Z</time>
      </trkpt>
      <trkpt lat="45.6172" lon="4.83144">
        <ele>271.71</ele>
        <time>2019-09-15T14:03:35Z</time>
      </trkpt>
      <trkpt lat="45.61716" lon="4.83139">
        <ele>271.71</ele>
        <time>2019-09-15T14:03:36Z</time>
      </trkpt>
      <trkpt lat="45.61705" lon="4.83129">
        <ele>271.23</ele>
        <time>2019-09-15T14:03:38Z</time>
      </trkpt>
      <trkpt lat="45.61656" lon="4.8311">
        <ele>271.23</ele>
        <time>2019-09-15T14:03:46Z</time>
      </trkpt>
      <trkpt lat="45.61651" lon="4.83107">
        <ele>271.23</ele>
        <time>2019-09-15T14:03:47Z</time>
      </trkpt>
      <trkpt lat="45.61645" lon="4.83104">
        <ele>271.71</ele>
        <time>2019-09-15T14:03:48Z</time>
      </trkpt>
      <trkpt lat="45.61635" lon="4.83096">
        <ele>271.71</ele>
        <time>2019-09-15T14:03:50Z</time>
      </trkpt>
      <trkpt lat="45.61584" lon="4.83051">
        <ele>272.19</ele>
        <time>2019-09-15T14:04:00Z</time>
      </trkpt>
      <trkpt lat="45.61559" lon="4.83029">
        <ele>272.67</ele>
        <time>2019-09-15T14:04:05Z</time>
      </trkpt>
      <trkpt lat="45.61555" lon="4.83024">
        <ele>273.15</ele>
        <time>2019-09-15T14:04:06Z</time>
      </trkpt>
      <trkpt lat="45.61552" lon="4.83017">
        <ele>273.15</ele>
        <time>2019-09-15T14:04:07Z</time>
      </trkpt>
      <trkpt lat="45.61551" lon="4.83011">
        <ele>273.15</ele>
        <time>2019-09-15T14:04:08Z</time>
      </trkpt>
      <trkpt lat="45.61552" lon="4.83004">
        <ele>273.15</ele>
        <time>2019-09-15T14:04:09Z</time>
      </trkpt>
      <trkpt lat="45.61556" lon="4.83">
        <ele>273.63</ele>
        <time>2019-09-15T14:04:10Z</time>
      </trkpt>
      <trkpt lat="45.6156" lon="4.82999">
        <ele>273.15</ele>
        <time>2019-09-15T14:04:11Z</time>
      </trkpt>
      <trkpt lat="45.61565" lon="4.82997">
        <ele>273.63</ele>
        <time>2019-09-15T14:04:12Z</time>
      </trkpt>
      <trkpt lat="45.61618" lon="4.8298">
        <ele>270.27</ele>
        <time>2019-09-15T14:04:20Z</time>
      </trkpt>
      <trkpt lat="45.61663" lon="4.82964">
        <ele>266.9</ele>
        <time>2019-09-15T14:04:25Z</time>
      </trkpt>
      <trkpt lat="45.61724" lon="4.82944">
        <ele>264.02</ele>
        <time>2019-09-15T14:04:31Z</time>
      </trkpt>
      <trkpt lat="45.61821" lon="4.8291">
        <ele>260.65</ele>
        <time>2019-09-15T14:04:41Z</time>
      </trkpt>
      <trkpt lat="45.61856" lon="4.82903">
        <ele>258.25</ele>
        <time>2019-09-15T14:04:45Z</time>
      </trkpt>
      <trkpt lat="45.61887" lon="4.82904">
        <ele>254.89</ele>
        <time>2019-09-15T14:04:48Z</time>
      </trkpt>
      <trkpt lat="45.61923" lon="4.82907">
        <ele>251.52</ele>
        <time>2019-09-15T14:04:51Z</time>
      </trkpt>
      <trkpt lat="45.6195" lon="4.8291">
        <ele>247.68</ele>
        <time>2019-09-15T14:04:53Z</time>
      </trkpt>
      <trkpt lat="45.61993" lon="4.82913">
        <ele>243.83</ele>
        <time>2019-09-15T14:04:56Z</time>
      </trkpt>
      <trkpt lat="45.62019" lon="4.82915">
        <ele>239.99</ele>
        <time>2019-09-15T14:04:58Z</time>
      </trkpt>
      <trkpt lat="45.62073" lon="4.82919">
        <ele>236.62</ele>
        <time>2019-09-15T14:05:02Z</time>
      </trkpt>
      <trkpt lat="45.62099" lon="4.82919">
        <ele>236.14</ele>
        <time>2019-09-15T14:05:04Z</time>
      </trkpt>
      <trkpt lat="45.62173" lon="4.82903">
        <ele>232.3</ele>
        <time>2019-09-15T14:05:10Z</time>
      </trkpt>
      <trkpt lat="45.62184" lon="4.829">
        <ele>232.3</ele>
        <time>2019-09-15T14:05:11Z</time>
      </trkpt>
      <trkpt lat="45.623" lon="4.82866">
        <ele>229.89</ele>
        <time>2019-09-15T14:05:23Z</time>
      </trkpt>
      <trkpt lat="45.62391" lon="4.82837">
        <ele>228.45</ele>
        <time>2019-09-15T14:05:35Z</time>
      </trkpt>
      <trkpt lat="45.62407" lon="4.82829">
        <ele>227.01</ele>
        <time>2019-09-15T14:05:38Z</time>
      </trkpt>
      <trkpt lat="45.62411" lon="4.82824">
        <ele>226.05</ele>
        <time>2019-09-15T14:05:39Z</time>
      </trkpt>
      <trkpt lat="45.62412" lon="4.82818">
        <ele>226.05</ele>
        <time>2019-09-15T14:05:40Z</time>
      </trkpt>
      <trkpt lat="45.62411" lon="4.82813">
        <ele>225.57</ele>
        <time>2019-09-15T14:05:41Z</time>
      </trkpt>
      <trkpt lat="45.6241" lon="4.82808">
        <ele>225.57</ele>
        <time>2019-09-15T14:05:42Z</time>
      </trkpt>
      <trkpt lat="45.62407" lon="4.82803">
        <ele>225.09</ele>
        <time>2019-09-15T14:05:43Z</time>
      </trkpt>
      <trkpt lat="45.62405" lon="4.82798">
        <ele>225.57</ele>
        <time>2019-09-15T14:05:44Z</time>
      </trkpt>
      <trkpt lat="45.62402" lon="4.82793">
        <ele>225.09</ele>
        <time>2019-09-15T14:05:45Z</time>
      </trkpt>
      <trkpt lat="45.62399" lon="4.82787">
        <ele>225.57</ele>
        <time>2019-09-15T14:05:46Z</time>
      </trkpt>
      <trkpt lat="45.62366" lon="4.82735">
        <ele>225.57</ele>
        <time>2019-09-15T14:05:54Z</time>
      </trkpt>
      <trkpt lat="45.62331" lon="4.82664">
        <ele>222.68</ele>
        <time>2019-09-15T14:06:03Z</time>
      </trkpt>
      <trkpt lat="45.62328" lon="4.82655">
        <ele>222.68</ele>
        <time>2019-09-15T14:06:04Z</time>
      </trkpt>
      <trkpt lat="45.62327" lon="4.82635">
        <ele>223.16</ele>
        <time>2019-09-15T14:06:06Z</time>
      </trkpt>
      <trkpt lat="45.62329" lon="4.82627">
        <ele>223.64</ele>
        <time>2019-09-15T14:06:07Z</time>
      </trkpt>
      <trkpt lat="45.62333" lon="4.82621">
        <ele>224.12</ele>
        <time>2019-09-15T14:06:08Z</time>
      </trkpt>
      <trkpt lat="45.62338" lon="4.82616">
        <ele>224.12</ele>
        <time>2019-09-15T14:06:09Z</time>
      </trkpt>
      <trkpt lat="45.62387" lon="4.82546">
        <ele>225.57</ele>
        <time>2019-09-15T14:06:21Z</time>
      </trkpt>
      <trkpt lat="45.62401" lon="4.82533">
        <ele>225.09</ele>
        <time>2019-09-15T14:06:25Z</time>
      </trkpt>
      <trkpt lat="45.62407" lon="4.82526">
        <ele>225.09</ele>
        <time>2019-09-15T14:06:27Z</time>
      </trkpt>
      <trkpt lat="45.62405" lon="4.82516">
        <ele>223.64</ele>
        <time>2019-09-15T14:06:32Z</time>
      </trkpt>
      <trkpt lat="45.62377" lon="4.82472">
        <ele>222.68</ele>
        <time>2019-09-15T14:06:41Z</time>
      </trkpt>
      <trkpt lat="45.62374" lon="4.82468">
        <ele>223.16</ele>
        <time>2019-09-15T14:06:42Z</time>
      </trkpt>
      <trkpt lat="45.62363" lon="4.82455">
        <ele>223.16</ele>
        <time>2019-09-15T14:06:45Z</time>
      </trkpt>
      <trkpt lat="45.62336" lon="4.82444">
        <ele>225.09</ele>
        <time>2019-09-15T14:06:53Z</time>
      </trkpt>
      <trkpt lat="45.62327" lon="4.82447">
        <ele>225.57</ele>
        <time>2019-09-15T14:06:56Z</time>
      </trkpt>
      <trkpt lat="45.62302" lon="4.8246">
        <ele>226.05</ele>
        <time>2019-09-15T14:07:04Z</time>
      </trkpt>
      <trkpt lat="45.62287" lon="4.82474">
        <ele>226.05</ele>
        <time>2019-09-15T14:07:09Z</time>
      </trkpt>
      <trkpt lat="45.62277" lon="4.82479">
        <ele>226.05</ele>
        <time>2019-09-15T14:07:13Z</time>
      </trkpt>
      <trkpt lat="45.62271" lon="4.82479">
        <ele>225.57</ele>
        <time>2019-09-15T14:07:15Z</time>
      </trkpt>
      <trkpt lat="45.62254" lon="4.82484">
        <ele>224.61</ele>
        <time>2019-09-15T14:07:19Z</time>
      </trkpt>
      <trkpt lat="45.62243" lon="4.82495">
        <ele>223.16</ele>
        <time>2019-09-15T14:07:24Z</time>
      </trkpt>
      <trkpt lat="45.62239" lon="4.82499">
        <ele>223.16</ele>
        <time>2019-09-15T14:07:36Z</time>
      </trkpt>
      <trkpt lat="45.62238" lon="4.82499">
        <ele>222.2</ele>
        <time>2019-09-15T14:07:48Z</time>
      </trkpt>
      <trkpt lat="45.6224" lon="4.82495">
        <ele>221.24</ele>
        <time>2019-09-15T14:08:03Z</time>
      </trkpt>
      <trkpt lat="45.62241" lon="4.82489">
        <ele>214.51</ele>
        <time>2019-09-15T14:08:21Z</time>
      </trkpt>
      <trkpt lat="45.62241" lon="4.82489">
        <ele>220.28</ele>
        <time>2019-09-15T14:08:22Z</time>
      </trkpt>
      <trkpt lat="45.62241" lon="4.82489">
        <ele>220.28</ele>
        <time>2019-09-15T14:08:27Z</time>
      </trkpt>
      <trkpt lat="45.62244" lon="4.8247">
        <ele>216.43</ele>
        <time>2019-09-15T14:08:32Z</time>
      </trkpt>
      <trkpt lat="45.62248" lon="4.82459">
        <ele>215.95</ele>
        <time>2019-09-15T14:08:36Z</time>
      </trkpt>
      <trkpt lat="45.62264" lon="4.82447">
        <ele>213.55</ele>
        <time>2019-09-15T14:08:45Z</time>
      </trkpt>
      <trkpt lat="45.62265" lon="4.82445">
        <ele>213.55</ele>
        <time>2019-09-15T14:08:56Z</time>
      </trkpt>
      <trkpt lat="45.62266" lon="4.82444">
        <ele>213.55</ele>
        <time>2019-09-15T14:09:08Z</time>
      </trkpt>
      <trkpt lat="45.62273" lon="4.82443">
        <ele>212.59</ele>
        <time>2019-09-15T14:09:21Z</time>
      </trkpt>
      <trkpt lat="45.62275" lon="4.82441">
        <ele>212.59</ele>
        <time>2019-09-15T14:09:23Z</time>
      </trkpt>
      <trkpt lat="45.62301" lon="4.82417">
        <ele>209.22</ele>
        <time>2019-09-15T14:09:33Z</time>
      </trkpt>
      <trkpt lat="45.6232" lon="4.8239">
        <ele>206.34</ele>
        <time>2019-09-15T14:09:41Z</time>
      </trkpt>
      <trkpt lat="45.62323" lon="4.82382">
        <ele>206.34</ele>
        <time>2019-09-15T14:09:45Z</time>
      </trkpt>
      <trkpt lat="45.62312" lon="4.82359">
        <ele>208.26</ele>
        <time>2019-09-15T14:09:53Z</time>
      </trkpt>
      <trkpt lat="45.62304" lon="4.82346">
        <ele>207.78</ele>
        <time>2019-09-15T14:09:58Z</time>
      </trkpt>
      <trkpt lat="45.62295" lon="4.82341">
        <ele>210.19</ele>
        <time>2019-09-15T14:10:02Z</time>
      </trkpt>
      <trkpt lat="45.6229" lon="4.82335">
        <ele>210.67</ele>
        <time>2019-09-15T14:10:04Z</time>
      </trkpt>
      <trkpt lat="45.62275" lon="4.82315">
        <ele>210.19</ele>
        <time>2019-09-15T14:10:10Z</time>
      </trkpt>
      <trkpt lat="45.6226" lon="4.82311">
        <ele>214.51</ele>
        <time>2019-09-15T14:10:17Z</time>
      </trkpt>
      <trkpt lat="45.6226" lon="4.82311">
        <ele>214.51</ele>
        <time>2019-09-15T14:10:18Z</time>
      </trkpt>
      <trkpt lat="45.62254" lon="4.82309">
        <ele>214.51</ele>
        <time>2019-09-15T14:10:28Z</time>
      </trkpt>
      <trkpt lat="45.62249" lon="4.82306">
        <ele>215.47</ele>
        <time>2019-09-15T14:10:41Z</time>
      </trkpt>
      <trkpt lat="45.62247" lon="4.82305">
        <ele>215.95</ele>
        <time>2019-09-15T14:10:43Z</time>
      </trkpt>
      <trkpt lat="45.62237" lon="4.82303">
        <ele>217.88</ele>
        <time>2019-09-15T14:10:49Z</time>
      </trkpt>
      <trkpt lat="45.62225" lon="4.82299">
        <ele>219.32</ele>
        <time>2019-09-15T14:10:54Z</time>
      </trkpt>
      <trkpt lat="45.62221" lon="4.823">
        <ele>220.76</ele>
        <time>2019-09-15T14:10:56Z</time>
      </trkpt>
      <trkpt lat="45.62209" lon="4.82313">
        <ele>224.12</ele>
        <time>2019-09-15T14:11:03Z</time>
      </trkpt>
      <trkpt lat="45.62205" lon="4.82324">
        <ele>224.12</ele>
        <time>2019-09-15T14:11:07Z</time>
      </trkpt>
      <trkpt lat="45.62202" lon="4.82345">
        <ele>223.64</ele>
        <time>2019-09-15T14:11:13Z</time>
      </trkpt>
      <trkpt lat="45.62202" lon="4.82357">
        <ele>224.12</ele>
        <time>2019-09-15T14:11:26Z</time>
      </trkpt>
      <trkpt lat="45.6219" lon="4.82364">
        <ele>223.16</ele>
        <time>2019-09-15T14:11:31Z</time>
      </trkpt>
      <trkpt lat="45.62152" lon="4.82396">
        <ele>225.09</ele>
        <time>2019-09-15T14:11:42Z</time>
      </trkpt>
      <trkpt lat="45.62148" lon="4.82399">
        <ele>225.09</ele>
        <time>2019-09-15T14:11:43Z</time>
      </trkpt>
      <trkpt lat="45.62086" lon="4.82435">
        <ele>227.01</ele>
        <time>2019-09-15T14:11:57Z</time>
      </trkpt>
      <trkpt lat="45.62083" lon="4.82434">
        <ele>227.01</ele>
        <time>2019-09-15T14:11:58Z</time>
      </trkpt>
      <trkpt lat="45.62079" lon="4.8243">
        <ele>227.01</ele>
        <time>2019-09-15T14:11:59Z</time>
      </trkpt>
      <trkpt lat="45.62077" lon="4.82424">
        <ele>227.49</ele>
        <time>2019-09-15T14:12:00Z</time>
      </trkpt>
      <trkpt lat="45.62074" lon="4.82418">
        <ele>227.49</ele>
        <time>2019-09-15T14:12:01Z</time>
      </trkpt>
      <trkpt lat="45.62032" lon="4.8231">
        <ele>226.53</ele>
        <time>2019-09-15T14:12:15Z</time>
      </trkpt>
      <trkpt lat="45.62023" lon="4.82284">
        <ele>227.01</ele>
        <time>2019-09-15T14:12:19Z</time>
      </trkpt>
      <trkpt lat="45.6202" lon="4.82282">
        <ele>227.01</ele>
        <time>2019-09-15T14:12:20Z</time>
      </trkpt>
      <trkpt lat="45.62018" lon="4.82282">
        <ele>227.49</ele>
        <time>2019-09-15T14:12:21Z</time>
      </trkpt>
      <trkpt lat="45.62016" lon="4.82282">
        <ele>227.49</ele>
        <time>2019-09-15T14:12:22Z</time>
      </trkpt>
      <trkpt lat="45.62013" lon="4.82279">
        <ele>227.49</ele>
        <time>2019-09-15T14:12:24Z</time>
      </trkpt>
      <trkpt lat="45.62009" lon="4.82261">
        <ele>227.49</ele>
        <time>2019-09-15T14:12:28Z</time>
      </trkpt>
      <trkpt lat="45.62008" lon="4.82257">
        <ele>227.97</ele>
        <time>2019-09-15T14:12:30Z</time>
      </trkpt>
      <trkpt lat="45.62005" lon="4.82245">
        <ele>227.01</ele>
        <time>2019-09-15T14:12:35Z</time>
      </trkpt>
      <trkpt lat="45.62014" lon="4.82198">
        <ele>223.16</ele>
        <time>2019-09-15T14:12:42Z</time>
      </trkpt>
      <trkpt lat="45.62027" lon="4.82153">
        <ele>219.8</ele>
        <time>2019-09-15T14:12:46Z</time>
      </trkpt>
      <trkpt lat="45.62033" lon="4.82136">
        <ele>217.4</ele>
        <time>2019-09-15T14:12:48Z</time>
      </trkpt>
      <trkpt lat="45.62036" lon="4.8213">
        <ele>216.91</ele>
        <time>2019-09-15T14:12:49Z</time>
      </trkpt>
      <trkpt lat="45.62037" lon="4.82124">
        <ele>216.43</ele>
        <time>2019-09-15T14:12:50Z</time>
      </trkpt>
      <trkpt lat="45.62035" lon="4.82118">
        <ele>215.47</ele>
        <time>2019-09-15T14:12:51Z</time>
      </trkpt>
      <trkpt lat="45.62032" lon="4.82113">
        <ele>215.47</ele>
        <time>2019-09-15T14:12:52Z</time>
      </trkpt>
      <trkpt lat="45.62028" lon="4.8211">
        <ele>215.95</ele>
        <time>2019-09-15T14:12:53Z</time>
      </trkpt>
      <trkpt lat="45.62024" lon="4.82107">
        <ele>216.91</ele>
        <time>2019-09-15T14:12:54Z</time>
      </trkpt>
      <trkpt lat="45.62021" lon="4.82105">
        <ele>217.4</ele>
        <time>2019-09-15T14:12:55Z</time>
      </trkpt>
      <trkpt lat="45.62017" lon="4.82102">
        <ele>217.88</ele>
        <time>2019-09-15T14:12:56Z</time>
      </trkpt>
      <trkpt lat="45.62009" lon="4.82097">
        <ele>219.8</ele>
        <time>2019-09-15T14:12:58Z</time>
      </trkpt>
      <trkpt lat="45.61991" lon="4.8209">
        <ele>222.68</ele>
        <time>2019-09-15T14:13:02Z</time>
      </trkpt>
      <trkpt lat="45.61987" lon="4.82088">
        <ele>223.16</ele>
        <time>2019-09-15T14:13:03Z</time>
      </trkpt>
      <trkpt lat="45.61983" lon="4.82084">
        <ele>223.64</ele>
        <time>2019-09-15T14:13:04Z</time>
      </trkpt>
      <trkpt lat="45.6198" lon="4.82079">
        <ele>224.12</ele>
        <time>2019-09-15T14:13:05Z</time>
      </trkpt>
      <trkpt lat="45.61977" lon="4.82074">
        <ele>224.61</ele>
        <time>2019-09-15T14:13:06Z</time>
      </trkpt>
      <trkpt lat="45.61957" lon="4.82026">
        <ele>226.05</ele>
        <time>2019-09-15T14:13:15Z</time>
      </trkpt>
      <trkpt lat="45.61935" lon="4.81972">
        <ele>226.53</ele>
        <time>2019-09-15T14:13:23Z</time>
      </trkpt>
      <trkpt lat="45.61932" lon="4.81966">
        <ele>226.53</ele>
        <time>2019-09-15T14:13:24Z</time>
      </trkpt>
      <trkpt lat="45.61927" lon="4.81961">
        <ele>226.53</ele>
        <time>2019-09-15T14:13:25Z</time>
      </trkpt>
      <trkpt lat="45.61923" lon="4.81956">
        <ele>227.01</ele>
        <time>2019-09-15T14:13:26Z</time>
      </trkpt>
      <trkpt lat="45.61918" lon="4.81951">
        <ele>226.53</ele>
        <time>2019-09-15T14:13:27Z</time>
      </trkpt>
      <trkpt lat="45.61874" lon="4.81906">
        <ele>227.01</ele>
        <time>2019-09-15T14:13:36Z</time>
      </trkpt>
      <trkpt lat="45.61869" lon="4.81901">
        <ele>227.01</ele>
        <time>2019-09-15T14:13:37Z</time>
      </trkpt>
      <trkpt lat="45.61842" lon="4.81874">
        <ele>224.61</ele>
        <time>2019-09-15T14:13:42Z</time>
      </trkpt>
      <trkpt lat="45.61837" lon="4.81872">
        <ele>224.61</ele>
        <time>2019-09-15T14:13:43Z</time>
      </trkpt>
      <trkpt lat="45.61833" lon="4.81872">
        <ele>224.12</ele>
        <time>2019-09-15T14:13:44Z</time>
      </trkpt>
      <trkpt lat="45.61829" lon="4.81877">
        <ele>224.61</ele>
        <time>2019-09-15T14:13:46Z</time>
      </trkpt>
      <trkpt lat="45.61824" lon="4.81909">
        <ele>228.45</ele>
        <time>2019-09-15T14:13:53Z</time>
      </trkpt>
      <trkpt lat="45.61821" lon="4.81925">
        <ele>230.85</ele>
        <time>2019-09-15T14:13:56Z</time>
      </trkpt>
      <trkpt lat="45.61816" lon="4.81931">
        <ele>231.81</ele>
        <time>2019-09-15T14:13:58Z</time>
      </trkpt>
      <trkpt lat="45.61808" lon="4.8193">
        <ele>231.81</ele>
        <time>2019-09-15T14:14:00Z</time>
      </trkpt>
      <trkpt lat="45.61803" lon="4.81929">
        <ele>231.81</ele>
        <time>2019-09-15T14:14:01Z</time>
      </trkpt>
      <trkpt lat="45.61778" lon="4.81924">
        <ele>230.85</ele>
        <time>2019-09-15T14:14:06Z</time>
      </trkpt>
      <trkpt lat="45.61768" lon="4.81921">
        <ele>230.37</ele>
        <time>2019-09-15T14:14:09Z</time>
      </trkpt>
      <trkpt lat="45.61765" lon="4.81923">
        <ele>230.37</ele>
        <time>2019-09-15T14:14:10Z</time>
      </trkpt>
      <trkpt lat="45.61763" lon="4.81925">
        <ele>230.37</ele>
        <time>2019-09-15T14:14:11Z</time>
      </trkpt>
      <trkpt lat="45.61762" lon="4.81929">
        <ele>230.37</ele>
        <time>2019-09-15T14:14:12Z</time>
      </trkpt>
      <trkpt lat="45.61763" lon="4.81933">
        <ele>230.37</ele>
        <time>2019-09-15T14:14:13Z</time>
      </trkpt>
      <trkpt lat="45.61763" lon="4.81939">
        <ele>230.37</ele>
        <time>2019-09-15T14:14:14Z</time>
      </trkpt>
      <trkpt lat="45.61763" lon="4.81945">
        <ele>230.37</ele>
        <time>2019-09-15T14:14:15Z</time>
      </trkpt>
      <trkpt lat="45.61763" lon="4.81951">
        <ele>229.89</ele>
        <time>2019-09-15T14:14:16Z</time>
      </trkpt>
      <trkpt lat="45.61756" lon="4.81977">
        <ele>228.93</ele>
        <time>2019-09-15T14:14:21Z</time>
      </trkpt>
      <trkpt lat="45.61753" lon="4.81981">
        <ele>228.93</ele>
        <time>2019-09-15T14:14:22Z</time>
      </trkpt>
      <trkpt lat="45.61749" lon="4.81985">
        <ele>227.97</ele>
        <time>2019-09-15T14:14:23Z</time>
      </trkpt>
      <trkpt lat="45.61743" lon="4.81987">
        <ele>227.97</ele>
        <time>2019-09-15T14:14:24Z</time>
      </trkpt>
      <trkpt lat="45.61737" lon="4.81989">
        <ele>227.01</ele>
        <time>2019-09-15T14:14:25Z</time>
      </trkpt>
      <trkpt lat="45.6173" lon="4.81991">
        <ele>226.05</ele>
        <time>2019-09-15T14:14:26Z</time>
      </trkpt>
      <trkpt lat="45.61724" lon="4.81993">
        <ele>225.09</ele>
        <time>2019-09-15T14:14:27Z</time>
      </trkpt>
      <trkpt lat="45.61719" lon="4.81997">
        <ele>224.61</ele>
        <time>2019-09-15T14:14:28Z</time>
      </trkpt>
      <trkpt lat="45.61714" lon="4.82">
        <ele>223.64</ele>
        <time>2019-09-15T14:14:29Z</time>
      </trkpt>
      <trkpt lat="45.61709" lon="4.82003">
        <ele>223.16</ele>
        <time>2019-09-15T14:14:30Z</time>
      </trkpt>
      <trkpt lat="45.61704" lon="4.82005">
        <ele>222.68</ele>
        <time>2019-09-15T14:14:31Z</time>
      </trkpt>
      <trkpt lat="45.61699" lon="4.82007">
        <ele>221.72</ele>
        <time>2019-09-15T14:14:32Z</time>
      </trkpt>
      <trkpt lat="45.61696" lon="4.82008">
        <ele>221.72</ele>
        <time>2019-09-15T14:14:33Z</time>
      </trkpt>
      <trkpt lat="45.61693" lon="4.82009">
        <ele>220.28</ele>
        <time>2019-09-15T14:14:34Z</time>
      </trkpt>
      <trkpt lat="45.61687" lon="4.82012">
        <ele>220.28</ele>
        <time>2019-09-15T14:14:36Z</time>
      </trkpt>
      <trkpt lat="45.61685" lon="4.82014">
        <ele>219.8</ele>
        <time>2019-09-15T14:14:37Z</time>
      </trkpt>
      <trkpt lat="45.61684" lon="4.82017">
        <ele>219.32</ele>
        <time>2019-09-15T14:14:38Z</time>
      </trkpt>
      <trkpt lat="45.61683" lon="4.8202">
        <ele>219.32</ele>
        <time>2019-09-15T14:14:39Z</time>
      </trkpt>
      <trkpt lat="45.61682" lon="4.82023">
        <ele>218.84</ele>
        <time>2019-09-15T14:14:40Z</time>
      </trkpt>
      <trkpt lat="45.6168" lon="4.82027">
        <ele>224.12</ele>
        <time>2019-09-15T14:14:44Z</time>
      </trkpt>
      <trkpt lat="45.6168" lon="4.82027">
        <ele>218.84</ele>
        <time>2019-09-15T14:14:45Z</time>
      </trkpt>
      <trkpt lat="45.61677" lon="4.82034">
        <ele>218.84</ele>
        <time>2019-09-15T14:14:54Z</time>
      </trkpt>
      <trkpt lat="45.61675" lon="4.82037">
        <ele>218.36</ele>
        <time>2019-09-15T14:14:55Z</time>
      </trkpt>
      <trkpt lat="45.61672" lon="4.8204">
        <ele>217.88</ele>
        <time>2019-09-15T14:14:56Z</time>
      </trkpt>
      <trkpt lat="45.6166" lon="4.82051">
        <ele>216.91</ele>
        <time>2019-09-15T14:15:00Z</time>
      </trkpt>
      <trkpt lat="45.61643" lon="4.82045">
        <ele>218.36</ele>
        <time>2019-09-15T14:15:06Z</time>
      </trkpt>
      <trkpt lat="45.6164" lon="4.82046">
        <ele>218.84</ele>
        <time>2019-09-15T14:15:07Z</time>
      </trkpt>
      <trkpt lat="45.6161" lon="4.82053">
        <ele>221.72</ele>
        <time>2019-09-15T14:15:18Z</time>
      </trkpt>
      <trkpt lat="45.61595" lon="4.82059">
        <ele>224.61</ele>
        <time>2019-09-15T14:15:24Z</time>
      </trkpt>
      <trkpt lat="45.61582" lon="4.82065">
        <ele>226.53</ele>
        <time>2019-09-15T14:15:28Z</time>
      </trkpt>
      <trkpt lat="45.61562" lon="4.82081">
        <ele>228.93</ele>
        <time>2019-09-15T14:15:35Z</time>
      </trkpt>
      <trkpt lat="45.61552" lon="4.8209">
        <ele>230.37</ele>
        <time>2019-09-15T14:15:38Z</time>
      </trkpt>
      <trkpt lat="45.61536" lon="4.8211">
        <ele>233.26</ele>
        <time>2019-09-15T14:15:44Z</time>
      </trkpt>
      <trkpt lat="45.6152" lon="4.82133">
        <ele>236.14</ele>
        <time>2019-09-15T14:15:50Z</time>
      </trkpt>
      <trkpt lat="45.61511" lon="4.82153">
        <ele>239.02</ele>
        <time>2019-09-15T14:15:55Z</time>
      </trkpt>
      <trkpt lat="45.61505" lon="4.82172">
        <ele>241.91</ele>
        <time>2019-09-15T14:16:00Z</time>
      </trkpt>
      <trkpt lat="45.61502" lon="4.82184">
        <ele>243.35</ele>
        <time>2019-09-15T14:16:03Z</time>
      </trkpt>
      <trkpt lat="45.61496" lon="4.82212">
        <ele>246.23</ele>
        <time>2019-09-15T14:16:08Z</time>
      </trkpt>
      <trkpt lat="45.61495" lon="4.82216">
        <ele>246.72</ele>
        <time>2019-09-15T14:16:09Z</time>
      </trkpt>
      <trkpt lat="45.61483" lon="4.82217">
        <ele>248.16</ele>
        <time>2019-09-15T14:16:14Z</time>
      </trkpt>
      <trkpt lat="45.6148" lon="4.82213">
        <ele>247.68</ele>
        <time>2019-09-15T14:16:15Z</time>
      </trkpt>
      <trkpt lat="45.61474" lon="4.82203">
        <ele>247.2</ele>
        <time>2019-09-15T14:16:17Z</time>
      </trkpt>
      <trkpt lat="45.61463" lon="4.82174">
        <ele>247.2</ele>
        <time>2019-09-15T14:16:22Z</time>
      </trkpt>
      <trkpt lat="45.6146" lon="4.82168">
        <ele>247.68</ele>
        <time>2019-09-15T14:16:23Z</time>
      </trkpt>
      <trkpt lat="45.61433" lon="4.82074">
        <ele>246.72</ele>
        <time>2019-09-15T14:16:36Z</time>
      </trkpt>
      <trkpt lat="45.6143" lon="4.82059">
        <ele>246.23</ele>
        <time>2019-09-15T14:16:38Z</time>
      </trkpt>
      <trkpt lat="45.6143" lon="4.82052">
        <ele>245.75</ele>
        <time>2019-09-15T14:16:39Z</time>
      </trkpt>
      <trkpt lat="45.6143" lon="4.82044">
        <ele>245.75</ele>
        <time>2019-09-15T14:16:40Z</time>
      </trkpt>
      <trkpt lat="45.61431" lon="4.82037">
        <ele>246.23</ele>
        <time>2019-09-15T14:16:41Z</time>
      </trkpt>
      <trkpt lat="45.61431" lon="4.82029">
        <ele>246.23</ele>
        <time>2019-09-15T14:16:42Z</time>
      </trkpt>
      <trkpt lat="45.61433" lon="4.82003">
        <ele>245.27</ele>
        <time>2019-09-15T14:16:45Z</time>
      </trkpt>
      <trkpt lat="45.61432" lon="4.81994">
        <ele>245.27</ele>
        <time>2019-09-15T14:16:46Z</time>
      </trkpt>
      <trkpt lat="45.61431" lon="4.81985">
        <ele>245.27</ele>
        <time>2019-09-15T14:16:47Z</time>
      </trkpt>
      <trkpt lat="45.61429" lon="4.81975">
        <ele>244.79</ele>
        <time>2019-09-15T14:16:48Z</time>
      </trkpt>
      <trkpt lat="45.61427" lon="4.81965">
        <ele>244.31</ele>
        <time>2019-09-15T14:16:49Z</time>
      </trkpt>
      <trkpt lat="45.61408" lon="4.81878">
        <ele>242.87</ele>
        <time>2019-09-15T14:16:58Z</time>
      </trkpt>
      <trkpt lat="45.61404" lon="4.81871">
        <ele>242.39</ele>
        <time>2019-09-15T14:16:59Z</time>
      </trkpt>
      <trkpt lat="45.61398" lon="4.81867">
        <ele>242.87</ele>
        <time>2019-09-15T14:17:00Z</time>
      </trkpt>
      <trkpt lat="45.61393" lon="4.81869">
        <ele>242.39</ele>
        <time>2019-09-15T14:17:01Z</time>
      </trkpt>
      <trkpt lat="45.61388" lon="4.81873">
        <ele>242.87</ele>
        <time>2019-09-15T14:17:02Z</time>
      </trkpt>
      <trkpt lat="45.61383" lon="4.81878">
        <ele>242.87</ele>
        <time>2019-09-15T14:17:03Z</time>
      </trkpt>
      <trkpt lat="45.61379" lon="4.81885">
        <ele>243.35</ele>
        <time>2019-09-15T14:17:04Z</time>
      </trkpt>
      <trkpt lat="45.61357" lon="4.81916">
        <ele>244.79</ele>
        <time>2019-09-15T14:17:10Z</time>
      </trkpt>
      <trkpt lat="45.61353" lon="4.81919">
        <ele>245.75</ele>
        <time>2019-09-15T14:17:11Z</time>
      </trkpt>
      <trkpt lat="45.61348" lon="4.81921">
        <ele>245.75</ele>
        <time>2019-09-15T14:17:12Z</time>
      </trkpt>
      <trkpt lat="45.61343" lon="4.81921">
        <ele>245.75</ele>
        <time>2019-09-15T14:17:13Z</time>
      </trkpt>
      <trkpt lat="45.61339" lon="4.8192">
        <ele>246.23</ele>
        <time>2019-09-15T14:17:14Z</time>
      </trkpt>
      <trkpt lat="45.61334" lon="4.81917">
        <ele>246.23</ele>
        <time>2019-09-15T14:17:15Z</time>
      </trkpt>
      <trkpt lat="45.61329" lon="4.81914">
        <ele>246.72</ele>
        <time>2019-09-15T14:17:16Z</time>
      </trkpt>
      <trkpt lat="45.61324" lon="4.81911">
        <ele>246.23</ele>
        <time>2019-09-15T14:17:17Z</time>
      </trkpt>
      <trkpt lat="45.61282" lon="4.8189">
        <ele>246.23</ele>
        <time>2019-09-15T14:17:25Z</time>
      </trkpt>
      <trkpt lat="45.61276" lon="4.81889">
        <ele>246.23</ele>
        <time>2019-09-15T14:17:26Z</time>
      </trkpt>
      <trkpt lat="45.6127" lon="4.8189">
        <ele>246.72</ele>
        <time>2019-09-15T14:17:27Z</time>
      </trkpt>
      <trkpt lat="45.61265" lon="4.81892">
        <ele>246.72</ele>
        <time>2019-09-15T14:17:28Z</time>
      </trkpt>
      <trkpt lat="45.61261" lon="4.81897">
        <ele>246.72</ele>
        <time>2019-09-15T14:17:29Z</time>
      </trkpt>
      <trkpt lat="45.61257" lon="4.81902">
        <ele>246.72</ele>
        <time>2019-09-15T14:17:30Z</time>
      </trkpt>
      <trkpt lat="45.61254" lon="4.81909">
        <ele>247.2</ele>
        <time>2019-09-15T14:17:31Z</time>
      </trkpt>
      <trkpt lat="45.61251" lon="4.81916">
        <ele>247.2</ele>
        <time>2019-09-15T14:17:32Z</time>
      </trkpt>
      <trkpt lat="45.61214" lon="4.82011">
        <ele>250.08</ele>
        <time>2019-09-15T14:17:47Z</time>
      </trkpt>
      <trkpt lat="45.61215" lon="4.8203">
        <ele>249.6</ele>
        <time>2019-09-15T14:17:51Z</time>
      </trkpt>
      <trkpt lat="45.6123" lon="4.82086">
        <ele>251.04</ele>
        <time>2019-09-15T14:18:04Z</time>
      </trkpt>
      <trkpt lat="45.61232" lon="4.82086">
        <ele>251.04</ele>
        <time>2019-09-15T14:18:05Z</time>
      </trkpt>
      <trkpt lat="45.61231" lon="4.82078">
        <ele>251.04</ele>
        <time>2019-09-15T14:18:09Z</time>
      </trkpt>
      <trkpt lat="45.61224" lon="4.82074">
        <ele>251.04</ele>
        <time>2019-09-15T14:18:14Z</time>
      </trkpt>
      <trkpt lat="45.61193" lon="4.821">
        <ele>250.56</ele>
        <time>2019-09-15T14:18:25Z</time>
      </trkpt>
      <trkpt lat="45.61188" lon="4.82105">
        <ele>251.04</ele>
        <time>2019-09-15T14:18:27Z</time>
      </trkpt>
      <trkpt lat="45.61174" lon="4.82116">
        <ele>251.52</ele>
        <time>2019-09-15T14:18:31Z</time>
      </trkpt>
      <trkpt lat="45.61163" lon="4.82125">
        <ele>253.44</ele>
        <time>2019-09-15T14:18:35Z</time>
      </trkpt>
      <trkpt lat="45.61156" lon="4.82137">
        <ele>255.37</ele>
        <time>2019-09-15T14:18:38Z</time>
      </trkpt>
      <trkpt lat="45.61144" lon="4.82156">
        <ele>257.77</ele>
        <time>2019-09-15T14:18:43Z</time>
      </trkpt>
      <trkpt lat="45.61125" lon="4.82174">
        <ele>260.65</ele>
        <time>2019-09-15T14:18:49Z</time>
      </trkpt>
      <trkpt lat="45.61115" lon="4.82179">
        <ele>261.14</ele>
        <time>2019-09-15T14:18:52Z</time>
      </trkpt>
      <trkpt lat="45.61111" lon="4.82189">
        <ele>262.58</ele>
        <time>2019-09-15T14:18:56Z</time>
      </trkpt>
      <trkpt lat="45.61109" lon="4.82191">
        <ele>263.06</ele>
        <time>2019-09-15T14:18:57Z</time>
      </trkpt>
      <trkpt lat="45.61097" lon="4.82199">
        <ele>263.54</ele>
        <time>2019-09-15T14:19:01Z</time>
      </trkpt>
      <trkpt lat="45.6109" lon="4.82219">
        <ele>263.54</ele>
        <time>2019-09-15T14:19:06Z</time>
      </trkpt>
      <trkpt lat="45.61061" lon="4.82269">
        <ele>263.54</ele>
        <time>2019-09-15T14:19:16Z</time>
      </trkpt>
      <trkpt lat="45.61038" lon="4.82326">
        <ele>262.1</ele>
        <time>2019-09-15T14:19:24Z</time>
      </trkpt>
      <trkpt lat="45.61003" lon="4.82369">
        <ele>260.65</ele>
        <time>2019-09-15T14:19:33Z</time>
      </trkpt>
      <trkpt lat="45.60995" lon="4.82375">
        <ele>259.21</ele>
        <time>2019-09-15T14:19:35Z</time>
      </trkpt>
      <trkpt lat="45.60991" lon="4.82375">
        <ele>258.25</ele>
        <time>2019-09-15T14:19:36Z</time>
      </trkpt>
      <trkpt lat="45.60987" lon="4.82372">
        <ele>257.77</ele>
        <time>2019-09-15T14:19:37Z</time>
      </trkpt>
      <trkpt lat="45.60984" lon="4.82367">
        <ele>257.29</ele>
        <time>2019-09-15T14:19:38Z</time>
      </trkpt>
      <trkpt lat="45.60981" lon="4.82362">
        <ele>257.77</ele>
        <time>2019-09-15T14:19:39Z</time>
      </trkpt>
      <trkpt lat="45.60977" lon="4.82356">
        <ele>257.29</ele>
        <time>2019-09-15T14:19:40Z</time>
      </trkpt>
      <trkpt lat="45.60962" lon="4.8233">
        <ele>255.85</ele>
        <time>2019-09-15T14:19:44Z</time>
      </trkpt>
      <trkpt lat="45.60958" lon="4.82323">
        <ele>255.37</ele>
        <time>2019-09-15T14:19:45Z</time>
      </trkpt>
      <trkpt lat="45.6093" lon="4.82277">
        <ele>254.89</ele>
        <time>2019-09-15T14:19:52Z</time>
      </trkpt>
      <trkpt lat="45.60926" lon="4.82271">
        <ele>254.41</ele>
        <time>2019-09-15T14:19:53Z</time>
      </trkpt>
      <trkpt lat="45.60899" lon="4.82233">
        <ele>252.96</ele>
        <time>2019-09-15T14:19:59Z</time>
      </trkpt>
      <trkpt lat="45.60894" lon="4.82226">
        <ele>252.96</ele>
        <time>2019-09-15T14:20:00Z</time>
      </trkpt>
      <trkpt lat="45.60846" lon="4.82159">
        <ele>251.04</ele>
        <time>2019-09-15T14:20:10Z</time>
      </trkpt>
      <trkpt lat="45.60841" lon="4.82153">
        <ele>251.04</ele>
        <time>2019-09-15T14:20:11Z</time>
      </trkpt>
      <trkpt lat="45.60834" lon="4.82148">
        <ele>250.56</ele>
        <time>2019-09-15T14:20:12Z</time>
      </trkpt>
      <trkpt lat="45.60828" lon="4.82145">
        <ele>250.56</ele>
        <time>2019-09-15T14:20:13Z</time>
      </trkpt>
      <trkpt lat="45.60821" lon="4.82142">
        <ele>250.08</ele>
        <time>2019-09-15T14:20:14Z</time>
      </trkpt>
      <trkpt lat="45.60814" lon="4.8214">
        <ele>249.6</ele>
        <time>2019-09-15T14:20:15Z</time>
      </trkpt>
      <trkpt lat="45.60807" lon="4.82139">
        <ele>249.6</ele>
        <time>2019-09-15T14:20:16Z</time>
      </trkpt>
      <trkpt lat="45.60758" lon="4.82128">
        <ele>247.68</ele>
        <time>2019-09-15T14:20:23Z</time>
      </trkpt>
      <trkpt lat="45.60752" lon="4.82124">
        <ele>247.2</ele>
        <time>2019-09-15T14:20:24Z</time>
      </trkpt>
      <trkpt lat="45.60749" lon="4.82117">
        <ele>247.2</ele>
        <time>2019-09-15T14:20:25Z</time>
      </trkpt>
      <trkpt lat="45.60748" lon="4.82108">
        <ele>247.68</ele>
        <time>2019-09-15T14:20:26Z</time>
      </trkpt>
      <trkpt lat="45.60747" lon="4.82099">
        <ele>247.2</ele>
        <time>2019-09-15T14:20:27Z</time>
      </trkpt>
      <trkpt lat="45.60746" lon="4.8209">
        <ele>247.2</ele>
        <time>2019-09-15T14:20:28Z</time>
      </trkpt>
      <trkpt lat="45.60746" lon="4.82082">
        <ele>248.16</ele>
        <time>2019-09-15T14:20:29Z</time>
      </trkpt>
      <trkpt lat="45.60745" lon="4.82073">
        <ele>248.16</ele>
        <time>2019-09-15T14:20:30Z</time>
      </trkpt>
      <trkpt lat="45.60744" lon="4.82056">
        <ele>249.6</ele>
        <time>2019-09-15T14:20:32Z</time>
      </trkpt>
      <trkpt lat="45.6074" lon="4.82023">
        <ele>252.48</ele>
        <time>2019-09-15T14:20:36Z</time>
      </trkpt>
      <trkpt lat="45.60737" lon="4.82016">
        <ele>252.96</ele>
        <time>2019-09-15T14:20:37Z</time>
      </trkpt>
      <trkpt lat="45.60732" lon="4.82011">
        <ele>253.44</ele>
        <time>2019-09-15T14:20:38Z</time>
      </trkpt>
      <trkpt lat="45.60726" lon="4.82008">
        <ele>253.93</ele>
        <time>2019-09-15T14:20:39Z</time>
      </trkpt>
      <trkpt lat="45.60721" lon="4.82007">
        <ele>254.41</ele>
        <time>2019-09-15T14:20:40Z</time>
      </trkpt>
      <trkpt lat="45.60663" lon="4.81998">
        <ele>252</ele>
        <time>2019-09-15T14:20:49Z</time>
      </trkpt>
      <trkpt lat="45.60601" lon="4.81988">
        <ele>249.12</ele>
        <time>2019-09-15T14:20:56Z</time>
      </trkpt>
      <trkpt lat="45.60564" lon="4.81979">
        <ele>249.6</ele>
        <time>2019-09-15T14:21:01Z</time>
      </trkpt>
      <trkpt lat="45.60559" lon="4.81974">
        <ele>249.6</ele>
        <time>2019-09-15T14:21:02Z</time>
      </trkpt>
      <trkpt lat="45.60538" lon="4.81956">
        <ele>248.64</ele>
        <time>2019-09-15T14:21:06Z</time>
      </trkpt>
      <trkpt lat="45.60532" lon="4.81953">
        <ele>248.64</ele>
        <time>2019-09-15T14:21:07Z</time>
      </trkpt>
      <trkpt lat="45.60525" lon="4.81952">
        <ele>248.64</ele>
        <time>2019-09-15T14:21:08Z</time>
      </trkpt>
      <trkpt lat="45.60518" lon="4.81953">
        <ele>247.68</ele>
        <time>2019-09-15T14:21:09Z</time>
      </trkpt>
      <trkpt lat="45.6051" lon="4.81956">
        <ele>247.2</ele>
        <time>2019-09-15T14:21:10Z</time>
      </trkpt>
      <trkpt lat="45.60485" lon="4.81964">
        <ele>245.27</ele>
        <time>2019-09-15T14:21:13Z</time>
      </trkpt>
      <trkpt lat="45.60461" lon="4.81974">
        <ele>243.83</ele>
        <time>2019-09-15T14:21:16Z</time>
      </trkpt>
      <trkpt lat="45.60455" lon="4.81973">
        <ele>243.83</ele>
        <time>2019-09-15T14:21:17Z</time>
      </trkpt>
      <trkpt lat="45.6045" lon="4.81967">
        <ele>243.35</ele>
        <time>2019-09-15T14:21:18Z</time>
      </trkpt>
      <trkpt lat="45.60447" lon="4.81958">
        <ele>243.35</ele>
        <time>2019-09-15T14:21:19Z</time>
      </trkpt>
      <trkpt lat="45.60444" lon="4.8195">
        <ele>243.35</ele>
        <time>2019-09-15T14:21:20Z</time>
      </trkpt>
      <trkpt lat="45.60436" lon="4.81925">
        <ele>242.87</ele>
        <time>2019-09-15T14:21:23Z</time>
      </trkpt>
      <trkpt lat="45.60435" lon="4.81917">
        <ele>242.39</ele>
        <time>2019-09-15T14:21:24Z</time>
      </trkpt>
      <trkpt lat="45.60434" lon="4.81908">
        <ele>242.87</ele>
        <time>2019-09-15T14:21:25Z</time>
      </trkpt>
      <trkpt lat="45.6043" lon="4.81884">
        <ele>242.87</ele>
        <time>2019-09-15T14:21:29Z</time>
      </trkpt>
      <trkpt lat="45.60428" lon="4.81878">
        <ele>243.35</ele>
        <time>2019-09-15T14:21:30Z</time>
      </trkpt>
      <trkpt lat="45.6041" lon="4.81849">
        <ele>242.39</ele>
        <time>2019-09-15T14:21:35Z</time>
      </trkpt>
      <trkpt lat="45.60396" lon="4.81833">
        <ele>241.91</ele>
        <time>2019-09-15T14:21:38Z</time>
      </trkpt>
      <trkpt lat="45.60389" lon="4.81826">
        <ele>240.47</ele>
        <time>2019-09-15T14:21:40Z</time>
      </trkpt>
      <trkpt lat="45.60389" lon="4.81821">
        <ele>240.47</ele>
        <time>2019-09-15T14:21:41Z</time>
      </trkpt>
      <trkpt lat="45.60391" lon="4.81816">
        <ele>240.47</ele>
        <time>2019-09-15T14:21:42Z</time>
      </trkpt>
      <trkpt lat="45.60408" lon="4.81763">
        <ele>240.95</ele>
        <time>2019-09-15T14:21:49Z</time>
      </trkpt>
      <trkpt lat="45.60459" lon="4.8165">
        <ele>241.91</ele>
        <time>2019-09-15T14:22:04Z</time>
      </trkpt>
      <trkpt lat="45.60477" lon="4.8161">
        <ele>241.43</ele>
        <time>2019-09-15T14:22:09Z</time>
      </trkpt>
      <trkpt lat="45.60493" lon="4.81583">
        <ele>239.99</ele>
        <time>2019-09-15T14:22:13Z</time>
      </trkpt>
      <trkpt lat="45.60498" lon="4.81583">
        <ele>240.47</ele>
        <time>2019-09-15T14:22:14Z</time>
      </trkpt>
      <trkpt lat="45.60504" lon="4.81586">
        <ele>240.47</ele>
        <time>2019-09-15T14:22:15Z</time>
      </trkpt>
      <trkpt lat="45.60508" lon="4.81593">
        <ele>240.47</ele>
        <time>2019-09-15T14:22:16Z</time>
      </trkpt>
      <trkpt lat="45.60511" lon="4.816">
        <ele>241.43</ele>
        <time>2019-09-15T14:22:17Z</time>
      </trkpt>
      <trkpt lat="45.60514" lon="4.81607">
        <ele>241.91</ele>
        <time>2019-09-15T14:22:18Z</time>
      </trkpt>
      <trkpt lat="45.60517" lon="4.81614">
        <ele>241.91</ele>
        <time>2019-09-15T14:22:19Z</time>
      </trkpt>
      <trkpt lat="45.60533" lon="4.81644">
        <ele>243.83</ele>
        <time>2019-09-15T14:22:24Z</time>
      </trkpt>
      <trkpt lat="45.60535" lon="4.81649">
        <ele>244.31</ele>
        <time>2019-09-15T14:22:25Z</time>
      </trkpt>
      <trkpt lat="45.60537" lon="4.81653">
        <ele>245.27</ele>
        <time>2019-09-15T14:22:26Z</time>
      </trkpt>
      <trkpt lat="45.60537" lon="4.81657">
        <ele>245.75</ele>
        <time>2019-09-15T14:22:27Z</time>
      </trkpt>
      <trkpt lat="45.60535" lon="4.8166">
        <ele>245.75</ele>
        <time>2019-09-15T14:22:28Z</time>
      </trkpt>
      <trkpt lat="45.60533" lon="4.81664">
        <ele>245.27</ele>
        <time>2019-09-15T14:22:29Z</time>
      </trkpt>
      <trkpt lat="45.6053" lon="4.81667">
        <ele>245.27</ele>
        <time>2019-09-15T14:22:30Z</time>
      </trkpt>
      <trkpt lat="45.60526" lon="4.81672">
        <ele>245.27</ele>
        <time>2019-09-15T14:22:31Z</time>
      </trkpt>
      <trkpt lat="45.6052" lon="4.81682">
        <ele>245.27</ele>
        <time>2019-09-15T14:22:33Z</time>
      </trkpt>
      <trkpt lat="45.60505" lon="4.81712">
        <ele>247.68</ele>
        <time>2019-09-15T14:22:39Z</time>
      </trkpt>
      <trkpt lat="45.60501" lon="4.81726">
        <ele>249.12</ele>
        <time>2019-09-15T14:22:44Z</time>
      </trkpt>
      <trkpt lat="45.60501" lon="4.81734">
        <ele>249.6</ele>
        <time>2019-09-15T14:22:55Z</time>
      </trkpt>
      <trkpt lat="45.60499" lon="4.81733">
        <ele>250.08</ele>
        <time>2019-09-15T14:23:11Z</time>
      </trkpt>
      <trkpt lat="45.60499" lon="4.81733">
        <ele>245.27</ele>
        <time>2019-09-15T14:23:22Z</time>
      </trkpt>
      <trkpt lat="45.60499" lon="4.81733">
        <ele>253.93</ele>
        <time>2019-09-15T14:23:23Z</time>
      </trkpt>
      <trkpt lat="45.60499" lon="4.81733">
        <ele>250.08</ele>
        <time>2019-09-15T14:23:24Z</time>
      </trkpt>
      <trkpt lat="45.60499" lon="4.81734">
        <ele>253.93</ele>
        <time>2019-09-15T14:23:29Z</time>
      </trkpt>
      <trkpt lat="45.60499" lon="4.81734">
        <ele>249.12</ele>
        <time>2019-09-15T14:23:30Z</time>
      </trkpt>
      <trkpt lat="45.60499" lon="4.81734">
        <ele>246.23</ele>
        <time>2019-09-15T14:23:31Z</time>
      </trkpt>
      <trkpt lat="45.60499" lon="4.81734">
        <ele>250.08</ele>
        <time>2019-09-15T14:23:32Z</time>
      </trkpt>
      <trkpt lat="45.60499" lon="4.81734">
        <ele>246.72</ele>
        <time>2019-09-15T14:23:38Z</time>
      </trkpt>
      <trkpt lat="45.60499" lon="4.81734">
        <ele>250.56</ele>
        <time>2019-09-15T14:23:40Z</time>
      </trkpt>
      <trkpt lat="45.60499" lon="4.81734">
        <ele>249.12</ele>
        <time>2019-09-15T14:23:41Z</time>
      </trkpt>
      <trkpt lat="45.60499" lon="4.81734">
        <ele>253.44</ele>
        <time>2019-09-15T14:23:48Z</time>
      </trkpt>
      <trkpt lat="45.60499" lon="4.81734">
        <ele>250.08</ele>
        <time>2019-09-15T14:23:49Z</time>
      </trkpt>
      <trkpt lat="45.60499" lon="4.81734">
        <ele>249.12</ele>
        <time>2019-09-15T14:23:51Z</time>
      </trkpt>
      <trkpt lat="45.60499" lon="4.81734">
        <ele>244.79</ele>
        <time>2019-09-15T14:23:57Z</time>
      </trkpt>
      <trkpt lat="45.60499" lon="4.81734">
        <ele>250.56</ele>
        <time>2019-09-15T14:23:58Z</time>
      </trkpt>
      <trkpt lat="45.60499" lon="4.81734">
        <ele>244.79</ele>
        <time>2019-09-15T14:24:00Z</time>
      </trkpt>
      <trkpt lat="45.60499" lon="4.81734">
        <ele>250.56</ele>
        <time>2019-09-15T14:24:01Z</time>
      </trkpt>
      <trkpt lat="45.60499" lon="4.81734">
        <ele>241.43</ele>
        <time>2019-09-15T14:24:02Z</time>
      </trkpt>
      <trkpt lat="45.60499" lon="4.81734">
        <ele>250.56</ele>
        <time>2019-09-15T14:24:03Z</time>
      </trkpt>
      <trkpt lat="45.60499" lon="4.81734">
        <ele>244.79</ele>
        <time>2019-09-15T14:24:06Z</time>
      </trkpt>
      <trkpt lat="45.60499" lon="4.81734">
        <ele>249.6</ele>
        <time>2019-09-15T14:24:07Z</time>
      </trkpt>
    </trkseg>
  </trk>
</gpx>